# Wetter Temperatur Luftdruck Luftfeuchtigkeit Sichtweite Windgeschwindigkeit Windrichtung Zeit
1 Rain 5 1010 93 10000 4.6 50 19:57 17.10.2019
2 Rain 5 1010 93 10000 4.6 50 19:38 17.10.2019
3 Rain 5 1010 93 10000 6.2 50 19:19 17.10.2019
4 Clouds 5 1010 93 10000 5.1 50 18:43 17.10.2019
5 Clouds 5 1009 93 10000 4.6 50 18:21 17.10.2019
6 Clouds 5 1009 93 10000 4.6 50 17:58 17.10.2019
7 Clouds 5 1009 93 10000 5.7 50 17:40 17.10.2019
8 Clouds 5 1009 93 10000 5.7 60 17:22 17.10.2019
9 Clouds 5 1009 93 9000 5.1 60 16:56 17.10.2019
10 Clouds 5 1009 93 9000 5.1 60 16:37 17.10.2019
11 Clouds 5 1009 93 9000 5.1 60 16:37 17.10.2019
12 Clouds 5 1009 93 9000 5.7 60 16:18 17.10.2019
13 Clouds 5 1009 93 8000 5.1 60 15:55 17.10.2019
14 Clouds 5 1009 93 8000 5.1 60 15:37 17.10.2019
15 Drizzle 5 1008 93 7000 5.7 50 15:18 17.10.2019
16 Clouds 5 1008 93 9000 5.1 60 14:42 17.10.2019
17 Clouds 5 1008 100 10000 5.7 60 14:23 17.10.2019
18 Clouds 5 1008 100 10000 5.7 60 14:23 17.10.2019
19 Clouds 4 1008 100 10000 5.7 60 13:55 17.10.2019
20 Clouds 4 1008 100 10000 5.7 60 13:36 17.10.2019
21 Clouds 4 1008 100 10000 5.7 60 13:18 17.10.2019
22 Clouds 4 1008 100 10000 5.7 50 12:41 17.10.2019
23 Clouds 4 1008 93 10000 5.7 50 12:20 17.10.2019
24 Clouds 4 1008 100 10000 7.2 60 11:58 17.10.2019
25 Clouds 4 1008 100 10000 7.2 60 11:40 17.10.2019
26 Rain 4 1008 93 10000 6.7 50 11:19 17.10.2019
27 Rain 4 1008 93 8000 5.7 50 10:54 17.10.2019
28 Rain 4 1008 93 8000 5.7 50 10:54 17.10.2019
29 Rain 4 1008 93 8000 5.7 50 10:54 17.10.2019
30 Rain 4 1008 93 8000 5.7 50 10:36 17.10.2019
31 Rain 4 1008 93 6000 5.7 60 10:18 17.10.2019
32 Rain 4 1008 93 6000 5.7 60 10:18 17.10.2019
33 Rain 4 1008 93 6000 5.7 60 10:18 17.10.2019
34 Rain 4 1008 93 5000 6.2 50 09:41 17.10.2019
35 Drizzle 4 1008 93 5000 6.2 50 09:21 17.10.2019
36 Drizzle 4 1008 93 4000 6.2 50 08:58 17.10.2019
37 Drizzle 4 1008 93 4000 6.2 50 08:39 17.10.2019
38 Drizzle 4 1008 93 4000 6.2 50 08:20 17.10.2019
39 Drizzle 4 1008 93 3000 5.7 50 07:55 17.10.2019
40 Drizzle 4 1008 93 3000 5.7 50 07:54 17.10.2019
41 Drizzle 4 1008 93 3000 5.7 50 07:36 17.10.2019
42 Drizzle 4 1008 93 5000 6.2 60 07:18 17.10.2019
43 Drizzle 4 1008 93 5000 5.7 60 06:39 17.10.2019
44 Drizzle 4 1008 93 6000 6.2 60 06:20 17.10.2019
45 Drizzle 4 1008 93 10000 6.2 60 05:49 17.10.2019
46 Drizzle 4 1008 100 6000 6.2 50 05:30 17.10.2019
47 Drizzle 4 1008 100 9000 6.2 50 04:51 17.10.2019
48 Drizzle 4 1009 100 7000 5.1 60 03:54 17.10.2019
49 Drizzle 4 1009 100 7000 5.7 50 02:36 17.10.2019
50 Clouds 4 1009 100 10000 5.1 50 00:56 17.10.2019
51 Clouds 4 1009 100 10000 5.1 50 00:38 17.10.2019
52 Drizzle 4 1009 100 10000 5.1 50 00:18 17.10.2019
53 Rain 4 1009 100 10000 6.2 50 23:42 16.10.2019
54 Rain 4 1009 100 10000 5.7 50 23:20 16.10.2019
55 Rain 4 1009 100 10000 5.1 50 22:55 16.10.2019
56 Rain 4 1009 100 10000 5.1 50 22:36 16.10.2019
57 Rain 4 1009 100 10000 5.7 50 22:18 16.10.2019
58 Drizzle 4 1010 100 5000 5.1 40 21:55 16.10.2019
59 Drizzle 4 1010 100 5000 5.1 40 21:37 16.10.2019
60 Drizzle 4 1010 100 5000 5.7 40 21:18 16.10.2019
61 Drizzle 4 1010 100 5000 5.7 40 21:18 16.10.2019
62 Drizzle 4 1010 100 6000 5.7 50 20:56 16.10.2019
63 Drizzle 4 1010 100 6000 5.7 50 20:38 16.10.2019
64 Drizzle 4 1010 100 4000 5.7 40 20:20 16.10.2019
65 Drizzle 4 1010 100 4000 5.7 40 20:20 16.10.2019
66 Drizzle 4 1010 100 3500 5.7 50 19:43 16.10.2019
67 Drizzle 4 1010 100 3500 5.7 50 19:21 16.10.2019
68 Drizzle 4 1010 100 3500 5.7 50 18:59 16.10.2019
69 Drizzle 4 1010 100 4000 5.7 50 18:39 16.10.2019
70 Drizzle 4 1010 100 4500 5.7 50 18:19 16.10.2019
71 Drizzle 4 1010 100 4500 5.7 50 17:56 16.10.2019
72 Drizzle 4 1010 100 6000 5.1 50 17:38 16.10.2019
73 Drizzle 4 1010 100 3000 5.7 50 17:19 16.10.2019
74 Drizzle 4 1010 100 3000 5.7 50 16:58 16.10.2019
75 Drizzle 4 1010 100 3000 5.1 40 16:38 16.10.2019
76 Drizzle 4 1010 100 3000 5.1 40 16:20 16.10.2019
77 Drizzle 4 1010 100 4000 5.1 40 15:54 16.10.2019
78 Drizzle 4 1010 100 4000 5.1 40 15:54 16.10.2019
79 Drizzle 4 1010 100 4000 5.1 40 15:54 16.10.2019
80 -273 0 0 0 0 0 15:54 16.10.2019
81 Drizzle 5 1010 100 4000 5.1 40 15:36 16.10.2019
82 Drizzle 5 1010 100 4500 5.1 40 15:18 16.10.2019
83 Drizzle 5 1010 100 4500 5.1 40 15:18 16.10.2019
84 Drizzle 5 1010 100 4500 5.1 40 14:55 16.10.2019
85 Drizzle 5 1010 100 4500 5.1 40 14:36 16.10.2019
86 Drizzle 6 1010 100 4500 5.1 30 14:18 16.10.2019
87 Drizzle 6 1010 93 10000 4.6 30 13:42 16.10.2019
88 Drizzle 6 1011 93 10000 4.6 30 13:23 16.10.2019
89 Clouds 7 1011 93 10000 5.1 80 12:44 16.10.2019
90 Clouds 7 1011 93 10000 4.6 80 12:20 16.10.2019
91 Clouds 7 1011 93 10000 4.6 80 11:59 16.10.2019
92 Clouds 7 1011 93 10000 4.1 70 11:41 16.10.2019
93 Rain 7 1012 93 10000 4.6 70 11:18 16.10.2019
94 Rain 7 1012 93 10000 4.6 80 10:37 16.10.2019
95 Drizzle 7 1012 93 10000 5.7 80 10:19 16.10.2019
96 Clouds 7 1012 93 10000 5.1 80 09:54 16.10.2019
97 Clouds 7 1012 93 10000 5.1 80 09:36 16.10.2019
98 Clouds 7 1013 87 10000 5.7 80 09:18 16.10.2019
99 Clouds 6 1013 93 10000 4.6 80 08:42 16.10.2019
100 Clouds 6 1013 93 10000 5.1 80 08:23 16.10.2019
101 Drizzle 6 1014 93 8000 5.7 90 07:45 16.10.2019
102 Drizzle 6 1014 93 3000 5.7 90 07:25 16.10.2019
103 Drizzle 6 1014 93 3000 5.7 90 07:24 16.10.2019
104 Drizzle 6 1014 93 5000 5.1 90 06:58 16.10.2019
105 Drizzle 6 1014 93 5000 5.1 90 06:39 16.10.2019
106 Clouds 6 1015 87 10000 6.2 90 05:44 16.10.2019
107 Rain 6 1018 93 10000 5.1 60 02:58 16.10.2019
108 Rain 5 1018 93 10000 5.1 60 02:38 16.10.2019
109 Rain 5 1019 93 10000 4.6 70 01:19 16.10.2019
110 Rain 5 1020 86 10000 4.1 80 00:47 16.10.2019
111 Rain 5 1020 86 10000 4.1 80 00:27 16.10.2019
112 Rain 5 1020 86 10000 4.6 60 23:40 15.10.2019
113 Clouds 5 1020 86 10000 4.1 70 23:21 15.10.2019
114 Clouds 5 1021 86 10000 4.1 70 22:56 15.10.2019
115 Rain 5 1021 86 10000 4.1 70 22:37 15.10.2019
116 Rain 5 1021 86 10000 3.6 90 22:19 15.10.2019
117 Rain 5 1021 86 10000 3.6 90 21:55 15.10.2019
118 Rain 5 1021 86 10000 4.6 100 21:37 15.10.2019
119 Rain 5 1021 80 10000 4.6 120 21:19 15.10.2019
120 Rain 5 1022 80 10000 2.6 120 20:57 15.10.2019
121 Rain 5 1022 80 10000 2.6 120 20:39 15.10.2019
122 Rain 5 1022 80 10000 3.1 90 20:20 15.10.2019
123 Rain 5 1021 80 10000 3.6 80 19:56 15.10.2019
124 Rain 5 1021 80 10000 3.6 80 19:56 15.10.2019
125 Rain 5 1021 80 10000 3.6 80 19:56 15.10.2019
126 Rain 5 1021 80 10000 3.6 80 19:37 15.10.2019
127 Rain 5 1021 80 10000 4.6 80 19:19 15.10.2019
128 Rain 5 1022 80 10000 3.6 60 18:44 15.10.2019
129 Rain 5 1022 80 10000 3.6 60 18:26 15.10.2019
130 Clouds 5 1022 80 10000 3.6 70 17:56 15.10.2019
131 Clouds 5 1022 80 10000 3.6 70 17:38 15.10.2019
132 Clouds 5 1022 80 10000 3.1 70 17:19 15.10.2019
133 Clouds 5 1022 86 10000 3.1 60 16:45 15.10.2019
134 Clouds 5 1022 86 10000 3.1 60 16:45 15.10.2019
135 Clouds 6 1022 75 10000 2.6 80 16:22 15.10.2019
136 Clouds 6 1022 81 10000 2.6 80 15:58 15.10.2019
137 Clouds 6 1022 81 10000 2.6 80 15:40 15.10.2019
138 Clouds 6 1022 81 10000 2.6 80 15:40 15.10.2019
139 Clouds 6 1022 75 10000 3.1 90 15:20 15.10.2019
140 Clouds 6 1022 75 10000 3.6 100 14:57 15.10.2019
141 Clouds 6 1022 75 10000 3.6 100 14:37 15.10.2019
142 Clouds 6 1022 70 10000 3.1 100 14:19 15.10.2019
143 Clouds 6 1023 70 10000 3.1 120 13:43 15.10.2019
144 Clouds 6 1023 70 10000 4.1 120 13:21 15.10.2019
145 Clouds 6 1023 70 10000 4.1 120 12:59 15.10.2019
146 Clouds 6 1023 70 10000 4.1 120 12:59 15.10.2019
147 Clouds 5 1023 70 10000 2.6 110 12:38 15.10.2019
148 Clouds 5 1023 69 10000 2.6 120 12:20 15.10.2019
149 Clouds 5 1023 75 10000 2.1 140 11:44 15.10.2019
150 Clouds 4 1023 79 0 2.724 123 11:20 15.10.2019
151 Clouds 3 1023 89 0 1.44 153.31 10:57 15.10.2019
152 Clear 2 1022 79 10000 0.5 0 10:39 15.10.2019
153 Clear 2 1022 79 10000 0.5 0 10:19 15.10.2019
154 Clear 2 1022 79 10000 0.5 0 09:56 15.10.2019
155 Clear 1 1022 89 10000 0.5 0 09:37 15.10.2019
156 Clear 0 1022 89 10000 1.5 40 09:19 15.10.2019
157 Clear -1 1022 92 10000 0.5 0 08:41 15.10.2019
158 Clear -2 1021 100 10000 0.87 63.849 08:21 15.10.2019
159 -273 0 0 0 0 0 07:55 15.10.2019
160 Fog -3 1021 92 10000 0.5 0 07:36 15.10.2019
161 Fog -2 1021 100 10000 1 350 07:18 15.10.2019
162 Fog -2 1021 100 10000 0.5 0 06:43 15.10.2019
163 Fog -2 1021 100 10000 1.16 307.266 06:20 15.10.2019
164 Fog -1 1021 100 10000 1 270 05:37 15.10.2019
165 Fog -1 1020 92 10000 1 320 04:54 15.10.2019
166 Fog -1 1020 100 10000 1.16 307.266 04:20 15.10.2019
167 Clear -1 1019 100 10000 2.1 320 03:35 15.10.2019
168 Clear -1 1019 100 10000 2.1 320 03:35 15.10.2019
169 Clear -1 1018 100 10000 1.5 270 02:19 15.10.2019
170 Clouds 0 1018 100 10000 1.5 300 01:41 15.10.2019
171 Clouds 0 1017 93 10000 1.5 330 01:18 15.10.2019
172 Clouds 1 1016 94 10000 2.1 350 00:26 15.10.2019
173 Clouds 1 1016 94 10000 2.1 350 23:59 14.10.2019
174 Clouds 1 1016 100 10000 2.1 340 23:38 14.10.2019
175 Clouds 1 1016 93 10000 2.6 340 23:19 14.10.2019
176 Clouds 1 1015 93 10000 2.1 340 22:40 14.10.2019
177 Clouds 2 1015 93 10000 2.1 340 22:21 14.10.2019
178 Clouds 1 1015 93 10000 2.1 340 21:59 14.10.2019
179 Clouds 2 1014 100 10000 3.1 330 21:40 14.10.2019
180 Clouds 1 1014 100 10000 3.1 330 21:40 14.10.2019
181 Clouds 2 1014 93 10000 2.1 340 21:21 14.10.2019
182 Clouds 2 1013 93 10000 2.6 330 20:58 14.10.2019
183 Clouds 3 1013 93 10000 2.6 330 20:38 14.10.2019
184 Clouds 3 1012 100 10000 2.6 350 20:19 14.10.2019
185 Clouds 3 1012 93 10000 3.1 350 19:56 14.10.2019
186 Clouds 3 1012 93 10000 3.1 350 19:37 14.10.2019
187 Clouds 4 1011 93 10000 3.1 360 19:19 14.10.2019
188 Clouds 4 1011 93 10000 3.1 360 18:57 14.10.2019
189 Clouds 4 1011 93 10000 4.1 360 18:37 14.10.2019
190 Clouds 5 1010 93 10000 3.6 360 18:18 14.10.2019
191 Clouds 5 1009 93 10000 4.1 10 17:41 14.10.2019
192 Clouds 5 1008 86 10000 4.1 10 17:23 14.10.2019
193 Clouds 5 1007 86 10000 4.6 20 16:54 14.10.2019
194 Clouds 5 1007 86 10000 4.6 20 16:54 14.10.2019
195 Clouds 5 1007 86 10000 4.6 20 16:36 14.10.2019
196 Clouds 5 1006 93 10000 5.1 30 16:18 14.10.2019
197 Clouds 5 1006 93 10000 6.2 40 15:41 14.10.2019
198 Rain 5 1006 93 10000 6.7 30 15:21 14.10.2019
199 Rain 6 1005 93 10000 7.2 40 14:44 14.10.2019
200 Rain 6 1005 93 10000 7.2 40 14:44 14.10.2019
201 Rain 6 1005 100 10000 6.2 30 14:25 14.10.2019
202 Rain 6 1005 100 10000 6.2 30 13:58 14.10.2019
203 Rain 6 1005 100 9000 6.2 30 13:40 14.10.2019
204 Rain 6 1005 100 5000 6.2 30 13:21 14.10.2019
205 Rain 6 1005 93 4500 6.2 40 12:42 14.10.2019
206 Rain 6 1005 93 4500 5.7 40 12:21 14.10.2019
207 Rain 6 1005 93 8000 5.7 50 11:55 14.10.2019
208 Rain 6 1005 93 8000 5.7 50 11:54 14.10.2019
209 Rain 6 1005 93 8000 5.7 50 11:36 14.10.2019
210 Rain 6 1005 93 10000 5.1 50 11:18 14.10.2019
211 Rain 6 1006 93 10000 5.1 60 10:43 14.10.2019
212 Rain 6 1006 100 9000 4.6 50 10:21 14.10.2019
213 Rain 6 1006 100 9000 4.6 50 10:21 14.10.2019
214 Rain 5 1007 93 9000 5.1 60 09:57 14.10.2019
215 Rain 5 1007 93 9000 5.1 60 09:38 14.10.2019
216 Rain 5 1007 93 10000 4.6 60 09:19 14.10.2019
217 Rain 4 1007 100 10000 4.6 60 08:46 14.10.2019
218 Rain 5 1008 100 10000 4.1 60 08:23 14.10.2019
219 Rain 4 1008 100 10000 3.6 60 07:44 14.10.2019
220 Rain 3 1008 93 10000 3.6 70 07:21 14.10.2019
221 Clouds 4 1009 93 10000 3.6 70 06:54 14.10.2019
222 Clouds 3 1009 86 10000 4.1 60 06:27 14.10.2019
223 Clouds 2 1009 93 10000 3.6 70 05:51 14.10.2019
224 Clouds 1 1010 100 10000 1.5 70 04:50 14.10.2019
225 Clouds 1 1011 89 10000 2.1 60 03:48 14.10.2019
226 Clouds 1 1011 94 10000 2.1 50 03:21 14.10.2019
227 Clouds 1 1012 94 10000 1.5 80 01:36 14.10.2019
228 Clouds 1 1012 94 10000 1 100 01:18 14.10.2019
229 Clouds 2 1012 100 10000 1 0 00:23 14.10.2019
230 Clouds 2 1012 93 10000 1.5 220 23:46 13.10.2019
231 Clouds 2 1012 100 10000 1.82 270.662 23:21 13.10.2019
232 Clouds 2 1012 93 10000 1.5 240 23:00 13.10.2019
233 Clouds 3 1012 93 10000 1.5 240 22:41 13.10.2019
234 Clouds 3 1011 100 10000 1.5 270 22:22 13.10.2019
235 Clouds 3 1011 100 10000 1.5 270 22:22 13.10.2019
236 Clouds 3 1011 100 10000 1.5 270 21:58 13.10.2019
237 Clouds 3 1011 93 10000 2.6 250 21:39 13.10.2019
238 Clouds 4 1011 93 10000 2.1 260 21:19 13.10.2019
239 Clear 4 1010 86 10000 2.6 270 20:58 13.10.2019
240 Clear 4 1010 86 10000 2.6 270 20:40 13.10.2019
241 Clouds 4 1010 80 10000 3.1 270 20:21 13.10.2019
242 Clouds 5 1010 80 10000 3.1 270 20:00 13.10.2019
243 Clouds 5 1009 81 10000 4.1 290 19:39 13.10.2019
244 Clouds 6 1009 75 10000 5.1 300 19:21 13.10.2019
245 Clouds 7 1009 87 10000 3.6 280 18:59 13.10.2019
246 Clouds 7 1009 87 10000 3.6 280 18:59 13.10.2019
247 Clouds 7 1009 87 10000 3.6 280 18:58 13.10.2019
248 Clouds 7 1009 87 10000 3.6 280 18:58 13.10.2019
249 Clouds 7 1009 87 10000 3.6 280 18:38 13.10.2019
250 Clouds 7 1009 87 10000 3.6 280 18:38 13.10.2019
251 Clouds 7 1008 81 10000 3.6 250 18:19 13.10.2019
252 Clouds 7 1007 75 10000 4.1 250 17:58 13.10.2019
253 Clouds 8 1007 75 10000 4.1 250 17:39 13.10.2019
254 Clouds 8 1007 70 10000 4.6 260 17:21 13.10.2019
255 Clouds 9 1006 70 10000 5.1 270 16:43 13.10.2019
256 Clouds 9 1006 66 10000 4.6 270 16:19 13.10.2019
257 -273 0 0 0 0 0 15:57 13.10.2019
258 Clouds 9 1006 70 10000 6.2 290 15:57 13.10.2019
259 Clouds 9 1006 70 10000 6.2 290 15:57 13.10.2019
260 Clouds 9 1006 70 10000 6.2 290 15:38 13.10.2019
261 Clouds 10 1005 66 10000 7.7 290 15:19 13.10.2019
262 Clouds 10 1004 71 10000 7.7 290 14:57 13.10.2019
263 Clouds 10 1004 71 10000 7.7 290 14:38 13.10.2019
264 Clouds 10 1004 66 10000 7.2 290 14:19 13.10.2019
265 Clouds 10 1003 66 10000 6.2 260 13:42 13.10.2019
266 Clouds 10 1003 66 10000 6.2 260 13:42 13.10.2019
267 Clouds 10 1002 76 10000 6.7 260 13:23 13.10.2019
268 Clouds 10 1002 81 10000 5.7 260 12:59 13.10.2019
269 Clouds 10 1002 81 10000 5.7 260 12:39 13.10.2019
270 Clouds 11 1002 81 10000 6.2 260 12:21 13.10.2019
271 Clouds 10 1002 81 10000 6.2 260 11:59 13.10.2019
272 Clouds 11 1001 81 10000 5.7 260 11:39 13.10.2019
273 Clouds 11 1001 81 10000 5.1 260 11:20 13.10.2019
274 Clouds 10 1000 87 10000 3.6 260 10:57 13.10.2019
275 Clouds 10 1000 87 10000 3.6 260 10:38 13.10.2019
276 Clouds 10 1000 93 10000 3.6 240 10:20 13.10.2019
277 Clouds 10 999 93 10000 3.6 230 09:39 13.10.2019
278 Rain 9 999 100 10000 3.6 230 09:21 13.10.2019
279 Clouds 9 999 93 10000 3.1 240 08:44 13.10.2019
280 Clouds 9 998 93 10000 3.1 240 08:26 13.10.2019
281 Clouds 8 998 100 10000 2.6 230 07:52 13.10.2019
282 Clouds 8 998 100 10000 2.6 230 07:33 13.10.2019
283 Rain 8 998 100 10000 3.1 240 06:53 13.10.2019
284 Rain 8 998 100 10000 3.1 240 06:24 13.10.2019
285 Clouds 7 997 93 10000 1.5 220 05:21 13.10.2019
286 Clouds 7 997 100 10000 1 0 04:34 13.10.2019
287 Clouds 7 997 100 10000 1 0 04:34 13.10.2019
288 Clouds 7 997 93 10000 2.1 190 03:24 13.10.2019
289 Clouds 7 997 93 10000 2.1 220 02:30 13.10.2019
290 Clouds 8 997 93 10000 2.6 200 01:36 13.10.2019
291 Clouds 8 997 93 10000 2.6 200 01:36 13.10.2019
292 Clouds 8 997 93 10000 2.1 210 00:55 13.10.2019
293 Clouds 8 997 93 10000 2.1 210 00:37 13.10.2019
294 Clouds 8 997 93 10000 2.1 210 00:37 13.10.2019
295 Clouds 8 997 93 10000 2.6 210 00:18 13.10.2019
296 Clouds 8 997 93 10000 3.1 200 23:41 12.10.2019
297 Clouds 8 997 93 10000 3.6 210 23:22 12.10.2019
298 Clouds 8 997 93 10000 2.1 210 22:58 12.10.2019
299 Clouds 8 997 93 10000 2.1 210 22:40 12.10.2019
300 Clouds 8 997 93 10000 2.1 210 22:40 12.10.2019
301 Clouds 8 996 93 10000 1 230 22:22 12.10.2019
302 Clouds 8 996 93 10000 1 230 22:22 12.10.2019
303 Clouds 8 996 93 10000 2.6 220 21:57 12.10.2019
304 Clouds 8 996 93 10000 2.6 220 21:39 12.10.2019
305 Clouds 8 996 93 10000 2.6 240 21:20 12.10.2019
306 Clouds 8 996 93 10000 2.1 250 20:46 12.10.2019
307 Clouds 8 996 93 10000 2.1 250 20:46 12.10.2019
308 Clouds 8 996 93 10000 3.1 250 20:28 12.10.2019
309 -273 0 0 0 0 0 19:57 12.10.2019
310 Clouds 8 996 93 10000 3.1 260 19:36 12.10.2019
311 Clouds 8 995 93 10000 3.6 270 19:18 12.10.2019
312 Rain 8 995 100 10000 4.1 270 18:41 12.10.2019
313 Rain 8 994 93 10000 3.6 280 18:23 12.10.2019
314 Rain 9 994 93 10000 3.6 280 17:45 12.10.2019
315 Rain 9 993 93 10000 5.1 260 17:21 12.10.2019
316 Rain 9 993 93 10000 5.1 260 16:58 12.10.2019
317 Rain 9 993 93 10000 4.6 270 16:58 12.10.2019
318 Rain 9 993 93 10000 4.6 270 16:40 12.10.2019
319 Rain 9 992 100 10000 5.7 260 16:20 12.10.2019
320 Rain 10 991 87 10000 6.2 250 15:46 12.10.2019
321 Rain 10 991 87 10000 6.2 260 15:27 12.10.2019
322 Rain 10 990 81 10000 6.7 260 14:59 12.10.2019
323 Rain 10 990 81 10000 6.7 260 14:38 12.10.2019
324 Rain 10 989 81 10000 6.2 260 14:20 12.10.2019
325 Rain 10 989 87 10000 7.7 270 13:49 12.10.2019
326 Rain 10 989 93 10000 5.7 260 13:31 12.10.2019
327 Rain 10 988 87 10000 5.7 260 12:55 12.10.2019
328 Rain 10 988 87 10000 5.7 260 12:37 12.10.2019
329 Clouds 10 988 87 10000 6.2 260 12:18 12.10.2019
330 Rain 10 987 87 10000 5.7 260 11:41 12.10.2019
331 Rain 10 987 87 10000 5.7 260 11:22 12.10.2019
332 Rain 10 987 93 10000 5.7 260 10:57 12.10.2019
333 Rain 10 987 93 10000 5.7 260 10:38 12.10.2019
334 Rain 9 987 93 8000 3.6 250 10:19 12.10.2019
335 Rain 9 987 93 10000 4.1 250 09:56 12.10.2019
336 Rain 9 987 93 10000 4.1 250 09:56 12.10.2019
337 Rain 9 987 93 10000 4.1 250 09:37 12.10.2019
338 Rain 9 987 93 8000 4.1 250 09:19 12.10.2019
339 Rain 9 986 93 5000 3.1 240 08:42 12.10.2019
340 Rain 8 986 100 5000 1.5 330 08:22 12.10.2019
341 Rain 8 987 100 2000 3.6 240 07:40 12.10.2019
342 Fog 8 986 93 800 1 0 07:22 12.10.2019
343 Rain 9 987 93 10000 2.6 130 05:54 12.10.2019
344 Rain 9 988 100 10000 2.6 140 05:25 12.10.2019
345 Rain 9 989 100 6000 1 0 04:29 12.10.2019
346 Rain 9 990 100 6000 1 0 03:46 12.10.2019
347 Rain 10 992 100 5000 3.1 210 02:37 12.10.2019
348 Rain 9 993 100 6000 4.6 180 01:31 12.10.2019
349 Rain 9 993 93 7000 3.1 180 00:44 12.10.2019
350 Rain 9 994 100 3000 4.1 160 00:24 12.10.2019
351 Rain 9 994 100 3500 3.6 150 23:41 11.10.2019
352 Rain 9 995 100 3500 3.1 180 23:21 11.10.2019
353 Rain 9 995 100 3500 3.1 180 22:59 11.10.2019
354 Rain 9 995 93 6000 4.1 170 22:37 11.10.2019
355 Rain 9 995 93 6000 4.1 170 22:37 11.10.2019
356 Rain 9 995 93 10000 4.1 180 22:18 11.10.2019
357 Rain 9 996 93 10000 2.1 200 21:40 11.10.2019
358 Rain 9 996 93 8000 6.7 210 21:21 11.10.2019
359 Rain 9 997 100 7000 5.1 200 20:54 11.10.2019
360 Rain 9 997 100 7000 5.1 200 20:54 11.10.2019
361 Rain 9 997 100 7000 5.1 200 20:36 11.10.2019
362 Rain 8 997 93 10000 3.6 180 20:18 11.10.2019
363 Clouds 8 997 93 10000 3.6 190 19:54 11.10.2019
364 Clouds 8 997 93 10000 3.6 190 19:54 11.10.2019
365 Clouds 8 997 100 10000 3.6 180 19:36 11.10.2019
366 Clouds 8 997 100 10000 3.6 180 19:18 11.10.2019
367 Clouds 8 997 100 10000 3.6 180 19:18 11.10.2019
368 Clouds 8 997 100 10000 3.6 180 19:18 11.10.2019
369 Rain 8 997 93 10000 4.1 200 18:39 11.10.2019
370 Rain 9 998 93 10000 3.6 190 18:19 11.10.2019
371 Rain 9 998 93 10000 4.6 200 17:59 11.10.2019
372 Rain 9 998 93 10000 4.6 200 17:38 11.10.2019
373 Rain 9 998 93 10000 5.1 210 17:20 11.10.2019
374 Rain 9 998 93 10000 5.1 210 16:59 11.10.2019
375 Rain 10 998 87 10000 6.2 220 16:39 11.10.2019
376 Rain 10 998 87 10000 6.2 220 16:39 11.10.2019
377 Rain 10 998 87 10000 6.2 210 16:19 11.10.2019
378 Rain 10 998 81 10000 6.7 210 15:55 11.10.2019
379 Clouds 11 998 81 10000 6.7 210 15:36 11.10.2019
380 Rain 11 999 81 10000 5.1 220 15:18 11.10.2019
381 Rain 11 999 81 10000 5.1 220 15:18 11.10.2019
382 Rain 11 998 87 10000 3.6 220 14:42 11.10.2019
383 Clouds 11 999 87 10000 3.6 210 14:23 11.10.2019
384 Rain 11 999 87 10000 4.1 210 13:47 11.10.2019
385 Rain 11 999 93 7000 3.6 230 13:26 11.10.2019
386 Rain 11 999 87 10000 4.6 220 12:58 11.10.2019
387 Rain 11 999 87 10000 4.6 220 12:40 11.10.2019
388 Clouds 11 999 87 10000 4.1 230 12:21 11.10.2019
389 -273 0 0 0 0 0 11:59 11.10.2019
390 Clouds 10 999 93 10000 4.6 230 11:39 11.10.2019
391 Clouds 10 999 93 10000 4.1 230 11:21 11.10.2019
392 Clouds 10 999 93 10000 4.6 210 10:56 11.10.2019
393 Clouds 10 999 93 10000 4.6 180 10:37 11.10.2019
394 Clouds 10 999 93 10000 4.6 180 10:18 11.10.2019
395 Clouds 10 999 93 10000 4.6 180 10:18 11.10.2019
396 Clouds 9 999 93 10000 3.6 190 09:42 11.10.2019
397 Rain 9 999 93 10000 4.6 190 09:21 11.10.2019
398 Clouds 9 999 93 10000 4.6 200 08:59 11.10.2019
399 Clouds 8 999 93 10000 4.6 200 08:39 11.10.2019
400 Clouds 8 999 93 10000 4.1 190 08:20 11.10.2019
401 Clouds 8 999 93 10000 4.1 180 07:54 11.10.2019
402 Clouds 8 999 93 10000 4.1 190 07:34 11.10.2019
403 Rain 8 999 87 10000 4.1 190 06:50 11.10.2019
404 Rain 8 999 93 10000 4.1 190 06:25 11.10.2019
405 Clouds 8 999 93 10000 3.6 190 05:48 11.10.2019
406 Clouds 8 999 93 10000 3.6 190 05:30 11.10.2019
407 Rain 8 999 100 10000 2.6 190 04:58 11.10.2019
408 Clouds 7 999 93 10000 2.6 160 03:45 11.10.2019
409 Clouds 6 1000 100 10000 2.6 130 01:28 11.10.2019
410 Clouds 6 1000 100 10000 2.1 140 00:41 11.10.2019
411 Clouds 6 1000 100 10000 1.5 110 00:20 11.10.2019
412 Clouds 6 1000 100 10000 1.5 110 00:20 11.10.2019
413 Clouds 6 1000 100 10000 0.5 0 23:41 10.10.2019
414 Clouds 6 1000 100 10000 1 110 23:20 10.10.2019
415 Clouds 5 1000 100 10000 0.5 0 22:56 10.10.2019
416 Clouds 5 1000 100 10000 0.5 0 22:36 10.10.2019
417 Clouds 5 1000 100 10000 1.5 230 22:18 10.10.2019
418 Clouds 5 1000 100 10000 1.5 230 22:18 10.10.2019
419 Clouds 5 1000 100 10000 1.5 110 21:42 10.10.2019
420 Fog 5 1000 100 10000 1 0 21:22 10.10.2019
421 Fog 5 1000 100 10000 1 0 20:59 10.10.2019
422 Fog 5 1000 100 10000 1 0 20:59 10.10.2019
423 Fog 5 1000 100 200 1 0 20:40 10.10.2019
424 Fog 5 1000 100 10000 1.63 181.092 20:20 10.10.2019
425 Fog 6 1000 100 10000 1.63 181.092 19:57 10.10.2019
426 Fog 6 1000 100 10000 1.63 181.092 19:39 10.10.2019
427 Fog 6 1000 100 10000 1.5 50 19:19 10.10.2019
428 Clouds 6 1000 100 10000 1.5 30 18:54 10.10.2019
429 Clouds 7 1000 100 10000 1.5 30 18:36 10.10.2019
430 Clouds 7 1000 100 10000 1 0 18:18 10.10.2019
431 Clouds 8 1000 93 10000 1 0 17:40 10.10.2019
432 Clouds 9 1000 87 10000 1 60 17:19 10.10.2019
433 Clouds 9 1000 87 10000 0.5 0 16:57 10.10.2019
434 Clouds 9 1000 87 10000 0.5 0 16:38 10.10.2019
435 Clouds 9 1000 87 10000 1 0 16:20 10.10.2019
436 Clouds 9 1000 87 10000 1.5 110 15:42 10.10.2019
437 Clouds 9 1000 87 10000 2.1 120 15:23 10.10.2019
438 Clouds 9 1000 87 10000 1.5 130 14:59 10.10.2019
439 Clouds 9 1000 87 10000 1.5 130 14:37 10.10.2019
440 Clouds 9 1000 87 10000 1.5 130 14:19 10.10.2019
441 Clouds 9 1000 87 10000 1.5 150 13:58 10.10.2019
442 Clouds 9 1000 87 10000 1.5 150 13:39 10.10.2019
443 Clouds 9 1000 87 10000 3.6 130 13:18 10.10.2019
444 Clouds 9 1000 87 10000 2.1 100 12:42 10.10.2019
445 Clouds 9 1000 87 10000 2.1 100 12:42 10.10.2019
446 Clouds 8 1000 93 10000 2.1 90 12:21 10.10.2019
447 Clouds 8 1000 87 10000 2.1 60 11:58 10.10.2019
448 Clouds 8 1000 87 10000 2.1 60 11:40 10.10.2019
449 Clouds 7 1000 93 10000 2.1 50 11:19 10.10.2019
450 Clouds 7 1000 93 10000 2.1 50 10:47 10.10.2019
451 Clouds 7 1000 93 10000 2.1 50 10:47 10.10.2019
452 Clouds 6 1000 93 10000 2.1 50 10:28 10.10.2019
453 Clouds 6 1000 93 10000 2.1 50 10:28 10.10.2019
454 Clouds 6 1000 100 10000 1.5 60 09:59 10.10.2019
455 Clouds 5 1000 100 10000 1.5 60 09:41 10.10.2019
456 Clouds 5 1000 93 10000 1.5 40 09:23 10.10.2019
457 Clouds 5 1000 93 10000 1.5 40 08:59 10.10.2019
458 Clouds 4 1000 100 10000 2.1 20 08:40 10.10.2019
459 Clouds 4 1000 93 10000 2.1 50 08:21 10.10.2019
460 Clouds 4 1000 93 10000 2.1 50 07:47 10.10.2019
461 Clouds 4 1000 93 10000 2.1 30 07:26 10.10.2019
462 Clouds 4 1001 100 10000 2.1 350 06:55 10.10.2019
463 Clouds 4 1001 100 10000 2.1 350 06:36 10.10.2019
464 Clouds 4 1001 93 10000 2.6 70 05:39 10.10.2019
465 Clouds 4 1001 93 10000 1.5 70 05:18 10.10.2019
466 Clouds 4 1001 93 10000 2.1 40 04:34 10.10.2019
467 Clouds 4 1002 100 10000 2.1 50 02:29 10.10.2019
468 Clouds 4 1002 100 10000 2.1 40 01:37 10.10.2019
469 Clouds 4 1002 100 10000 2.1 40 01:18 10.10.2019
470 Clouds 4 1002 100 10000 2.6 50 00:33 10.10.2019
471 Rain 4 1002 100 10000 3.1 50 23:42 09.10.2019
472 Rain 4 1002 93 10000 3.1 40 23:24 09.10.2019
473 Rain 4 1002 93 10000 2.1 40 22:59 09.10.2019
474 Rain 4 1002 93 10000 2.1 40 22:41 09.10.2019
475 Rain 4 1002 93 10000 2.1 30 22:22 09.10.2019
476 Rain 4 1002 86 10000 2.6 50 21:56 09.10.2019
477 Rain 5 1002 86 10000 2.6 50 21:38 09.10.2019
478 Rain 5 1002 86 10000 2.6 20 21:19 09.10.2019
479 Rain 5 1002 86 10000 2.6 40 20:55 09.10.2019
480 Clouds 5 1002 86 10000 2.6 40 20:36 09.10.2019
481 Clouds 5 1002 86 10000 2.6 40 20:18 09.10.2019
482 Clouds 5 1002 86 10000 2.6 40 20:18 09.10.2019
483 Clouds 5 1002 86 10000 2.6 40 19:43 09.10.2019
484 Rain 5 1002 86 10000 1.5 40 19:22 09.10.2019
485 Clouds 5 1002 86 10000 1.5 60 18:39 09.10.2019
486 Clouds 6 1002 81 10000 2.1 60 18:21 09.10.2019
487 Clouds 6 1002 81 10000 1.5 70 17:58 09.10.2019
488 Clouds 6 1002 81 10000 1.5 70 17:40 09.10.2019
489 Clouds 6 1002 81 10000 1.5 80 17:22 09.10.2019
490 Rain 6 1001 81 10000 1.5 60 16:57 09.10.2019
491 Rain 6 1001 81 10000 1.5 60 16:39 09.10.2019
492 Rain 6 1001 81 10000 1.5 60 16:39 09.10.2019
493 Rain 6 1001 70 10000 1.5 60 16:20 09.10.2019
494 Rain 7 1001 70 10000 1.5 60 16:20 09.10.2019
495 Clouds 7 1001 70 10000 1 0 15:56 09.10.2019
496 Clouds 7 1001 70 10000 1 0 15:37 09.10.2019
497 Clouds 7 1001 70 10000 1.5 60 15:19 09.10.2019
498 Clouds 7 1001 75 10000 1.5 60 14:45 09.10.2019
499 Clouds 7 1001 70 10000 1.5 70 14:19 09.10.2019
500 Clouds 7 1001 70 10000 1.5 70 13:59 09.10.2019
501 Clouds 7 1001 70 10000 1.5 70 13:38 09.10.2019
502 Clouds 6 1001 75 10000 0.5 0 13:18 09.10.2019
503 Clouds 6 1001 70 10000 2.1 60 12:44 09.10.2019
504 Clouds 6 1001 70 10000 2.1 60 12:44 09.10.2019
505 Clouds 6 1001 75 10000 2.1 50 12:23 09.10.2019
506 Clouds 6 1001 75 10000 2.1 30 11:58 09.10.2019
507 Clouds 5 1001 75 10000 2.1 30 11:40 09.10.2019
508 Clouds 4 1000 80 10000 2.1 360 11:20 09.10.2019
509 Clouds 4 1000 80 10000 1.5 50 10:58 09.10.2019
510 Clouds 4 1000 80 10000 1.5 50 10:40 09.10.2019
511 Clouds 4 1000 80 10000 1.5 50 10:40 09.10.2019
512 Clear 3 1000 80 10000 1.5 60 10:18 09.10.2019
513 Clear 2 1000 78 10000 1.5 50 09:43 09.10.2019
514 Clear 2 1000 92 10000 2.1 40 09:20 09.10.2019
515 Clear 1 1000 92 10000 2.1 40 08:58 09.10.2019
516 Clear 1 1000 92 10000 1.5 10 08:38 09.10.2019
517 Clear 0 1000 92 10000 2.1 360 08:19 09.10.2019
518 Clear 0 1000 92 10000 1.5 10 07:47 09.10.2019
519 Clear 0 1000 92 10000 1.5 30 07:24 09.10.2019
520 Clouds 0 1000 92 10000 2.1 40 06:56 09.10.2019
521 Clouds 0 999 92 10000 2.6 40 06:25 09.10.2019
522 Clouds 0 1000 94 10000 2.6 40 05:47 09.10.2019
523 Clouds 0 999 94 10000 3.1 40 04:41 09.10.2019
524 Clouds 0 1000 94 10000 2.6 50 03:43 09.10.2019
525 Clouds 1 1000 93 10000 2.1 40 01:55 09.10.2019
526 Clouds 2 1000 93 10000 3.1 50 01:22 09.10.2019
527 Clouds 2 1000 93 10000 2.6 40 00:59 09.10.2019
528 Clouds 2 1000 93 10000 2.6 40 00:40 09.10.2019
529 Clouds 2 1000 100 10000 2.1 40 00:22 09.10.2019
530 Clouds 2 1000 100 10000 2.1 40 00:22 09.10.2019
531 Clouds 2 1000 100 10000 1.5 30 23:57 08.10.2019
532 Clouds 2 1000 100 10000 1.5 30 23:37 08.10.2019
533 Clouds 2 1000 93 10000 1.5 20 23:18 08.10.2019
534 Clouds 2 1000 93 10000 2.1 0 22:39 08.10.2019
535 Clear 3 1001 100 10000 2.1 40 22:20 08.10.2019
536 Clear 2 1001 100 10000 2.1 40 22:20 08.10.2019
537 Clear 3 1001 100 10000 2.1 40 21:58 08.10.2019
538 Clear 3 1001 100 10000 2.1 40 21:39 08.10.2019
539 Clear 3 1001 100 10000 1 60 21:19 08.10.2019
540 Clear 3 1001 100 10000 1.5 50 20:57 08.10.2019
541 Clear 3 1001 100 10000 1 60 20:57 08.10.2019
542 Clear 3 1001 100 10000 1.5 50 20:39 08.10.2019
543 Clear 3 1001 100 10000 1.5 40 20:21 08.10.2019
544 Clear 3 1001 93 10000 2.6 50 19:58 08.10.2019
545 Clear 3 1001 93 10000 2.6 50 19:58 08.10.2019
546 Clear 3 1001 93 10000 2.6 50 19:58 08.10.2019
547 Clear 3 1001 93 10000 2.6 50 19:40 08.10.2019
548 Clouds 4 1001 93 10000 2.1 0 19:21 08.10.2019
549 Clouds 4 1001 93 10000 2.1 0 19:21 08.10.2019
550 Clouds 4 1002 93 10000 1.5 40 18:55 08.10.2019
551 Clouds 4 1002 93 10000 1.5 40 18:55 08.10.2019
552 Clouds 4 1002 93 10000 1.5 40 18:36 08.10.2019
553 Clouds 5 1002 86 10000 1.5 10 18:18 08.10.2019
554 Clouds 5 1002 86 10000 1 0 17:40 08.10.2019
555 Clouds 6 1002 81 10000 1.6 54.97 17:21 08.10.2019
556 Clouds 6 1002 70 10000 0.5 0 16:59 08.10.2019
557 Clouds 6 1002 70 10000 0.5 0 16:40 08.10.2019
558 Clouds 6 1002 75 10000 1 0 16:21 08.10.2019
559 Rain 6 1002 81 10000 2.1 180 15:41 08.10.2019
560 Rain 6 1003 75 10000 1 0 15:22 08.10.2019
561 Rain 6 1003 75 10000 1 0 15:22 08.10.2019
562 Rain 6 1003 75 10000 1 0 14:58 08.10.2019
563 Rain 6 1003 75 10000 1 0 14:39 08.10.2019
564 Clouds 6 1003 81 10000 1 0 14:21 08.10.2019
565 Clouds 6 1003 81 10000 0.5 0 13:57 08.10.2019
566 Clouds 6 1003 81 10000 0.5 0 13:38 08.10.2019
567 Clouds 6 1004 86 10000 0.5 0 13:19 08.10.2019
568 Clouds 5 1004 86 10000 0.5 0 12:58 08.10.2019
569 Clouds 5 1004 86 10000 0.5 0 12:38 08.10.2019
570 Clouds 5 1004 86 10000 0.5 0 12:18 08.10.2019
571 Clouds 4 1004 93 10000 1.73 95.194 11:42 08.10.2019
572 Clouds 4 1005 93 10000 1.5 40 11:24 08.10.2019
573 Clouds 4 1005 93 10000 2.1 40 10:58 08.10.2019
574 Clouds 3 1005 93 10000 2.1 40 10:37 08.10.2019
575 Fog 3 1005 93 10000 2.1 40 10:19 08.10.2019
576 Clear 3 1005 89 0 1.73 95.194 09:55 08.10.2019
577 Fog 2 1005 100 900 1 0 09:37 08.10.2019
578 Clear 2 1005 90 0 1.2 47.8 09:19 08.10.2019
579 Fog 2 1006 93 300 1 0 08:42 08.10.2019
580 Fog 1 1006 93 8000 1.5 70 08:23 08.10.2019
581 Fog 1 1006 100 10000 1.5 40 07:44 08.10.2019
582 Fog 1 1006 100 10000 1.5 20 07:21 08.10.2019
583 Clouds 1 1007 93 10000 1.5 360 06:51 08.10.2019
584 Clouds 1 1007 93 10000 1.5 360 06:28 08.10.2019
585 Clouds 2 1007 93 10000 1.5 340 05:46 08.10.2019
586 Clouds 2 1008 93 10000 0.74 5.074 05:26 08.10.2019
587 Clouds 2 1008 100 10000 0.74 5.074 04:31 08.10.2019
588 Clouds 2 1008 93 10000 1.5 20 03:27 08.10.2019
589 Clouds 3 1009 93 10000 2.1 300 02:36 08.10.2019
590 Clouds 2 1009 100 10000 0.5 0 01:45 08.10.2019
591 Clouds 2 1009 100 10000 0.5 330 01:26 08.10.2019
592 Clouds 3 1009 100 10000 1 300 00:46 08.10.2019
593 Clouds 3 1010 100 10000 1.5 20 00:20 08.10.2019
594 Clouds 3 1010 100 10000 1.5 360 23:39 07.10.2019
595 Clouds 3 1010 100 10000 2.6 300 23:20 07.10.2019
596 Clouds 3 1010 100 10000 1 0 22:56 07.10.2019
597 Clouds 3 1010 100 10000 1 0 22:38 07.10.2019
598 Clouds 3 1011 100 10000 1 0 22:19 07.10.2019
599 Clouds 3 1011 93 10000 1 0 21:55 07.10.2019
600 Clouds 3 1011 93 10000 1 0 21:37 07.10.2019
601 Clouds 3 1011 100 10000 1.21 316.778 21:18 07.10.2019
602 Clouds 3 1011 100 10000 1 0 20:57 07.10.2019
603 Clouds 3 1011 100 10000 1 0 20:38 07.10.2019
604 Clouds 3 1012 100 10000 1.5 300 20:19 07.10.2019
605 Clouds 3 1012 100 10000 1 0 19:56 07.10.2019
606 Clouds 3 1012 100 10000 1 0 19:38 07.10.2019
607 Clouds 3 1012 100 10000 0.5 290 19:18 07.10.2019
608 Clouds 4 1012 100 10000 0.5 0 18:43 07.10.2019
609 Clouds 4 1012 100 10000 1 0 18:19 07.10.2019
610 Rain 5 1012 93 10000 1.5 150 17:59 07.10.2019
611 Rain 5 1012 93 10000 1.5 150 17:41 07.10.2019
612 Rain 5 1012 86 10000 2.1 100 17:19 07.10.2019
613 Rain 5 1012 86 10000 1.5 70 16:46 07.10.2019
614 Rain 5 1012 86 10000 1.5 70 16:46 07.10.2019
615 Rain 6 1012 75 10000 1.5 350 16:28 07.10.2019
616 Rain 6 1012 75 10000 1.5 350 15:59 07.10.2019
617 Rain 6 1013 81 10000 2.1 290 15:40 07.10.2019
618 Rain 6 1013 86 10000 2.1 290 15:21 07.10.2019
619 Rain 6 1013 80 10000 4.6 330 14:42 07.10.2019
620 Rain 6 1013 75 10000 3.1 10 14:23 07.10.2019
621 Rain 6 1013 80 10000 3.1 330 13:45 07.10.2019
622 Clouds 6 1013 75 10000 2.1 30 13:21 07.10.2019
623 Clouds 6 1013 75 10000 2.1 30 12:59 07.10.2019
624 Clouds 6 1013 86 10000 1.5 30 12:40 07.10.2019
625 Rain 5 1013 86 10000 4.1 20 12:21 07.10.2019
626 Rain 5 1013 86 10000 4.1 20 12:21 07.10.2019
627 Clouds 6 1013 81 10000 3.1 340 11:59 07.10.2019
628 Rain 5 1013 86 10000 4.1 20 11:59 07.10.2019
629 Clouds 5 1013 81 10000 3.1 340 11:40 07.10.2019
630 Clouds 5 1013 75 10000 3.1 350 11:21 07.10.2019
631 Clouds 5 1013 75 10000 3.1 350 11:21 07.10.2019
632 Clouds 5 1013 80 10000 3.1 10 10:57 07.10.2019
633 Clouds 5 1013 80 10000 3.1 10 10:39 07.10.2019
634 Clouds 4 1014 93 10000 2.6 20 10:20 07.10.2019
635 Clouds 4 1014 93 10000 3.1 10 09:39 07.10.2019
636 Clouds 4 1014 93 10000 3.1 10 09:39 07.10.2019
637 Clouds 3 1014 100 10000 2.6 340 09:21 07.10.2019
638 Clouds 3 1014 100 10000 1 350 08:44 07.10.2019
639 Clouds 3 1014 100 10000 1.5 350 08:21 07.10.2019
640 Rain 3 1014 100 5000 0.65 287.852 07:56 07.10.2019
641 Rain 3 1014 100 5000 0.65 287.852 07:38 07.10.2019
642 Rain 2 1014 100 6000 1 350 07:19 07.10.2019
643 Drizzle 2 1014 100 7000 1.5 350 06:43 07.10.2019
644 Drizzle 2 1014 93 10000 0.5 0 06:22 07.10.2019
645 Fog 2 1014 100 10000 1.5 290 05:27 07.10.2019
646 Fog 2 1014 100 10000 1.5 280 04:56 07.10.2019
647 Clouds 2 1014 98 10000 1.5 330 03:51 07.10.2019
648 Clouds 2 1014 98 10000 1.5 330 03:32 07.10.2019
649 Clouds 2 1015 100 10000 1.5 310 02:53 07.10.2019
650 Clouds 2 1015 100 10000 1.5 310 02:19 07.10.2019
651 Clouds 3 1015 93 10000 1.5 290 01:24 07.10.2019
652 Clouds 3 1015 100 10000 1.5 300 00:53 07.10.2019
653 Clouds 3 1015 93 10000 2.1 310 00:26 07.10.2019
654 Clouds 3 1015 93 10000 2.1 310 23:59 06.10.2019
655 Rain 3 1016 93 10000 2.1 310 23:40 06.10.2019
656 Clouds 3 1016 93 10000 2.1 310 23:20 06.10.2019
657 Clear 3 1016 93 10000 2.1 320 22:57 06.10.2019
658 Clear 3 1016 93 10000 2.1 320 22:39 06.10.2019
659 Clear 3 1016 93 10000 1.5 310 22:20 06.10.2019
660 -273 0 0 0 0 0 21:55 06.10.2019
661 Clear 3 1016 93 10000 1.5 300 21:36 06.10.2019
662 Clear 3 1016 93 10000 2.1 320 21:18 06.10.2019
663 Clouds 3 1017 93 10000 1.5 330 20:55 06.10.2019
664 Clouds 3 1017 93 10000 1.5 330 20:36 06.10.2019
665 Clouds 3 1017 93 10000 1.5 330 20:36 06.10.2019
666 Clouds 3 1017 93 10000 1.5 330 20:36 06.10.2019
667 Clouds 3 1017 93 10000 2.1 310 20:18 06.10.2019
668 Clouds 3 1017 93 10000 2.1 300 19:55 06.10.2019
669 Clouds 3 1017 93 10000 2.1 300 19:55 06.10.2019
670 Clouds 3 1017 93 10000 2.1 300 19:36 06.10.2019
671 Clouds 4 1017 86 10000 2.1 300 19:18 06.10.2019
672 Clouds 4 1017 86 10000 2.1 300 19:18 06.10.2019
673 Clouds 4 1017 86 10000 2.6 300 18:55 06.10.2019
674 Clouds 4 1017 86 10000 2.6 300 18:55 06.10.2019
675 Clouds 4 1017 86 10000 2.6 300 18:36 06.10.2019
676 Clouds 4 1018 86 10000 1.5 310 18:18 06.10.2019
677 Clouds 4 1018 86 10000 1.5 310 18:18 06.10.2019
678 Clouds 5 1018 86 10000 2.6 300 17:42 06.10.2019
679 Clouds 5 1018 80 10000 2.6 320 17:20 06.10.2019
680 Clouds 5 1018 80 10000 2.6 330 16:55 06.10.2019
681 Clouds 5 1018 80 10000 2.6 330 16:55 06.10.2019
682 Clouds 5 1018 80 10000 2.6 330 16:37 06.10.2019
683 Clouds 5 1018 80 10000 2.1 350 16:18 06.10.2019
684 Clouds 5 1018 75 10000 3.1 350 15:42 06.10.2019
685 Clouds 5 1018 75 10000 3.1 350 15:42 06.10.2019
686 Clouds 5 1019 75 10000 3.1 350 15:21 06.10.2019
687 Clouds 5 1019 80 10000 3.6 350 14:44 06.10.2019
688 Clouds 5 1019 86 10000 5.1 320 14:26 06.10.2019
689 Clouds 5 1019 80 0 2.61 2.326 13:59 06.10.2019
690 Clouds 5 1019 86 10000 3.6 320 13:40 06.10.2019
691 Clouds 5 1019 82 0 2.62 350.936 13:21 06.10.2019
692 Rain 5 1019 80 10000 3.6 330 12:58 06.10.2019
693 Rain 5 1019 80 10000 3.6 330 12:39 06.10.2019
694 Clouds 5 1019 75 10000 5.7 330 12:21 06.10.2019
695 Clouds 5 1020 75 10000 4.6 320 11:58 06.10.2019
696 Clouds 5 1020 75 10000 4.6 320 11:39 06.10.2019
697 Clouds 4 1020 80 10000 3.6 320 11:21 06.10.2019
698 Clouds 3 1020 69 10000 3.1 310 10:54 06.10.2019
699 Clouds 3 1020 69 10000 3.1 310 10:36 06.10.2019
700 Clouds 3 1020 69 10000 3.1 310 10:18 06.10.2019
701 Clouds 2 1020 69 10000 2.1 300 09:41 06.10.2019
702 Clouds 2 1020 88 10000 2.1 290 09:19 06.10.2019
703 Clouds 2 1020 88 10000 2.1 290 09:19 06.10.2019
704 Clouds 1 1020 86 10000 2.1 310 08:47 06.10.2019
705 Clouds 1 1020 87 10000 2.6 300 08:21 06.10.2019
706 Clouds 0 1020 87 10000 3.1 310 07:57 06.10.2019
707 Clouds 0 1020 87 10000 3.1 310 07:38 06.10.2019
708 Clear -1 1020 100 10000 3.1 310 06:39 06.10.2019
709 Clear 0 1020 92 10000 2.6 300 05:36 06.10.2019
710 Clear 1 1020 86 10000 3.6 330 04:29 06.10.2019
711 Clear 2 1020 93 10000 3.6 310 02:48 06.10.2019
712 Clear 2 1020 80 10000 3.1 310 02:28 06.10.2019
713 Clear 2 1020 80 10000 3.1 310 01:46 06.10.2019
714 Clear 2 1021 80 10000 2.6 300 01:27 06.10.2019
715 Clear 2 1021 80 10000 2.6 300 01:27 06.10.2019
716 Clouds 2 1021 80 10000 2.6 290 00:59 06.10.2019
717 Clear 2 1021 80 10000 2.6 300 00:59 06.10.2019
718 Clouds 2 1020 80 10000 2.1 310 00:31 06.10.2019
719 Clear 2 1020 86 10000 2.6 310 23:46 05.10.2019
720 Clear 2 1020 86 10000 2.1 300 23:24 05.10.2019
721 Clear 2 1020 86 10000 1.5 330 22:59 05.10.2019
722 Clear 2 1020 86 10000 1.5 330 22:40 05.10.2019
723 Clear 2 1020 80 10000 1.5 340 22:21 05.10.2019
724 Clear 2 1020 80 10000 1.5 340 22:21 05.10.2019
725 Clear 2 1020 80 10000 1.5 340 21:59 05.10.2019
726 Clear 2 1020 74 10000 2.6 350 21:40 05.10.2019
727 Clear 2 1020 80 10000 2.6 330 21:21 05.10.2019
728 Clear 2 1020 86 10000 2.1 320 20:56 05.10.2019
729 Clear 2 1020 86 10000 2.1 320 20:38 05.10.2019
730 Clear 2 1019 80 10000 1 0 20:19 05.10.2019
731 Clouds 2 1019 86 10000 3.1 290 19:39 05.10.2019
732 Clouds 2 1019 82 10000 2.1 310 19:21 05.10.2019
733 Clouds 2 1018 82 10000 2.1 320 18:57 05.10.2019
734 Clouds 2 1018 82 10000 2.1 320 18:39 05.10.2019
735 Clouds 2 1018 82 10000 2.1 320 18:39 05.10.2019
736 Clouds 3 1018 80 10000 1.5 340 18:20 05.10.2019
737 Clouds 3 1018 74 10000 1.5 360 17:46 05.10.2019
738 Clouds 3 1018 74 10000 2.1 350 17:28 05.10.2019
739 Clouds 4 1018 74 10000 3.6 10 16:59 05.10.2019
740 Clouds 4 1018 74 10000 3.6 10 16:41 05.10.2019
741 Clouds 4 1017 69 10000 2.1 360 16:21 05.10.2019
742 Clouds 4 1017 74 10000 3.1 360 15:57 05.10.2019
743 Clouds 4 1017 74 10000 3.1 360 15:39 05.10.2019
744 Clouds 4 1017 69 10000 2.6 20 15:21 05.10.2019
745 Clouds 4 1017 69 10000 3.1 360 14:56 05.10.2019
746 Clouds 4 1017 69 10000 3.1 360 14:56 05.10.2019
747 Clouds 4 1017 69 10000 3.1 360 14:56 05.10.2019
748 Clouds 5 1017 69 10000 3.1 360 14:38 05.10.2019
749 Clouds 5 1017 69 10000 3.1 360 14:38 05.10.2019
750 Clouds 5 1017 69 10000 3.1 360 14:19 05.10.2019
751 Clouds 5 1017 65 10000 3.6 360 13:41 05.10.2019
752 Clouds 4 1016 74 10000 3.1 340 13:21 05.10.2019
753 Clouds 4 1016 74 10000 4.6 360 12:46 05.10.2019
754 Clouds 3 1016 74 10000 3.6 340 12:21 05.10.2019
755 Clouds 3 1016 74 10000 3.6 340 11:54 05.10.2019
756 Clouds 3 1016 74 10000 3.6 340 11:36 05.10.2019
757 Clouds 3 1016 80 10000 5.1 360 11:18 05.10.2019
758 Clouds 2 1015 80 10000 2.6 330 10:44 05.10.2019
759 Clouds 2 1015 86 10000 3.6 340 10:24 05.10.2019
760 Clouds 1 1015 86 10000 3.6 340 09:57 05.10.2019
761 Clouds 1 1015 86 10000 3.6 340 09:38 05.10.2019
762 Clouds 1 1015 86 10000 4.6 330 09:20 05.10.2019
763 Clouds 1 1015 86 10000 3.6 320 08:39 05.10.2019
764 Clouds 1 1015 86 10000 3.6 320 08:39 05.10.2019
765 Clouds 1 1014 88 10000 3.1 320 08:19 05.10.2019
766 Clouds 0 1014 88 10000 2.6 320 07:56 05.10.2019
767 Clouds 0 1014 88 10000 2.6 320 07:33 05.10.2019
768 Clouds 0 1014 88 10000 3.1 320 06:58 05.10.2019
769 Clouds 0 1014 94 10000 3.1 320 06:26 05.10.2019
770 Clouds -1 1013 92 10000 3.1 320 05:40 05.10.2019
771 Clear -1 1013 92 10000 3.6 320 03:42 05.10.2019
772 Clear -1 1013 92 10000 3.6 320 03:42 05.10.2019
773 Clear -1 1013 92 10000 3.1 310 03:22 05.10.2019
774 Clouds -1 1012 92 10000 3.1 310 01:30 05.10.2019
775 Clouds -1 1012 92 10000 3.1 310 00:58 05.10.2019
776 Clouds -1 1012 92 10000 3.1 310 00:40 05.10.2019
777 Clouds 0 1012 100 10000 3.1 320 00:22 05.10.2019
778 Clouds 0 1012 90 10000 3.1 330 23:43 04.10.2019
779 Clouds 0 1012 90 10000 3.1 330 23:43 04.10.2019
780 Clouds 0 1012 90 10000 3.1 330 23:24 04.10.2019
781 Clouds 0 1012 90 10000 3.1 330 22:58 04.10.2019
782 Clouds 1 1012 90 10000 3.6 340 22:38 04.10.2019
783 Clouds 0 1012 90 10000 4.1 340 22:19 04.10.2019
784 Clouds 0 1012 90 10000 4.1 340 22:19 04.10.2019
785 Clouds 0 1012 90 10000 4.1 340 21:55 04.10.2019
786 Clouds 1 1012 90 10000 3.6 330 21:36 04.10.2019
787 Clouds 1 1012 95 10000 3.6 340 21:18 04.10.2019
788 Clouds 1 1011 95 10000 3.6 340 20:42 04.10.2019
789 Clouds 1 1011 95 10000 3.1 340 20:23 04.10.2019
790 Clouds 1 1011 95 10000 3.1 340 19:58 04.10.2019
791 Clouds 1 1011 95 10000 3.1 340 19:39 04.10.2019
792 Clouds 1 1011 95 10000 3.1 340 19:20 04.10.2019
793 Clouds 1 1011 95 10000 4.1 340 18:56 04.10.2019
794 Clouds 2 1011 95 10000 4.1 340 18:37 04.10.2019
795 Clouds 2 1011 87 10000 4.1 340 18:18 04.10.2019
796 Snow 2 1010 93 10000 4.1 340 17:41 04.10.2019
797 Rain 2 1010 93 10000 2.6 340 17:22 04.10.2019
798 Rain 2 1010 93 10000 2.6 340 16:58 04.10.2019
799 Rain 2 1010 93 10000 4.6 30 16:39 04.10.2019
800 Rain 2 1010 93 10000 3.6 340 16:19 04.10.2019
801 Rain 3 1010 93 10000 3.6 340 15:56 04.10.2019
802 Rain 3 1010 100 10000 4.6 340 15:38 04.10.2019
803 Rain 3 1010 86 10000 2.6 350 15:19 04.10.2019
804 Clouds 3 1010 86 0 2.24 350 14:55 04.10.2019
805 Snow 3 1010 85 2500 5.1 20 14:37 04.10.2019
806 Rain 3 1009 85 10000 5.1 360 14:19 04.10.2019
807 Rain 3 1009 93 10000 4.6 340 13:44 04.10.2019
808 Rain 3 1009 93 10000 3.1 10 13:22 04.10.2019
809 Rain 3 1009 86 10000 2.6 340 12:54 04.10.2019
810 Clouds 3 1009 86 10000 2.6 340 12:36 04.10.2019
811 Clouds 3 1009 86 10000 4.6 360 12:18 04.10.2019
812 Snow 3 1009 93 10000 4.1 350 11:42 04.10.2019
813 Snow 3 1009 93 10000 4.1 350 11:41 04.10.2019
814 Rain 3 1009 86 10000 5.1 360 11:21 04.10.2019
815 Rain 3 1009 93 10000 4.1 360 10:41 04.10.2019
816 Rain 3 1009 93 10000 4.1 360 10:21 04.10.2019
817 Rain 2 1009 93 10000 4.1 360 10:21 04.10.2019
818 Rain 2 1009 93 10000 4.6 350 09:50 04.10.2019
819 Rain 2 1009 93 10000 4.6 350 09:32 04.10.2019
820 Rain 2 1009 100 10000 5.1 350 08:59 04.10.2019
821 Rain 2 1009 100 10000 5.1 350 08:41 04.10.2019
822 Rain 2 1009 100 10000 5.1 350 08:41 04.10.2019
823 Clouds 2 1009 96 10000 5.1 350 08:23 04.10.2019
824 Drizzle 1 1009 96 10000 4.6 360 07:47 04.10.2019
825 Drizzle 1 1009 96 10000 5.1 350 07:23 04.10.2019
826 Drizzle 1 1009 96 10000 4.6 350 06:48 04.10.2019
827 Drizzle 1 1009 94 10000 4.1 350 06:27 04.10.2019
828 Rain 2 1009 94 10000 4.6 360 05:52 04.10.2019
829 Rain 2 1009 94 10000 5.1 360 05:19 04.10.2019
830 Clouds 2 1009 94 10000 5.1 10 04:25 04.10.2019
831 Clouds 2 1009 93 10000 5.1 10 02:56 04.10.2019
832 Clouds 2 1009 93 10000 5.1 10 02:56 04.10.2019
833 Clouds 2 1009 93 10000 5.1 10 02:37 04.10.2019
834 Drizzle 2 1009 93 10000 5.7 10 01:43 04.10.2019
835 Drizzle 2 1010 93 10000 5.1 10 01:24 04.10.2019
836 Rain 2 1010 93 10000 5.1 20 00:24 04.10.2019
837 Rain 2 1010 93 10000 5.7 10 23:38 03.10.2019
838 Rain 2 1010 93 10000 5.1 10 23:19 03.10.2019
839 Rain 2 1010 93 10000 5.7 20 22:57 03.10.2019
840 Rain 2 1010 93 10000 5.7 20 22:39 03.10.2019
841 Rain 2 1010 93 10000 5.1 20 22:21 03.10.2019
842 Rain 2 1010 93 10000 5.1 20 21:56 03.10.2019
843 Rain 2 1010 93 10000 5.1 20 21:37 03.10.2019
844 Rain 2 1010 93 10000 5.1 20 21:37 03.10.2019
845 Rain 2 1010 93 10000 5.1 10 21:19 03.10.2019
846 Rain 3 1010 86 10000 5.7 20 20:56 03.10.2019
847 Rain 3 1010 86 10000 5.7 20 20:56 03.10.2019
848 Rain 3 1010 86 10000 5.7 20 20:37 03.10.2019
849 Rain 3 1010 86 10000 5.7 20 20:37 03.10.2019
850 Rain 3 1010 93 10000 5.7 20 20:19 03.10.2019
851 Rain 3 1010 93 10000 5.7 30 19:55 03.10.2019
852 Rain 3 1010 93 10000 5.7 30 19:55 03.10.2019
853 Rain 3 1010 93 10000 5.7 30 19:36 03.10.2019
854 Rain 3 1010 93 10000 5.1 20 19:18 03.10.2019
855 Rain 4 1010 86 10000 6.2 30 18:40 03.10.2019
856 Rain 4 1010 86 10000 5.7 20 18:19 03.10.2019
857 Rain 4 1010 86 10000 5.7 20 18:19 03.10.2019
858 Rain 4 1010 86 10000 7.2 30 17:59 03.10.2019
859 Rain 4 1010 86 10000 7.2 30 17:59 03.10.2019
860 Rain 4 1010 86 10000 7.2 30 17:41 03.10.2019
861 Rain 4 1010 86 10000 6.2 30 17:19 03.10.2019
862 Rain 4 1010 86 10000 6.2 20 16:44 03.10.2019
863 Rain 4 1010 93 10000 5.7 20 16:26 03.10.2019
864 Rain 5 1010 86 10000 5.7 10 15:56 03.10.2019
865 Rain 5 1010 86 10000 5.7 10 15:38 03.10.2019
866 Rain 5 1010 80 10000 6.2 30 15:20 03.10.2019
867 Rain 5 1010 80 10000 5.1 40 14:46 03.10.2019
868 Rain 5 1010 80 10000 5.7 30 14:27 03.10.2019
869 Rain 5 1010 80 10000 6.2 30 13:59 03.10.2019
870 Rain 5 1010 80 10000 6.2 30 13:41 03.10.2019
871 Rain 5 1010 86 10000 6.2 30 13:19 03.10.2019
872 Rain 5 1010 80 10000 6.2 40 12:56 03.10.2019
873 Rain 5 1010 80 10000 6.2 40 12:38 03.10.2019
874 Rain 5 1009 80 10000 7.2 40 12:19 03.10.2019
875 Rain 5 1009 80 10000 7.2 40 12:19 03.10.2019
876 Rain 5 1009 75 10000 7.7 40 11:41 03.10.2019
877 Rain 5 1009 80 10000 6.7 40 11:23 03.10.2019
878 Rain 5 1009 80 10000 6.7 40 10:59 03.10.2019
879 Rain 5 1009 75 10000 7.7 40 10:40 03.10.2019
880 Rain 5 1009 80 10000 7.2 40 10:19 03.10.2019
881 Rain 4 1009 80 10000 7.2 40 09:58 03.10.2019
882 Rain 4 1009 80 10000 6.7 40 09:39 03.10.2019
883 Rain 4 1009 86 10000 5.7 30 09:20 03.10.2019
884 Rain 4 1009 86 10000 6.7 40 08:45 03.10.2019
885 Rain 4 1009 80 10000 6.2 40 08:27 03.10.2019
886 Rain 4 1009 80 10000 6.2 40 08:27 03.10.2019
887 Rain 4 1009 80 10000 6.7 40 07:57 03.10.2019
888 Rain 4 1009 80 10000 6.7 40 07:39 03.10.2019
889 Rain 4 1008 86 10000 6.2 40 07:19 03.10.2019
890 Rain 4 1008 86 10000 6.2 40 07:19 03.10.2019
891 Clouds 4 1008 86 10000 5.7 40 06:47 03.10.2019
892 Clouds 4 1008 86 10000 5.1 40 06:24 03.10.2019
893 Clouds 4 1008 86 10000 5.7 50 05:44 03.10.2019
894 Clouds 4 1008 80 10000 4.6 50 04:56 03.10.2019
895 Clouds 4 1008 80 10000 6.7 30 04:25 03.10.2019
896 Clouds 4 1008 86 10000 5.1 50 03:24 03.10.2019
897 Clouds 3 1007 93 10000 6.2 50 02:38 03.10.2019
898 Clouds 3 1007 93 10000 5.1 40 01:51 03.10.2019
899 Clouds 3 1007 93 10000 4.1 30 01:32 03.10.2019
900 Clouds 3 1007 93 10000 4.1 30 00:47 03.10.2019
901 Clouds 3 1007 86 10000 4.6 30 00:19 03.10.2019
902 Clouds 3 1006 86 10000 4.1 20 23:43 02.10.2019
903 Clouds 3 1006 86 10000 4.6 10 23:21 02.10.2019
904 Clouds 4 1006 86 10000 4.6 10 22:44 02.10.2019
905 Clouds 4 1006 86 10000 4.6 20 22:22 02.10.2019
906 Clouds 5 1005 80 10000 5.1 30 21:57 02.10.2019
907 Clouds 5 1005 80 10000 5.1 30 21:57 02.10.2019
908 Clouds 5 1005 80 10000 5.1 30 21:38 02.10.2019
909 Clouds 5 1005 80 10000 3.1 30 21:20 02.10.2019
910 Clouds 5 1005 86 10000 4.6 40 20:57 02.10.2019
911 Clouds 5 1005 86 10000 4.6 40 20:38 02.10.2019
912 Clouds 6 1004 81 10000 4.1 30 20:20 02.10.2019
913 Clouds 6 1004 87 10000 4.1 30 19:55 02.10.2019
914 Clouds 6 1004 87 10000 4.1 30 19:55 02.10.2019
915 Clouds 6 1004 87 10000 4.1 30 19:55 02.10.2019
916 Clouds 6 1004 87 10000 4.1 30 19:36 02.10.2019
917 Clouds 6 1004 87 10000 4.1 30 19:36 02.10.2019
918 Rain 6 1003 81 10000 4.6 20 19:18 02.10.2019
919 Rain 6 1002 81 10000 5.7 10 18:56 02.10.2019
920 Rain 6 1002 81 10000 5.7 10 18:36 02.10.2019
921 Rain 6 1002 75 10000 4.1 360 18:18 02.10.2019
922 Rain 7 1001 70 10000 2.1 10 17:42 02.10.2019
923 Rain 7 1001 65 10000 2.1 40 17:21 02.10.2019
924 Clouds 7 1000 65 10000 2.6 50 16:58 02.10.2019
925 Clouds 8 1000 65 10000 2.6 50 16:39 02.10.2019
926 Clouds 8 999 70 10000 3.6 40 16:20 02.10.2019
927 Clouds 8 999 70 10000 3.6 40 15:56 02.10.2019
928 Clouds 8 998 70 10000 3.6 360 15:37 02.10.2019
929 Clouds 8 998 70 10000 4.1 10 15:18 02.10.2019
930 Clouds 8 998 70 10000 4.1 10 15:18 02.10.2019
931 Clouds 7 997 75 10000 4.6 360 14:45 02.10.2019
932 Clouds 7 997 75 10000 4.6 360 14:27 02.10.2019
933 Clouds 7 996 75 10000 4.1 360 13:58 02.10.2019
934 Clouds 8 995 81 10000 2.6 330 13:40 02.10.2019
935 Clouds 7 995 81 10000 2.6 330 13:21 02.10.2019
936 Clouds 7 993 81 10000 4.1 350 12:41 02.10.2019
937 Clouds 7 992 87 10000 3.6 360 12:22 02.10.2019
938 Clouds 7 992 87 10000 3.6 360 11:59 02.10.2019
939 Clouds 7 992 87 10000 3.6 10 11:41 02.10.2019
940 Clouds 7 992 87 10000 3.6 10 11:21 02.10.2019
941 Clouds 7 990 93 10000 2.6 330 10:39 02.10.2019
942 Clouds 6 990 93 10000 2.6 330 10:19 02.10.2019
943 Clouds 6 990 93 10000 2.6 330 10:19 02.10.2019
944 Drizzle 6 988 93 10000 2.6 290 09:41 02.10.2019
945 Drizzle 6 988 93 10000 2.6 290 09:20 02.10.2019
946 Rain 6 987 93 10000 2.6 270 08:56 02.10.2019
947 Rain 6 987 100 10000 1.5 310 08:38 02.10.2019
948 Clouds 6 986 100 10000 1.5 340 08:20 02.10.2019
949 Clouds 5 986 100 10000 2.1 300 07:43 02.10.2019
950 Rain 5 986 100 10000 2.1 300 07:24 02.10.2019
951 Rain 5 985 100 10000 2.1 270 06:58 02.10.2019
952 Rain 5 985 93 10000 1.5 240 06:27 02.10.2019
953 Clouds 5 985 93 10000 1.5 230 05:50 02.10.2019
954 Clouds 5 985 93 10000 1.5 230 05:21 02.10.2019
955 Rain 6 985 87 10000 6.7 230 03:53 02.10.2019
956 Rain 6 985 87 10000 3.6 200 03:31 02.10.2019
957 Rain 5 986 87 10000 4.1 190 02:26 02.10.2019
958 Rain 5 986 87 10000 3.6 210 01:59 02.10.2019
959 Clouds 5 986 86 10000 3.6 160 00:52 02.10.2019
960 Clouds 4 986 86 10000 3.1 170 00:29 02.10.2019
961 Clouds 4 986 86 10000 3.6 170 23:55 01.10.2019
962 Clouds 4 986 93 10000 2.6 170 23:36 01.10.2019
963 Clouds 3 986 93 10000 2.6 170 23:18 01.10.2019
964 Clear 3 986 93 10000 1.5 150 22:57 01.10.2019
965 Clear 3 986 93 10000 1 0 22:37 01.10.2019
966 Clear 3 986 93 10000 1 0 22:18 01.10.2019
967 Clear 3 986 93 10000 1 0 22:18 01.10.2019
968 Clear 3 986 86 10000 1.5 240 21:42 01.10.2019
969 Clear 4 986 86 10000 1.5 240 21:22 01.10.2019
970 Clear 4 986 86 10000 1.5 240 21:22 01.10.2019
971 Clear 4 987 86 10000 2.6 260 20:58 01.10.2019
972 Clear 4 987 80 10000 3.1 260 20:39 01.10.2019
973 Clear 4 987 80 10000 3.1 260 20:20 01.10.2019
974 Clear 4 987 80 10000 3.1 260 20:20 01.10.2019
975 Clear 5 987 80 10000 3.6 260 19:57 01.10.2019
976 Clouds 5 987 80 10000 5.1 280 19:39 01.10.2019
977 Clouds 5 987 80 10000 5.1 280 19:20 01.10.2019
978 Rain 6 986 75 10000 3.1 220 18:55 01.10.2019
979 Clouds 6 986 75 10000 2.6 210 18:37 01.10.2019
980 Clouds 6 986 75 10000 4.6 230 18:19 01.10.2019
981 Clouds 7 986 75 10000 5.7 210 17:43 01.10.2019
982 Clouds 6 986 75 10000 5.7 210 17:20 01.10.2019
983 Clouds 7 986 75 10000 6.7 210 16:59 01.10.2019
984 Clouds 7 986 75 10000 6.2 220 16:40 01.10.2019
985 Clouds 7 986 75 10000 5.7 220 16:22 01.10.2019
986 Clouds 7 986 75 10000 5.7 220 15:48 01.10.2019
987 Clouds 6 985 81 10000 5.1 230 15:24 01.10.2019
988 Rain 6 985 87 10000 5.1 230 14:58 01.10.2019
989 Rain 6 985 81 10000 7.7 230 14:37 01.10.2019
990 Rain 6 985 81 10000 7.7 230 14:19 01.10.2019
991 Rain 7 985 61 10000 7.2 220 13:55 01.10.2019
992 Rain 8 985 57 10000 7.2 230 13:36 01.10.2019
993 Rain 8 985 63 10000 8.2 230 13:18 01.10.2019
994 Clouds 9 985 57 10000 7.7 240 12:42 01.10.2019
995 Clouds 9 985 61 10000 7.7 240 12:21 01.10.2019
996 Clouds 9 985 61 10000 7.7 240 11:59 01.10.2019
997 Clouds 8 985 65 10000 8.2 240 11:39 01.10.2019
998 Clouds 8 985 65 10000 8.2 240 11:19 01.10.2019
999 Clouds 8 984 70 10000 8.7 240 10:59 01.10.2019
1000 Clouds 7 984 81 10000 8.2 240 10:41 01.10.2019
1001 Clouds 8 984 81 10000 8.2 240 10:23 01.10.2019
1002 Rain 7 983 87 10000 6.7 250 09:43 01.10.2019
1003 Rain 7 983 87 10000 6.7 250 09:25 01.10.2019
1004 Clouds 7 982 87 10000 7.7 260 08:43 01.10.2019
1005 Clouds 7 982 87 10000 7.7 260 08:25 01.10.2019
1006 Clouds 7 981 93 10000 5.7 260 07:49 01.10.2019
1007 Clouds 8 981 93 10000 5.7 260 07:25 01.10.2019
1008 Clouds 8 981 93 10000 5.7 260 07:25 01.10.2019
1009 Clouds 8 981 81 10000 7.7 270 06:50 01.10.2019
1010 Rain 9 981 87 10000 5.1 230 06:22 01.10.2019
1011 Clouds 9 980 93 10000 3.6 200 05:46 01.10.2019
1012 Clouds 10 980 93 10000 3.6 200 05:18 01.10.2019
1013 Rain 10 981 93 6000 4.6 190 04:34 01.10.2019
1014 Rain 11 983 93 8000 4.6 180 02:30 01.10.2019
1015 Rain 12 983 93 8000 5.7 190 01:59 01.10.2019
1016 Rain 12 983 100 8000 6.2 180 01:25 01.10.2019
1017 Clouds 12 984 100 10000 2.6 130 00:40 01.10.2019
1018 Clouds 12 984 100 10000 2.6 130 00:40 01.10.2019
1019 Clouds 12 984 100 10000 2.6 130 00:22 01.10.2019
1020 Rain 12 985 100 8000 2.1 140 23:41 30.09.2019
1021 Rain 12 985 100 8000 2.1 140 23:41 30.09.2019
1022 Rain 12 985 100 8000 2.1 140 23:21 30.09.2019
1023 Rain 11 985 100 10000 2.1 110 22:43 30.09.2019
1024 Clouds 11 985 100 10000 2.1 110 22:25 30.09.2019
1025 Rain 11 985 100 10000 2.1 110 21:58 30.09.2019
1026 Rain 11 986 100 10000 2.1 120 21:38 30.09.2019
1027 Rain 11 986 100 10000 2.1 120 21:38 30.09.2019
1028 Rain 11 986 100 10000 2.1 120 21:19 30.09.2019
1029 Rain 11 986 100 10000 2.6 120 20:58 30.09.2019
1030 Clouds 11 986 100 10000 3.1 120 20:39 30.09.2019
1031 Clouds 11 986 100 10000 3.1 120 20:20 30.09.2019
1032 Rain 11 986 100 10000 3.1 110 19:57 30.09.2019
1033 Clouds 11 986 93 10000 2.6 110 19:39 30.09.2019
1034 Clouds 11 986 93 10000 2.6 110 19:19 30.09.2019
1035 Clouds 11 987 100 10000 1.5 120 18:57 30.09.2019
1036 Clouds 11 987 100 10000 1.5 120 18:57 30.09.2019
1037 Clouds 11 987 100 10000 1.5 120 18:57 30.09.2019
1038 Clouds 11 987 93 10000 2.1 130 18:37 30.09.2019
1039 Rain 11 987 93 10000 2.1 90 18:19 30.09.2019
1040 Rain 12 987 87 10000 0.5 0 17:43 30.09.2019
1041 Rain 12 987 87 10000 0.5 0 17:23 30.09.2019
1042 Rain 12 987 87 10000 1 0 16:57 30.09.2019
1043 Rain 12 987 87 10000 3.6 180 16:39 30.09.2019
1044 Rain 13 987 87 10000 3.6 180 16:19 30.09.2019
1045 Rain 13 987 87 10000 4.1 160 15:58 30.09.2019
1046 Clouds 13 987 87 10000 4.1 150 15:37 30.09.2019
1047 Clouds 13 987 87 10000 4.1 160 15:19 30.09.2019
1048 Clouds 13 987 87 10000 4.1 160 14:57 30.09.2019
1049 Clouds 13 987 87 10000 3.6 170 14:37 30.09.2019
1050 Clouds 13 987 87 10000 4.1 160 14:18 30.09.2019
1051 Clouds 13 987 87 10000 4.1 160 13:56 30.09.2019
1052 Rain 13 987 87 10000 4.1 150 13:37 30.09.2019
1053 Rain 13 987 87 10000 4.1 170 13:19 30.09.2019
1054 Rain 13 987 87 10000 2.6 180 12:42 30.09.2019
1055 Rain 13 987 87 10000 3.6 160 12:22 30.09.2019
1056 -273 0 0 0 0 0 11:56 30.09.2019
1057 Rain 13 987 87 10000 3.6 160 11:56 30.09.2019
1058 Rain 13 987 93 10000 2.6 170 11:37 30.09.2019
1059 Clouds 13 987 87 10000 4.1 190 11:18 30.09.2019
1060 Clouds 12 987 87 10000 4.1 190 10:41 30.09.2019
1061 Clouds 12 987 87 10000 4.6 180 10:19 30.09.2019
1062 Clouds 12 987 87 10000 4.1 190 10:19 30.09.2019
1063 Clouds 12 987 87 10000 4.6 180 09:58 30.09.2019
1064 Clouds 12 987 93 10000 3.6 180 09:39 30.09.2019
1065 Clouds 12 987 93 10000 3.6 180 09:20 30.09.2019
1066 Clouds 12 987 93 10000 3.1 180 08:47 30.09.2019
1067 Clouds 11 988 93 10000 4.1 170 08:28 30.09.2019
1068 Clouds 11 988 100 10000 4.6 180 07:45 30.09.2019
1069 Rain 11 988 100 10000 3.6 170 07:27 30.09.2019
1070 Clouds 11 988 100 10000 3.6 170 06:56 30.09.2019
1071 Rain 11 988 100 10000 4.1 160 06:34 30.09.2019
1072 Clouds 11 988 100 10000 4.1 160 05:48 30.09.2019
1073 Clouds 11 988 100 10000 4.1 160 05:48 30.09.2019
1074 Rain 10 989 100 10000 2.1 120 04:32 30.09.2019
1075 Clouds 10 990 100 10000 1.5 120 02:48 30.09.2019
1076 Clouds 10 991 100 10000 1.5 140 01:37 30.09.2019
1077 Clouds 9 991 93 10000 1.5 110 00:42 30.09.2019
1078 Clouds 9 991 93 10000 1.5 110 00:22 30.09.2019
1079 Clouds 10 992 100 10000 0.5 0 23:47 29.09.2019
1080 Rain 10 992 93 10000 1.5 180 23:27 29.09.2019
1081 Clouds 10 992 93 10000 2.1 190 22:59 29.09.2019
1082 Clouds 10 992 93 10000 2.1 180 22:40 29.09.2019
1083 Clouds 10 992 93 10000 2.1 180 22:22 29.09.2019
1084 Clouds 10 993 93 10000 3.1 190 21:57 29.09.2019
1085 Clouds 11 993 93 10000 2.6 210 21:37 29.09.2019
1086 Clouds 11 993 93 10000 2.6 210 21:19 29.09.2019
1087 Clouds 10 993 93 10000 3.1 200 20:45 29.09.2019
1088 Clouds 11 993 93 10000 3.1 210 20:20 29.09.2019
1089 Clouds 10 993 93 10000 3.1 210 19:59 29.09.2019
1090 Clouds 11 994 87 10000 2.6 200 19:38 29.09.2019
1091 Clouds 11 994 87 10000 3.6 200 19:19 29.09.2019
1092 Clouds 11 994 87 10000 3.6 200 18:56 29.09.2019
1093 Clouds 11 993 86 0 2.18 211.351 18:38 29.09.2019
1094 Clouds 11 993 86 0 2.18 211.351 18:38 29.09.2019
1095 Clouds 12 994 76 10000 4.6 210 18:19 29.09.2019
1096 Clouds 12 994 76 10000 4.6 210 18:19 29.09.2019
1097 Clouds 12 994 76 10000 4.6 210 17:58 29.09.2019
1098 Clouds 12 994 82 0 2.05 220.51 17:40 29.09.2019
1099 Clouds 12 994 84 0 2.05 220.51 17:20 29.09.2019
1100 Clouds 13 994 71 10000 4.6 210 16:58 29.09.2019
1101 Clouds 13 995 71 10000 5.1 220 16:40 29.09.2019
1102 Clouds 13 995 71 10000 5.1 220 16:19 29.09.2019
1103 Clouds 14 995 67 10000 5.1 210 15:57 29.09.2019
1104 Clouds 13 994 80 0 2.05 220.51 15:57 29.09.2019
1105 Clouds 14 995 71 10000 4.6 250 15:36 29.09.2019
1106 Clouds 14 995 71 10000 6.7 220 15:18 29.09.2019
1107 Clouds 14 995 71 10000 6.7 220 14:55 29.09.2019
1108 Clouds 13 995 71 10000 6.2 220 14:36 29.09.2019
1109 Clouds 13 995 76 10000 6.2 200 14:18 29.09.2019
1110 Clouds 13 996 76 10000 5.7 200 13:42 29.09.2019
1111 Clouds 13 996 76 10000 5.7 200 13:19 29.09.2019
1112 Clouds 13 996 87 10000 5.1 200 12:58 29.09.2019
1113 Clouds 13 996 87 10000 4.6 210 12:40 29.09.2019
1114 Clouds 13 996 87 10000 4.6 210 12:21 29.09.2019
1115 Clouds 13 996 93 10000 5.7 200 11:57 29.09.2019
1116 Clouds 13 996 87 10000 6.2 190 11:39 29.09.2019
1117 Clouds 13 996 87 10000 6.2 190 11:19 29.09.2019
1118 Rain 12 997 100 8000 7.2 190 10:57 29.09.2019
1119 Rain 12 997 87 10000 6.7 170 10:37 29.09.2019
1120 Clouds 12 997 93 10000 6.2 170 10:18 29.09.2019
1121 Clouds 12 997 93 10000 6.2 170 09:47 29.09.2019
1122 Clouds 12 997 100 10000 5.7 160 09:21 29.09.2019
1123 Clouds 12 997 93 10000 5.1 150 08:59 29.09.2019
1124 Clouds 12 998 93 10000 5.7 150 08:41 29.09.2019
1125 Clouds 12 998 100 10000 5.7 150 08:20 29.09.2019
1126 Clouds 11 998 100 10000 5.7 150 07:43 29.09.2019
1127 Clouds 11 998 100 10000 5.7 150 07:24 29.09.2019
1128 -273 0 0 0 0 0 07:24 29.09.2019
1129 Clouds 11 999 100 10000 5.1 150 06:43 29.09.2019
1130 Rain 11 1000 100 6000 4.1 120 05:27 29.09.2019
1131 Rain 11 1001 100 4000 5.1 120 04:40 29.09.2019
1132 Rain 10 1001 93 7000 5.7 140 04:22 29.09.2019
1133 Rain 11 1002 81 10000 5.1 120 02:47 29.09.2019
1134 Clear 11 1003 87 10000 4.1 120 02:18 29.09.2019
1135 Clear 10 1003 93 10000 2.6 100 01:32 29.09.2019
1136 Clear 10 1004 93 10000 3.1 90 00:52 29.09.2019
1137 Clear 10 1005 100 10000 3.1 80 00:21 29.09.2019
1138 Clear 10 1005 100 10000 3.1 80 00:21 29.09.2019
1139 Clear 10 1005 100 10000 3.1 80 23:44 28.09.2019
1140 Clear 10 1005 100 10000 3.1 70 23:23 28.09.2019
1141 Clear 10 1005 100 10000 3.6 70 22:59 28.09.2019
1142 Clear 10 1006 93 10000 3.6 70 22:38 28.09.2019
1143 Clear 10 1006 93 10000 3.6 70 22:20 28.09.2019
1144 Clear 9 1006 93 10000 3.6 70 21:56 28.09.2019
1145 Clear 10 1007 93 10000 4.1 80 21:38 28.09.2019
1146 Clear 9 1007 93 10000 4.1 80 21:20 28.09.2019
1147 Clear 9 1007 93 10000 3.6 70 20:57 28.09.2019
1148 Clear 9 1007 93 10000 3.6 70 20:57 28.09.2019
1149 Clear 10 1007 93 10000 3.1 60 20:38 28.09.2019
1150 Clear 10 1008 87 10000 3.6 70 20:18 28.09.2019
1151 Clear 10 1008 87 10000 3.6 70 19:55 28.09.2019
1152 Clouds 10 1008 87 10000 4.1 70 19:36 28.09.2019
1153 Clouds 10 1008 87 10000 4.1 70 19:18 28.09.2019
1154 Clouds 10 1009 81 10000 3.1 80 18:41 28.09.2019
1155 Clouds 11 1009 81 10000 3.1 80 18:22 28.09.2019
1156 Clouds 11 1009 71 10000 4.6 90 17:59 28.09.2019
1157 Clouds 11 1009 71 10000 5.1 90 17:40 28.09.2019
1158 Clouds 12 1009 71 10000 5.1 90 17:21 28.09.2019
1159 Clouds 12 1009 66 10000 5.7 90 16:49 28.09.2019
1160 Clouds 12 1010 62 10000 5.7 110 16:29 28.09.2019
1161 Clouds 13 1010 62 10000 6.7 110 15:59 28.09.2019
1162 Clouds 13 1010 58 10000 5.7 120 15:39 28.09.2019
1163 Clouds 13 1010 58 10000 5.7 120 15:21 28.09.2019
1164 Clouds 13 1010 58 10000 5.7 100 14:55 28.09.2019
1165 Clouds 14 1010 58 10000 5.7 100 14:55 28.09.2019
1166 Clouds 14 1011 58 10000 5.7 110 14:36 28.09.2019
1167 Clouds 14 1011 58 10000 5.7 110 14:18 28.09.2019
1168 Clouds 13 1011 62 10000 6.7 120 13:43 28.09.2019
1169 Clouds 13 1011 62 10000 6.7 120 13:20 28.09.2019
1170 Clouds 13 1012 62 10000 6.2 100 12:57 28.09.2019
1171 Clouds 13 1012 62 10000 6.2 120 12:37 28.09.2019
1172 Clouds 13 1012 62 10000 6.2 120 12:18 28.09.2019
1173 Clouds 13 1012 71 10000 4.6 90 11:41 28.09.2019
1174 Clouds 13 1012 71 10000 4.6 90 11:20 28.09.2019
1175 Clouds 12 1012 71 10000 5.7 100 10:56 28.09.2019
1176 Clouds 12 1013 76 10000 4.1 90 10:38 28.09.2019
1177 Clouds 12 1013 76 10000 4.1 90 10:18 28.09.2019
1178 Clouds 10 1013 87 10000 3.6 80 09:41 28.09.2019
1179 Clouds 10 1013 87 10000 3.6 80 09:19 28.09.2019
1180 Clouds 10 1013 87 10000 3.6 80 09:19 28.09.2019
1181 Clouds 9 1013 93 10000 3.6 70 08:48 28.09.2019
1182 Clouds 8 1013 93 10000 3.6 70 08:29 28.09.2019
1183 Clouds 8 1013 93 10000 3.1 70 07:57 28.09.2019
1184 Clouds 7 1013 93 10000 3.1 70 07:38 28.09.2019
1185 Clouds 7 1013 93 10000 3.1 70 07:19 28.09.2019
1186 Clouds 7 1014 93 10000 3.6 60 06:38 28.09.2019
1187 Clouds 6 1014 87 10000 3.1 70 06:20 28.09.2019
1188 Clouds 7 1014 87 10000 3.1 70 05:25 28.09.2019
1189 Clouds 6 1014 87 10000 3.1 60 04:54 28.09.2019
1190 Clouds 6 1014 87 10000 3.6 50 04:29 28.09.2019
1191 Clouds 6 1015 87 10000 3.1 80 03:41 28.09.2019
1192 Clouds 6 1015 87 10000 3.6 80 02:59 28.09.2019
1193 Clouds 6 1015 87 10000 3.1 80 02:40 28.09.2019
1194 Clouds 6 1015 87 10000 3.1 80 02:19 28.09.2019
1195 Clouds 6 1015 87 10000 3.1 70 01:42 28.09.2019
1196 Clouds 6 1015 87 10000 3.1 70 01:19 28.09.2019
1197 Clouds 6 1016 93 10000 2.1 50 00:45 28.09.2019
1198 Clouds 6 1016 93 10000 2.1 50 00:27 28.09.2019
1199 Clouds 7 1016 100 10000 1.5 20 23:39 27.09.2019
1200 Clouds 7 1016 100 10000 1.5 20 23:21 27.09.2019
1201 Clouds 7 1016 93 10000 1.5 20 22:49 27.09.2019
1202 Clouds 7 1016 93 10000 1.5 20 22:21 27.09.2019
1203 Clouds 8 1016 87 10000 2.6 100 22:00 27.09.2019
1204 Clouds 8 1016 93 10000 1.5 60 21:40 27.09.2019
1205 Clouds 8 1016 93 10000 1.5 60 21:21 27.09.2019
1206 Clouds 9 1016 93 10000 0.5 0 20:59 27.09.2019
1207 Clouds 9 1016 93 10000 0.5 0 20:59 27.09.2019
1208 Clouds 9 1016 93 10000 1.5 70 20:40 27.09.2019
1209 Clouds 9 1015 93 10000 2.1 80 20:20 27.09.2019
1210 Clouds 9 1015 93 10000 2.1 80 20:20 27.09.2019
1211 Clouds 9 1015 93 10000 2.1 80 19:57 27.09.2019
1212 Clouds 9 1016 87 10000 1 90 19:39 27.09.2019
1213 Clouds 10 1016 87 10000 1 90 19:20 27.09.2019
1214 Clouds 10 1015 87 10000 2.1 80 18:42 27.09.2019
1215 Clouds 10 1015 87 10000 2.1 80 18:24 27.09.2019
1216 Clouds 11 1016 81 10000 2.1 120 17:56 27.09.2019
1217 Clouds 11 1016 81 10000 2.6 140 17:38 27.09.2019
1218 Clouds 11 1016 81 10000 2.6 140 17:20 27.09.2019
1219 Clouds 11 1016 81 10000 2.6 140 17:20 27.09.2019
1220 Clouds 11 1016 76 10000 3.1 120 16:57 27.09.2019
1221 Clouds 11 1016 71 10000 2.1 90 16:37 27.09.2019
1222 Clouds 11 1016 71 10000 2.1 90 16:37 27.09.2019
1223 Clouds 11 1016 71 10000 2.1 90 16:18 27.09.2019
1224 Clouds 12 1016 71 10000 2.1 90 16:18 27.09.2019
1225 Clouds 12 1016 71 10000 2.1 80 15:46 27.09.2019
1226 Clouds 12 1016 71 10000 1 0 15:21 27.09.2019
1227 Clouds 12 1016 66 10000 2.1 70 14:59 27.09.2019
1228 Clouds 13 1016 71 10000 2.6 40 14:41 27.09.2019
1229 Clouds 13 1016 71 10000 2.6 40 14:21 27.09.2019
1230 Clouds 13 1016 62 10000 2.1 90 13:58 27.09.2019
1231 Clouds 13 1016 66 10000 2.6 30 13:40 27.09.2019
1232 Clouds 13 1016 66 10000 2.6 320 13:21 27.09.2019
1233 Clouds 13 1016 66 10000 2.6 320 13:21 27.09.2019
1234 Clouds 13 1016 71 10000 1.5 0 12:54 27.09.2019
1235 Clouds 12 1016 76 10000 2.6 60 12:24 27.09.2019
1236 Clouds 12 1016 76 10000 2.6 60 11:59 27.09.2019
1237 Clouds 11 1016 76 10000 1.5 110 11:38 27.09.2019
1238 Clouds 11 1016 76 10000 1.5 110 11:20 27.09.2019
1239 Clear 10 1016 87 10000 1 0 10:43 27.09.2019
1240 Clear 9 1016 87 10000 1 0 10:23 27.09.2019
1241 Clouds 8 1016 93 10000 2.1 340 09:58 27.09.2019
1242 Clouds 8 1016 93 10000 2.1 340 09:58 27.09.2019
1243 Clouds 6 1016 93 10000 1.5 250 09:40 27.09.2019
1244 Clouds 6 1016 93 10000 1.5 250 09:20 27.09.2019
1245 Clouds 5 1016 100 10000 1.5 270 08:42 27.09.2019
1246 Clouds 5 1016 100 10000 1.5 270 08:21 27.09.2019
1247 Clouds 4 1015 91 0 1.25 320.083 07:57 27.09.2019
1248 Clouds 3 1016 100 10000 1 0 07:39 27.09.2019
1249 Clouds 3 1016 100 10000 1 0 07:19 27.09.2019
1250 Fog 3 1016 100 10000 1 270 06:40 27.09.2019
1251 Fog 3 1016 100 10000 1 270 06:21 27.09.2019
1252 Clouds 3 1016 100 10000 1 0 05:47 27.09.2019
1253 Clouds 3 1016 100 10000 2.1 290 05:29 27.09.2019
1254 Clouds 3 1016 100 10000 2.1 270 03:52 27.09.2019
1255 Clear 4 1016 93 10000 2.1 280 01:57 27.09.2019
1256 Clear 4 1016 93 10000 2.1 280 01:57 27.09.2019
1257 Clear 4 1016 87 10000 1 0 01:34 27.09.2019
1258 Clear 4 1016 93 10000 2.1 300 00:44 27.09.2019
1259 Clear 5 1016 81 10000 2.1 290 23:59 26.09.2019
1260 Clear 5 1016 81 10000 2.1 270 23:41 26.09.2019
1261 Clear 5 1016 81 10000 2.1 270 23:22 26.09.2019
1262 Clear 4 1016 86 10000 2.1 270 22:59 26.09.2019
1263 Clear 4 1016 86 10000 2.1 290 22:40 26.09.2019
1264 Clear 5 1016 86 10000 2.1 290 22:19 26.09.2019
1265 Clear 5 1016 81 10000 1.5 280 21:59 26.09.2019
1266 Clear 5 1016 100 10000 1.5 290 21:38 26.09.2019
1267 Clear 5 1016 100 10000 1.5 290 21:20 26.09.2019
1268 Clear 5 1016 86 10000 1.5 290 20:59 26.09.2019
1269 Clear 6 1016 93 10000 2.1 310 20:40 26.09.2019
1270 Clear 6 1016 93 10000 2.1 310 20:40 26.09.2019
1271 Clear 5 1016 93 10000 2.1 310 20:22 26.09.2019
1272 Clear 5 1016 93 10000 2.1 310 20:22 26.09.2019
1273 Clear 6 1016 87 10000 2.1 300 19:59 26.09.2019
1274 Clear 6 1015 93 10000 2.1 300 19:40 26.09.2019
1275 Clear 7 1015 81 10000 2.6 310 19:18 26.09.2019
1276 Clear 7 1015 81 10000 2.6 310 18:58 26.09.2019
1277 Clear 9 1015 71 10000 3.1 290 18:37 26.09.2019
1278 Clear 10 1015 66 10000 3.6 300 18:19 26.09.2019
1279 Clouds 11 1015 62 10000 3.6 290 17:38 26.09.2019
1280 Clouds 11 1015 62 10000 3.6 290 17:38 26.09.2019
1281 Clouds 11 1015 62 10000 3.6 290 17:19 26.09.2019
1282 Clouds 12 1015 62 10000 4.1 270 16:58 26.09.2019
1283 Clouds 12 1015 58 10000 5.1 300 16:39 26.09.2019
1284 Clouds 12 1015 62 10000 4.1 270 16:20 26.09.2019
1285 Clouds 12 1015 62 10000 4.1 270 15:56 26.09.2019
1286 Clouds 12 1015 58 10000 4.6 280 15:37 26.09.2019
1287 Clouds 12 1015 58 10000 4.6 280 15:18 26.09.2019
1288 Clouds 12 1016 66 10000 3.6 260 14:41 26.09.2019
1289 Clouds 12 1016 66 10000 3.6 260 14:23 26.09.2019
1290 Clouds 12 1016 62 10000 3.6 280 13:58 26.09.2019
1291 Clouds 12 1016 66 10000 2.1 270 13:40 26.09.2019
1292 Clouds 11 1016 66 10000 2.1 270 13:19 26.09.2019
1293 Clouds 12 1016 66 10000 2.6 280 12:56 26.09.2019
1294 Clouds 11 1016 66 10000 1 0 12:38 26.09.2019
1295 Clouds 11 1016 71 10000 1.5 0 12:19 26.09.2019
1296 Clouds 11 1016 71 10000 1.5 0 12:19 26.09.2019
1297 Clouds 10 1016 71 10000 2.1 340 11:42 26.09.2019
1298 Clouds 10 1016 71 10000 2.1 340 11:21 26.09.2019
1299 Clouds 10 1015 76 10000 2.1 10 10:43 26.09.2019
1300 Clouds 9 1015 76 10000 2.1 10 10:25 26.09.2019
1301 Clouds 9 1015 81 10000 1.5 350 09:59 26.09.2019
1302 Clouds 8 1015 81 10000 1.5 30 09:41 26.09.2019
1303 Clouds 6 1015 81 10000 1.5 30 09:23 26.09.2019
1304 Clouds 5 1015 93 10000 1.5 330 08:54 26.09.2019
1305 Clouds 5 1015 93 10000 1 0 08:32 26.09.2019
1306 Clouds 4 1015 93 10000 1 0 07:58 26.09.2019
1307 Clouds 4 1015 100 10000 1.5 350 07:40 26.09.2019
1308 Clouds 3 1015 100 10000 1.5 360 07:19 26.09.2019
1309 Clouds 2 1014 92 10000 1 40 06:43 26.09.2019
1310 Clouds 2 1014 94 10000 1 40 06:24 26.09.2019
1311 Clear 3 1014 93 10000 0.5 0 05:40 26.09.2019
1312 Clear 3 1014 93 10000 0.5 0 05:20 26.09.2019
1313 Clouds 3 1015 100 10000 1.5 360 02:41 26.09.2019
1314 Clouds 3 1015 93 10000 1.5 320 01:49 26.09.2019
1315 Clouds 3 1014 100 10000 1 0 01:27 26.09.2019
1316 Clouds 3 1015 100 10000 1 0 00:54 26.09.2019
1317 Clouds 3 1015 100 10000 1 40 00:36 26.09.2019
1318 Clouds 3 1015 100 10000 1.5 20 23:45 25.09.2019
1319 Clouds 3 1014 93 10000 1.5 40 23:27 25.09.2019
1320 Clouds 4 1014 100 10000 1.5 50 22:56 25.09.2019
1321 Clouds 4 1014 93 10000 2.1 40 22:38 25.09.2019
1322 Clouds 4 1014 93 10000 2.1 40 22:38 25.09.2019
1323 -273 0 0 0 0 0 22:20 25.09.2019
1324 -273 0 0 0 0 0 22:20 25.09.2019
1325 Clouds 5 1014 93 10000 1.5 30 21:56 25.09.2019
1326 Clouds 5 1014 93 10000 1.5 80 21:38 25.09.2019
1327 Clouds 5 1014 93 10000 1.5 80 21:18 25.09.2019
1328 Clouds 6 1014 93 10000 1.5 70 20:56 25.09.2019
1329 Clouds 6 1015 87 10000 1 0 20:38 25.09.2019
1330 Clouds 6 1015 93 10000 1 0 20:19 25.09.2019
1331 Clouds 7 1015 75 10000 1.5 0 19:41 25.09.2019
1332 Clouds 7 1015 81 10000 1.5 80 19:22 25.09.2019
1333 Clouds 7 1015 81 10000 1.5 80 18:57 25.09.2019
1334 Clouds 7 1015 81 10000 1.5 100 18:39 25.09.2019
1335 Clouds 7 1015 81 10000 2.1 100 18:21 25.09.2019
1336 Clouds 7 1015 81 10000 2.1 100 17:58 25.09.2019
1337 Clouds 8 1015 81 10000 2.6 90 17:37 25.09.2019
1338 Clouds 8 1015 81 10000 2.6 90 17:18 25.09.2019
1339 Clouds 8 1015 75 10000 3.1 80 16:44 25.09.2019
1340 Clouds 8 1015 75 10000 3.1 80 16:26 25.09.2019
1341 Clouds 8 1015 75 10000 3.1 80 16:26 25.09.2019
1342 Rain 8 1015 75 10000 3.1 80 15:58 25.09.2019
1343 Rain 8 1015 75 10000 2.6 60 15:40 25.09.2019
1344 Rain 8 1015 75 10000 2.6 60 15:21 25.09.2019
1345 Rain 8 1015 75 10000 3.1 70 14:54 25.09.2019
1346 Rain 8 1015 75 10000 3.1 70 14:54 25.09.2019
1347 Clouds 8 1015 75 10000 3.6 60 14:36 25.09.2019
1348 Clouds 8 1015 81 10000 3.1 50 14:18 25.09.2019
1349 Clouds 8 1015 87 10000 3.6 80 13:41 25.09.2019
1350 Clouds 8 1015 87 10000 3.6 80 13:20 25.09.2019
1351 Clouds 7 1015 87 10000 4.1 70 12:58 25.09.2019
1352 Clouds 7 1015 93 10000 4.1 70 12:39 25.09.2019
1353 Clouds 7 1015 93 10000 4.1 70 12:39 25.09.2019
1354 Clouds 7 1015 87 10000 4.1 60 12:20 25.09.2019
1355 Clouds 7 1015 93 10000 4.1 60 11:42 25.09.2019
1356 Clouds 7 1015 93 10000 4.1 60 11:21 25.09.2019
1357 Rain 7 1015 100 10000 3.6 50 10:57 25.09.2019
1358 Rain 7 1015 100 5000 3.1 60 10:38 25.09.2019
1359 Rain 7 1015 100 6000 3.6 60 10:19 25.09.2019
1360 Rain 7 1015 100 5000 3.1 60 10:19 25.09.2019
1361 Rain 7 1015 100 5000 3.1 60 10:19 25.09.2019
1362 Rain 7 1015 100 6000 3.6 60 09:55 25.09.2019
1363 Rain 7 1015 100 6000 3.1 60 09:36 25.09.2019
1364 Drizzle 7 1015 100 6000 3.1 60 09:18 25.09.2019
1365 Drizzle 7 1014 100 4500 2.6 40 08:41 25.09.2019
1366 Rain 7 1014 100 4500 2.6 40 08:20 25.09.2019
1367 -273 0 0 0 0 0 07:55 25.09.2019
1368 Rain 6 1014 100 4500 2.6 60 07:55 25.09.2019
1369 Rain 6 1014 100 5000 2.6 80 07:36 25.09.2019
1370 Drizzle 6 1014 100 5000 2.1 80 07:18 25.09.2019
1371 Rain 6 1014 100 5000 1 0 06:37 25.09.2019
1372 Clouds 6 1014 100 6000 1.5 70 05:52 25.09.2019
1373 Clouds 6 1015 100 6000 1.5 60 05:26 25.09.2019
1374 Clouds 6 1015 100 6000 2.1 100 04:45 25.09.2019
1375 Rain 6 1015 100 10000 0.14 234.067 01:44 25.09.2019
1376 Rain 7 1016 93 10000 0.14 234.067 00:42 25.09.2019
1377 Rain 7 1016 93 10000 1.4 288.254 00:23 25.09.2019
1378 Rain 7 1016 100 10000 0.5 40 23:45 24.09.2019
1379 Rain 7 1016 100 10000 0.5 40 23:23 24.09.2019
1380 Rain 7 1016 100 10000 1.5 360 22:59 24.09.2019
1381 Rain 6 1016 100 10000 1.5 320 22:38 24.09.2019
1382 Clouds 7 1016 93 10000 1.5 250 22:20 24.09.2019
1383 Clouds 7 1016 93 10000 1.5 250 21:56 24.09.2019
1384 Clouds 7 1016 93 10000 1 240 21:37 24.09.2019
1385 Rain 7 1016 93 10000 1 240 21:18 24.09.2019
1386 Rain 7 1016 100 10000 1 0 20:56 24.09.2019
1387 Rain 7 1016 100 10000 2.1 170 20:38 24.09.2019
1388 Rain 7 1016 100 10000 2.1 170 20:19 24.09.2019
1389 Rain 6 1017 93 10000 1.5 110 19:43 24.09.2019
1390 Rain 6 1017 93 10000 1.5 110 19:21 24.09.2019
1391 Rain 7 1017 93 10000 1.5 100 18:58 24.09.2019
1392 Rain 7 1017 93 10000 1.5 120 18:39 24.09.2019
1393 Rain 7 1017 93 10000 2.6 130 18:21 24.09.2019
1394 Rain 7 1017 93 10000 2.6 130 17:57 24.09.2019
1395 Rain 7 1017 87 10000 2.6 160 17:38 24.09.2019
1396 Rain 7 1017 87 10000 2.6 160 17:20 24.09.2019
1397 Rain 7 1018 87 10000 1 0 16:43 24.09.2019
1398 Rain 7 1018 87 10000 0.5 0 16:21 24.09.2019
1399 Rain 7 1018 87 10000 0.5 0 15:59 24.09.2019
1400 Rain 7 1019 81 10000 2.6 260 15:41 24.09.2019
1401 Rain 7 1019 81 10000 2.6 260 15:22 24.09.2019
1402 Clouds 8 1019 80 10000 4.1 240 14:40 24.09.2019
1403 Clouds 9 1019 57 10000 3.1 250 14:19 24.09.2019
1404 Clouds 9 1019 57 10000 2.1 240 13:45 24.09.2019
1405 Clouds 9 1019 57 10000 2.1 240 13:24 24.09.2019
1406 Clouds 9 1019 57 10000 2.1 230 12:59 24.09.2019
1407 Clouds 9 1019 57 10000 1.5 210 12:39 24.09.2019
1408 Clouds 9 1019 57 10000 1.5 210 12:18 24.09.2019
1409 Clouds 9 1019 56 10000 2.1 220 12:18 24.09.2019
1410 Clouds 9 1019 53 10000 1.5 130 11:42 24.09.2019
1411 Clouds 9 1019 53 10000 1.5 130 11:22 24.09.2019
1412 Clouds 9 1020 57 10000 1 0 10:57 24.09.2019
1413 Clouds 9 1020 65 10000 1.74 224.465 10:37 24.09.2019
1414 Clear 8 1020 75 10000 1 0 10:18 24.09.2019
1415 Clear 7 1020 81 10000 1 0 09:45 24.09.2019
1416 Clear 7 1020 81 10000 1 0 09:27 24.09.2019
1417 Clear 6 1020 80 10000 1 0 08:57 24.09.2019
1418 Clear 5 1020 93 10000 1 0 08:38 24.09.2019
1419 Clear 4 1020 93 10000 1 0 08:19 24.09.2019
1420 Clear 4 1020 93 10000 1 0 08:19 24.09.2019
1421 Clouds 4 1020 93 10000 0.5 0 07:52 24.09.2019
1422 Clouds 3 1020 100 10000 1 0 07:25 24.09.2019
1423 Clear 2 1020 93 10000 1 320 06:57 24.09.2019
1424 Clear 2 1020 100 10000 1.5 340 06:36 24.09.2019
1425 Clear 2 1020 93 10000 1 0 05:51 24.09.2019
1426 Clear 3 1020 93 10000 1.5 260 05:20 24.09.2019
1427 Clear 3 1020 93 10000 1 280 03:45 24.09.2019
1428 Clear 3 1020 93 10000 1.5 300 02:57 24.09.2019
1429 Clear 3 1020 93 10000 2.6 290 02:38 24.09.2019
1430 Clear 3 1020 86 10000 2.1 290 01:22 24.09.2019
1431 Clouds 3 1021 86 10000 3.1 290 00:37 24.09.2019
1432 Clouds 4 1020 86 10000 2.6 290 00:18 24.09.2019
1433 Clear 4 1021 86 10000 2.6 280 23:40 23.09.2019
1434 Clear 3 1021 86 10000 2.6 280 23:21 23.09.2019
1435 Clear 3 1021 93 10000 3.1 270 22:40 23.09.2019
1436 Clear 2 1021 89 10000 2.1 280 22:21 23.09.2019
1437 Clear 2 1021 89 10000 2.1 280 21:58 23.09.2019
1438 Clouds 3 1021 89 10000 2.1 290 21:40 23.09.2019
1439 Clouds 4 1021 86 10000 2.6 280 21:19 23.09.2019
1440 Clouds 4 1021 86 10000 2.6 280 20:56 23.09.2019
1441 Clouds 4 1021 86 10000 2.6 270 20:37 23.09.2019
1442 Clouds 4 1021 86 10000 2.6 270 20:18 23.09.2019
1443 Clouds 4 1021 86 10000 2.6 270 20:18 23.09.2019
1444 Clouds 5 1021 75 10000 3.1 300 19:39 23.09.2019
1445 Clouds 5 1021 68 10000 3.1 300 19:21 23.09.2019
1446 Clouds 6 1021 68 10000 3.1 300 18:57 23.09.2019
1447 Clouds 7 1021 65 10000 4.1 300 18:38 23.09.2019
1448 Clouds 7 1021 61 10000 3.6 300 18:18 23.09.2019
1449 Clouds 8 1021 61 10000 4.6 300 17:55 23.09.2019
1450 Clouds 8 1021 61 10000 4.6 300 17:37 23.09.2019
1451 Clouds 9 1021 61 10000 4.6 300 17:18 23.09.2019
1452 Clouds 9 1021 60 10000 6.7 330 16:40 23.09.2019
1453 Clouds 9 1021 53 10000 6.2 290 16:22 23.09.2019
1454 Clouds 9 1021 53 10000 6.2 290 15:59 23.09.2019
1455 Clouds 10 1021 53 10000 5.7 310 15:41 23.09.2019
1456 Clouds 10 1021 53 10000 5.7 310 15:20 23.09.2019
1457 Clouds 10 1022 52 10000 6.2 330 14:59 23.09.2019
1458 Clouds 9 1022 57 10000 4.6 340 14:39 23.09.2019
1459 Clouds 9 1022 57 10000 4.6 340 14:19 23.09.2019
1460 Clouds 9 1022 57 10000 4.1 330 13:57 23.09.2019
1461 Clouds 9 1022 57 10000 5.1 320 13:37 23.09.2019
1462 Clouds 10 1022 57 10000 5.1 320 13:18 23.09.2019
1463 Clouds 9 1022 52 10000 5.1 320 12:41 23.09.2019
1464 Clouds 9 1022 60 10000 5.1 320 12:21 23.09.2019
1465 Clouds 9 1023 65 10000 4.6 320 11:55 23.09.2019
1466 Clouds 9 1023 65 10000 4.6 320 11:37 23.09.2019
1467 Clouds 8 1023 65 10000 4.6 320 11:18 23.09.2019
1468 Clouds 8 1023 65 10000 4.6 320 11:18 23.09.2019
1469 Clouds 8 1023 70 10000 3.6 330 10:44 23.09.2019
1470 Clear 6 1023 80 10000 4.1 310 10:20 23.09.2019
1471 Clear 6 1023 80 10000 3.6 290 09:49 23.09.2019
1472 Clear 5 1023 80 10000 3.6 290 09:29 23.09.2019
1473 Clear 4 1023 86 10000 3.1 280 08:58 23.09.2019
1474 Clear 3 1023 79 10000 3.1 280 08:39 23.09.2019
1475 Clear 2 1023 79 10000 3.1 290 08:19 23.09.2019
1476 Clear 0 1023 100 10000 3.1 290 07:38 23.09.2019
1477 Clear 0 1023 100 10000 3.1 290 07:20 23.09.2019
1478 Clear -1 1023 92 10000 2.1 290 06:20 23.09.2019
1479 Clear 0 1023 92 10000 3.1 310 05:44 23.09.2019
1480 Clear -1 1022 92 10000 3.6 320 04:59 23.09.2019
1481 Clear -1 1022 92 10000 3.1 310 04:37 23.09.2019
1482 Clear 0 1021 92 10000 1.5 290 01:26 23.09.2019
1483 Clear 1 1021 86 10000 1.5 330 00:39 23.09.2019
1484 Clear 2 1021 80 10000 3.1 320 00:19 23.09.2019
1485 Clear 2 1020 81 10000 2.1 330 23:41 22.09.2019
1486 Clear 2 1020 81 10000 2.1 330 23:22 22.09.2019
1487 Clear 2 1020 81 10000 3.1 320 22:56 22.09.2019
1488 Clear 2 1020 81 10000 3.6 330 22:37 22.09.2019
1489 Clear 2 1020 86 10000 3.6 320 22:19 22.09.2019
1490 Clear 2 1020 81 10000 3.1 310 21:42 22.09.2019
1491 Clear 3 1020 75 10000 3.1 310 21:21 22.09.2019
1492 Clear 3 1019 73 10000 3.1 300 20:45 22.09.2019
1493 Clear 3 1019 73 10000 3.1 300 20:45 22.09.2019
1494 Clear 3 1019 73 10000 3.1 300 20:27 22.09.2019
1495 Clear 4 1019 73 10000 3.1 320 19:59 22.09.2019
1496 Clear 4 1019 73 10000 3.1 320 19:59 22.09.2019
1497 Clear 4 1019 65 10000 3.1 310 19:41 22.09.2019
1498 Clear 5 1019 65 10000 3.1 310 19:21 22.09.2019
1499 Clear 5 1018 73 10000 3.6 330 18:57 22.09.2019
1500 Clouds 7 1018 52 10000 4.1 340 18:38 22.09.2019
1501 Clouds 7 1018 52 10000 4.1 340 18:18 22.09.2019
1502 Clouds 8 1018 49 10000 5.7 330 17:47 22.09.2019
1503 Clouds 9 1018 49 10000 5.7 330 17:27 22.09.2019
1504 Clouds 9 1017 49 10000 5.7 350 16:58 22.09.2019
1505 Clouds 9 1017 49 10000 5.7 350 16:58 22.09.2019
1506 Clouds 9 1017 56 10000 5.1 330 16:40 22.09.2019
1507 Clouds 9 1017 49 10000 6.7 330 16:20 22.09.2019
1508 Clouds 9 1017 49 10000 6.7 330 15:46 22.09.2019
1509 Clouds 10 1017 49 10000 6.7 330 15:26 22.09.2019
1510 Clouds 10 1017 57 10000 5.1 350 14:57 22.09.2019
1511 Clouds 10 1017 57 10000 5.7 340 14:39 22.09.2019
1512 Clouds 10 1017 57 10000 5.7 340 14:21 22.09.2019
1513 Clouds 9 1016 47 10000 5.7 340 13:43 22.09.2019
1514 Clouds 9 1016 47 10000 5.7 340 13:43 22.09.2019
1515 Clouds 9 1016 46 10000 5.7 340 13:25 22.09.2019
1516 Clouds 9 1016 46 10000 5.7 340 12:57 22.09.2019
1517 Clouds 9 1015 65 10000 5.7 340 12:39 22.09.2019
1518 Clouds 9 1015 65 10000 5.7 340 12:21 22.09.2019
1519 Clouds 8 1015 65 10000 5.7 340 11:56 22.09.2019
1520 Clouds 8 1015 65 10000 5.7 340 11:56 22.09.2019
1521 Clouds 8 1015 65 10000 4.6 350 11:37 22.09.2019
1522 Clouds 8 1015 65 10000 4.6 350 11:19 22.09.2019
1523 Clouds 8 1015 75 10000 4.6 340 10:42 22.09.2019
1524 Clouds 8 1015 75 10000 4.6 340 10:42 22.09.2019
1525 Clouds 8 1015 75 10000 4.6 340 10:20 22.09.2019
1526 Clouds 8 1015 75 10000 4.6 340 10:20 22.09.2019
1527 Clouds 7 1015 81 10000 3.1 330 09:55 22.09.2019
1528 Clear 6 1014 81 10000 4.1 350 09:36 22.09.2019
1529 Clear 6 1014 86 10000 4.6 340 09:18 22.09.2019
1530 Clear 5 1014 93 10000 3.6 340 08:42 22.09.2019
1531 Clear 4 1013 93 10000 3.6 340 08:22 22.09.2019
1532 Clear 4 1013 93 10000 3.1 330 07:46 22.09.2019
1533 Clear 3 1013 93 10000 3.1 330 07:26 22.09.2019
1534 Clear 3 1013 100 10000 3.6 330 06:59 22.09.2019
1535 Clear 3 1013 93 10000 3.6 320 06:37 22.09.2019
1536 Clear 4 1012 93 10000 4.1 320 05:18 22.09.2019
1537 Clear 5 1011 86 10000 4.1 330 02:45 22.09.2019
1538 Clear 5 1011 86 10000 4.1 330 02:24 22.09.2019
1539 Clouds 6 1010 87 10000 5.1 320 01:43 22.09.2019
1540 Clouds 6 1010 93 10000 4.6 320 00:53 22.09.2019
1541 Clouds 7 1010 93 10000 3.6 310 00:32 22.09.2019
1542 Clouds 7 1009 93 10000 3.6 320 23:54 21.09.2019
1543 Clouds 7 1009 93 10000 3.6 320 23:36 21.09.2019
1544 Rain 7 1009 100 10000 4.1 320 22:46 21.09.2019
1545 Rain 7 1009 100 10000 3.1 320 22:25 21.09.2019
1546 Rain 8 1009 100 4000 4.6 330 21:59 21.09.2019
1547 Rain 8 1009 100 4500 3.6 320 21:41 21.09.2019
1548 Rain 8 1009 100 4500 3.6 320 21:19 21.09.2019
1549 Rain 8 1009 93 4000 3.1 300 20:55 21.09.2019
1550 Rain 8 1009 100 10000 2.1 310 20:36 21.09.2019
1551 Rain 8 1009 100 6000 3.1 320 20:18 21.09.2019
1552 Rain 8 1008 93 6000 3.6 310 19:42 21.09.2019
1553 Rain 8 1008 93 6000 3.1 300 19:19 21.09.2019
1554 Rain 9 1008 93 10000 3.1 290 18:40 21.09.2019
1555 Rain 9 1008 93 10000 3.1 290 18:21 21.09.2019
1556 Clouds 9 1008 81 10000 2.1 330 17:43 21.09.2019
1557 Clouds 10 1008 81 10000 2.1 330 17:23 21.09.2019
1558 Clouds 10 1008 76 10000 3.1 330 16:57 21.09.2019
1559 Clouds 10 1008 76 10000 2.6 340 16:37 21.09.2019
1560 Clouds 10 1008 76 10000 3.1 330 16:19 21.09.2019
1561 Clouds 10 1008 81 10000 4.1 350 15:43 21.09.2019
1562 Clouds 10 1008 81 10000 4.1 350 15:22 21.09.2019
1563 Drizzle 10 1008 93 6000 4.6 340 14:48 21.09.2019
1564 Drizzle 10 1008 93 6000 4.6 340 14:29 21.09.2019
1565 Clouds 10 1007 87 10000 2.6 330 13:50 21.09.2019
1566 Clouds 10 1007 81 10000 3.1 340 13:29 21.09.2019
1567 Clouds 10 1007 87 10000 3.1 330 12:59 21.09.2019
1568 Clouds 10 1007 87 10000 3.1 330 12:41 21.09.2019
1569 Clouds 10 1007 87 10000 3.1 330 12:21 21.09.2019
1570 Clouds 10 1007 87 10000 3.1 340 11:58 21.09.2019
1571 Clouds 10 1007 82 0 1.84 328.7 11:39 21.09.2019
1572 Clouds 10 1007 87 10000 3.6 290 11:19 21.09.2019
1573 Clouds 9 1007 93 10000 3.1 310 10:41 21.09.2019
1574 Clouds 9 1007 93 10000 3.1 310 10:22 21.09.2019
1575 Clouds 9 1007 93 10000 3.6 300 09:57 21.09.2019
1576 Clouds 9 1007 93 10000 2.1 300 09:38 21.09.2019
1577 Clouds 9 1007 93 10000 2.1 300 09:19 21.09.2019
1578 Clouds 8 1007 100 10000 1 0 08:50 21.09.2019
1579 Clouds 8 1007 100 10000 1 0 08:25 21.09.2019
1580 Drizzle 7 1007 100 10000 1.5 0 07:40 21.09.2019
1581 Rain 7 1007 93 9000 1 0 07:20 21.09.2019
1582 Rain 7 1008 93 8000 1.5 110 06:36 21.09.2019
1583 Rain 7 1008 100 6000 2.1 110 05:51 21.09.2019
1584 Rain 6 1009 100 10000 1.5 100 04:48 21.09.2019
1585 Rain 6 1009 93 10000 2.1 100 04:29 21.09.2019
1586 Clouds 6 1011 100 10000 1 0 02:26 21.09.2019
1587 Clouds 6 1011 93 10000 1.5 130 01:50 21.09.2019
1588 Clouds 6 1011 93 10000 1.5 130 01:32 21.09.2019
1589 Clear 5 1012 93 10000 1.5 230 00:26 21.09.2019
1590 Clouds 6 1013 87 10000 2.6 230 23:58 20.09.2019
1591 Clouds 6 1013 87 10000 2.6 220 23:31 20.09.2019
1592 Rain 6 1013 87 10000 2.1 230 22:59 20.09.2019
1593 Clouds 6 1013 87 10000 2.6 260 22:38 20.09.2019
1594 Clouds 6 1013 87 10000 2.6 260 22:20 20.09.2019
1595 Rain 7 1014 87 10000 3.6 260 21:55 20.09.2019
1596 Clouds 7 1014 87 10000 4.6 260 21:37 20.09.2019
1597 Rain 7 1014 87 10000 3.1 230 21:18 20.09.2019
1598 Clouds 7 1014 75 10000 2.1 230 20:41 20.09.2019
1599 Clouds 7 1014 75 10000 2.1 230 20:41 20.09.2019
1600 Clouds 7 1014 75 10000 2.6 220 20:21 20.09.2019
1601 Clouds 7 1014 75 10000 2.6 220 19:59 20.09.2019
1602 Clouds 7 1014 70 10000 3.1 230 19:40 20.09.2019
1603 Clouds 7 1014 70 10000 2.1 240 19:20 20.09.2019
1604 Rain 8 1014 61 10000 2.6 250 18:40 20.09.2019
1605 Rain 9 1014 61 10000 2.6 250 18:21 20.09.2019
1606 Rain 9 1014 57 10000 2.6 250 17:59 20.09.2019
1607 Rain 9 1014 53 10000 3.1 260 17:41 20.09.2019
1608 Rain 10 1014 53 10000 3.1 260 17:22 20.09.2019
1609 Rain 10 1015 64 10000 4.6 260 16:43 20.09.2019
1610 Rain 10 1015 64 10000 4.6 260 16:21 20.09.2019
1611 Rain 10 1015 50 10000 5.1 240 15:56 20.09.2019
1612 Rain 11 1015 64 10000 3.6 270 15:37 20.09.2019
1613 Rain 11 1015 54 10000 3.6 270 15:19 20.09.2019
1614 Rain 11 1015 50 10000 5.1 270 14:42 20.09.2019
1615 Clouds 11 1016 54 10000 4.6 300 14:19 20.09.2019
1616 Clouds 10 1016 53 10000 3.6 290 13:48 20.09.2019
1617 Clouds 10 1016 53 10000 3.6 290 13:28 20.09.2019
1618 Clouds 10 1016 53 10000 3.6 290 12:57 20.09.2019
1619 Clouds 10 1016 57 10000 4.6 300 12:37 20.09.2019
1620 Clouds 10 1016 57 10000 4.6 300 12:18 20.09.2019
1621 Clouds 9 1016 70 10000 3.6 270 11:49 20.09.2019
1622 Clouds 9 1016 70 10000 3.6 270 11:21 20.09.2019
1623 Clouds 9 1017 70 10000 4.1 280 10:43 20.09.2019
1624 Clouds 8 1017 70 10000 4.1 280 10:24 20.09.2019
1625 Clouds 7 1017 75 10000 3.1 280 09:59 20.09.2019
1626 Clouds 7 1017 80 10000 2.6 270 09:37 20.09.2019
1627 Clouds 7 1017 80 10000 2.6 270 09:37 20.09.2019
1628 Clouds 6 1016 86 10000 3.1 280 09:18 20.09.2019
1629 Clouds 4 1016 93 10000 3.6 280 08:41 20.09.2019
1630 Clouds 3 1016 93 10000 3.6 280 08:23 20.09.2019
1631 Clouds 2 1017 79 10000 4.1 280 07:47 20.09.2019
1632 Clouds 1 1017 80 10000 3.1 270 07:28 20.09.2019
1633 Clouds 1 1017 80 10000 3.1 290 06:44 20.09.2019
1634 Clouds 0 1017 90 10000 3.1 290 06:22 20.09.2019
1635 Clear 0 1017 90 10000 3.6 290 05:47 20.09.2019
1636 Clear 1 1017 100 10000 3.1 310 03:42 20.09.2019
1637 Clear 1 1017 100 10000 3.1 310 03:19 20.09.2019
1638 Clear 2 1017 93 10000 3.6 310 01:44 20.09.2019
1639 Clear 3 1017 93 10000 3.6 310 00:53 20.09.2019
1640 Clear 3 1017 93 10000 3.6 310 00:25 20.09.2019
1641 Clear 3 1016 93 10000 4.6 310 23:42 19.09.2019
1642 Clear 4 1016 93 10000 4.6 310 23:19 19.09.2019
1643 Clear 4 1016 93 10000 3.6 310 22:55 19.09.2019
1644 Clear 4 1016 86 10000 3.6 310 22:37 19.09.2019
1645 Clear 4 1016 86 10000 3.6 320 22:18 19.09.2019
1646 Clear 4 1016 86 10000 3.6 320 21:55 19.09.2019
1647 Clouds 4 1015 86 10000 4.1 320 21:36 19.09.2019
1648 Clouds 5 1015 86 10000 4.1 320 21:18 19.09.2019
1649 Clouds 5 1015 80 10000 4.1 330 20:43 19.09.2019
1650 Clouds 6 1015 80 10000 4.1 330 20:22 19.09.2019
1651 Clouds 6 1015 75 10000 4.6 340 19:55 19.09.2019
1652 Clouds 6 1015 75 10000 4.6 340 19:37 19.09.2019
1653 Clouds 7 1014 81 10000 3.1 310 19:19 19.09.2019
1654 Clouds 7 1014 75 10000 3.1 310 18:42 19.09.2019
1655 Clouds 8 1014 75 10000 3.1 310 18:24 19.09.2019
1656 Rain 8 1014 81 10000 3.1 310 17:54 19.09.2019
1657 Rain 9 1014 70 10000 7.7 280 17:36 19.09.2019
1658 Rain 9 1013 66 10000 3.1 330 17:18 19.09.2019
1659 Rain 9 1013 66 10000 4.6 250 16:43 19.09.2019
1660 Rain 9 1013 66 10000 4.6 250 16:43 19.09.2019
1661 Rain 10 1013 66 10000 4.6 250 16:20 19.09.2019
1662 Rain 10 1013 61 10000 5.1 250 15:56 19.09.2019
1663 Rain 10 1013 61 10000 4.1 260 15:38 19.09.2019
1664 Rain 10 1013 53 10000 2.6 320 15:18 19.09.2019
1665 Rain 10 1013 53 10000 4.1 280 14:41 19.09.2019
1666 Rain 11 1013 53 10000 4.1 280 14:22 19.09.2019
1667 Rain 11 1013 78 10000 3.1 260 13:58 19.09.2019
1668 Clouds 11 1013 53 10000 3.1 290 13:38 19.09.2019
1669 Clouds 11 1013 53 10000 3.1 290 13:38 19.09.2019
1670 Clouds 11 1013 53 10000 3.6 290 13:19 19.09.2019
1671 Clouds 11 1013 53 10000 2.6 280 12:38 19.09.2019
1672 Clouds 11 1013 57 10000 2.6 270 12:18 19.09.2019
1673 Clouds 10 1013 57 10000 2.1 270 11:42 19.09.2019
1674 Clouds 10 1013 57 10000 2.1 270 11:22 19.09.2019
1675 Clouds 10 1013 57 10000 2.1 270 11:22 19.09.2019
1676 Clear 9 1013 70 10000 2.1 280 10:59 19.09.2019
1677 Clear 9 1013 70 10000 1.5 270 10:40 19.09.2019
1678 Clear 8 1013 87 10000 2.1 280 10:21 19.09.2019
1679 Clear 8 1013 87 10000 2.1 280 09:58 19.09.2019
1680 Clear 6 1013 87 10000 1 0 09:40 19.09.2019
1681 Clear 6 1013 87 10000 1 0 09:40 19.09.2019
1682 Clear 6 1013 87 10000 1 0 09:40 19.09.2019
1683 Clear 6 1013 87 10000 1 0 09:19 19.09.2019
1684 Clear 4 1013 100 10000 1 0 08:51 19.09.2019
1685 Clear 3 1013 100 10000 1 0 08:24 19.09.2019
1686 Clear 3 1012 80 10000 0.5 330 07:44 19.09.2019
1687 Clear 2 1012 80 10000 1 270 07:22 19.09.2019
1688 Clear 2 1012 80 10000 1 270 06:57 19.09.2019
1689 Clear 2 1012 100 10000 1.5 280 06:37 19.09.2019
1690 Clear 1 1012 100 10000 0.5 0 06:19 19.09.2019
1691 Clear 1 1012 88 10000 1 310 05:42 19.09.2019
1692 Clear 2 1012 88 10000 1.5 310 04:19 19.09.2019
1693 Clear 1 1012 90 10000 1.5 330 03:20 19.09.2019
1694 Clear 2 1011 90 10000 1 350 01:40 19.09.2019
1695 Clear 2 1011 93 10000 0.5 330 01:19 19.09.2019
1696 Clear 2 1011 93 10000 1.5 350 00:42 19.09.2019
1697 Clear 3 1011 93 10000 2.6 340 00:18 19.09.2019
1698 Clear 3 1010 93 10000 3.1 330 23:37 18.09.2019
1699 Clear 4 1010 93 10000 2.6 340 23:19 18.09.2019
1700 Clear 4 1010 86 10000 2.6 330 22:38 18.09.2019
1701 Clear 4 1010 100 10000 3.1 330 22:19 18.09.2019
1702 Clear 4 1010 100 10000 3.1 330 21:57 18.09.2019
1703 Clear 4 1010 93 10000 3.1 330 21:39 18.09.2019
1704 Clear 4 1010 93 10000 3.1 330 21:18 18.09.2019
1705 Clear 5 1009 100 10000 2.6 330 20:57 18.09.2019
1706 Clear 5 1009 100 10000 2.6 330 20:57 18.09.2019
1707 Clear 5 1009 93 10000 2.6 340 20:39 18.09.2019
1708 Clouds 5 1009 93 10000 2.1 330 20:20 18.09.2019
1709 Clear 5 1009 93 10000 2.6 340 20:20 18.09.2019
1710 Clouds 6 1009 93 10000 2.1 330 19:56 18.09.2019
1711 Clouds 6 1009 93 10000 2.1 330 19:37 18.09.2019
1712 Rain 7 1008 75 10000 2.6 330 19:18 18.09.2019
1713 Rain 8 1008 75 10000 2.6 330 18:54 18.09.2019
1714 Rain 8 1008 66 10000 2.1 340 18:36 18.09.2019
1715 Rain 9 1008 66 10000 2.1 340 18:18 18.09.2019
1716 Rain 9 1007 61 10000 4.6 340 17:54 18.09.2019
1717 Rain 9 1007 66 10000 5.7 340 17:36 18.09.2019
1718 Rain 10 1007 50 10000 5.1 360 17:18 18.09.2019
1719 Rain 10 1006 61 10000 4.6 340 16:42 18.09.2019
1720 Rain 10 1006 61 10000 4.6 340 16:22 18.09.2019
1721 Rain 10 1006 66 10000 6.2 340 15:57 18.09.2019
1722 Rain 11 1006 62 10000 3.6 340 15:39 18.09.2019
1723 Rain 11 1006 62 10000 3.6 340 15:20 18.09.2019
1724 Rain 11 1005 57 10000 6.2 30 14:58 18.09.2019
1725 Rain 11 1005 66 10000 3.6 20 14:40 18.09.2019
1726 Rain 11 1005 66 10000 3.6 20 14:22 18.09.2019
1727 Clouds 11 1005 71 10000 3.1 290 13:58 18.09.2019
1728 Rain 11 1005 62 10000 3.1 10 13:38 18.09.2019
1729 Clouds 11 1005 66 10000 3.6 20 13:18 18.09.2019
1730 Clouds 11 1004 61 10000 5.1 350 12:44 18.09.2019
1731 Clouds 11 1004 61 10000 5.1 350 12:26 18.09.2019
1732 Clouds 10 1004 61 10000 5.1 20 11:40 18.09.2019
1733 Clouds 10 1004 61 10000 5.1 20 11:20 18.09.2019
1734 Clouds 10 1003 71 10000 4.1 360 10:58 18.09.2019
1735 Clouds 10 1003 76 10000 4.6 10 10:39 18.09.2019
1736 Clouds 10 1003 76 10000 4.6 20 10:20 18.09.2019
1737 Clouds 10 1003 76 10000 4.6 20 10:20 18.09.2019
1738 Clouds 10 1003 76 10000 4.6 20 09:57 18.09.2019
1739 Clouds 10 1002 81 10000 4.1 20 09:37 18.09.2019
1740 Clouds 10 1002 81 10000 4.1 20 09:37 18.09.2019
1741 Clouds 9 1002 87 10000 4.1 360 09:19 18.09.2019
1742 Clear 8 1002 87 10000 4.1 350 08:41 18.09.2019
1743 Clear 8 1002 87 10000 4.1 350 08:23 18.09.2019
1744 Clouds 7 1001 93 10000 3.1 350 07:45 18.09.2019
1745 Clouds 7 1001 93 10000 3.1 350 07:26 18.09.2019
1746 Clouds 7 1001 93 10000 3.6 350 06:55 18.09.2019
1747 Clouds 7 1000 100 10000 3.1 340 06:31 18.09.2019
1748 Clear 7 1000 100 10000 3.6 340 05:40 18.09.2019
1749 Clear 7 999 93 10000 2.6 360 04:42 18.09.2019
1750 Clouds 7 999 93 10000 2.6 350 02:41 18.09.2019
1751 Clouds 7 998 93 10000 3.1 350 01:54 18.09.2019
1752 Clouds 7 998 93 10000 3.1 350 01:18 18.09.2019
1753 Clouds 7 998 93 10000 2.6 330 00:42 18.09.2019
1754 Clouds 7 998 93 10000 2.6 330 00:19 18.09.2019
1755 Rain 8 998 87 10000 3.1 340 23:42 17.09.2019
1756 Rain 8 998 87 10000 3.1 340 23:22 17.09.2019
1757 Rain 8 998 87 10000 3.1 360 22:42 17.09.2019
1758 Rain 8 998 87 10000 3.1 360 22:24 17.09.2019
1759 Rain 8 998 81 10000 3.1 350 21:55 17.09.2019
1760 Clouds 8 998 87 10000 2.6 340 21:36 17.09.2019
1761 Clouds 8 998 87 10000 2.6 340 21:18 17.09.2019
1762 Clouds 8 997 87 10000 2.1 330 20:57 17.09.2019
1763 Clouds 8 997 76 10000 2.1 340 20:39 17.09.2019
1764 Clouds 9 997 76 10000 2.6 340 20:21 17.09.2019
1765 Clouds 8 997 76 10000 2.6 340 20:21 17.09.2019
1766 Clouds 9 997 76 10000 2.6 340 19:58 17.09.2019
1767 Clouds 9 997 76 10000 2.6 340 19:39 17.09.2019
1768 Clouds 9 997 76 10000 2.6 340 19:39 17.09.2019
1769 Clouds 9 997 76 10000 2.1 350 19:19 17.09.2019
1770 Clouds 9 997 76 10000 2.1 350 19:19 17.09.2019
1771 -273 0 0 0 0 0 18:55 17.09.2019
1772 Clouds 9 997 71 10000 4.1 340 18:55 17.09.2019
1773 Clouds 10 997 71 10000 4.1 340 18:36 17.09.2019
1774 Clouds 10 997 71 10000 4.1 340 18:18 17.09.2019
1775 Clouds 11 997 66 10000 3.1 330 17:44 17.09.2019
1776 Clouds 11 997 62 10000 4.6 320 17:19 17.09.2019
1777 Clouds 11 997 66 10000 3.1 330 17:19 17.09.2019
1778 Clouds 11 997 62 10000 4.6 320 16:56 17.09.2019
1779 Clouds 11 997 62 10000 4.1 330 16:37 17.09.2019
1780 Clouds 11 997 62 10000 4.1 330 16:19 17.09.2019
1781 Clouds 11 997 62 10000 4.1 310 15:39 17.09.2019
1782 Clouds 11 997 66 10000 3.1 340 15:20 17.09.2019
1783 Clouds 11 997 66 10000 3.1 340 14:56 17.09.2019
1784 Clouds 11 997 66 10000 4.1 350 14:37 17.09.2019
1785 Clouds 11 997 66 10000 4.1 350 14:19 17.09.2019
1786 Clouds 11 997 71 10000 3.6 340 13:43 17.09.2019
1787 Clouds 11 997 71 10000 3.6 340 13:25 17.09.2019
1788 Clouds 11 997 66 10000 4.6 320 12:59 17.09.2019
1789 Clouds 10 997 70 10000 3.6 310 12:38 17.09.2019
1790 Clouds 10 997 70 10000 3.6 310 12:19 17.09.2019
1791 Clouds 10 997 76 10000 3.6 320 11:43 17.09.2019
1792 Clouds 9 997 76 10000 3.6 320 11:25 17.09.2019
1793 Clouds 9 996 76 10000 3.6 320 10:56 17.09.2019
1794 Clouds 9 996 81 10000 3.6 320 10:38 17.09.2019
1795 Clouds 9 996 81 10000 3.6 320 10:20 17.09.2019
1796 Clouds 8 996 81 10000 3.1 310 09:42 17.09.2019
1797 Clouds 7 996 81 10000 3.1 310 09:23 17.09.2019
1798 Clear 7 996 93 10000 3.1 290 08:51 17.09.2019
1799 Clouds 6 996 87 10000 3.1 290 08:33 17.09.2019
1800 Clouds 6 996 87 10000 3.1 290 08:33 17.09.2019
1801 Clouds 6 996 93 10000 3.1 290 07:59 17.09.2019
1802 Clouds 5 996 93 10000 3.6 290 07:41 17.09.2019
1803 Clouds 5 996 93 10000 3.6 280 07:23 17.09.2019
1804 Clouds 4 996 100 10000 2.6 280 06:51 17.09.2019
1805 Clouds 4 996 100 10000 2.6 280 06:25 17.09.2019
1806 Clouds 5 996 93 10000 3.1 280 05:50 17.09.2019
1807 Clear 5 996 100 10000 3.1 290 04:32 17.09.2019
1808 Clear 6 996 93 10000 3.6 290 02:59 17.09.2019
1809 Clear 6 996 93 10000 3.6 290 02:39 17.09.2019
1810 Clear 6 996 93 10000 3.6 290 02:39 17.09.2019
1811 Clear 7 996 93 10000 4.1 280 01:34 17.09.2019
1812 Clouds 7 996 93 10000 4.6 290 00:43 17.09.2019
1813 Clouds 8 996 93 10000 3.6 300 23:41 16.09.2019
1814 Clouds 8 996 93 10000 4.1 300 23:19 16.09.2019
1815 Clouds 8 996 93 10000 4.1 300 23:19 16.09.2019
1816 Clouds 8 996 93 10000 4.1 300 22:57 16.09.2019
1817 Clouds 8 996 87 10000 4.1 300 22:39 16.09.2019
1818 Clouds 9 996 87 10000 4.1 300 22:21 16.09.2019
1819 Clouds 9 996 87 10000 4.1 300 21:55 16.09.2019
1820 Clouds 9 996 93 10000 4.1 290 21:37 16.09.2019
1821 Clouds 9 995 87 10000 3.1 300 21:18 16.09.2019
1822 Clouds 9 995 87 10000 3.6 310 20:40 16.09.2019
1823 Clouds 9 995 87 10000 3.6 310 20:22 16.09.2019
1824 Clouds 9 995 87 10000 3.6 320 19:57 16.09.2019
1825 Clouds 9 995 81 10000 4.1 330 19:39 16.09.2019
1826 Rain 9 994 81 10000 3.6 330 19:19 16.09.2019
1827 Rain 10 994 81 10000 4.1 330 18:47 16.09.2019
1828 Rain 10 994 81 10000 4.1 330 18:29 16.09.2019
1829 Rain 10 994 76 10000 4.6 310 17:58 16.09.2019
1830 Clouds 11 994 76 10000 4.6 310 17:39 16.09.2019
1831 Clouds 11 994 76 10000 4.6 310 17:39 16.09.2019
1832 Clouds 11 994 76 10000 4.6 310 17:21 16.09.2019
1833 Clouds 11 994 76 10000 4.6 310 17:21 16.09.2019
1834 Clouds 11 993 76 10000 3.6 310 16:55 16.09.2019
1835 Clouds 11 993 76 10000 4.1 340 16:37 16.09.2019
1836 Clouds 11 993 76 10000 4.1 340 16:18 16.09.2019
1837 Clouds 12 993 71 10000 5.1 310 15:54 16.09.2019
1838 Clouds 12 993 71 10000 5.1 310 15:54 16.09.2019
1839 Clouds 12 993 71 10000 5.7 300 15:36 16.09.2019
1840 Clouds 12 993 71 10000 5.7 300 15:18 16.09.2019
1841 Clouds 12 992 71 10000 5.7 310 14:42 16.09.2019
1842 Clouds 12 992 71 10000 5.7 310 14:22 16.09.2019
1843 Clouds 12 992 71 10000 4.1 300 13:57 16.09.2019
1844 Rain 12 991 81 10000 4.1 300 13:38 16.09.2019
1845 Rain 12 991 76 10000 5.1 290 13:19 16.09.2019
1846 Clouds 11 991 76 10000 6.7 290 12:42 16.09.2019
1847 Clouds 11 991 76 10000 6.7 290 12:24 16.09.2019
1848 Clouds 11 990 76 10000 6.7 290 11:54 16.09.2019
1849 Clouds 11 990 76 10000 6.7 290 11:36 16.09.2019
1850 Clouds 11 990 76 10000 6.7 290 11:18 16.09.2019
1851 Clouds 11 989 81 10000 6.7 290 10:38 16.09.2019
1852 Clouds 11 989 76 10000 7.2 290 10:19 16.09.2019
1853 Clouds 11 989 76 10000 7.2 290 09:57 16.09.2019
1854 Clouds 10 989 81 10000 6.7 280 09:38 16.09.2019
1855 Clouds 10 989 81 10000 6.7 280 09:18 16.09.2019
1856 Clouds 10 989 93 10000 4.6 270 08:42 16.09.2019
1857 Clouds 9 988 93 10000 4.6 280 08:24 16.09.2019
1858 Clouds 9 988 93 10000 3.6 260 07:44 16.09.2019
1859 Clouds 8 988 93 10000 3.6 260 07:25 16.09.2019
1860 Clouds 7 988 93 10000 3.1 240 06:59 16.09.2019
1861 Clouds 7 989 100 10000 3.1 240 06:40 16.09.2019
1862 Clouds 6 989 100 10000 3.1 240 06:22 16.09.2019
1863 Clouds 6 988 100 10000 2.6 230 05:43 16.09.2019
1864 Clouds 6 988 93 10000 2.1 240 05:23 16.09.2019
1865 Clouds 7 989 87 10000 3.1 240 03:51 16.09.2019
1866 Clear 8 989 87 10000 4.1 250 01:40 16.09.2019
1867 Clear 8 989 87 10000 6.2 230 00:39 16.09.2019
1868 Clear 8 989 87 10000 6.2 230 00:21 16.09.2019
1869 Clear 8 989 81 10000 5.7 240 23:39 15.09.2019
1870 Clouds 9 989 87 10000 4.1 240 23:20 15.09.2019
1871 Clouds 9 989 87 10000 3.1 250 22:40 15.09.2019
1872 Clouds 9 989 87 10000 3.1 250 22:21 15.09.2019
1873 Clouds 9 989 93 10000 3.6 230 21:58 15.09.2019
1874 Clouds 9 990 93 10000 4.1 240 21:39 15.09.2019
1875 Clouds 9 990 93 10000 4.1 240 21:21 15.09.2019
1876 Clouds 9 990 87 10000 5.1 250 20:57 15.09.2019
1877 Clouds 10 989 87 10000 5.7 250 20:39 15.09.2019
1878 Clouds 10 989 87 10000 5.7 250 20:21 15.09.2019
1879 Clouds 10 989 87 10000 4.6 230 19:44 15.09.2019
1880 Clouds 10 989 87 10000 4.6 230 19:23 15.09.2019
1881 Clouds 11 988 87 10000 5.1 240 18:43 15.09.2019
1882 Clouds 11 988 87 10000 5.1 240 18:24 15.09.2019
1883 Clouds 11 988 87 10000 5.7 240 17:58 15.09.2019
1884 Clouds 11 988 81 10000 6.7 240 17:39 15.09.2019
1885 Clouds 11 988 81 10000 5.7 240 17:20 15.09.2019
1886 Rain 11 988 87 10000 7.7 260 16:44 15.09.2019
1887 Rain 11 988 87 10000 7.7 260 16:25 15.09.2019
1888 Rain 11 988 87 10000 6.7 270 15:58 15.09.2019
1889 Rain 12 988 87 10000 7.2 240 15:40 15.09.2019
1890 Rain 12 988 87 10000 7.2 240 15:20 15.09.2019
1891 Rain 12 988 93 10000 5.7 220 14:58 15.09.2019
1892 Rain 12 989 93 10000 5.7 220 14:39 15.09.2019
1893 Rain 13 990 87 10000 5.7 220 14:20 15.09.2019
1894 Rain 13 991 87 10000 5.7 220 13:46 15.09.2019
1895 Rain 13 991 87 10000 5.7 220 13:46 15.09.2019
1896 Rain 13 991 87 10000 5.7 220 13:24 15.09.2019
1897 Rain 12 991 93 10000 5.1 220 12:55 15.09.2019
1898 Rain 12 992 93 10000 5.1 210 12:36 15.09.2019
1899 Rain 12 993 93 10000 5.1 210 12:18 15.09.2019
1900 Rain 12 994 93 10000 6.2 210 11:42 15.09.2019
1901 Rain 12 994 93 10000 6.2 210 11:22 15.09.2019
1902 Rain 11 995 100 9000 4.6 170 10:56 15.09.2019
1903 Rain 11 996 93 10000 4.6 180 10:38 15.09.2019
1904 Rain 11 997 93 10000 4.6 180 10:19 15.09.2019
1905 Rain 10 998 100 10000 4.6 170 09:40 15.09.2019
1906 Rain 10 998 100 10000 4.6 170 09:20 15.09.2019
1907 Rain 10 1000 100 9000 4.1 180 08:47 15.09.2019
1908 Rain 10 1000 100 9000 4.1 180 08:47 15.09.2019
1909 Rain 10 1000 100 9000 4.1 180 08:28 15.09.2019
1910 Rain 10 1000 100 9000 4.1 180 08:28 15.09.2019
1911 Rain 10 1001 93 9000 3.6 200 07:51 15.09.2019
1912 Rain 10 1002 93 10000 4.1 200 07:32 15.09.2019
1913 Rain 9 1005 93 10000 3.1 140 06:43 15.09.2019
1914 Clear 7 1010 100 10000 1.5 100 03:54 15.09.2019
1915 Clear 4 1011 100 10000 1.5 130 02:46 15.09.2019
1916 Clear 4 1013 100 10000 1.5 220 01:45 15.09.2019
1917 Clear 4 1013 100 10000 1.5 220 01:45 15.09.2019
1918 Clear 4 1012 93 10000 1 0 01:45 15.09.2019
1919 Clear 4 1013 100 10000 1.5 220 01:27 15.09.2019
1920 Clear 5 1013 93 10000 1.5 220 00:50 15.09.2019
1921 Clear 6 1014 87 10000 2.1 230 00:24 15.09.2019
1922 Clear 6 1014 87 10000 2.6 240 23:59 14.09.2019
1923 Clear 6 1015 87 10000 2.6 230 23:41 14.09.2019
1924 Clear 6 1015 87 10000 2.6 230 23:22 14.09.2019
1925 Clear 6 1015 81 10000 3.1 240 22:59 14.09.2019
1926 Clear 7 1015 81 10000 2.1 250 22:41 14.09.2019
1927 Clear 7 1015 81 10000 2.1 250 22:41 14.09.2019
1928 Clear 7 1015 81 10000 2.1 250 22:21 14.09.2019
1929 Clear 7 1015 81 10000 2.6 250 21:57 14.09.2019
1930 Clouds 7 1015 81 10000 2.6 250 21:39 14.09.2019
1931 Clouds 8 1015 76 10000 3.1 250 21:19 14.09.2019
1932 Clouds 8 1015 76 10000 3.1 250 20:55 14.09.2019
1933 Clouds 8 1015 76 10000 3.1 250 20:55 14.09.2019
1934 Clouds 9 1015 66 10000 5.1 260 20:36 14.09.2019
1935 Clouds 9 1015 66 10000 5.1 260 20:36 14.09.2019
1936 Clouds 9 1015 71 10000 4.1 270 20:18 14.09.2019
1937 Clouds 10 1015 71 10000 3.1 270 19:44 14.09.2019
1938 Clouds 10 1015 66 10000 4.1 270 19:21 14.09.2019
1939 Clouds 11 1015 66 10000 4.1 270 18:55 14.09.2019
1940 Rain 11 1015 62 10000 6.2 280 18:37 14.09.2019
1941 Rain 11 1015 66 10000 4.1 270 18:18 14.09.2019
1942 Rain 12 1014 66 10000 3.6 280 17:42 14.09.2019
1943 Rain 12 1014 71 10000 5.7 280 17:22 14.09.2019
1944 Rain 12 1014 71 10000 5.7 280 16:47 14.09.2019
1945 Rain 12 1014 71 10000 5.7 280 16:47 14.09.2019
1946 Rain 12 1015 66 10000 4.1 310 16:26 14.09.2019
1947 Rain 12 1015 66 10000 6.7 280 15:57 14.09.2019
1948 Rain 12 1014 66 10000 7.2 280 15:38 14.09.2019
1949 Rain 12 1014 62 10000 5.7 290 15:19 14.09.2019
1950 Rain 13 1014 71 10000 6.2 270 14:43 14.09.2019
1951 Rain 13 1014 71 10000 6.2 270 14:19 14.09.2019
1952 Rain 13 1014 71 10000 6.2 270 14:19 14.09.2019
1953 Rain 12 1015 87 10000 4.1 280 13:48 14.09.2019
1954 Rain 12 1015 87 10000 4.1 280 13:48 14.09.2019
1955 Rain 12 1015 76 10000 3.6 260 13:23 14.09.2019
1956 Rain 12 1014 66 10000 7.2 280 12:59 14.09.2019
1957 Rain 12 1014 62 10000 8.2 260 12:38 14.09.2019
1958 Clouds 13 1014 62 10000 5.7 290 12:18 14.09.2019
1959 Clouds 13 1014 62 10000 7.2 280 11:40 14.09.2019
1960 Clouds 13 1014 66 10000 8.7 290 11:19 14.09.2019
1961 Clouds 12 1014 66 10000 7.7 280 10:39 14.09.2019
1962 Clouds 12 1014 66 10000 6.2 280 10:20 14.09.2019
1963 Clouds 12 1014 66 10000 6.2 280 09:57 14.09.2019
1964 Clouds 12 1014 71 10000 5.7 280 09:39 14.09.2019
1965 Clouds 11 1014 71 10000 5.7 280 09:19 14.09.2019
1966 Clouds 10 1014 81 10000 4.1 270 08:46 14.09.2019
1967 Clouds 10 1014 81 10000 4.1 270 08:23 14.09.2019
1968 Clouds 9 1013 87 10000 4.1 260 07:47 14.09.2019
1969 Clouds 8 1013 87 10000 3.6 260 07:28 14.09.2019
1970 Clouds 7 1013 87 10000 4.6 260 06:44 14.09.2019
1971 Clouds 7 1013 87 10000 4.6 260 06:25 14.09.2019
1972 Clouds 7 1013 87 10000 4.6 260 05:25 14.09.2019
1973 Clear 8 1012 87 10000 4.1 270 03:45 14.09.2019
1974 Clear 8 1012 87 10000 5.1 260 02:52 14.09.2019
1975 Clouds 8 1011 81 10000 5.1 270 01:50 14.09.2019
1976 Clouds 9 1011 81 10000 4.6 270 01:22 14.09.2019
1977 Clouds 9 1011 81 10000 4.6 270 00:57 14.09.2019
1978 Clouds 9 1011 81 10000 4.6 270 00:38 14.09.2019
1979 Clear 9 1011 81 10000 4.1 270 00:20 14.09.2019
1980 Clouds 9 1011 81 10000 4.6 260 23:38 13.09.2019
1981 Clouds 9 1011 81 10000 4.6 260 23:19 13.09.2019
1982 Clouds 9 1011 81 10000 4.6 260 23:19 13.09.2019
1983 Clear 9 1011 81 10000 3.6 260 22:57 13.09.2019
1984 Clear 9 1010 81 10000 3.6 260 22:38 13.09.2019
1985 Clear 9 1010 81 10000 3.6 260 22:19 13.09.2019
1986 Clear 9 1010 81 10000 4.6 270 21:41 13.09.2019
1987 Clear 9 1010 81 10000 4.6 270 21:20 13.09.2019
1988 Clear 10 1010 81 10000 5.1 280 20:59 13.09.2019
1989 Clear 10 1010 76 10000 5.7 290 20:40 13.09.2019
1990 Clear 10 1010 76 10000 5.7 290 20:21 13.09.2019
1991 Clear 10 1010 81 10000 5.7 290 19:56 13.09.2019
1992 Clear 10 1009 87 10000 4.6 280 19:37 13.09.2019
1993 Clear 10 1009 87 10000 4.6 280 19:37 13.09.2019
1994 Clear 11 1009 87 10000 4.6 280 19:19 13.09.2019
1995 Clear 11 1009 87 10000 4.6 280 18:55 13.09.2019
1996 Clear 11 1009 76 10000 5.1 280 18:36 13.09.2019
1997 Clear 12 1008 76 10000 4.6 280 18:18 13.09.2019
1998 Clouds 12 1008 81 10000 4.6 290 17:38 13.09.2019
1999 Rain 12 1008 81 10000 4.6 290 17:19 13.09.2019
2000 Rain 13 1008 87 10000 5.1 280 16:41 13.09.2019
2001 Clouds 13 1008 87 10000 5.1 280 16:21 13.09.2019
2002 Clouds 13 1008 87 10000 3.6 270 15:46 13.09.2019
2003 Clouds 13 1008 87 10000 3.6 270 15:28 13.09.2019
2004 Clouds 12 1008 93 10000 2.6 270 14:59 13.09.2019
2005 Rain 12 1008 93 10000 3.6 260 14:41 13.09.2019
2006 Rain 13 1008 93 10000 3.6 260 14:22 13.09.2019
2007 Rain 13 1008 93 10000 3.6 260 14:22 13.09.2019
2008 Rain 12 1008 93 10000 4.1 210 13:54 13.09.2019
2009 Rain 12 1008 93 10000 3.6 210 13:36 13.09.2019
2010 Rain 12 1008 87 10000 2.6 260 13:18 13.09.2019
2011 Rain 12 1008 87 10000 2.6 260 13:18 13.09.2019
2012 Rain 12 1008 87 10000 4.6 280 12:41 13.09.2019
2013 Rain 12 1008 87 10000 4.6 280 12:22 13.09.2019
2014 Rain 12 1008 87 10000 4.6 260 11:55 13.09.2019
2015 Thunderstorm 13 1008 76 10000 5.7 290 11:19 13.09.2019
2016 Rain 14 1008 77 10000 6.7 260 10:39 13.09.2019
2017 Rain 14 1008 77 10000 6.7 260 10:19 13.09.2019
2018 Clouds 15 1008 77 10000 5.1 240 09:46 13.09.2019
2019 Clouds 14 1008 82 10000 5.1 230 09:25 13.09.2019
2020 Clouds 14 1008 82 10000 5.1 230 08:59 13.09.2019
2021 Clouds 14 1008 82 10000 4.6 220 08:40 13.09.2019
2022 Clouds 14 1008 87 10000 4.6 220 08:20 13.09.2019
2023 Clouds 13 1008 87 10000 4.6 230 07:46 13.09.2019
2024 Clouds 13 1008 87 10000 4.6 230 07:27 13.09.2019
2025 Clouds 13 1009 87 10000 4.6 220 06:48 13.09.2019
2026 Clouds 13 1009 82 10000 5.1 220 05:49 13.09.2019
2027 Clouds 13 1009 87 10000 4.6 210 04:59 13.09.2019
2028 Clear 14 1010 82 10000 4.6 220 03:40 13.09.2019
2029 Clear 13 1010 82 10000 4.6 210 02:20 13.09.2019
2030 Clouds 14 1011 82 10000 4.1 210 01:59 13.09.2019
2031 Clouds 13 1011 87 10000 4.6 210 01:33 13.09.2019
2032 Clouds 13 1011 93 10000 4.6 210 00:47 13.09.2019
2033 Clouds 13 1011 93 10000 4.1 200 00:21 13.09.2019
2034 Clouds 13 1012 93 10000 4.6 200 23:38 12.09.2019
2035 Clouds 13 1012 93 10000 4.6 200 23:19 12.09.2019
2036 Clear 13 1012 87 10000 5.1 210 22:42 12.09.2019
2037 Clear 13 1012 87 10000 5.1 210 22:23 12.09.2019
2038 Clear 13 1012 87 10000 5.1 210 21:57 12.09.2019
2039 Clear 13 1012 87 10000 5.1 210 21:38 12.09.2019
2040 Clear 13 1012 87 10000 5.1 210 21:38 12.09.2019
2041 Clear 13 1012 87 10000 5.1 210 21:20 12.09.2019
2042 Clear 13 1012 82 10000 5.1 220 20:56 12.09.2019
2043 Clear 13 1012 82 10000 6.2 210 20:38 12.09.2019
2044 Clear 13 1012 82 10000 6.2 210 20:20 12.09.2019
2045 Clouds 14 1012 82 10000 6.7 210 19:54 12.09.2019
2046 Clouds 14 1012 82 10000 5.7 220 19:36 12.09.2019
2047 Clouds 14 1012 82 10000 5.7 220 19:18 12.09.2019
2048 Clouds 15 1012 77 10000 6.2 220 18:38 12.09.2019
2049 Clouds 15 1012 77 10000 6.2 220 18:19 12.09.2019
2050 Clouds 15 1012 72 10000 7.7 220 17:56 12.09.2019
2051 Clouds 15 1012 72 10000 7.2 230 17:38 12.09.2019
2052 Clouds 16 1011 72 10000 7.7 220 17:19 12.09.2019
2053 Clouds 16 1011 72 10000 8.7 220 16:42 12.09.2019
2054 Clouds 16 1011 72 10000 8.7 220 16:22 12.09.2019
2055 Clouds 16 1011 72 10000 10.3 220 15:45 12.09.2019
2056 Clouds 16 1011 72 10000 10.3 220 15:27 12.09.2019
2057 Clouds 16 1011 67 10000 10.8 210 14:58 12.09.2019
2058 Clouds 16 1011 77 10000 9.8 210 14:40 12.09.2019
2059 Clouds 16 1011 77 10000 9.8 210 14:40 12.09.2019
2060 Clouds 16 1011 77 10000 9.8 210 14:21 12.09.2019
2061 Rain 16 1011 87 9000 7.7 200 13:39 12.09.2019
2062 Rain 16 1011 87 9000 7.7 200 13:21 12.09.2019
2063 Rain 15 1011 93 10000 9.8 200 12:49 12.09.2019
2064 Rain 15 1011 93 10000 9.8 200 12:49 12.09.2019
2065 Rain 15 1011 93 10000 9.8 200 12:20 12.09.2019
2066 Rain 14 1011 93 7000 10.8 190 12:20 12.09.2019
2067 Rain 14 1011 93 7000 10.8 190 11:59 12.09.2019
2068 Rain 14 1011 87 8000 10.3 190 11:40 12.09.2019
2069 Rain 14 1011 87 8000 10.3 190 11:21 12.09.2019
2070 Rain 14 1011 93 10000 10.3 190 10:56 12.09.2019
2071 Rain 14 1011 82 10000 11.3 190 10:37 12.09.2019
2072 Rain 14 1011 82 10000 11.3 190 10:18 12.09.2019
2073 Rain 15 1012 87 10000 9.3 190 09:42 12.09.2019
2074 Rain 15 1012 87 10000 9.3 190 09:20 12.09.2019
2075 Rain 15 1012 87 10000 10.8 190 08:45 12.09.2019
2076 Rain 15 1012 87 10000 10.8 190 08:45 12.09.2019
2077 Rain 15 1012 87 10000 10.8 190 08:25 12.09.2019
2078 Rain 15 1012 87 10000 10.3 190 07:56 12.09.2019
2079 Clouds 15 1012 87 10000 9.3 190 07:36 12.09.2019
2080 Clouds 15 1012 87 10000 8.7 190 07:18 12.09.2019
2081 Rain 15 1013 87 10000 8.2 180 06:46 12.09.2019
2082 Clouds 15 1013 87 10000 4.6 180 06:19 12.09.2019
2083 Clouds 15 1013 87 10000 6.2 190 05:43 12.09.2019
2084 Clouds 15 1013 87 10000 6.2 190 05:19 12.09.2019
2085 Clouds 15 1014 82 10000 6.7 190 03:59 12.09.2019
2086 Clouds 14 1014 87 10000 6.2 210 01:45 12.09.2019
2087 Clouds 14 1014 87 10000 6.2 210 01:27 12.09.2019
2088 Clouds 14 1014 87 10000 6.7 210 00:50 12.09.2019
2089 Clouds 14 1014 87 10000 6.7 210 00:31 12.09.2019
2090 Clouds 15 1013 87 10000 8.2 200 23:47 11.09.2019
2091 Rain 15 1013 87 10000 8.2 200 23:27 11.09.2019
2092 Rain 15 1013 93 10000 6.2 210 22:58 11.09.2019
2093 Rain 16 1013 93 10000 6.2 210 22:38 11.09.2019
2094 Rain 15 1013 93 10000 6.2 210 22:20 11.09.2019
2095 Clouds 16 1013 93 10000 6.2 210 21:59 11.09.2019
2096 Clouds 15 1013 93 10000 5.1 210 21:41 11.09.2019
2097 -273 0 0 0 0 0 21:22 11.09.2019
2098 Rain 15 1012 93 10000 5.1 190 20:56 11.09.2019
2099 Rain 16 1013 93 10000 4.6 190 20:37 11.09.2019
2100 Clouds 16 1013 93 10000 5.7 200 20:18 11.09.2019
2101 Clouds 16 1013 93 10000 5.7 200 19:56 11.09.2019
2102 Clouds 15 1012 87 10000 7.7 210 19:37 11.09.2019
2103 Clouds 15 1012 87 10000 7.7 210 19:37 11.09.2019
2104 Rain 15 1012 87 10000 7.7 220 19:19 11.09.2019
2105 Rain 15 1012 93 2200 9.8 190 18:43 11.09.2019
2106 Rain 15 1012 93 3500 7.7 200 18:24 11.09.2019
2107 Rain 16 1012 93 3500 7.7 200 17:59 11.09.2019
2108 Rain 15 1012 87 10000 9.8 160 17:41 11.09.2019
2109 Rain 15 1012 93 10000 8.7 160 17:21 11.09.2019
2110 Rain 15 1012 93 10000 8.7 160 16:56 11.09.2019
2111 Rain 15 1012 93 10000 8.7 160 16:56 11.09.2019
2112 Rain 15 1012 93 10000 8.7 160 16:56 11.09.2019
2113 Rain 15 1013 93 9000 9.3 160 16:37 11.09.2019
2114 Rain 15 1013 93 9000 9.3 160 16:19 11.09.2019
2115 Rain 15 1013 93 10000 9.3 170 15:46 11.09.2019
2116 Rain 15 1013 93 10000 9.3 170 15:46 11.09.2019
2117 Clouds 15 1013 82 10000 8.7 160 15:23 11.09.2019
2118 Clouds 15 1013 87 10000 8.2 170 14:58 11.09.2019
2119 Clouds 15 1014 87 10000 8.2 170 14:38 11.09.2019
2120 Clouds 15 1014 87 10000 8.2 170 14:20 11.09.2019
2121 Clouds 15 1014 87 10000 8.2 180 13:57 11.09.2019
2122 Clouds 15 1014 82 10000 7.7 170 13:36 11.09.2019
2123 Clouds 15 1014 82 10000 7.7 170 13:18 11.09.2019
2124 Rain 14 1014 82 10000 8.2 170 12:42 11.09.2019
2125 Rain 14 1014 82 10000 8.2 170 12:21 11.09.2019
2126 Rain 14 1014 82 10000 6.7 170 11:56 11.09.2019
2127 Rain 14 1014 82 10000 8.2 160 11:37 11.09.2019
2128 Rain 14 1014 82 10000 8.2 160 11:18 11.09.2019
2129 Clouds 16 1014 67 10000 8.7 160 10:40 11.09.2019
2130 Clouds 16 1014 67 10000 8.7 160 10:22 11.09.2019
2131 Clouds 16 1015 67 10000 8.2 160 09:56 11.09.2019
2132 Clouds 16 1015 67 10000 8.2 160 09:36 11.09.2019
2133 Clouds 16 1015 72 10000 7.7 160 09:18 11.09.2019
2134 Clouds 16 1015 72 10000 7.7 150 08:40 11.09.2019
2135 Clouds 16 1015 72 10000 6.7 150 08:21 11.09.2019
2136 Clear 16 1016 77 10000 6.2 150 07:46 11.09.2019
2137 Clear 15 1016 77 10000 6.2 150 07:23 11.09.2019
2138 Clear 15 1016 77 10000 6.2 150 06:54 11.09.2019
2139 Clear 15 1016 77 10000 5.1 160 06:35 11.09.2019
2140 Clear 15 1016 77 10000 6.2 160 05:49 11.09.2019
2141 Clear 15 1016 77 10000 6.2 160 05:29 11.09.2019
2142 Clear 15 1016 77 10000 4.6 150 04:51 11.09.2019
2143 Clear 16 1017 72 10000 4.1 140 03:37 11.09.2019
2144 Clear 16 1017 72 10000 4.1 140 02:56 11.09.2019
2145 Clear 16 1017 77 10000 4.6 140 02:26 11.09.2019
2146 Clear 17 1017 82 10000 3.6 90 00:57 11.09.2019
2147 Rain 17 1017 82 10000 3.1 70 00:29 11.09.2019
2148 Rain 17 1018 82 10000 2.1 70 23:57 10.09.2019
2149 Clear 17 1018 72 10000 3.1 100 23:39 10.09.2019
2150 Clear 17 1018 72 10000 3.1 100 23:20 10.09.2019
2151 Clear 17 1018 68 10000 5.1 150 22:41 10.09.2019
2152 Clear 18 1018 68 10000 5.1 150 22:20 10.09.2019
2153 Clear 18 1018 64 10000 4.6 130 21:56 10.09.2019
2154 Clear 18 1018 64 10000 4.6 110 21:38 10.09.2019
2155 Clear 18 1018 64 10000 4.6 110 21:20 10.09.2019
2156 Clear 18 1018 64 10000 4.1 110 20:58 10.09.2019
2157 Clear 18 1018 72 10000 3.6 110 20:39 10.09.2019
2158 Clear 18 1018 72 10000 3.6 110 20:21 10.09.2019
2159 Clear 19 1018 64 10000 3.6 110 19:57 10.09.2019
2160 Clear 19 1018 64 10000 4.1 120 19:37 10.09.2019
2161 Clear 19 1018 60 10000 4.6 110 19:19 10.09.2019
2162 Clear 20 1018 60 10000 5.1 120 18:55 10.09.2019
2163 Clear 20 1018 60 10000 5.1 120 18:37 10.09.2019
2164 Clear 21 1018 64 10000 4.6 120 18:19 10.09.2019
2165 Clear 21 1018 60 10000 4.6 110 17:43 10.09.2019
2166 Clear 22 1018 60 10000 4.6 110 17:23 10.09.2019
2167 Clear 21 1018 60 10000 6.2 120 16:59 10.09.2019
2168 Clear 22 1019 60 10000 5.1 110 16:39 10.09.2019
2169 Clear 22 1019 60 10000 5.1 110 16:21 10.09.2019
2170 Clear 22 1019 60 10000 5.1 100 15:59 10.09.2019
2171 Clear 23 1019 64 10000 5.7 120 15:40 10.09.2019
2172 Clear 23 1019 64 10000 5.7 120 15:20 10.09.2019
2173 Clear 22 1019 60 10000 5.1 120 14:42 10.09.2019
2174 Clear 23 1019 60 10000 5.1 120 14:24 10.09.2019
2175 Clear 22 1019 64 10000 5.7 110 13:56 10.09.2019
2176 Clear 22 1019 64 10000 4.6 100 13:37 10.09.2019
2177 Clear 22 1019 64 10000 4.6 100 13:19 10.09.2019
2178 Clear 22 1020 78 10000 4.1 90 12:43 10.09.2019
2179 Clouds 20 1020 82 10000 4.6 60 12:24 10.09.2019
2180 Clear 20 1019 72 0 0.45 132 11:57 10.09.2019
2181 Clear 20 1019 70 0 3.31 130.8 11:57 10.09.2019
2182 Clear 20 1019 43 0 3.31 130.8 11:39 10.09.2019
2183 Clouds 19 1020 82 10000 4.1 70 11:20 10.09.2019
2184 Clouds 19 1020 88 10000 3.1 60 10:42 10.09.2019
2185 Clouds 18 1020 88 10000 3.1 60 10:19 10.09.2019
2186 Clouds 17 1020 93 10000 3.6 70 09:56 10.09.2019
2187 Clouds 17 1020 100 8000 4.1 50 09:37 10.09.2019
2188 Clouds 16 1020 100 8000 4.1 50 09:18 10.09.2019
2189 Mist 16 1020 100 3000 3.1 80 08:44 10.09.2019
2190 Mist 16 1020 100 3000 3.1 80 08:26 10.09.2019
2191 Fog 16 1020 100 600 3.6 70 07:45 10.09.2019
2192 Fog 16 1020 100 300 3.6 70 07:26 10.09.2019
2193 Fog 16 1020 100 300 3.6 60 06:51 10.09.2019
2194 Fog 16 1020 100 300 3.6 60 06:32 10.09.2019
2195 Fog 15 1020 100 350 2.6 10 05:24 10.09.2019
2196 Mist 15 1020 100 4500 3.6 50 03:50 10.09.2019
2197 Clouds 15 1020 100 6000 3.1 50 02:23 10.09.2019
2198 Rain 15 1021 100 5000 2.6 50 01:57 10.09.2019
2199 Rain 15 1021 100 5000 2.6 60 01:39 10.09.2019
2200 Mist 15 1021 100 5000 2.6 50 00:46 10.09.2019
2201 Mist 15 1021 100 5000 2.6 50 00:25 10.09.2019
2202 Mist 15 1021 100 4000 3.6 70 23:47 09.09.2019
2203 Mist 15 1021 100 4000 3.6 70 23:20 09.09.2019
2204 Mist 14 1021 100 4000 3.6 70 22:56 09.09.2019
2205 Mist 15 1021 100 4000 3.1 60 22:38 09.09.2019
2206 Fog 14 1021 100 700 3.1 70 22:20 09.09.2019
2207 Fog 14 1021 100 700 3.1 70 21:57 09.09.2019
2208 Fog 15 1021 100 700 3.1 70 21:38 09.09.2019
2209 Fog 14 1021 100 8000 1.5 60 21:20 09.09.2019
2210 Fog 15 1021 100 8000 1.5 60 20:56 09.09.2019
2211 Fog 15 1021 100 10000 2.1 80 20:37 09.09.2019
2212 Fog 15 1021 100 10000 2.1 80 20:19 09.09.2019
2213 Fog 15 1021 100 10000 2.1 80 19:58 09.09.2019
2214 Fog 15 1021 100 10000 2.1 60 19:39 09.09.2019
2215 Clouds 16 1021 100 10000 2.1 100 19:19 09.09.2019
2216 Clouds 16 1021 100 10000 2.1 100 18:57 09.09.2019
2217 Clouds 17 1021 93 10000 2.6 80 18:39 09.09.2019
2218 Clouds 17 1020 88 10000 2.1 80 18:20 09.09.2019
2219 Clouds 18 1020 88 10000 2.1 80 17:57 09.09.2019
2220 Rain 18 1020 82 0 1.88 190.003 17:39 09.09.2019
2221 Clouds 18 1020 88 10000 2.6 110 17:20 09.09.2019
2222 Clouds 18 1020 88 10000 2.6 110 16:55 09.09.2019
2223 Clouds 18 1020 88 10000 2.6 110 16:55 09.09.2019
2224 Clouds 18 1020 88 10000 2.1 110 16:37 09.09.2019
2225 Clouds 18 1020 88 10000 2.6 120 16:18 09.09.2019
2226 Clouds 17 1020 88 10000 3.1 160 15:54 09.09.2019
2227 Clouds 17 1020 88 10000 3.1 160 15:36 09.09.2019
2228 Clouds 17 1020 82 10000 3.6 150 15:18 09.09.2019
2229 Clouds 18 1021 88 10000 2.6 110 14:40 09.09.2019
2230 Clouds 18 1021 88 10000 2.6 110 14:40 09.09.2019
2231 Clouds 17 1021 88 10000 2.6 110 14:22 09.09.2019
2232 Clouds 17 1020 88 10000 2.6 130 13:59 09.09.2019
2233 Clouds 17 1020 93 10000 2.1 140 13:41 09.09.2019
2234 Clouds 17 1020 93 10000 2.6 170 13:19 09.09.2019
2235 Clouds 17 1020 93 10000 2.6 170 12:57 09.09.2019
2236 Rain 17 1021 93 10000 3.1 160 12:37 09.09.2019
2237 Rain 16 1021 100 3000 2.6 170 12:18 09.09.2019
2238 Rain 16 1020 100 8000 2.1 150 11:43 09.09.2019
2239 Rain 16 1020 88 10000 3.6 150 11:20 09.09.2019
2240 Rain 16 1020 88 10000 3.6 150 10:57 09.09.2019
2241 Thunderstorm 17 1020 88 10000 5.1 130 10:38 09.09.2019
2242 Rain 16 1020 93 10000 5.1 100 10:19 09.09.2019
2243 Rain 16 1020 93 10000 5.1 100 09:48 09.09.2019
2244 Rain 16 1020 93 10000 5.1 100 09:28 09.09.2019
2245 Clouds 16 1020 93 10000 5.1 110 08:57 09.09.2019
2246 Clouds 16 1020 93 10000 4.1 100 08:38 09.09.2019
2247 Clouds 16 1020 93 10000 4.1 70 08:19 09.09.2019
2248 Clouds 16 1020 93 10000 4.1 70 08:19 09.09.2019
2249 Clouds 16 1020 93 10000 4.1 70 07:41 09.09.2019
2250 Clouds 15 1020 93 10000 3.6 60 07:21 09.09.2019
2251 Clouds 15 1020 93 10000 3.6 60 06:54 09.09.2019
2252 Clouds 15 1020 93 10000 3.6 60 06:54 09.09.2019
2253 Clouds 15 1021 93 10000 3.6 70 06:27 09.09.2019
2254 Clear 14 1022 93 10000 3.6 70 03:21 09.09.2019
2255 Clear 14 1022 93 10000 4.1 60 02:42 09.09.2019
2256 Clear 14 1022 87 10000 4.1 50 01:25 09.09.2019
2257 Clear 14 1023 87 10000 3.6 60 00:24 09.09.2019
2258 Clear 14 1023 87 10000 3.6 60 23:56 08.09.2019
2259 Clear 14 1023 87 10000 4.1 70 23:38 08.09.2019
2260 Clear 14 1024 87 10000 5.1 70 23:19 08.09.2019
2261 Clear 14 1024 87 10000 5.7 60 22:41 08.09.2019
2262 Clear 14 1024 87 10000 5.7 60 22:23 08.09.2019
2263 Clear 14 1024 87 10000 5.1 60 21:59 08.09.2019
2264 Clear 14 1024 87 10000 5.7 60 21:40 08.09.2019
2265 Clear 14 1024 87 10000 5.7 60 21:40 08.09.2019
2266 Clear 14 1024 87 10000 5.7 60 21:22 08.09.2019
2267 Clear 14 1024 87 10000 5.7 60 20:56 08.09.2019
2268 Clear 14 1024 82 10000 5.1 50 20:37 08.09.2019
2269 Clear 14 1024 82 10000 5.1 50 20:37 08.09.2019
2270 Clear 14 1024 82 10000 5.1 50 20:18 08.09.2019
2271 Clear 14 1025 87 10000 4.1 40 19:39 08.09.2019
2272 Clear 14 1025 87 10000 4.1 40 19:21 08.09.2019
2273 Clear 14 1025 87 10000 4.6 50 19:21 08.09.2019
2274 Clear 14 1025 87 10000 4.6 50 18:59 08.09.2019
2275 Clouds 14 1025 87 10000 5.1 40 18:39 08.09.2019
2276 Rain 14 1025 87 10000 4.6 60 18:20 08.09.2019
2277 Rain 14 1025 87 10000 4.6 60 17:59 08.09.2019
2278 Rain 15 1025 87 10000 3.6 40 17:37 08.09.2019
2279 Rain 15 1025 87 10000 3.6 40 17:19 08.09.2019
2280 Rain 15 1025 87 10000 4.1 0 16:57 08.09.2019
2281 Rain 15 1025 82 10000 4.1 60 16:39 08.09.2019
2282 Rain 15 1025 82 10000 4.1 60 16:20 08.09.2019
2283 Rain 16 1025 77 10000 3.1 80 15:42 08.09.2019
2284 Rain 16 1025 77 10000 3.1 80 15:24 08.09.2019
2285 Rain 16 1026 77 10000 3.6 70 14:59 08.09.2019
2286 Clear 16 1026 77 10000 3.6 70 14:40 08.09.2019
2287 Clear 16 1026 77 10000 3.6 70 14:40 08.09.2019
2288 Clear 16 1026 77 10000 3.6 70 14:21 08.09.2019
2289 Clear 16 1026 77 10000 3.6 70 13:58 08.09.2019
2290 Clear 16 1026 77 10000 3.6 70 13:40 08.09.2019
2291 Clear 16 1026 77 10000 3.1 70 13:21 08.09.2019
2292 Clear 16 1026 77 10000 3.1 70 12:55 08.09.2019
2293 Clear 16 1026 82 10000 2.6 80 12:37 08.09.2019
2294 Clouds 16 1024 77 0 2.83 128.736 12:18 08.09.2019
2295 Clouds 16 1024 79 0 2.83 128.736 11:56 08.09.2019
2296 Clear 16 1026 82 10000 2.1 110 11:37 08.09.2019
2297 Clear 16 1026 82 10000 2.1 110 11:18 08.09.2019
2298 Clear 15 1025 82 10000 2.6 110 10:42 08.09.2019
2299 Clear 15 1025 82 10000 2.6 110 10:23 08.09.2019
2300 Clear 15 1025 82 10000 2.6 110 09:56 08.09.2019
2301 Clear 15 1025 87 10000 2.6 110 09:37 08.09.2019
2302 Clear 15 1025 93 10000 2.1 120 09:19 08.09.2019
2303 Clear 14 1025 93 10000 2.1 120 08:39 08.09.2019
2304 Clear 14 1025 87 10000 2.1 110 08:19 08.09.2019
2305 Clear 13 1025 93 10000 1.5 80 07:43 08.09.2019
2306 Clear 12 1025 100 10000 1.5 100 07:22 08.09.2019
2307 Clear 11 1025 100 10000 2.1 100 06:57 08.09.2019
2308 Clear 11 1025 100 10000 2.1 100 06:38 08.09.2019
2309 Clear 12 1024 93 10000 2.1 110 05:40 08.09.2019
2310 Clear 12 1024 93 10000 2.6 110 04:59 08.09.2019
2311 Clear 11 1024 100 10000 1.5 90 03:23 08.09.2019
2312 Clear 11 1024 100 10000 1 0 02:48 08.09.2019
2313 Rain 11 1023 91 0 2.08 154.014 01:54 08.09.2019
2314 Clear 11 1024 100 10000 2.1 130 01:27 08.09.2019
2315 Clear 11 1024 100 10000 1 0 00:49 08.09.2019
2316 Clear 11 1024 100 10000 1 0 00:30 08.09.2019
2317 Clear 11 1024 100 10000 2.1 100 23:57 07.09.2019
2318 Clouds 11 1024 100 10000 2.1 110 23:37 07.09.2019
2319 Clouds 11 1024 93 10000 2.1 120 23:18 07.09.2019
2320 Clouds 11 1024 93 10000 2.1 120 22:43 07.09.2019
2321 Clouds 12 1024 93 10000 2.1 120 22:23 07.09.2019
2322 Clouds 12 1023 100 10000 2.1 120 21:56 07.09.2019
2323 Clouds 12 1023 100 10000 2.1 120 21:38 07.09.2019
2324 Clouds 12 1023 100 10000 2.1 120 21:19 07.09.2019
2325 Clouds 13 1023 93 10000 2.1 130 20:39 07.09.2019
2326 Clouds 13 1023 93 10000 2.6 130 20:21 07.09.2019
2327 Clouds 13 1023 93 10000 2.6 130 19:56 07.09.2019
2328 Clouds 14 1023 93 10000 3.1 120 19:38 07.09.2019
2329 Clouds 14 1022 93 10000 3.6 140 19:19 07.09.2019
2330 Clouds 14 1022 93 10000 3.6 140 18:58 07.09.2019
2331 Clouds 14 1022 93 10000 4.1 140 18:38 07.09.2019
2332 Clouds 14 1022 93 10000 3.6 150 18:20 07.09.2019
2333 Clouds 14 1022 93 10000 3.6 150 18:20 07.09.2019
2334 Rain 14 1022 87 10000 3.6 160 17:58 07.09.2019
2335 Rain 14 1022 87 10000 3.6 160 17:39 07.09.2019
2336 Rain 14 1022 87 10000 3.1 120 17:18 07.09.2019
2337 Rain 14 1022 87 10000 3.1 120 16:55 07.09.2019
2338 Rain 15 1022 87 10000 3.1 120 16:36 07.09.2019
2339 Rain 15 1022 87 10000 4.1 150 16:18 07.09.2019
2340 Rain 15 1021 77 10000 5.1 170 15:43 07.09.2019
2341 Rain 15 1021 77 10000 5.1 170 15:24 07.09.2019
2342 Rain 16 1021 59 10000 6.2 150 14:55 07.09.2019
2343 Rain 16 1021 59 10000 6.2 150 14:36 07.09.2019
2344 Clouds 16 1021 63 10000 5.7 160 14:18 07.09.2019
2345 Clouds 16 1021 63 10000 5.7 160 14:18 07.09.2019
2346 Clouds 17 1021 63 10000 5.7 160 13:44 07.09.2019
2347 Clouds 17 1021 63 10000 5.7 160 13:25 07.09.2019
2348 Clouds 18 1021 59 10000 6.2 190 12:54 07.09.2019
2349 Clouds 17 1021 59 10000 6.2 190 12:36 07.09.2019
2350 Clouds 17 1021 59 10000 6.2 190 12:36 07.09.2019
2351 Clouds 16 1021 67 10000 6.2 200 12:18 07.09.2019
2352 Clouds 16 1021 63 10000 5.1 190 11:40 07.09.2019
2353 Clouds 17 1021 63 10000 5.1 190 11:21 07.09.2019
2354 Clouds 16 1021 72 10000 4.6 180 10:41 07.09.2019
2355 Clouds 16 1021 72 10000 4.6 200 10:22 07.09.2019
2356 Clouds 16 1021 72 10000 4.6 200 09:58 07.09.2019
2357 Clouds 15 1021 77 10000 4.6 180 09:40 07.09.2019
2358 Clouds 14 1020 87 10000 3.1 170 09:21 07.09.2019
2359 Clouds 13 1020 87 10000 3.1 170 08:48 07.09.2019
2360 Clouds 13 1020 87 10000 3.1 170 08:30 07.09.2019
2361 Clouds 11 1020 93 10000 1.5 70 07:48 07.09.2019
2362 Clouds 10 1020 93 10000 1.5 70 07:28 07.09.2019
2363 Clouds 10 1020 93 10000 1.5 100 06:55 07.09.2019
2364 Clouds 8 1020 93 10000 1.5 70 06:35 07.09.2019
2365 Clear 7 1019 100 10000 1.5 100 05:38 07.09.2019
2366 Clear 7 1019 100 10000 1 80 04:26 07.09.2019
2367 Clear 8 1019 100 10000 1 80 03:27 07.09.2019
2368 Clear 8 1019 93 10000 1 110 02:21 07.09.2019
2369 Clear 8 1018 93 10000 1.53 188.815 01:27 07.09.2019
2370 Clear 8 1018 93 10000 1 0 00:48 07.09.2019
2371 Clear 9 1018 93 10000 2.6 210 00:21 07.09.2019
2372 Clear 9 1018 93 10000 2.6 230 23:55 06.09.2019
2373 Clear 9 1018 93 10000 2.6 230 23:37 06.09.2019
2374 Clear 9 1017 87 10000 2.1 220 23:18 06.09.2019
2375 Clear 10 1017 87 10000 2.1 220 22:55 06.09.2019
2376 Clear 9 1017 87 10000 2.1 220 22:36 06.09.2019
2377 Clear 10 1017 87 10000 2.6 210 22:18 06.09.2019
2378 Clear 10 1016 87 10000 2.6 230 21:41 06.09.2019
2379 Clear 10 1016 87 10000 2.6 230 21:23 06.09.2019
2380 Clear 11 1016 87 10000 2.6 230 20:59 06.09.2019
2381 Clouds 11 1016 81 10000 2.6 220 20:40 06.09.2019
2382 Clouds 12 1015 76 10000 4.1 210 20:21 06.09.2019
2383 Clouds 12 1015 76 10000 4.1 210 19:58 06.09.2019
2384 Clouds 12 1015 76 10000 2.6 220 19:40 06.09.2019
2385 Clouds 13 1015 71 10000 3.1 230 19:20 06.09.2019
2386 Clouds 14 1014 67 10000 3.6 230 18:48 06.09.2019
2387 Clouds 15 1014 67 10000 3.6 230 18:29 06.09.2019
2388 Clouds 15 1014 62 10000 4.6 240 17:59 06.09.2019
2389 Clouds 15 1013 72 10000 3.6 260 17:39 06.09.2019
2390 Clouds 15 1013 72 10000 5.1 280 17:20 06.09.2019
2391 Clouds 15 1013 72 10000 5.1 280 17:20 06.09.2019
2392 Clouds 15 1013 72 10000 5.1 280 17:20 06.09.2019
2393 Rain 15 1013 72 10000 6.7 290 16:42 06.09.2019
2394 Clouds 16 1012 59 10000 6.7 230 16:20 06.09.2019
2395 Clouds 16 1011 59 10000 5.1 250 15:59 06.09.2019
2396 Clouds 16 1011 59 10000 5.1 250 15:40 06.09.2019
2397 Clouds 16 1011 67 10000 5.1 230 15:22 06.09.2019
2398 Clouds 16 1011 67 10000 5.1 230 14:41 06.09.2019
2399 Rain 16 1011 82 10000 7.2 220 14:19 06.09.2019
2400 Clouds 16 1010 55 10000 6.7 220 13:44 06.09.2019
2401 Clouds 16 1010 63 10000 7.2 210 13:23 06.09.2019
2402 Clouds 16 1010 67 10000 7.2 210 12:56 06.09.2019
2403 Rain 15 1010 67 10000 7.2 210 12:36 06.09.2019
2404 Rain 15 1010 72 10000 6.7 220 12:18 06.09.2019
2405 Rain 15 1009 77 10000 6.2 200 11:40 06.09.2019
2406 Clouds 16 1009 82 10000 4.6 210 11:22 06.09.2019
2407 Clouds 15 1009 82 10000 4.6 210 10:56 06.09.2019
2408 Clouds 16 1009 82 10000 4.6 210 10:38 06.09.2019
2409 Clouds 16 1008 87 10000 4.1 200 10:18 06.09.2019
2410 Clouds 15 1008 87 10000 4.1 200 09:38 06.09.2019
2411 Rain 15 1008 87 10000 4.1 190 09:19 06.09.2019
2412 Rain 14 1008 87 10000 4.1 190 08:54 06.09.2019
2413 Rain 14 1008 87 10000 4.1 190 08:36 06.09.2019
2414 Rain 14 1008 87 10000 3.6 190 08:18 06.09.2019
2415 Rain 13 1008 93 7000 4.6 210 07:41 06.09.2019
2416 Rain 13 1008 93 7000 4.6 210 07:22 06.09.2019
2417 Rain 14 1008 87 10000 3.1 240 06:41 06.09.2019
2418 Rain 14 1007 87 10000 3.1 240 05:57 06.09.2019
2419 Rain 14 1007 93 10000 6.2 190 04:56 06.09.2019
2420 Rain 14 1007 93 10000 6.2 190 04:25 06.09.2019
2421 Clouds 14 1007 93 10000 5.1 180 03:23 06.09.2019
2422 Clouds 15 1007 93 10000 4.6 190 01:31 06.09.2019
2423 Clouds 15 1007 87 10000 5.7 190 00:23 06.09.2019
2424 Clouds 15 1007 93 10000 5.7 190 23:42 05.09.2019
2425 Clouds 16 1007 93 10000 5.7 190 23:22 05.09.2019
2426 Clouds 16 1007 87 10000 7.2 190 22:46 05.09.2019
2427 Clouds 16 1007 87 10000 7.2 190 22:27 05.09.2019
2428 Clouds 16 1007 87 10000 7.2 190 21:58 05.09.2019
2429 Rain 16 1007 88 10000 6.2 190 21:39 05.09.2019
2430 Rain 16 1007 93 10000 5.1 180 21:20 05.09.2019
2431 Rain 16 1007 93 10000 5.1 180 20:58 05.09.2019
2432 Rain 16 1007 87 10000 6.2 190 20:39 05.09.2019
2433 Rain 16 1007 82 10000 6.7 170 20:20 05.09.2019
2434 Rain 16 1007 82 10000 6.7 170 19:57 05.09.2019
2435 Rain 16 1007 88 10000 6.7 180 19:39 05.09.2019
2436 Clouds 17 1007 82 10000 6.7 180 19:20 05.09.2019
2437 Rain 16 1007 82 10000 5.7 190 18:45 05.09.2019
2438 Rain 17 1007 82 10000 5.7 190 18:27 05.09.2019
2439 Rain 17 1007 88 10000 7.2 190 17:59 05.09.2019
2440 Rain 17 1007 88 10000 7.2 190 17:39 05.09.2019
2441 Rain 17 1007 88 10000 7.2 190 17:39 05.09.2019
2442 Rain 17 1007 88 10000 7.2 190 17:39 05.09.2019
2443 Rain 17 1007 88 10000 7.2 190 17:21 05.09.2019
2444 Rain 17 1007 88 10000 7.2 190 16:57 05.09.2019
2445 Rain 17 1007 88 10000 7.2 190 16:57 05.09.2019
2446 Rain 17 1007 88 10000 7.7 210 16:39 05.09.2019
2447 Rain 18 1007 77 10000 7.2 190 16:18 05.09.2019
2448 Clouds 18 1007 68 10000 7.2 170 15:40 05.09.2019
2449 Clouds 19 1007 64 10000 8.2 160 15:19 05.09.2019
2450 Clouds 19 1007 64 10000 8.2 160 15:19 05.09.2019
2451 Clouds 19 1007 64 10000 8.2 160 15:19 05.09.2019
2452 Clouds 19 1007 64 10000 8.2 160 14:57 05.09.2019
2453 Clouds 19 1007 68 10000 7.7 160 14:38 05.09.2019
2454 Clouds 19 1007 68 10000 8.2 160 14:18 05.09.2019
2455 Clouds 19 1007 68 10000 8.2 160 13:43 05.09.2019
2456 Clouds 18 1007 72 10000 8.7 160 13:21 05.09.2019
2457 Clouds 19 1007 72 10000 8.7 160 12:45 05.09.2019
2458 Clouds 18 1008 72 10000 7.7 150 12:26 05.09.2019
2459 Clouds 18 1008 72 10000 7.7 150 12:26 05.09.2019
2460 Clouds 17 1008 82 10000 6.2 160 11:58 05.09.2019
2461 Clouds 17 1008 82 10000 6.2 160 11:39 05.09.2019
2462 Clouds 17 1008 82 10000 6.2 160 11:18 05.09.2019
2463 Clouds 16 1009 82 10000 6.7 160 10:42 05.09.2019
2464 Clouds 16 1009 82 10000 6.2 160 10:22 05.09.2019
2465 Clouds 16 1009 82 10000 6.2 160 09:58 05.09.2019
2466 Clouds 16 1009 82 10000 6.2 160 09:58 05.09.2019
2467 Clouds 16 1009 82 10000 6.2 160 09:38 05.09.2019
2468 Clouds 16 1009 77 10000 5.1 170 09:18 05.09.2019
2469 Clouds 16 1009 77 10000 5.1 170 09:18 05.09.2019
2470 Clouds 15 1009 77 10000 5.1 170 08:45 05.09.2019
2471 Clouds 15 1009 77 10000 6.2 170 08:26 05.09.2019
2472 Clouds 14 1009 82 10000 5.7 170 07:46 05.09.2019
2473 Clouds 14 1009 82 10000 5.7 170 07:27 05.09.2019
2474 Clouds 13 1010 93 10000 4.1 160 06:54 05.09.2019
2475 Clouds 13 1010 93 10000 4.1 160 06:30 05.09.2019
2476 Clouds 12 1010 93 10000 3.6 160 05:50 05.09.2019
2477 Clouds 11 1010 93 10000 3.6 160 05:30 05.09.2019
2478 Clouds 10 1010 93 10000 2.6 160 04:50 05.09.2019
2479 Clouds 10 1011 100 10000 1.5 110 04:24 05.09.2019
2480 Clouds 10 1011 93 10000 1.5 70 03:38 05.09.2019
2481 Clouds 10 1011 93 10000 0.5 0 02:45 05.09.2019
2482 Clouds 10 1011 100 10000 0.5 0 02:20 05.09.2019
2483 Clouds 10 1011 100 10000 1 0 01:36 05.09.2019
2484 Clouds 11 1011 93 10000 2.1 220 00:42 05.09.2019
2485 Clouds 11 1011 87 10000 2.6 210 00:20 05.09.2019
2486 Clouds 11 1011 87 10000 3.6 210 23:48 04.09.2019
2487 Clouds 11 1011 87 10000 3.6 210 23:26 04.09.2019
2488 Clouds 11 1011 93 10000 3.1 210 22:59 04.09.2019
2489 Clouds 12 1011 87 10000 3.6 210 22:40 04.09.2019
2490 Clouds 12 1011 82 10000 3.6 210 22:18 04.09.2019
2491 Clouds 13 1011 87 10000 3.6 210 21:39 04.09.2019
2492 Clouds 13 1011 87 10000 3.6 210 21:20 04.09.2019
2493 Clouds 14 1011 87 10000 3.6 210 20:56 04.09.2019
2494 Clouds 14 1011 82 10000 4.1 210 20:38 04.09.2019
2495 Clouds 15 1011 77 10000 3.6 220 20:18 04.09.2019
2496 Clouds 14 1011 77 10000 3.6 220 19:55 04.09.2019
2497 Clouds 15 1011 77 10000 4.6 210 19:36 04.09.2019
2498 Clouds 15 1010 77 10000 4.6 210 19:18 04.09.2019
2499 Clouds 16 1010 67 10000 5.1 220 18:38 04.09.2019
2500 Clouds 17 1010 67 10000 6.7 210 18:19 04.09.2019
2501 Clouds 18 1010 55 10000 6.7 200 17:41 04.09.2019
2502 Clouds 18 1010 55 10000 6.7 200 17:23 04.09.2019
2503 Clouds 18 1010 55 10000 6.7 200 16:58 04.09.2019
2504 Clouds 18 1010 63 10000 5.7 230 16:39 04.09.2019
2505 Clouds 18 1010 63 10000 5.7 230 16:21 04.09.2019
2506 Clouds 18 1010 59 10000 6.7 220 15:55 04.09.2019
2507 Clouds 18 1010 59 10000 6.7 220 15:37 04.09.2019
2508 Clouds 18 1010 68 10000 6.2 180 15:18 04.09.2019
2509 Clouds 18 1010 68 10000 6.2 180 14:54 04.09.2019
2510 Clouds 19 1010 72 10000 6.2 180 14:36 04.09.2019
2511 Rain 18 1010 77 10000 7.2 180 14:18 04.09.2019
2512 Rain 18 1010 77 10000 7.2 190 13:39 04.09.2019
2513 Rain 18 1010 82 10000 6.7 190 13:21 04.09.2019
2514 Clouds 18 1010 77 10000 6.7 170 12:45 04.09.2019
2515 Rain 18 1010 77 10000 5.7 170 12:26 04.09.2019
2516 Rain 18 1010 77 10000 5.7 170 12:26 04.09.2019
2517 Rain 18 1010 77 10000 5.7 170 11:58 04.09.2019
2518 Rain 17 1010 88 10000 5.7 170 11:39 04.09.2019
2519 Clouds 17 1010 77 10000 5.7 180 11:21 04.09.2019
2520 Clouds 17 1010 77 10000 5.7 180 10:56 04.09.2019
2521 Clouds 17 1010 77 10000 5.7 180 10:38 04.09.2019
2522 Clouds 17 1010 77 10000 5.7 180 10:38 04.09.2019
2523 Clouds 16 1010 82 10000 4.6 180 10:19 04.09.2019
2524 Clouds 16 1011 82 10000 6.7 190 09:45 04.09.2019
2525 Clouds 16 1011 82 10000 6.7 190 09:21 04.09.2019
2526 Clouds 16 1011 82 10000 5.1 170 08:43 04.09.2019
2527 Clouds 15 1011 82 10000 5.1 170 08:24 04.09.2019
2528 Clouds 15 1011 82 10000 5.1 170 07:59 04.09.2019
2529 Clouds 14 1011 82 10000 5.1 170 07:36 04.09.2019
2530 Clouds 14 1011 82 10000 5.1 160 06:59 04.09.2019
2531 Clouds 13 1011 82 10000 4.6 160 06:39 04.09.2019
2532 Clouds 12 1012 87 10000 4.6 160 04:55 04.09.2019
2533 Clouds 12 1012 81 10000 3.1 140 04:23 04.09.2019
2534 Clouds 10 1013 93 10000 2.1 100 02:51 04.09.2019
2535 Clouds 8 1014 93 10000 1 0 01:20 04.09.2019
2536 Clear 9 1014 100 10000 1 80 00:45 04.09.2019
2537 Clear 9 1014 100 10000 1 80 00:27 04.09.2019
2538 Clear 10 1014 87 10000 2.1 210 23:52 03.09.2019
2539 Clear 10 1014 87 10000 2.1 210 23:27 03.09.2019
2540 Clear 10 1014 81 10000 2.6 210 22:43 03.09.2019
2541 Clear 10 1014 81 10000 2.6 210 22:25 03.09.2019
2542 Clear 11 1014 76 10000 3.1 220 21:59 03.09.2019
2543 Clear 11 1014 76 10000 3.1 210 21:39 03.09.2019
2544 Clear 12 1014 76 10000 3.1 210 21:20 03.09.2019
2545 Clear 13 1014 76 10000 3.1 210 20:59 03.09.2019
2546 Clear 13 1014 76 10000 3.6 210 20:40 03.09.2019
2547 Clear 13 1014 71 10000 4.1 220 20:21 03.09.2019
2548 Clear 14 1014 67 10000 4.1 220 19:55 03.09.2019
2549 Clear 14 1014 67 10000 4.1 220 19:36 03.09.2019
2550 Clear 15 1014 63 10000 6.2 210 19:18 03.09.2019
2551 Clouds 16 1014 59 10000 5.1 220 18:42 03.09.2019
2552 Clouds 17 1014 59 10000 4.6 190 18:24 03.09.2019
2553 Clouds 17 1014 52 10000 4.6 210 17:56 03.09.2019
2554 Clouds 17 1014 52 10000 4.6 210 17:38 03.09.2019
2555 Clouds 17 1014 51 10000 6.2 200 17:19 03.09.2019
2556 Clouds 18 1014 55 10000 6.2 200 16:43 03.09.2019
2557 Clouds 18 1014 55 10000 6.2 200 16:23 03.09.2019
2558 Clouds 18 1014 59 10000 4.6 230 15:58 03.09.2019
2559 Rain 18 1015 67 10000 3.6 260 15:38 03.09.2019
2560 Rain 18 1015 59 10000 2.1 220 15:20 03.09.2019
2561 Rain 18 1015 59 10000 2.1 220 14:56 03.09.2019
2562 Rain 18 1011 58 0 2.24 218 14:37 03.09.2019
2563 Clouds 18 1015 55 10000 3.1 0 14:19 03.09.2019
2564 Clouds 18 1015 59 10000 2.6 210 13:55 03.09.2019
2565 Clouds 18 1015 59 10000 2.6 210 13:37 03.09.2019
2566 Clouds 18 1015 55 10000 4.6 240 13:18 03.09.2019
2567 Clouds 17 1015 59 10000 3.6 250 12:47 03.09.2019
2568 Clouds 17 1015 59 10000 3.6 250 12:29 03.09.2019
2569 Clouds 17 1015 67 10000 4.1 250 11:44 03.09.2019
2570 Clouds 17 1015 67 10000 4.1 250 11:25 03.09.2019
2571 Clouds 16 1015 77 10000 4.1 230 10:59 03.09.2019
2572 Clouds 16 1015 77 10000 3.6 250 10:40 03.09.2019
2573 Clouds 16 1015 77 10000 3.1 250 10:21 03.09.2019
2574 Clear 15 1014 77 10000 2.6 260 09:51 03.09.2019
2575 Clear 15 1014 77 10000 2.6 260 09:33 03.09.2019
2576 Clear 15 1014 77 10000 2.6 260 08:57 03.09.2019
2577 Clouds 14 1014 87 10000 2.6 260 08:38 03.09.2019
2578 Clouds 14 1014 87 10000 2.6 260 08:38 03.09.2019
2579 Clouds 14 1014 87 10000 2.6 260 08:19 03.09.2019
2580 Clear 13 1014 93 10000 2.1 250 07:43 03.09.2019
2581 Clear 12 1014 100 10000 0.5 0 07:24 03.09.2019
2582 Clear 11 1014 100 10000 1 210 06:50 03.09.2019
2583 Clear 11 1014 100 10000 1 210 06:32 03.09.2019
2584 Clouds 11 1012 92 0 1.82 226.582 03:44 03.09.2019
2585 Clear 11 1013 100 10000 0.5 0 02:48 03.09.2019
2586 Clear 11 1013 100 10000 0.5 0 02:29 03.09.2019
2587 Clear 11 1013 100 10000 0.5 0 01:58 03.09.2019
2588 Clear 11 1013 100 10000 0.5 0 01:39 03.09.2019
2589 Clear 11 1013 93 10000 2.1 210 01:20 03.09.2019
2590 Clear 12 1013 93 10000 2.6 200 00:28 03.09.2019
2591 Clouds 12 1012 93 10000 3.1 210 23:41 02.09.2019
2592 Clouds 13 1012 93 10000 2.6 220 23:21 02.09.2019
2593 Clouds 13 1012 93 10000 2.6 220 23:21 02.09.2019
2594 Clouds 13 1012 93 10000 2.6 220 22:58 02.09.2019
2595 Clouds 13 1012 93 10000 2.6 220 22:58 02.09.2019
2596 Clouds 13 1012 93 10000 1.5 230 22:39 02.09.2019
2597 Clouds 13 1012 93 10000 1.5 230 22:21 02.09.2019
2598 Rain 13 1012 87 10000 3.1 250 21:58 02.09.2019
2599 Clear 13 1012 87 10000 3.6 250 21:40 02.09.2019
2600 Rain 14 1011 93 10000 3.6 270 21:20 02.09.2019
2601 Rain 14 1011 93 10000 3.6 270 20:59 02.09.2019
2602 Rain 14 1011 93 10000 5.7 270 20:40 02.09.2019
2603 Rain 14 1010 93 7000 6.7 260 20:19 02.09.2019
2604 Rain 15 1010 93 7000 6.7 260 19:57 02.09.2019
2605 Rain 15 1010 93 6000 7.7 280 19:39 02.09.2019
2606 Rain 16 1009 100 6000 3.1 220 19:20 02.09.2019
2607 Rain 17 1009 93 7000 3.6 190 18:40 02.09.2019
2608 Rain 18 1009 88 4500 3.6 230 18:22 02.09.2019
2609 Rain 19 1009 82 10000 2.6 190 17:58 02.09.2019
2610 Rain 19 1009 82 10000 2.6 190 17:39 02.09.2019
2611 Clouds 20 1009 77 10000 4.1 150 17:21 02.09.2019
2612 Clouds 20 1009 77 10000 4.1 150 16:58 02.09.2019
2613 Clouds 20 1009 68 10000 4.6 150 16:37 02.09.2019
2614 Clouds 21 1009 68 10000 5.1 130 16:19 02.09.2019
2615 Clouds 21 1009 68 10000 5.1 110 15:44 02.09.2019
2616 Clouds 22 1010 64 10000 5.7 130 15:22 02.09.2019
2617 Clouds 22 1010 64 10000 5.7 130 14:56 02.09.2019
2618 Clouds 22 1010 64 10000 7.2 130 14:37 02.09.2019
2619 Clouds 22 1010 60 10000 6.2 140 14:19 02.09.2019
2620 Clouds 22 1010 64 10000 6.7 120 13:46 02.09.2019
2621 Clouds 22 1010 64 10000 6.7 120 13:46 02.09.2019
2622 Clouds 22 1010 64 10000 6.7 130 13:25 02.09.2019
2623 Clouds 22 1010 64 10000 6.7 130 12:59 02.09.2019
2624 Clouds 22 1010 64 10000 6.7 140 12:41 02.09.2019
2625 Clouds 22 1010 64 10000 6.7 140 12:23 02.09.2019
2626 Clouds 22 1010 64 10000 6.7 140 12:23 02.09.2019
2627 Clouds 22 1010 68 10000 6.7 130 11:58 02.09.2019
2628 Clouds 21 1010 68 10000 6.7 140 11:38 02.09.2019
2629 Clouds 21 1010 68 10000 6.7 140 11:19 02.09.2019
2630 Clouds 21 1011 72 10000 5.1 140 10:42 02.09.2019
2631 Clouds 21 1011 72 10000 5.1 140 10:22 02.09.2019
2632 Clouds 20 1010 82 10000 4.6 120 09:59 02.09.2019
2633 Clouds 19 1011 82 10000 5.7 130 09:40 02.09.2019
2634 Clouds 19 1010 88 10000 5.1 110 09:20 02.09.2019
2635 Clouds 18 1010 88 10000 5.1 110 08:44 02.09.2019
2636 Clouds 18 1011 88 10000 6.2 120 08:22 02.09.2019
2637 Clouds 17 1011 88 10000 6.2 120 07:57 02.09.2019
2638 Clouds 17 1011 93 10000 5.1 120 07:38 02.09.2019
2639 Clouds 16 1011 88 10000 3.6 120 07:20 02.09.2019
2640 Clouds 15 1011 93 10000 3.1 120 06:43 02.09.2019
2641 Clouds 15 1010 88 0 2.41 145.504 05:54 02.09.2019
2642 Clouds 15 1011 87 0 2.41 145.504 05:54 02.09.2019
2643 Clouds 15 1011 93 10000 3.1 130 05:26 02.09.2019
2644 Clouds 15 1012 87 10000 3.1 130 04:48 02.09.2019
2645 Clear 15 1012 87 10000 3.6 140 02:29 02.09.2019
2646 Clear 14 1013 93 10000 2.6 130 01:41 02.09.2019
2647 Clear 14 1013 93 10000 2.6 100 00:42 02.09.2019
2648 Clear 14 1013 93 10000 2.1 70 00:20 02.09.2019
2649 Clear 14 1013 100 10000 1.5 90 23:39 01.09.2019
2650 Clear 14 1013 93 10000 2.1 60 23:19 01.09.2019
2651 Clear 14 1013 93 10000 2.1 60 22:56 01.09.2019
2652 Clear 14 1013 93 10000 2.1 60 22:56 01.09.2019
2653 Clear 14 1013 93 10000 2.1 80 22:38 01.09.2019
2654 Clear 15 1013 87 10000 2.1 100 22:18 01.09.2019
2655 Clear 15 1013 87 10000 2.6 90 21:43 01.09.2019
2656 Clear 16 1013 87 10000 2.6 90 21:23 01.09.2019
2657 Clear 16 1014 77 10000 2.1 90 20:58 01.09.2019
2658 Clear 16 1014 77 10000 2.1 100 20:39 01.09.2019
2659 Clear 17 1014 77 10000 2.6 100 20:19 01.09.2019
2660 Clear 16 1014 77 10000 2.6 100 19:59 01.09.2019
2661 Clear 17 1014 72 10000 2.6 110 19:40 01.09.2019
2662 Clear 18 1014 63 10000 4.6 110 19:21 01.09.2019
2663 Clear 19 1014 68 10000 4.1 130 18:48 01.09.2019
2664 Clear 20 1014 60 10000 4.1 130 18:30 01.09.2019
2665 Clear 20 1014 60 10000 4.1 130 17:59 01.09.2019
2666 Clear 21 1014 56 10000 5.1 130 17:39 01.09.2019
2667 Clear 21 1014 53 10000 4.6 130 17:21 01.09.2019
2668 Clear 21 1014 56 10000 4.6 130 16:41 01.09.2019
2669 Clear 21 1014 56 10000 4.6 130 16:41 01.09.2019
2670 Clear 21 1014 56 10000 4.6 130 16:41 01.09.2019
2671 Clear 22 1015 53 10000 4.6 140 16:21 01.09.2019
2672 Clear 22 1015 53 10000 4.6 140 15:59 01.09.2019
2673 Clear 22 1015 49 10000 5.1 120 15:41 01.09.2019
2674 Clear 22 1015 49 10000 5.1 120 15:22 01.09.2019
2675 Clear 22 1015 49 10000 5.1 130 14:44 01.09.2019
2676 Clear 22 1015 49 10000 5.1 130 14:26 01.09.2019
2677 Clear 22 1015 53 10000 4.6 160 13:59 01.09.2019
2678 Clear 22 1016 49 10000 5.1 140 13:40 01.09.2019
2679 Clear 22 1016 49 10000 5.1 140 13:21 01.09.2019
2680 Clouds 22 1016 53 10000 4.6 160 12:44 01.09.2019
2681 Clouds 22 1016 53 10000 4.6 160 12:25 01.09.2019
2682 Clouds 21 1016 52 10000 4.6 150 11:56 01.09.2019
2683 Clouds 21 1017 64 10000 5.1 140 11:38 01.09.2019
2684 Clouds 21 1017 64 10000 5.1 140 11:18 01.09.2019
2685 Clouds 20 1017 68 10000 3.1 160 10:44 01.09.2019
2686 Clouds 20 1017 68 10000 3.1 160 10:44 01.09.2019
2687 Clouds 20 1017 68 10000 3.1 160 10:23 01.09.2019
2688 Clouds 19 1017 77 10000 3.1 160 09:47 01.09.2019
2689 Mist 18 1017 93 10000 2.6 140 09:26 01.09.2019
2690 Fog 17 1017 100 10000 2.6 130 08:56 01.09.2019
2691 Fog 17 1017 100 10000 2.6 130 08:37 01.09.2019
2692 Fog 16 1017 100 10000 2.6 130 08:19 01.09.2019
2693 Mist 16 1018 93 4500 2.1 130 07:41 01.09.2019
2694 Fog 14 1018 100 3000 1.5 110 07:19 01.09.2019
2695 Fog 14 1018 100 6000 1 0 06:38 01.09.2019
2696 Fog 13 1018 100 700 1 0 05:57 01.09.2019
2697 Fog 13 1018 100 200 0.5 0 04:36 01.09.2019
2698 Fog 13 1018 100 400 0.5 0 03:44 01.09.2019
2699 Fog 13 1018 100 900 1 100 02:59 01.09.2019
2700 Fog 13 1018 100 900 1 100 02:30 01.09.2019
2701 Fog 12 1019 93 600 1.5 140 01:52 01.09.2019
2702 Fog 12 1019 93 600 1.5 140 01:26 01.09.2019
2703 Fog 13 1019 100 10000 1 220 00:47 01.09.2019
2704 Fog 13 1019 100 10000 1 220 00:23 01.09.2019
2705 Clouds 13 1019 93 10000 1 230 23:56 31.08.2019
2706 Clouds 13 1019 93 10000 1 230 23:38 31.08.2019
2707 Clear 13 1019 93 10000 2.6 220 23:18 31.08.2019
2708 Clear 13 1019 93 10000 2.6 220 23:18 31.08.2019
2709 Clear 14 1019 87 10000 3.1 210 22:44 31.08.2019
2710 Clear 14 1019 87 10000 3.1 210 22:26 31.08.2019
2711 Clear 14 1019 82 10000 2.6 220 21:58 31.08.2019
2712 Clear 15 1019 82 10000 3.1 210 21:39 31.08.2019
2713 Clear 15 1019 82 10000 2.6 220 21:21 31.08.2019
2714 Clear 16 1019 77 10000 3.1 220 20:49 31.08.2019
2715 Clear 16 1019 77 10000 3.1 220 20:31 31.08.2019
2716 Clear 17 1019 77 10000 4.1 210 19:57 31.08.2019
2717 Clear 17 1019 68 10000 3.1 210 19:39 31.08.2019
2718 Clear 17 1019 68 10000 3.1 210 19:39 31.08.2019
2719 Clear 18 1019 63 10000 4.1 210 19:21 31.08.2019
2720 Clear 18 1019 63 10000 4.1 210 19:21 31.08.2019
2721 Clouds 19 1019 63 10000 3.1 220 18:40 31.08.2019
2722 Clouds 20 1019 56 10000 5.1 210 18:21 31.08.2019
2723 Clouds 20 1019 56 10000 5.1 210 17:58 31.08.2019
2724 Clouds 21 1019 60 10000 5.1 210 17:37 31.08.2019
2725 Clouds 21 1019 60 10000 5.1 210 17:19 31.08.2019
2726 Clouds 21 1019 60 10000 5.1 210 16:59 31.08.2019
2727 Clouds 21 1019 60 10000 5.1 210 16:59 31.08.2019
2728 Clouds 21 1019 60 10000 5.7 210 16:40 31.08.2019
2729 Clouds 21 1020 56 10000 5.7 210 16:21 31.08.2019
2730 Clouds 21 1020 56 10000 5.7 210 16:21 31.08.2019
2731 Clouds 21 1020 56 10000 5.7 210 15:58 31.08.2019
2732 Clouds 22 1020 56 10000 6.2 200 15:37 31.08.2019
2733 Clouds 21 1020 60 10000 5.7 190 15:18 31.08.2019
2734 Clouds 21 1020 60 10000 5.7 190 14:41 31.08.2019
2735 Clouds 21 1020 60 10000 5.7 190 14:22 31.08.2019
2736 Clouds 21 1020 56 10000 4.1 210 13:42 31.08.2019
2737 Clouds 21 1020 56 10000 4.1 210 13:23 31.08.2019
2738 Clouds 21 1020 56 10000 4.1 210 12:59 31.08.2019
2739 Clouds 21 1020 56 10000 4.1 220 12:39 31.08.2019
2740 Clouds 21 1020 56 10000 4.1 230 12:20 31.08.2019
2741 Clouds 21 1020 56 10000 4.1 230 12:20 31.08.2019
2742 Clouds 21 1020 56 10000 4.1 230 11:55 31.08.2019
2743 Clouds 20 1020 64 10000 4.6 220 11:37 31.08.2019
2744 Clouds 20 1020 64 10000 4.6 220 11:18 31.08.2019
2745 Clouds 19 1019 64 0 3.11 229.045 10:42 31.08.2019
2746 Clouds 19 1020 72 10000 3.6 220 10:19 31.08.2019
2747 Clouds 19 1020 72 10000 3.6 220 09:59 31.08.2019
2748 Clear 18 1020 77 10000 4.1 230 09:38 31.08.2019
2749 Clear 17 1020 88 10000 3.6 230 09:19 31.08.2019
2750 Clear 17 1020 88 10000 3.6 230 08:43 31.08.2019
2751 Clear 16 1020 88 10000 2.6 220 08:23 31.08.2019
2752 Clear 15 1020 93 10000 2.1 240 07:41 31.08.2019
2753 Clear 14 1020 100 10000 1.5 240 07:22 31.08.2019
2754 Fog 13 1020 100 10000 1.5 230 06:41 31.08.2019
2755 Fog 12 1019 100 8000 2.6 240 06:18 31.08.2019
2756 Fog 12 1019 100 8000 2.6 240 06:18 31.08.2019
2757 Fog 12 1019 93 5000 1.5 220 05:33 31.08.2019
2758 Fog 12 1019 100 10000 2.1 240 04:36 31.08.2019
2759 Clear 13 1019 100 10000 1.5 200 03:45 31.08.2019
2760 Clear 14 1019 93 10000 1.5 200 02:49 31.08.2019
2761 Clear 14 1019 93 10000 1.5 200 01:55 31.08.2019
2762 Clear 14 1019 100 10000 1.5 210 01:34 31.08.2019
2763 Clear 14 1019 100 10000 2.6 250 00:52 31.08.2019
2764 Clear 14 1019 100 10000 2.6 250 00:30 31.08.2019
2765 Clear 15 1019 93 10000 2.1 250 23:58 30.08.2019
2766 Rain 15 1019 93 10000 2.1 250 23:39 30.08.2019
2767 Rain 15 1018 87 10000 1.5 240 23:18 30.08.2019
2768 Clear 16 1018 87 10000 2.1 250 22:42 30.08.2019
2769 Clear 16 1018 88 10000 3.6 240 22:24 30.08.2019
2770 Clear 16 1018 88 10000 3.6 240 21:58 30.08.2019
2771 Clear 16 1018 88 10000 3.1 230 21:38 30.08.2019
2772 Clear 17 1018 88 10000 3.6 230 21:19 30.08.2019
2773 Clear 17 1018 88 10000 3.6 230 20:59 30.08.2019
2774 Clouds 17 1018 88 10000 3.1 230 20:40 30.08.2019
2775 Clouds 18 1018 88 10000 3.1 240 20:20 30.08.2019
2776 Clouds 18 1018 88 10000 3.1 240 19:57 30.08.2019
2777 Clouds 18 1018 88 10000 3.1 240 19:57 30.08.2019
2778 Clouds 18 1017 88 10000 3.6 220 19:39 30.08.2019
2779 Clouds 19 1017 82 10000 4.1 200 19:19 30.08.2019
2780 Clouds 19 1017 77 10000 4.6 200 18:54 30.08.2019
2781 Clouds 20 1017 77 10000 4.6 200 18:36 30.08.2019
2782 Clouds 20 1017 82 10000 3.6 180 18:18 30.08.2019
2783 Clouds 21 1017 82 10000 3.6 180 17:55 30.08.2019
2784 Clouds 21 1017 77 10000 4.1 180 17:37 30.08.2019
2785 Clouds 21 1017 78 10000 5.1 190 17:18 30.08.2019
2786 Clouds 22 1017 78 10000 3.6 200 16:43 30.08.2019
2787 Clouds 22 1017 78 10000 2.6 200 16:22 30.08.2019
2788 Clouds 22 1017 78 10000 3.1 230 15:43 30.08.2019
2789 Clouds 22 1017 83 10000 4.1 230 15:24 30.08.2019
2790 Clouds 21 1017 83 10000 4.1 230 14:55 30.08.2019
2791 Clouds 21 1017 83 10000 4.1 230 14:36 30.08.2019
2792 Clouds 21 1017 83 10000 3.6 230 14:18 30.08.2019
2793 Rain 21 1015 82 0 3.15 259.897 13:41 30.08.2019
2794 Clouds 21 1016 83 10000 3.6 210 13:22 30.08.2019
2795 Clouds 21 1016 83 10000 3.6 210 12:55 30.08.2019
2796 Clouds 20 1016 88 10000 3.1 220 12:36 30.08.2019
2797 Rain 20 1016 88 10000 3.6 220 12:18 30.08.2019
2798 Rain 20 1016 88 10000 3.1 220 11:41 30.08.2019
2799 Rain 20 1016 88 10000 3.6 220 11:23 30.08.2019
2800 Clouds 20 1016 88 10000 3.6 210 10:39 30.08.2019
2801 Clouds 19 1015 93 10000 3.1 190 10:20 30.08.2019
2802 Clouds 19 1015 93 10000 3.1 190 09:57 30.08.2019
2803 Clouds 19 1015 100 10000 3.1 180 09:37 30.08.2019
2804 Rain 19 1015 100 7000 2.6 180 09:18 30.08.2019
2805 Clouds 18 1015 93 10000 3.1 170 08:44 30.08.2019
2806 Clouds 18 1015 93 10000 3.1 170 08:25 30.08.2019
2807 Clouds 18 1015 93 10000 3.6 160 07:57 30.08.2019
2808 Clouds 18 1015 93 10000 3.6 160 07:37 30.08.2019
2809 Rain 18 1015 93 8000 3.6 150 07:19 30.08.2019
2810 Rain 18 1015 100 8000 2.6 150 06:40 30.08.2019
2811 Rain 18 1015 100 8000 3.6 140 06:22 30.08.2019
2812 Rain 18 1015 100 6000 3.6 140 05:32 30.08.2019
2813 Clouds 18 1015 88 10000 2.6 120 03:57 30.08.2019
2814 Clouds 18 1015 88 10000 2.6 120 03:37 30.08.2019
2815 Clouds 18 1015 88 10000 2.6 120 03:37 30.08.2019
2816 Clear 18 1015 82 10000 2.6 120 02:44 30.08.2019
2817 Clouds 18 1015 82 10000 2.6 120 02:19 30.08.2019
2818 Clouds 18 1016 77 10000 2.6 120 00:58 30.08.2019
2819 Clouds 18 1016 77 10000 3.6 130 00:23 30.08.2019
2820 Clear 18 1016 82 10000 2.6 110 23:49 29.08.2019
2821 Clear 18 1016 82 10000 2.6 110 23:49 29.08.2019
2822 Clear 18 1016 82 10000 2.6 110 23:23 29.08.2019
2823 Clear 18 1016 82 10000 2.6 110 23:23 29.08.2019
2824 Clear 18 1016 82 10000 2.6 110 22:59 29.08.2019
2825 Clear 18 1016 77 10000 2.6 110 22:41 29.08.2019
2826 Clear 19 1015 79 0 2.39 126.755 22:22 29.08.2019
2827 Clear 19 1017 77 10000 3.1 120 21:42 29.08.2019
2828 Clear 19 1017 77 10000 3.1 120 21:42 29.08.2019
2829 Clear 19 1017 77 10000 3.1 120 21:22 29.08.2019
2830 Clear 19 1017 77 10000 3.1 120 20:59 29.08.2019
2831 Clear 19 1017 82 10000 3.1 110 20:41 29.08.2019
2832 Clear 20 1017 72 10000 2.6 90 20:20 29.08.2019
2833 Clear 20 1017 72 10000 2.6 100 19:57 29.08.2019
2834 Clear 20 1017 72 10000 2.6 100 19:38 29.08.2019
2835 Clouds 21 1017 68 10000 4.1 120 19:20 29.08.2019
2836 Clouds 22 1017 64 10000 4.1 100 18:41 29.08.2019
2837 Clear 22 1018 64 10000 4.1 100 18:20 29.08.2019
2838 Clear 23 1018 60 10000 4.1 110 17:56 29.08.2019
2839 Clear 23 1018 60 10000 4.1 110 17:56 29.08.2019
2840 Clear 23 1018 57 10000 4.1 100 17:37 29.08.2019
2841 Clear 23 1018 57 10000 4.1 100 17:19 29.08.2019
2842 Clear 23 1018 60 10000 4.1 120 16:43 29.08.2019
2843 Clear 23 1018 60 10000 5.1 100 16:24 29.08.2019
2844 Clear 23 1018 60 10000 5.1 100 15:58 29.08.2019
2845 Clear 23 1017 67 0 3.72 146.626 15:38 29.08.2019
2846 Clear 23 1019 56 10000 4.6 120 15:19 29.08.2019
2847 Clear 23 1019 60 10000 5.7 110 14:49 29.08.2019
2848 Clear 23 1019 60 10000 5.7 120 14:22 29.08.2019
2849 Clear 23 1019 60 10000 5.7 120 13:58 29.08.2019
2850 Clear 23 1019 60 10000 5.7 120 13:39 29.08.2019
2851 Clear 22 1019 60 10000 6.2 120 13:20 29.08.2019
2852 Clear 23 1020 60 10000 5.1 130 12:58 29.08.2019
2853 Clear 22 1020 60 10000 5.1 130 12:39 29.08.2019
2854 Clear 22 1020 60 10000 5.1 130 12:21 29.08.2019
2855 Clear 22 1020 60 10000 5.1 130 11:58 29.08.2019
2856 Clear 22 1020 60 10000 5.1 120 11:37 29.08.2019
2857 Clear 22 1020 64 10000 4.1 110 11:18 29.08.2019
2858 Clear 21 1020 68 10000 4.6 110 10:44 29.08.2019
2859 Clear 21 1020 68 10000 4.6 110 10:24 29.08.2019
2860 Clear 20 1021 77 10000 3.6 120 09:42 29.08.2019
2861 Clear 19 1021 77 10000 3.6 120 09:21 29.08.2019
2862 Clear 19 1021 72 10000 4.6 140 08:59 29.08.2019
2863 Clear 19 1021 82 10000 5.1 140 08:40 29.08.2019
2864 Clear 18 1021 82 10000 5.1 140 08:22 29.08.2019
2865 Clear 17 1021 82 10000 5.1 130 07:49 29.08.2019
2866 Clear 17 1021 82 10000 5.1 130 07:26 29.08.2019
2867 Clear 16 1021 87 10000 2.6 120 06:48 29.08.2019
2868 Clear 15 1021 87 10000 2.6 120 06:30 29.08.2019
2869 Clear 14 1022 93 10000 2.1 100 05:42 29.08.2019
2870 Clear 14 1022 93 10000 1 0 04:51 29.08.2019
2871 Clear 14 1022 93 10000 1 0 04:29 29.08.2019
2872 Clear 16 1022 93 10000 1.5 120 03:20 29.08.2019
2873 Clear 16 1023 87 10000 2.6 130 01:49 29.08.2019
2874 Clear 17 1023 82 10000 2.6 160 01:30 29.08.2019
2875 Clear 16 1023 88 10000 4.1 150 00:42 29.08.2019
2876 Clear 16 1023 88 10000 2.6 130 00:21 29.08.2019
2877 Clear 16 1022 81 0 2.15 133.923 23:44 28.08.2019
2878 Clear 16 1017 87 0 2.15 133.923 23:25 28.08.2019
2879 Clear 16 1022 87 10000 2.6 100 22:59 28.08.2019
2880 Clear 15 1022 93 10000 2.1 80 22:39 28.08.2019
2881 Clear 16 1022 93 10000 2.1 90 22:18 28.08.2019
2882 Clear 16 1022 93 10000 2.1 90 21:57 28.08.2019
2883 Clear 16 1023 93 10000 2.1 90 21:38 28.08.2019
2884 Clear 17 1023 93 10000 1.5 100 21:20 28.08.2019
2885 Clear 18 1023 88 10000 1.5 120 20:41 28.08.2019
2886 Clear 19 1023 72 10000 2.1 100 20:22 28.08.2019
2887 Clear 19 1023 72 10000 2.1 100 19:56 28.08.2019
2888 Clear 19 1023 72 10000 2.6 110 19:37 28.08.2019
2889 Clear 21 1023 68 10000 3.1 110 19:18 28.08.2019
2890 Clear 21 1023 64 10000 4.1 130 18:42 28.08.2019
2891 Clear 22 1023 60 10000 4.1 130 18:21 28.08.2019
2892 Clear 23 1024 57 10000 4.1 160 17:55 28.08.2019
2893 Clear 23 1024 57 10000 4.1 160 17:37 28.08.2019
2894 Clear 23 1024 57 10000 4.1 160 17:37 28.08.2019
2895 Clear 24 1024 53 10000 5.1 160 17:19 28.08.2019
2896 Clear 24 1024 57 10000 4.6 160 16:42 28.08.2019
2897 Clear 24 1024 57 10000 4.1 160 16:18 28.08.2019
2898 Clear 24 1025 57 10000 4.6 170 15:54 28.08.2019
2899 Clear 24 1025 57 10000 4.6 170 15:36 28.08.2019
2900 Clear 24 1025 57 10000 4.6 170 15:18 28.08.2019
2901 Clear 24 1025 53 10000 4.6 150 14:55 28.08.2019
2902 Clear 24 1025 53 10000 4.6 150 14:36 28.08.2019
2903 Clear 24 1025 53 10000 5.1 150 14:18 28.08.2019
2904 Clear 24 1025 53 10000 5.1 150 13:39 28.08.2019
2905 Clear 24 1025 57 10000 4.6 180 13:20 28.08.2019
2906 Clear 24 1025 57 10000 4.6 180 12:58 28.08.2019
2907 Clear 24 1025 53 10000 5.7 180 12:40 28.08.2019
2908 Clear 24 1025 53 10000 5.7 180 12:40 28.08.2019
2909 Clouds 24 1025 57 10000 3.1 190 12:21 28.08.2019
2910 Clear 23 1025 64 10000 2.6 170 11:40 28.08.2019
2911 Clear 23 1025 64 10000 2.6 170 11:22 28.08.2019
2912 Clear 22 1026 73 10000 3.1 160 10:57 28.08.2019
2913 Clear 22 1026 77 10000 3.1 140 10:38 28.08.2019
2914 Clear 21 1026 77 10000 3.1 140 10:20 28.08.2019
2915 Clear 21 1026 77 10000 3.1 140 10:20 28.08.2019
2916 Clear 20 1026 82 10000 4.1 150 09:42 28.08.2019
2917 Clear 19 1026 88 10000 3.6 140 09:21 28.08.2019
2918 Clear 18 1026 93 10000 2.1 110 08:57 28.08.2019
2919 Clear 18 1026 93 10000 2.1 110 08:38 28.08.2019
2920 Clear 17 1026 93 10000 2.1 110 08:19 28.08.2019
2921 Clear 15 1026 93 10000 1.5 100 07:38 28.08.2019
2922 Fog 15 1026 93 5000 1 0 07:20 28.08.2019
2923 Fog 15 1026 93 5000 1 0 07:20 28.08.2019
2924 Fog 14 1026 100 400 1.5 100 06:49 28.08.2019
2925 Fog 12 1026 100 400 1 80 05:59 28.08.2019
2926 Fog 12 1026 100 100 1 0 05:24 28.08.2019
2927 Fog 13 1026 100 150 1 90 02:18 28.08.2019
2928 Fog 13 1026 100 200 1 0 01:30 28.08.2019
2929 Fog 13 1026 100 250 2.1 140 00:52 28.08.2019
2930 Fog 14 1026 100 250 2.1 140 00:33 28.08.2019
2931 Fog 14 1026 100 1500 1.5 130 23:56 27.08.2019
2932 Fog 14 1026 100 1500 1.5 130 23:38 27.08.2019
2933 Mist 14 1026 100 3500 1.5 140 23:19 27.08.2019
2934 Clouds 14 1026 93 6000 1.5 140 22:41 27.08.2019
2935 Clouds 15 1025 100 7000 1 0 22:23 27.08.2019
2936 Clouds 15 1025 100 7000 1 0 21:57 27.08.2019
2937 Clear 16 1025 93 10000 2.6 160 21:38 27.08.2019
2938 Clear 16 1025 93 10000 2.6 160 21:38 27.08.2019
2939 Clear 16 1025 93 10000 2.6 160 21:38 27.08.2019
2940 Clear 16 1025 93 10000 2.6 160 21:38 27.08.2019
2941 Clear 17 1025 93 10000 2.6 160 21:19 27.08.2019
2942 Clear 17 1025 93 10000 2.6 160 20:57 27.08.2019
2943 Clear 17 1025 88 10000 2.6 150 20:39 27.08.2019
2944 Clear 18 1025 82 10000 2.1 170 20:19 27.08.2019
2945 Clear 19 1025 77 10000 3.1 180 19:44 27.08.2019
2946 Clear 19 1025 77 10000 3.1 180 19:25 27.08.2019
2947 Clear 20 1025 68 10000 3.6 180 18:56 27.08.2019
2948 Clear 21 1025 68 10000 3.6 180 18:38 27.08.2019
2949 Clear 21 1026 68 10000 3.6 180 18:18 27.08.2019
2950 Clear 22 1026 64 10000 4.1 160 17:43 27.08.2019
2951 Clear 22 1026 64 10000 4.1 160 17:24 27.08.2019
2952 Clear 22 1026 64 10000 3.6 160 16:57 27.08.2019
2953 Clear 22 1026 64 10000 3.6 160 16:38 27.08.2019
2954 Clear 22 1026 64 10000 3.6 160 16:19 27.08.2019
2955 Clear 22 1026 68 10000 4.1 160 15:42 27.08.2019
2956 Clear 23 1026 64 10000 3.6 150 15:23 27.08.2019
2957 Clear 23 1026 64 10000 3.6 150 14:59 27.08.2019
2958 Clear 23 1026 64 10000 3.6 150 14:59 27.08.2019
2959 Clear 23 1026 64 10000 3.6 150 14:41 27.08.2019
2960 Clouds 23 1026 60 10000 3.6 160 14:23 27.08.2019
2961 Clouds 23 1026 60 10000 3.1 140 13:43 27.08.2019
2962 Clouds 23 1026 60 10000 3.1 170 13:24 27.08.2019
2963 Clouds 23 1026 56 10000 3.6 160 12:56 27.08.2019
2964 Clouds 23 1026 56 10000 3.6 160 12:37 27.08.2019
2965 Clouds 22 1026 60 10000 2.1 160 12:19 27.08.2019
2966 Clear 23 1026 60 10000 2.6 120 11:44 27.08.2019
2967 Clear 22 1026 64 10000 2.6 140 11:25 27.08.2019
2968 Clear 22 1026 73 10000 2.6 130 10:46 27.08.2019
2969 Clear 21 1026 73 10000 2.6 130 10:22 27.08.2019
2970 Clear 21 1026 72 10000 1.5 130 09:59 27.08.2019
2971 Clear 21 1026 72 10000 1.5 130 09:39 27.08.2019
2972 Clear 20 1025 77 10000 1 0 09:20 27.08.2019
2973 -273 0 0 0 0 0 08:55 27.08.2019
2974 Clear 19 1025 82 10000 1 0 08:37 27.08.2019
2975 Clear 18 1025 82 10000 1 0 08:18 27.08.2019
2976 Clear 16 1025 87 10000 1 330 07:40 27.08.2019
2977 Clear 15 1025 93 10000 1 0 07:19 27.08.2019
2978 Fog 14 1025 100 10000 1 0 06:54 27.08.2019
2979 Fog 13 1025 100 10000 1 0 06:25 27.08.2019
2980 Fog 13 1025 93 10000 1.5 310 05:42 27.08.2019
2981 Fog 13 1024 100 10000 1.5 310 04:43 27.08.2019
2982 Clear 14 1024 93 10000 1 0 03:35 27.08.2019
2983 Clear 14 1024 93 10000 2.1 290 02:23 27.08.2019
2984 Clear 14 1024 93 10000 2.6 300 01:40 27.08.2019
2985 Clear 14 1023 93 10000 2.1 330 01:21 27.08.2019
2986 Clear 15 1023 100 10000 1.5 290 00:41 27.08.2019
2987 Clear 15 1023 87 10000 1.5 270 00:22 27.08.2019
2988 Clear 16 1023 87 10000 2.6 270 23:38 26.08.2019
2989 Clear 16 1023 82 10000 3.1 270 23:19 26.08.2019
2990 Clear 16 1023 82 10000 3.1 270 22:39 26.08.2019
2991 Clear 16 1022 77 10000 2.6 260 22:19 26.08.2019
2992 Clouds 16 1017 85 0 2 308.664 21:57 26.08.2019
2993 Clear 18 1022 77 10000 2.6 250 21:37 26.08.2019
2994 Clear 18 1022 77 10000 2.6 250 21:19 26.08.2019
2995 Clear 19 1022 77 10000 2.6 240 20:55 26.08.2019
2996 Clear 19 1022 77 10000 2.1 240 20:37 26.08.2019
2997 Clear 19 1022 77 10000 2.6 240 20:37 26.08.2019
2998 Clear 19 1022 77 10000 2.1 240 20:18 26.08.2019
2999 Clear 20 1022 73 10000 2.1 250 19:42 26.08.2019
3000 Clear 21 1022 68 10000 2.1 250 19:19 26.08.2019
3001 Clear 21 1022 68 10000 2.1 250 19:19 26.08.2019
3002 Clouds 21 1022 60 10000 2.6 250 18:58 26.08.2019
3003 Clouds 22 1022 64 10000 3.1 260 18:38 26.08.2019
3004 Clouds 22 1022 64 10000 3.1 260 18:19 26.08.2019
3005 Clouds 23 1022 64 10000 3.6 260 17:44 26.08.2019
3006 Clouds 23 1022 64 10000 3.6 290 17:20 26.08.2019
3007 Clouds 23 1022 64 10000 4.1 260 16:57 26.08.2019
3008 Clouds 23 1022 64 10000 4.1 260 16:39 26.08.2019
3009 Clouds 23 1022 64 10000 4.1 270 16:18 26.08.2019
3010 Clouds 23 1022 64 10000 4.1 270 16:18 26.08.2019
3011 Clouds 23 1022 64 10000 5.1 260 15:54 26.08.2019
3012 Clouds 23 1022 64 10000 4.6 270 15:36 26.08.2019
3013 Clouds 23 1022 64 10000 4.6 270 15:18 26.08.2019
3014 Clouds 23 1022 60 10000 5.1 270 14:42 26.08.2019
3015 Clouds 23 1022 64 10000 5.7 250 14:22 26.08.2019
3016 Clouds 23 1022 64 10000 4.6 260 13:43 26.08.2019
3017 Clouds 23 1022 68 10000 4.6 240 13:23 26.08.2019
3018 Clouds 22 1022 68 10000 4.1 240 12:57 26.08.2019
3019 Clouds 22 1022 68 10000 4.1 240 12:39 26.08.2019
3020 Clear 21 1022 73 10000 3.6 240 12:20 26.08.2019
3021 Clear 21 1023 77 10000 2.1 240 11:38 26.08.2019
3022 Clear 20 1023 77 10000 2.1 240 11:20 26.08.2019
3023 Clouds 20 1023 82 10000 2.6 260 10:57 26.08.2019
3024 Clouds 20 1023 82 10000 2.6 260 10:39 26.08.2019
3025 Clouds 19 1023 88 10000 3.6 240 10:19 26.08.2019
3026 Clouds 18 1022 93 10000 3.1 240 09:42 26.08.2019
3027 Clouds 17 1022 93 10000 3.6 240 09:24 26.08.2019
3028 Clouds 17 1022 88 10000 3.1 240 08:56 26.08.2019
3029 Clouds 17 1023 93 10000 3.1 240 08:38 26.08.2019
3030 Clouds 17 1023 93 10000 3.1 240 08:38 26.08.2019
3031 Clouds 16 1023 93 10000 3.1 240 08:19 26.08.2019
3032 Clouds 16 1023 93 10000 2.1 230 07:44 26.08.2019
3033 Clouds 15 1023 100 10000 2.1 220 07:25 26.08.2019
3034 Clear 15 1023 93 10000 2.1 240 06:57 26.08.2019
3035 Clear 15 1023 93 10000 2.1 240 06:38 26.08.2019
3036 Clear 14 1023 93 10000 2.6 230 06:18 26.08.2019
3037 Clear 14 1024 93 10000 2.1 230 04:54 26.08.2019
3038 Clear 14 1024 93 10000 1.5 220 03:49 26.08.2019
3039 Clear 14 1024 93 10000 2.6 230 02:38 26.08.2019
3040 Clear 14 1024 87 10000 3.6 210 01:23 26.08.2019
3041 Clear 14 1025 87 10000 3.1 220 00:44 26.08.2019
3042 Clear 14 1025 87 10000 3.1 220 00:44 26.08.2019
3043 Clear 14 1025 87 10000 3.1 220 00:25 26.08.2019
3044 Clear 15 1025 87 10000 2.6 210 23:44 25.08.2019
3045 Clear 15 1025 82 10000 3.1 210 23:20 25.08.2019
3046 Clear 15 1025 82 10000 3.6 200 22:58 25.08.2019
3047 Clear 15 1025 82 10000 3.6 200 22:40 25.08.2019
3048 Clear 15 1024 77 10000 3.6 180 22:20 25.08.2019
3049 Clear 16 1025 72 10000 3.6 210 21:58 25.08.2019
3050 Clear 15 1025 72 10000 3.6 210 21:39 25.08.2019
3051 Clear 16 1025 72 10000 3.6 210 21:19 25.08.2019
3052 Clear 16 1025 63 10000 4.1 210 20:42 25.08.2019
3053 Clear 17 1025 59 10000 5.1 200 20:20 25.08.2019
3054 Clear 17 1025 59 10000 4.6 210 19:59 25.08.2019
3055 Clear 17 1025 59 10000 4.6 210 19:39 25.08.2019
3056 Clear 18 1025 59 10000 5.1 210 19:20 25.08.2019
3057 Clear 18 1026 52 10000 5.7 210 18:58 25.08.2019
3058 Clear 18 1026 55 10000 5.1 210 18:58 25.08.2019
3059 Clear 19 1026 52 10000 5.7 210 18:40 25.08.2019
3060 Clear 19 1026 52 10000 5.7 210 18:21 25.08.2019
3061 Clear 19 1026 52 10000 5.7 190 17:55 25.08.2019
3062 Clear 20 1026 52 10000 5.7 190 17:36 25.08.2019
3063 Clouds 20 1026 60 10000 4.6 180 17:18 25.08.2019
3064 Clouds 21 1026 49 10000 5.1 190 16:39 25.08.2019
3065 Clouds 21 1027 49 10000 5.1 190 16:21 25.08.2019
3066 Clouds 21 1027 49 10000 4.6 190 15:44 25.08.2019
3067 Clouds 21 1027 56 10000 4.1 190 15:26 25.08.2019
3068 Clouds 21 1027 56 10000 4.6 190 14:55 25.08.2019
3069 Clouds 21 1027 56 10000 4.6 190 14:55 25.08.2019
3070 Clouds 21 1027 60 10000 5.7 180 14:37 25.08.2019
3071 Clouds 20 1027 60 10000 5.7 180 14:19 25.08.2019
3072 Clouds 20 1027 52 10000 4.6 190 13:43 25.08.2019
3073 Clouds 20 1028 52 10000 5.1 210 13:21 25.08.2019
3074 Clouds 20 1028 56 10000 5.1 180 12:54 25.08.2019
3075 Clouds 20 1028 56 10000 5.1 180 12:36 25.08.2019
3076 Clouds 20 1028 56 10000 4.1 200 12:18 25.08.2019
3077 Clouds 20 1028 52 10000 3.1 210 11:41 25.08.2019
3078 Clouds 20 1028 59 10000 3.1 190 11:22 25.08.2019
3079 Clouds 19 1028 59 10000 2.1 240 10:59 25.08.2019
3080 Clouds 19 1028 59 10000 2.1 240 10:40 25.08.2019
3081 Clouds 19 1028 63 10000 2.1 210 10:20 25.08.2019
3082 Clouds 18 1028 72 10000 2.1 200 09:55 25.08.2019
3083 -273 0 0 0 0 0 09:55 25.08.2019
3084 Clear 17 1028 77 10000 3.1 180 09:37 25.08.2019
3085 Clear 17 1028 77 10000 3.1 180 09:18 25.08.2019
3086 Clear 15 1028 82 10000 2.1 150 08:42 25.08.2019
3087 Clear 16 1028 82 10000 1 0 08:21 25.08.2019
3088 Clear 11 1028 100 10000 0.5 0 07:35 25.08.2019
3089 Clear 9 1028 100 10000 1.5 40 06:46 25.08.2019
3090 Clouds 9 1026 88 0 0.65 44.628 05:47 25.08.2019
3091 Clear 8 1028 93 10000 1 280 04:35 25.08.2019
3092 Clear 9 1027 100 10000 1 350 03:31 25.08.2019
3093 Clear 10 1027 93 10000 1 340 02:39 25.08.2019
3094 Clear 10 1027 100 10000 1.5 300 01:24 25.08.2019
3095 Clear 10 1026 100 10000 1.5 320 00:39 25.08.2019
3096 Clear 11 1026 100 10000 1.5 320 00:20 25.08.2019
3097 Clear 11 1026 93 10000 2.6 320 23:50 24.08.2019
3098 Clear 11 1026 87 10000 2.1 310 23:22 24.08.2019
3099 Clear 11 1026 93 10000 2.6 290 22:55 24.08.2019
3100 Clear 12 1026 93 10000 2.6 290 22:37 24.08.2019
3101 Clear 12 1026 93 10000 2.6 300 22:19 24.08.2019
3102 Clear 12 1025 87 10000 1 290 21:55 24.08.2019
3103 Clear 13 1025 87 10000 1 290 21:36 24.08.2019
3104 Clear 13 1025 93 10000 0.5 320 21:18 24.08.2019
3105 Clear 14 1025 87 10000 1 0 20:42 24.08.2019
3106 Clear 15 1025 77 10000 2.1 310 20:21 24.08.2019
3107 Clear 15 1025 63 10000 2.6 300 19:59 24.08.2019
3108 Clear 17 1025 59 10000 3.1 310 19:41 24.08.2019
3109 Clear 17 1025 59 10000 3.1 310 19:22 24.08.2019
3110 Clear 18 1024 52 10000 4.1 310 18:59 24.08.2019
3111 Clear 19 1024 52 10000 4.6 300 18:38 24.08.2019
3112 Clear 19 1024 52 10000 4.6 300 18:19 24.08.2019
3113 Clear 20 1024 49 10000 4.1 310 17:43 24.08.2019
3114 Clear 20 1024 49 10000 5.1 310 17:24 24.08.2019
3115 Clear 20 1024 49 10000 6.2 320 16:48 24.08.2019
3116 Clouds 20 1024 49 10000 5.7 320 16:20 24.08.2019
3117 Clouds 20 1023 52 10000 6.2 300 15:58 24.08.2019
3118 Clouds 20 1023 52 10000 6.7 320 15:40 24.08.2019
3119 Clouds 20 1023 52 10000 6.7 320 15:21 24.08.2019
3120 Clouds 20 1023 49 10000 6.2 290 14:42 24.08.2019
3121 Clouds 20 1023 52 10000 6.7 290 14:22 24.08.2019
3122 Clouds 20 1022 49 10000 7.2 290 13:56 24.08.2019
3123 Clouds 20 1022 49 10000 7.2 290 13:37 24.08.2019
3124 Clouds 20 1022 55 10000 7.7 300 13:18 24.08.2019
3125 Clouds 19 1022 59 10000 6.7 310 12:42 24.08.2019
3126 Clouds 19 1022 59 10000 7.7 300 12:24 24.08.2019
3127 Clouds 19 1021 59 10000 7.7 300 11:57 24.08.2019
3128 Clouds 19 1021 59 10000 7.7 300 11:38 24.08.2019
3129 Clouds 18 1021 63 10000 7.2 290 11:19 24.08.2019
3130 Clouds 18 1021 68 10000 7.2 290 10:43 24.08.2019
3131 Clouds 18 1021 72 10000 7.7 300 10:23 24.08.2019
3132 Clouds 18 1020 72 10000 7.2 290 09:44 24.08.2019
3133 Clouds 17 1020 77 10000 6.7 280 09:20 24.08.2019
3134 Clouds 16 1020 82 10000 6.2 280 08:56 24.08.2019
3135 Clouds 16 1020 82 10000 6.2 280 08:37 24.08.2019
3136 Clouds 16 1019 82 10000 4.6 270 08:18 24.08.2019
3137 Clouds 15 1019 87 10000 5.1 270 07:44 24.08.2019
3138 Clouds 15 1019 93 10000 3.6 270 07:24 24.08.2019
3139 Clouds 14 1018 100 10000 3.6 250 06:24 24.08.2019
3140 Clouds 13 1018 100 10000 3.6 250 05:40 24.08.2019
3141 Clear 13 1018 100 10000 3.1 250 04:36 24.08.2019
3142 Clouds 13 1017 100 10000 3.1 250 03:36 24.08.2019
3143 Clouds 14 1016 93 10000 3.1 260 02:25 24.08.2019
3144 Clouds 14 1016 100 10000 2.6 250 01:31 24.08.2019
3145 Clouds 14 1016 100 10000 2.6 250 00:52 24.08.2019
3146 Clouds 15 1016 93 10000 3.6 260 00:25 24.08.2019
3147 Clouds 15 1016 93 10000 3.1 270 23:57 23.08.2019
3148 Clouds 15 1016 93 10000 3.1 240 23:37 23.08.2019
3149 Clouds 15 1016 93 10000 3.1 240 23:18 23.08.2019
3150 Clouds 15 1016 93 10000 4.1 240 22:42 23.08.2019
3151 Clouds 15 1016 93 10000 4.6 230 22:23 23.08.2019
3152 Clouds 16 1016 93 10000 4.6 230 21:39 23.08.2019
3153 Clouds 16 1016 93 10000 4.6 230 21:20 23.08.2019
3154 Clouds 15 1016 100 10000 5.1 220 20:56 23.08.2019
3155 Clouds 15 1016 100 10000 4.6 220 20:37 23.08.2019
3156 Rain 15 1016 100 10000 4.6 220 20:19 23.08.2019
3157 Rain 15 1016 100 10000 4.6 220 19:43 23.08.2019
3158 Rain 15 1016 93 8000 4.6 200 19:18 23.08.2019
3159 Rain 15 1017 93 8000 6.2 210 18:45 23.08.2019
3160 Rain 15 1017 87 10000 5.1 210 18:27 23.08.2019
3161 Rain 15 1017 87 10000 7.2 210 17:54 23.08.2019
3162 Rain 15 1018 93 10000 4.1 200 17:36 23.08.2019
3163 Rain 15 1018 93 10000 4.1 200 17:18 23.08.2019
3164 Rain 15 1018 87 6000 4.6 210 16:44 23.08.2019
3165 Rain 16 1019 93 2500 6.7 230 16:25 23.08.2019
3166 Rain 17 1019 68 10000 10.3 210 15:55 23.08.2019
3167 Clouds 18 1019 72 10000 9.8 210 15:36 23.08.2019
3168 Clouds 19 1019 72 10000 9.8 210 15:18 23.08.2019
3169 Rain 19 1020 82 10000 6.7 210 14:41 23.08.2019
3170 Rain 19 1020 82 10000 6.7 210 14:21 23.08.2019
3171 Rain 19 1020 82 10000 9.3 210 13:56 23.08.2019
3172 Clouds 19 1020 72 10000 10.3 210 13:38 23.08.2019
3173 Clouds 19 1020 72 10000 10.3 210 13:19 23.08.2019
3174 Clouds 19 1020 77 10000 8.2 210 12:57 23.08.2019
3175 Clouds 18 1020 82 10000 7.2 200 12:38 23.08.2019
3176 Clouds 18 1020 82 10000 7.2 200 12:20 23.08.2019
3177 Clouds 18 1020 82 10000 8.7 200 11:54 23.08.2019
3178 Rain 18 1020 88 10000 7.2 190 11:36 23.08.2019
3179 Rain 18 1020 88 10000 7.2 190 11:18 23.08.2019
3180 Clouds 17 1021 93 10000 6.2 180 10:42 23.08.2019
3181 Clouds 16 1021 87 10000 3.6 170 10:21 23.08.2019
3182 Rain 15 1022 100 6000 3.6 150 09:48 23.08.2019
3183 Rain 15 1022 93 10000 4.1 140 09:30 23.08.2019
3184 Rain 14 1022 100 10000 3.6 120 08:59 23.08.2019
3185 Rain 14 1022 100 7000 4.1 140 08:39 23.08.2019
3186 Rain 14 1022 100 7000 4.1 140 08:39 23.08.2019
3187 Rain 13 1022 100 7000 4.1 140 08:19 23.08.2019
3188 Rain 13 1022 100 5000 4.1 150 07:42 23.08.2019
3189 Rain 13 1022 100 10000 3.1 100 07:24 23.08.2019
3190 Rain 13 1023 100 6000 3.1 220 06:56 23.08.2019
3191 Rain 13 1023 93 10000 4.1 150 06:37 23.08.2019
3192 Rain 13 1023 93 10000 4.1 150 06:19 23.08.2019
3193 Rain 13 1023 93 9000 3.6 230 05:32 23.08.2019
3194 Rain 15 1023 87 10000 3.6 190 04:20 23.08.2019
3195 Clear 14 1023 87 10000 3.6 190 02:49 23.08.2019
3196 Clear 14 1023 87 10000 3.1 200 02:22 23.08.2019
3197 Clear 14 1023 87 10000 3.6 200 01:38 23.08.2019
3198 Clear 14 1024 87 10000 3.6 200 00:44 23.08.2019
3199 Clear 14 1024 82 10000 2.6 220 00:19 23.08.2019
3200 Clear 14 1024 82 10000 2.6 220 23:45 22.08.2019
3201 Clear 14 1024 82 10000 3.1 220 23:23 22.08.2019
3202 Clear 14 1024 82 10000 4.1 220 22:56 22.08.2019
3203 Clear 14 1024 82 10000 4.1 220 22:38 22.08.2019
3204 Clear 14 1024 77 10000 4.6 220 22:19 22.08.2019
3205 Clear 14 1024 77 10000 4.6 230 21:55 22.08.2019
3206 Clear 15 1023 77 10000 5.7 220 21:36 22.08.2019
3207 Clear 15 1023 77 10000 5.7 220 21:18 22.08.2019
3208 Clear 16 1023 67 10000 5.1 220 20:54 22.08.2019
3209 Clear 16 1023 67 10000 5.1 220 20:54 22.08.2019
3210 Clear 16 1023 72 10000 5.7 230 20:36 22.08.2019
3211 Clear 16 1023 72 10000 5.7 230 20:18 22.08.2019
3212 Clouds 18 1023 72 10000 6.2 220 19:40 22.08.2019
3213 Clouds 18 1023 68 10000 5.7 220 19:21 22.08.2019
3214 Clear 18 1022 56 10000 6.2 220 18:59 22.08.2019
3215 Clear 19 1022 46 10000 5.1 250 18:40 22.08.2019
3216 Clear 20 1022 46 10000 5.1 250 18:20 22.08.2019
3217 Clear 20 1022 43 10000 6.2 250 17:58 22.08.2019
3218 Clear 20 1022 43 10000 6.2 250 17:39 22.08.2019
3219 Clear 21 1022 43 10000 5.7 250 17:19 22.08.2019
3220 Clear 21 1022 43 10000 5.7 250 16:56 22.08.2019
3221 Clear 21 1022 43 10000 5.7 250 16:37 22.08.2019
3222 Clear 21 1022 43 10000 5.7 240 16:19 22.08.2019
3223 Clear 21 1022 43 10000 5.7 240 16:19 22.08.2019
3224 Clear 21 1022 43 10000 5.7 240 16:19 22.08.2019
3225 Clear 21 1022 43 10000 6.7 250 15:42 22.08.2019
3226 Clear 21 1022 46 10000 7.2 240 15:24 22.08.2019
3227 Clear 21 1022 46 10000 7.2 240 15:24 22.08.2019
3228 Clear 21 1022 46 10000 7.2 240 15:24 22.08.2019
3229 Clouds 21 1022 46 10000 5.1 250 14:59 22.08.2019
3230 Clouds 21 1022 46 10000 5.1 250 14:59 22.08.2019
3231 Clouds 21 1022 46 10000 5.1 250 14:59 22.08.2019
3232 Clouds 21 1022 46 10000 5.1 250 14:41 22.08.2019
3233 Clouds 21 1022 46 10000 5.7 260 14:22 22.08.2019
3234 Clouds 21 1022 52 10000 5.7 260 13:58 22.08.2019
3235 Clouds 20 1022 49 10000 6.7 240 13:39 22.08.2019
3236 Clouds 21 1022 49 10000 6.7 240 13:19 22.08.2019
3237 Clouds 20 1022 49 10000 6.2 250 12:56 22.08.2019
3238 Clouds 20 1022 56 10000 6.7 260 12:38 22.08.2019
3239 Clouds 20 1022 56 10000 6.7 260 12:19 22.08.2019
3240 Clouds 20 1022 59 10000 5.7 260 11:42 22.08.2019
3241 Clouds 19 1022 63 10000 5.7 240 11:20 22.08.2019
3242 Clouds 19 1021 68 10000 5.1 250 10:58 22.08.2019
3243 Clouds 19 1021 72 10000 4.6 250 10:38 22.08.2019
3244 Clouds 18 1021 72 10000 4.6 250 10:20 22.08.2019
3245 Clouds 17 1021 77 10000 3.6 250 09:56 22.08.2019
3246 Clouds 17 1021 87 10000 4.1 250 09:38 22.08.2019
3247 Clouds 17 1021 87 10000 4.1 250 09:19 22.08.2019
3248 Clouds 16 1021 87 10000 3.6 250 08:41 22.08.2019
3249 Clouds 15 1021 93 10000 2.6 250 08:22 22.08.2019
3250 Clouds 14 1021 93 10000 2.6 250 07:58 22.08.2019
3251 Clouds 14 1021 100 10000 2.1 230 07:38 22.08.2019
3252 Clouds 13 1021 100 10000 2.1 230 07:19 22.08.2019
3253 Fog 12 1021 100 10000 2.1 230 06:46 22.08.2019
3254 Fog 11 1021 100 10000 1.5 220 06:21 22.08.2019
3255 Fog 10 1020 100 10000 1.5 220 05:29 22.08.2019
3256 Fog 10 1020 100 10000 1.5 220 03:44 22.08.2019
3257 Clear 11 1020 93 10000 1.5 250 02:36 22.08.2019
3258 Clear 11 1020 93 10000 3.1 250 01:36 22.08.2019
3259 Clear 12 1020 93 10000 3.1 260 00:57 22.08.2019
3260 Clear 12 1020 93 10000 3.1 260 00:38 22.08.2019
3261 Clear 13 1020 93 10000 2.6 250 00:20 22.08.2019
3262 Clouds 13 1020 87 10000 3.1 260 23:41 21.08.2019
3263 Clouds 13 1020 87 10000 3.1 260 23:23 21.08.2019
3264 Clouds 13 1020 100 10000 1.5 260 22:58 21.08.2019
3265 Clouds 13 1020 93 10000 1.5 140 22:39 21.08.2019
3266 Clouds 13 1020 93 10000 1.5 140 22:20 21.08.2019
3267 Clouds 14 1020 87 10000 1.5 100 21:56 21.08.2019
3268 Clouds 14 1020 87 10000 1.5 100 21:38 21.08.2019
3269 Thunderstorm 15 1020 93 10000 1.5 110 21:19 21.08.2019
3270 Thunderstorm 15 1020 77 10000 1 0 20:56 21.08.2019
3271 Thunderstorm 16 1020 77 10000 1 0 20:37 21.08.2019
3272 Rain 16 1019 88 10000 4.6 180 20:19 21.08.2019
3273 Rain 16 1019 87 10000 3.1 110 19:42 21.08.2019
3274 Rain 16 1019 87 10000 3.1 110 19:24 21.08.2019
3275 Rain 17 1020 72 10000 1 0 18:57 21.08.2019
3276 Rain 17 1020 72 10000 1 0 18:38 21.08.2019
3277 Rain 18 1020 72 10000 1.5 30 18:20 21.08.2019
3278 Rain 19 1020 72 10000 3.6 330 17:44 21.08.2019
3279 Clouds 19 1019 68 10000 4.1 170 17:22 21.08.2019
3280 Rain 19 1019 68 10000 5.1 190 16:58 21.08.2019
3281 Rain 19 1019 68 10000 5.1 190 16:39 21.08.2019
3282 Clouds 20 1019 64 10000 5.7 180 16:20 21.08.2019
3283 Clouds 19 1020 72 10000 5.7 180 15:56 21.08.2019
3284 Clouds 19 1020 72 10000 6.2 170 15:38 21.08.2019
3285 Clouds 20 1020 72 10000 6.2 170 15:19 21.08.2019
3286 Clouds 20 1020 72 10000 5.1 170 14:55 21.08.2019
3287 Clouds 19 1020 72 10000 5.1 170 14:36 21.08.2019
3288 Clouds 19 1020 72 10000 5.1 190 14:18 21.08.2019
3289 Clouds 20 1020 72 10000 6.2 190 13:43 21.08.2019
3290 Clouds 20 1020 72 10000 6.2 190 13:43 21.08.2019
3291 Clouds 19 1020 72 10000 6.2 180 13:20 21.08.2019
3292 Clouds 19 1021 72 10000 5.7 180 12:57 21.08.2019
3293 Clouds 20 1021 72 10000 5.7 180 12:39 21.08.2019
3294 Clouds 19 1021 77 10000 6.2 180 12:19 21.08.2019
3295 Clouds 19 1021 77 10000 6.7 190 11:44 21.08.2019
3296 Clouds 19 1021 72 10000 7.2 170 11:24 21.08.2019
3297 Clouds 19 1021 77 10000 6.7 180 10:59 21.08.2019
3298 Clouds 19 1021 77 10000 6.7 180 10:40 21.08.2019
3299 Clouds 19 1021 77 10000 5.7 180 10:22 21.08.2019
3300 Clouds 19 1021 77 10000 4.6 170 09:58 21.08.2019
3301 Clouds 19 1021 77 10000 4.6 170 09:40 21.08.2019
3302 Clouds 18 1021 82 10000 4.1 190 09:21 21.08.2019
3303 Clouds 18 1021 77 10000 4.1 190 08:50 21.08.2019
3304 Clouds 17 1021 88 10000 4.6 190 08:26 21.08.2019
3305 Clouds 17 1021 88 10000 4.6 200 07:56 21.08.2019
3306 Clouds 16 1021 88 10000 4.1 190 07:37 21.08.2019
3307 Clouds 16 1021 88 10000 4.1 190 07:18 21.08.2019
3308 Clouds 15 1021 93 10000 3.6 190 06:44 21.08.2019
3309 Clouds 15 1021 93 10000 4.1 190 06:19 21.08.2019
3310 Fog 14 1021 100 10000 3.1 180 05:29 21.08.2019
3311 Clear 14 1021 93 10000 3.1 180 04:58 21.08.2019
3312 Clear 14 1021 93 10000 3.1 200 02:44 21.08.2019
3313 Clouds 14 1020 93 10000 3.1 210 01:38 21.08.2019
3314 Clouds 15 1020 87 10000 3.6 200 00:43 21.08.2019
3315 Clouds 15 1020 87 10000 4.6 190 00:22 21.08.2019
3316 Clouds 15 1020 87 10000 4.1 200 23:46 20.08.2019
3317 Clear 15 1020 87 10000 4.1 200 23:21 20.08.2019
3318 Clear 15 1020 87 10000 4.1 200 22:59 20.08.2019
3319 Clear 15 1020 87 10000 4.1 200 22:41 20.08.2019
3320 Clear 15 1020 87 10000 4.1 200 22:22 20.08.2019
3321 Clouds 15 1020 87 10000 4.1 210 21:59 20.08.2019
3322 Clouds 15 1019 82 10000 4.1 210 21:39 20.08.2019
3323 Clouds 16 1019 82 10000 4.1 210 21:20 20.08.2019
3324 Clouds 16 1019 82 10000 4.1 210 21:20 20.08.2019
3325 Clouds 16 1019 82 10000 3.1 220 20:59 20.08.2019
3326 Clouds 16 1019 82 10000 3.1 220 20:59 20.08.2019
3327 Clouds 16 1019 77 10000 5.1 210 20:41 20.08.2019
3328 Clouds 16 1019 77 10000 5.1 210 20:23 20.08.2019
3329 Clouds 17 1019 72 10000 5.7 210 19:41 20.08.2019
3330 Clouds 18 1019 72 10000 5.7 210 19:22 20.08.2019
3331 Clouds 18 1019 68 10000 7.2 220 18:59 20.08.2019
3332 Clouds 18 1019 68 10000 7.2 220 18:40 20.08.2019
3333 Clouds 19 1018 68 10000 7.7 210 18:19 20.08.2019
3334 Clouds 19 1018 68 10000 7.7 210 17:58 20.08.2019
3335 Clouds 20 1018 60 10000 8.2 210 17:39 20.08.2019
3336 Clouds 20 1018 60 10000 8.2 200 17:20 20.08.2019
3337 Clouds 20 1017 60 10000 7.7 210 16:46 20.08.2019
3338 Clouds 20 1017 60 10000 7.7 210 16:27 20.08.2019
3339 Clouds 21 1017 60 10000 8.7 200 15:58 20.08.2019
3340 Clouds 21 1017 60 10000 7.7 210 15:40 20.08.2019
3341 Clouds 21 1017 56 10000 8.7 200 15:18 20.08.2019
3342 Clouds 21 1017 56 10000 8.7 200 14:44 20.08.2019
3343 Clouds 21 1017 56 10000 8.7 200 14:22 20.08.2019
3344 Rain 21 1017 56 10000 10.3 200 14:22 20.08.2019
3345 Rain 21 1017 56 10000 10.3 200 13:58 20.08.2019
3346 Rain 20 1017 56 10000 10.3 200 13:39 20.08.2019
3347 Clouds 20 1017 56 10000 8.7 210 13:20 20.08.2019
3348 Clouds 20 1016 60 10000 9.3 200 12:51 20.08.2019
3349 Clouds 20 1016 60 10000 9.3 200 12:31 20.08.2019
3350 Clouds 20 1016 68 10000 7.2 190 11:59 20.08.2019
3351 Clouds 20 1016 77 10000 6.7 190 11:40 20.08.2019
3352 Clouds 20 1016 77 10000 6.7 190 11:21 20.08.2019
3353 Clouds 20 1016 77 10000 6.2 190 10:57 20.08.2019
3354 Clouds 20 1016 77 10000 6.2 190 10:39 20.08.2019
3355 Clouds 20 1016 77 10000 6.2 190 10:39 20.08.2019
3356 Clouds 19 1016 82 10000 6.2 190 10:20 20.08.2019
3357 Clouds 19 1016 82 10000 6.2 190 09:56 20.08.2019
3358 Clouds 19 1016 82 10000 5.1 190 09:38 20.08.2019
3359 Clouds 18 1016 82 10000 5.1 190 09:38 20.08.2019
3360 Rain 18 1016 88 10000 5.7 190 09:20 20.08.2019
3361 Clouds 18 1016 88 10000 5.7 180 08:41 20.08.2019
3362 Clouds 17 1015 88 10000 5.7 190 08:23 20.08.2019
3363 Clouds 17 1015 88 10000 5.7 190 07:57 20.08.2019
3364 Clouds 16 1015 88 10000 5.7 190 07:38 20.08.2019
3365 Clouds 16 1015 88 10000 5.1 190 07:20 20.08.2019
3366 Clouds 16 1015 93 10000 5.1 190 06:41 20.08.2019
3367 Clouds 15 1015 93 10000 4.6 190 06:19 20.08.2019
3368 Clouds 15 1015 93 10000 4.1 180 05:40 20.08.2019
3369 Clouds 14 1014 93 10000 4.1 180 04:23 20.08.2019
3370 Clear 13 1014 93 10000 3.6 190 02:48 20.08.2019
3371 Clear 13 1013 93 10000 3.6 200 01:50 20.08.2019
3372 Clear 13 1013 93 10000 3.6 200 01:20 20.08.2019
3373 Clear 13 1013 93 10000 3.6 210 00:43 20.08.2019
3374 Clear 14 1013 93 10000 2.6 220 00:21 20.08.2019
3375 Clear 14 1013 93 10000 3.1 220 23:42 19.08.2019
3376 Clear 14 1012 87 10000 3.6 230 23:19 19.08.2019
3377 Clear 14 1012 87 10000 3.6 230 22:58 19.08.2019
3378 Clear 14 1012 87 10000 3.6 230 22:39 19.08.2019
3379 Clouds 15 1012 87 10000 4.1 230 22:19 19.08.2019
3380 Clouds 15 1012 87 10000 4.1 230 21:56 19.08.2019
3381 Clouds 15 1012 87 10000 2.6 220 21:38 19.08.2019
3382 Clouds 15 1012 82 10000 3.1 230 21:19 19.08.2019
3383 Clouds 16 1011 82 10000 3.6 220 20:40 19.08.2019
3384 Clouds 16 1011 82 10000 3.6 220 20:21 19.08.2019
3385 Clouds 17 1011 82 10000 3.6 220 19:59 19.08.2019
3386 Clouds 17 1011 77 10000 4.6 210 19:41 19.08.2019
3387 Clouds 17 1011 72 10000 6.7 220 19:19 19.08.2019
3388 Clouds 18 1011 72 10000 6.7 220 18:59 19.08.2019
3389 Clouds 18 1010 77 10000 6.2 220 18:39 19.08.2019
3390 Clouds 18 1010 68 10000 5.7 230 18:21 19.08.2019
3391 Clouds 19 1010 64 10000 7.2 230 17:55 19.08.2019
3392 Clouds 19 1010 64 10000 7.2 230 17:36 19.08.2019
3393 Clouds 19 1009 68 10000 6.2 220 17:18 19.08.2019
3394 Clouds 19 1009 68 10000 6.2 220 16:38 19.08.2019
3395 Clouds 19 1008 72 10000 5.7 230 16:20 19.08.2019
3396 Clouds 20 1008 72 10000 5.7 230 15:56 19.08.2019
3397 Clouds 20 1008 72 10000 6.7 230 15:38 19.08.2019
3398 Clouds 20 1008 72 10000 6.7 230 15:19 19.08.2019
3399 Clouds 20 1008 72 10000 6.2 230 14:43 19.08.2019
3400 Clouds 19 1007 72 10000 7.7 220 14:23 19.08.2019
3401 Clouds 19 1006 77 10000 6.2 210 13:58 19.08.2019
3402 Clouds 19 1006 77 10000 6.2 210 13:38 19.08.2019
3403 Clouds 19 1006 93 10000 4.6 190 13:20 19.08.2019
3404 Clouds 19 1006 93 4000 4.1 180 12:58 19.08.2019
3405 Clouds 18 1006 93 10000 4.1 170 12:39 19.08.2019
3406 Clouds 18 1006 93 10000 4.1 170 12:19 19.08.2019
3407 Rain 17 1006 88 10000 5.1 160 11:40 19.08.2019
3408 Clouds 17 1005 88 10000 6.2 150 11:21 19.08.2019
3409 Rain 17 1005 93 10000 5.1 130 10:58 19.08.2019
3410 Rain 17 1005 93 10000 6.2 140 10:37 19.08.2019
3411 Rain 16 1005 93 10000 6.2 140 10:18 19.08.2019
3412 Rain 16 1005 93 9000 5.7 140 09:45 19.08.2019
3413 Rain 16 1005 93 7000 5.7 140 09:24 19.08.2019
3414 Rain 16 1005 93 7000 5.7 140 09:24 19.08.2019
3415 Rain 16 1005 93 5000 6.2 140 08:59 19.08.2019
3416 Rain 16 1005 93 5000 6.2 140 08:41 19.08.2019
3417 Rain 16 1005 93 5000 6.2 140 08:41 19.08.2019
3418 Rain 16 1006 93 6000 5.7 160 08:20 19.08.2019
3419 Rain 16 1005 87 10000 5.1 150 07:49 19.08.2019
3420 Rain 16 1005 87 10000 4.6 140 07:31 19.08.2019
3421 Clear 16 1006 87 10000 4.6 120 06:48 19.08.2019
3422 Rain 16 1006 87 10000 5.1 140 06:27 19.08.2019
3423 Rain 16 1006 77 10000 4.1 150 04:57 19.08.2019
3424 Rain 17 1006 77 10000 3.6 140 04:27 19.08.2019
3425 Rain 17 1006 77 10000 3.6 140 04:27 19.08.2019
3426 Rain 17 1006 77 10000 3.6 140 04:27 19.08.2019
3427 Rain 17 1007 72 10000 4.6 130 03:23 19.08.2019
3428 Rain 17 1008 77 10000 4.6 120 02:24 19.08.2019
3429 Clear 18 1008 63 10000 4.6 120 01:34 19.08.2019
3430 Clear 18 1009 63 10000 4.1 130 00:44 19.08.2019
3431 Clear 18 1009 68 10000 4.1 120 00:23 19.08.2019
3432 Clear 18 1009 68 10000 4.1 120 23:42 18.08.2019
3433 Clear 18 1009 68 10000 4.1 110 23:21 18.08.2019
3434 Clear 18 1009 68 10000 4.6 120 22:56 18.08.2019
3435 Clear 18 1009 68 10000 4.6 120 22:56 18.08.2019
3436 Clear 18 1009 68 10000 4.6 120 22:38 18.08.2019
3437 Clear 18 1009 63 10000 4.6 110 22:20 18.08.2019
3438 Clouds 18 1010 63 10000 4.6 120 21:55 18.08.2019
3439 Clouds 19 1010 63 10000 4.6 120 21:37 18.08.2019
3440 Clouds 19 1010 63 10000 4.6 120 21:19 18.08.2019
3441 Clouds 19 1010 59 10000 4.6 110 20:43 18.08.2019
3442 Clouds 19 1010 59 10000 5.7 100 20:25 18.08.2019
3443 Clouds 19 1010 55 10000 4.6 100 19:56 18.08.2019
3444 Clouds 19 1010 55 10000 4.6 100 19:37 18.08.2019
3445 Clear 19 1010 52 10000 5.1 100 19:19 18.08.2019
3446 Clear 20 1010 45 10000 6.2 110 18:41 18.08.2019
3447 Clear 20 1010 45 10000 6.2 110 18:23 18.08.2019
3448 Clear 20 1010 45 10000 6.2 100 17:59 18.08.2019
3449 Clear 20 1010 45 10000 6.2 100 17:41 18.08.2019
3450 Clear 20 1010 46 10000 6.7 110 17:19 18.08.2019
3451 Clear 20 1011 49 10000 7.2 120 16:57 18.08.2019
3452 Clear 20 1011 49 10000 7.2 120 16:38 18.08.2019
3453 Clear 21 1011 49 10000 7.7 130 16:20 18.08.2019
3454 Clear 21 1011 49 10000 6.7 110 15:56 18.08.2019
3455 Clear 21 1011 49 10000 6.7 110 15:56 18.08.2019
3456 Clear 21 1011 49 10000 6.7 110 15:38 18.08.2019
3457 Clear 21 1011 49 10000 7.2 110 15:20 18.08.2019
3458 Clear 21 1011 49 10000 7.2 130 14:40 18.08.2019
3459 Clear 21 1011 49 10000 7.2 130 14:21 18.08.2019
3460 Clear 21 1011 52 10000 6.7 120 13:59 18.08.2019
3461 Clear 21 1011 52 10000 6.7 120 13:41 18.08.2019
3462 Clear 20 1012 52 10000 6.7 120 13:22 18.08.2019
3463 Clear 20 1012 56 10000 6.7 130 12:58 18.08.2019
3464 Clear 20 1012 56 10000 7.7 130 12:39 18.08.2019
3465 Clear 20 1012 56 10000 7.7 130 12:20 18.08.2019
3466 Clear 20 1012 52 10000 7.2 130 11:43 18.08.2019
3467 Clear 20 1012 52 10000 7.2 130 11:43 18.08.2019
3468 Clear 21 1012 52 10000 7.2 140 11:23 18.08.2019
3469 Clear 21 1012 52 10000 8.2 140 10:57 18.08.2019
3470 Clear 21 1012 52 10000 7.7 130 10:39 18.08.2019
3471 Clear 21 1012 52 10000 7.7 130 10:19 18.08.2019
3472 Clear 20 1012 56 10000 7.2 130 09:43 18.08.2019
3473 Clear 19 1012 63 10000 6.7 130 09:20 18.08.2019
3474 Clear 19 1012 63 10000 5.7 130 08:44 18.08.2019
3475 Clear 19 1012 63 10000 5.7 130 08:44 18.08.2019
3476 Clear 18 1012 68 10000 5.1 140 08:25 18.08.2019
3477 Clear 18 1012 68 10000 5.1 140 08:25 18.08.2019
3478 Clear 18 1012 68 10000 5.1 150 07:57 18.08.2019
3479 Clear 17 1012 77 10000 4.6 140 07:30 18.08.2019
3480 Clear 17 1012 72 10000 3.1 140 06:33 18.08.2019
3481 Clear 16 1012 77 10000 4.1 120 05:42 18.08.2019
3482 Clear 16 1012 77 10000 4.1 140 04:18 18.08.2019
3483 Clear 17 1013 72 10000 4.6 150 02:59 18.08.2019
3484 Clear 17 1013 72 10000 4.6 150 02:41 18.08.2019
3485 Clear 17 1013 72 10000 4.1 170 01:57 18.08.2019
3486 Clear 18 1013 68 10000 3.6 160 01:26 18.08.2019
3487 Clear 19 1013 68 10000 4.1 160 00:42 18.08.2019
3488 Clear 19 1013 68 10000 4.1 160 00:22 18.08.2019
3489 Clear 18 1013 72 10000 3.6 160 23:58 17.08.2019
3490 Clear 18 1013 72 10000 3.6 160 23:38 17.08.2019
3491 Clear 18 1013 77 10000 3.1 130 23:19 17.08.2019
3492 Clear 18 1013 77 10000 2.6 130 22:57 17.08.2019
3493 Clear 17 1013 82 10000 2.6 120 22:39 17.08.2019
3494 Clear 17 1013 82 10000 2.6 120 22:20 17.08.2019
3495 Clear 17 1013 82 10000 2.6 120 22:20 17.08.2019
3496 Clear 17 1013 82 10000 2.6 110 21:54 17.08.2019
3497 Clear 18 1013 77 10000 2.6 110 21:36 17.08.2019
3498 Clear 18 1013 77 10000 2.6 110 21:18 17.08.2019
3499 Clear 20 1013 77 10000 2.1 100 20:38 17.08.2019
3500 Clear 20 1013 68 10000 2.6 120 20:19 17.08.2019
3501 Clouds 20 1014 68 10000 3.1 130 19:43 17.08.2019
3502 Clouds 20 1014 64 10000 3.1 170 19:24 17.08.2019
3503 Clouds 20 1014 68 10000 3.6 170 18:59 17.08.2019
3504 Clouds 20 1014 68 10000 3.6 170 18:39 17.08.2019
3505 Clouds 21 1014 64 10000 4.1 160 18:18 17.08.2019
3506 Clouds 21 1014 64 10000 4.1 160 18:18 17.08.2019
3507 Clouds 21 1014 64 10000 4.1 160 18:18 17.08.2019
3508 Clouds 21 1014 64 10000 4.6 150 17:43 17.08.2019
3509 Clouds 21 1014 60 10000 4.1 180 17:22 17.08.2019
3510 Clouds 21 1014 64 10000 4.6 150 16:59 17.08.2019
3511 Clouds 21 1014 64 10000 4.1 190 16:40 17.08.2019
3512 Clouds 21 1014 64 10000 4.1 190 16:22 17.08.2019
3513 Clouds 21 1014 60 10000 5.7 190 15:54 17.08.2019
3514 Clouds 22 1014 60 10000 5.1 180 15:36 17.08.2019
3515 Clouds 22 1014 60 10000 5.1 180 15:36 17.08.2019
3516 Clouds 21 1014 60 10000 5.1 180 15:18 17.08.2019
3517 Clouds 21 1014 64 10000 5.7 170 14:40 17.08.2019
3518 Clouds 21 1014 64 10000 6.2 190 14:22 17.08.2019
3519 Clouds 21 1015 64 10000 6.2 190 13:46 17.08.2019
3520 Clouds 21 1015 68 10000 6.2 190 13:21 17.08.2019
3521 Clouds 21 1015 64 10000 5.1 170 12:46 17.08.2019
3522 Clouds 21 1015 64 10000 5.7 160 12:21 17.08.2019
3523 Clouds 21 1015 68 10000 5.7 150 11:59 17.08.2019
3524 Clouds 21 1015 68 10000 5.7 150 11:39 17.08.2019
3525 Clouds 20 1014 72 10000 5.7 150 11:20 17.08.2019
3526 Clouds 20 1014 72 10000 5.7 140 10:44 17.08.2019
3527 Clouds 20 1014 77 10000 5.1 150 10:25 17.08.2019
3528 Clouds 20 1014 77 10000 5.1 150 10:25 17.08.2019
3529 Clouds 20 1014 77 10000 4.6 160 09:59 17.08.2019
3530 Clouds 19 1014 77 10000 4.6 160 09:41 17.08.2019
3531 Clouds 19 1014 77 10000 5.7 170 09:41 17.08.2019
3532 Clouds 19 1014 77 10000 5.7 170 09:23 17.08.2019
3533 Clear 18 1014 82 10000 4.6 170 08:52 17.08.2019
3534 Clear 17 1014 77 10000 4.6 170 08:23 17.08.2019
3535 Clear 17 1014 77 10000 4.1 170 07:44 17.08.2019
3536 Clear 17 1014 72 10000 4.1 170 07:20 17.08.2019
3537 Clear 17 1014 72 10000 4.1 170 07:20 17.08.2019
3538 Clear 16 1014 82 10000 3.6 140 06:34 17.08.2019
3539 Clear 15 1014 87 10000 3.6 120 04:48 17.08.2019
3540 Clear 15 1014 87 10000 3.1 120 04:23 17.08.2019
3541 Clear 15 1014 87 10000 3.1 130 02:45 17.08.2019
3542 Clear 16 1015 87 10000 3.1 130 01:40 17.08.2019
3543 Clear 16 1015 87 10000 3.1 130 01:20 17.08.2019
3544 Clear 16 1015 87 10000 3.1 130 00:47 17.08.2019
3545 Clear 16 1015 87 10000 3.1 130 00:24 17.08.2019
3546 Rain 16 1015 82 10000 4.1 130 23:46 16.08.2019
3547 Clear 16 1015 82 10000 3.6 140 23:25 16.08.2019
3548 Clear 16 1015 82 10000 3.6 120 22:43 16.08.2019
3549 Clear 15 1015 82 10000 3.1 140 22:20 16.08.2019
3550 Clear 16 1015 77 10000 2.6 130 21:58 16.08.2019
3551 Clear 16 1015 77 10000 3.1 140 21:38 16.08.2019
3552 Clear 16 1015 77 10000 3.1 140 21:18 16.08.2019
3553 Clear 16 1015 72 10000 2.6 150 20:43 16.08.2019
3554 Clear 16 1015 72 10000 2.6 150 20:43 16.08.2019
3555 Clear 17 1015 59 10000 3.1 170 20:20 16.08.2019
3556 Clear 17 1015 59 10000 3.1 190 19:58 16.08.2019
3557 Clear 17 1015 52 10000 3.1 200 19:39 16.08.2019
3558 Clear 18 1015 52 10000 3.1 200 19:19 16.08.2019
3559 Clear 18 1014 48 10000 3.6 190 18:42 16.08.2019
3560 Clear 18 1015 52 10000 3.6 210 18:23 16.08.2019
3561 Clouds 19 1014 55 10000 4.6 220 17:48 16.08.2019
3562 Clouds 19 1014 55 10000 5.1 230 17:28 16.08.2019
3563 Clouds 19 1015 59 10000 5.7 230 16:59 16.08.2019
3564 Clouds 19 1015 59 10000 5.7 230 16:59 16.08.2019
3565 Clouds 19 1015 55 10000 5.1 210 16:40 16.08.2019
3566 Clouds 19 1015 55 10000 5.1 210 16:19 16.08.2019
3567 Clouds 19 1014 59 10000 5.7 200 15:56 16.08.2019
3568 Clouds 19 1014 59 10000 5.7 200 15:56 16.08.2019
3569 Rain 19 1014 63 10000 6.2 210 15:37 16.08.2019
3570 Rain 19 1014 63 10000 6.2 210 15:19 16.08.2019
3571 Clouds 19 1014 63 10000 5.7 180 14:56 16.08.2019
3572 Clouds 19 1014 63 10000 5.7 180 14:37 16.08.2019
3573 Clouds 19 1014 68 10000 3.6 190 14:18 16.08.2019
3574 Clouds 19 1014 59 10000 3.6 230 13:40 16.08.2019
3575 Rain 19 1014 72 10000 6.2 220 13:21 16.08.2019
3576 Rain 19 1014 49 10000 5.7 200 12:41 16.08.2019
3577 Clouds 19 1014 52 10000 6.2 230 12:22 16.08.2019
3578 Clouds 20 1014 56 10000 5.7 200 11:55 16.08.2019
3579 Clouds 20 1014 56 10000 5.1 200 11:37 16.08.2019
3580 Clouds 19 1014 56 10000 5.1 200 11:19 16.08.2019
3581 Clouds 19 1014 59 10000 6.2 190 10:42 16.08.2019
3582 Clouds 18 1014 59 10000 4.1 220 10:21 16.08.2019
3583 Clouds 18 1014 63 10000 4.1 190 09:39 16.08.2019
3584 Clouds 17 1014 72 10000 4.6 220 09:20 16.08.2019
3585 Clouds 17 1014 77 10000 4.6 210 08:59 16.08.2019
3586 Clouds 17 1014 77 10000 4.1 200 08:39 16.08.2019
3587 Clouds 16 1014 77 10000 4.1 200 08:19 16.08.2019
3588 Clouds 16 1014 77 10000 4.1 200 07:48 16.08.2019
3589 Clear 14 1013 87 10000 3.1 200 07:28 16.08.2019
3590 Clear 12 1013 93 10000 2.8 222.917 06:55 16.08.2019
3591 Clear 9 1013 100 10000 0.5 0 06:19 16.08.2019
3592 Clear 9 1013 100 10000 0.5 0 05:34 16.08.2019
3593 Clear 9 1013 100 10000 1 220 03:20 16.08.2019
3594 Clear 10 1013 93 10000 2.1 240 01:52 16.08.2019
3595 Clear 10 1012 87 10000 2.1 220 01:25 16.08.2019
3596 Clear 11 1012 81 10000 2.6 240 00:50 16.08.2019
3597 Clear 12 1012 81 10000 2.6 230 00:24 16.08.2019
3598 Clear 12 1012 81 10000 2.6 220 23:57 15.08.2019
3599 Clear 12 1012 81 10000 2.6 220 23:39 15.08.2019
3600 Clear 12 1012 81 10000 3.1 230 23:18 15.08.2019
3601 Clear 12 1012 76 10000 3.1 240 22:41 15.08.2019
3602 Clear 12 1011 62 10000 2.6 220 22:23 15.08.2019
3603 Clear 13 1011 62 10000 2.6 240 21:58 15.08.2019
3604 Clear 13 1011 62 10000 2.6 240 21:39 15.08.2019
3605 Clear 13 1011 62 10000 2.6 240 21:39 15.08.2019
3606 Clear 14 1011 58 10000 3.1 240 21:19 15.08.2019
3607 Clear 15 1010 55 10000 4.1 250 20:58 15.08.2019
3608 Clear 15 1010 48 10000 5.1 250 20:40 15.08.2019
3609 Clear 16 1010 48 10000 5.1 250 20:20 15.08.2019
3610 Clear 16 1010 51 10000 4.1 250 19:40 15.08.2019
3611 Clear 17 1009 45 10000 5.7 250 19:21 15.08.2019
3612 Clear 18 1009 45 10000 6.2 240 18:57 15.08.2019
3613 Clear 18 1009 45 10000 6.2 260 18:39 15.08.2019
3614 Clear 18 1009 45 10000 6.2 260 18:21 15.08.2019
3615 Clear 19 1009 45 10000 6.7 260 17:54 15.08.2019
3616 Clear 19 1008 45 10000 7.2 250 17:36 15.08.2019
3617 Clear 19 1008 45 10000 7.2 250 17:18 15.08.2019
3618 Clear 19 1008 42 10000 8.2 240 16:42 15.08.2019
3619 Clouds 19 1008 45 10000 6.2 270 16:23 15.08.2019
3620 Clouds 19 1008 48 10000 5.7 270 15:55 15.08.2019
3621 Rain 19 1008 55 10000 5.7 270 15:36 15.08.2019
3622 Rain 19 1008 55 10000 5.7 270 15:18 15.08.2019
3623 Rain 19 1008 59 10000 5.1 290 14:41 15.08.2019
3624 Rain 19 1007 55 10000 6.7 240 14:22 15.08.2019
3625 Rain 19 1007 59 10000 5.7 240 13:57 15.08.2019
3626 Rain 18 1007 59 10000 5.7 240 13:38 15.08.2019
3627 Clouds 18 1007 52 10000 6.2 260 13:19 15.08.2019
3628 Clouds 18 1007 52 10000 6.2 260 13:19 15.08.2019
3629 Clouds 18 1007 59 10000 5.7 250 12:40 15.08.2019
3630 Clouds 18 1007 59 10000 5.7 250 12:22 15.08.2019
3631 Clouds 18 1007 63 10000 4.6 270 11:59 15.08.2019
3632 Clouds 17 1007 72 10000 4.6 240 11:39 15.08.2019
3633 Clouds 17 1007 63 10000 4.6 270 11:39 15.08.2019
3634 Clouds 17 1007 72 10000 4.6 240 11:20 15.08.2019
3635 Clouds 16 1007 87 10000 3.6 240 10:59 15.08.2019
3636 Clouds 16 1007 87 10000 3.6 240 10:59 15.08.2019
3637 Clouds 16 1007 87 10000 3.6 240 10:37 15.08.2019
3638 Rain 15 1006 87 10000 4.1 230 10:19 15.08.2019
3639 Clouds 16 1006 72 10000 4.1 230 09:44 15.08.2019
3640 Clouds 15 1006 77 10000 3.1 240 09:23 15.08.2019
3641 Clouds 15 1006 77 10000 3.6 250 08:55 15.08.2019
3642 Clouds 15 1006 77 10000 3.6 250 08:55 15.08.2019
3643 Clouds 15 1006 77 10000 3.6 250 08:36 15.08.2019
3644 Clear 14 1006 82 10000 3.1 240 08:18 15.08.2019
3645 Clear 13 1006 82 10000 2.6 220 07:42 15.08.2019
3646 Clouds 13 1006 82 10000 2.6 220 07:22 15.08.2019
3647 Clouds 12 1006 87 10000 3.1 220 06:53 15.08.2019
3648 Clouds 12 1006 87 10000 3.6 200 06:32 15.08.2019
3649 Clouds 12 1006 87 10000 3.1 210 05:43 15.08.2019
3650 Clear 11 1006 93 10000 2.1 210 05:23 15.08.2019
3651 Clouds 11 1006 82 10000 2.6 200 04:30 15.08.2019
3652 Clouds 11 1006 93 10000 3.6 190 03:30 15.08.2019
3653 Clouds 11 1006 93 10000 2.6 180 02:35 15.08.2019
3654 Clouds 11 1006 87 10000 2.6 190 01:49 15.08.2019
3655 Clouds 12 1006 82 10000 3.1 200 01:26 15.08.2019
3656 Clouds 12 1007 82 10000 3.6 210 00:39 15.08.2019
3657 Clouds 12 1007 82 10000 3.6 210 00:20 15.08.2019
3658 Clouds 12 1007 82 10000 4.1 210 23:57 14.08.2019
3659 Clouds 12 1007 82 10000 3.6 210 23:37 14.08.2019
3660 Clouds 12 1007 82 10000 3.6 210 23:19 14.08.2019
3661 Clouds 13 1007 71 10000 4.1 210 22:42 14.08.2019
3662 Clear 13 1007 71 10000 4.1 210 22:23 14.08.2019
3663 Clear 14 1007 71 10000 3.1 220 21:58 14.08.2019
3664 Clear 14 1007 71 10000 3.1 220 21:40 14.08.2019
3665 Clear 14 1007 71 10000 3.6 220 21:21 14.08.2019
3666 Clear 14 1007 67 10000 5.1 220 20:59 14.08.2019
3667 Clear 14 1007 67 10000 5.1 220 20:41 14.08.2019
3668 Clear 15 1007 63 10000 6.2 220 20:20 14.08.2019
3669 Clouds 16 1007 67 10000 5.7 220 19:55 14.08.2019
3670 Clouds 17 1007 59 10000 6.2 220 19:37 14.08.2019
3671 Clouds 17 1007 59 10000 6.2 220 19:37 14.08.2019
3672 Clouds 17 1007 59 10000 6.2 220 19:18 14.08.2019
3673 Clouds 17 1007 63 10000 7.7 210 18:55 14.08.2019
3674 Clouds 17 1007 63 10000 7.7 210 18:37 14.08.2019
3675 Clouds 18 1007 63 10000 8.2 200 18:18 14.08.2019
3676 Clouds 19 1007 59 10000 7.2 210 17:54 14.08.2019
3677 Clouds 19 1007 59 10000 7.2 210 17:36 14.08.2019
3678 Clouds 19 1007 59 10000 6.7 210 17:18 14.08.2019
3679 Clouds 19 1007 59 10000 6.7 210 16:39 14.08.2019
3680 Clouds 19 1007 59 10000 6.7 220 16:20 14.08.2019
3681 Clouds 17 1007 72 10000 7.7 220 15:44 14.08.2019
3682 Clouds 19 1007 59 10000 8.7 220 15:20 14.08.2019
3683 Clouds 19 1007 63 10000 7.7 230 14:58 14.08.2019
3684 Clouds 18 1006 68 10000 7.7 220 14:39 14.08.2019
3685 Clouds 18 1006 68 10000 7.7 220 14:19 14.08.2019
3686 Clouds 18 1006 68 10000 7.7 220 14:19 14.08.2019
3687 Rain 16 1007 82 10000 6.2 230 13:44 14.08.2019
3688 Rain 17 1007 77 10000 5.7 220 13:25 14.08.2019
3689 Rain 16 1007 82 10000 5.7 230 12:59 14.08.2019
3690 Rain 18 1006 63 10000 7.2 210 12:40 14.08.2019
3691 Rain 18 1006 63 10000 7.2 210 12:22 14.08.2019
3692 Rain 18 1006 63 10000 7.2 210 12:22 14.08.2019
3693 Clouds 19 1006 63 10000 7.2 210 11:58 14.08.2019
3694 Clouds 19 1006 63 10000 7.2 210 11:40 14.08.2019
3695 Clouds 18 1006 68 10000 7.2 220 11:21 14.08.2019
3696 Clouds 18 1006 72 10000 6.2 230 10:45 14.08.2019
3697 Clouds 17 1006 77 10000 6.2 220 10:25 14.08.2019
3698 Clouds 17 1006 77 10000 6.2 220 10:25 14.08.2019
3699 Clouds 16 1005 82 10000 4.6 210 09:59 14.08.2019
3700 Clouds 16 1005 82 10000 4.6 210 09:41 14.08.2019
3701 Clouds 15 1005 87 10000 4.1 220 09:20 14.08.2019
3702 Rain 13 1006 93 10000 2.6 170 08:41 14.08.2019
3703 Thunderstorm 14 1006 93 4000 6.2 210 08:23 14.08.2019
3704 Thunderstorm 13 1006 93 3500 6.7 200 07:54 14.08.2019
3705 Thunderstorm 13 1006 93 3500 6.7 200 07:34 14.08.2019
3706 Rain 15 1006 93 10000 4.1 190 06:49 14.08.2019
3707 Clouds 15 1006 93 10000 3.6 200 06:18 14.08.2019
3708 Clouds 14 1006 93 10000 2.6 170 05:28 14.08.2019
3709 Clouds 14 1006 93 10000 2.6 170 05:28 14.08.2019
3710 Thunderstorm 16 1006 87 10000 3.1 180 03:38 14.08.2019
3711 Clouds 15 1006 87 10000 3.1 180 02:34 14.08.2019
3712 Clouds 15 1006 87 10000 3.6 180 01:55 14.08.2019
3713 Clear 15 1006 87 10000 2.6 200 01:21 14.08.2019
3714 Clear 15 1007 87 10000 3.6 210 23:56 13.08.2019
3715 Clear 15 1007 87 10000 3.6 210 23:37 13.08.2019
3716 Clear 15 1007 87 10000 3.6 210 23:18 13.08.2019
3717 Clear 15 1006 87 10000 3.6 220 22:42 13.08.2019
3718 Clear 15 1006 87 10000 4.1 220 22:24 13.08.2019
3719 Clouds 15 1006 77 10000 4.6 210 21:59 13.08.2019
3720 Clouds 16 1006 77 10000 4.6 210 21:39 13.08.2019
3721 Clouds 16 1006 77 10000 5.1 220 21:19 13.08.2019
3722 Clouds 16 1006 72 10000 4.1 210 20:57 13.08.2019
3723 Clouds 17 1006 72 10000 4.1 210 20:37 13.08.2019
3724 Clouds 17 1006 68 10000 5.7 210 20:18 13.08.2019
3725 Clouds 18 1006 55 10000 6.2 200 19:43 13.08.2019
3726 Clouds 19 1006 52 10000 8.2 210 19:22 13.08.2019
3727 Clouds 19 1006 52 10000 6.7 190 18:59 13.08.2019
3728 Clouds 20 1006 52 10000 6.7 190 18:41 13.08.2019
3729 Clouds 20 1006 68 10000 6.7 180 18:20 13.08.2019
3730 Clouds 20 1006 68 10000 6.7 170 17:43 13.08.2019
3731 Clouds 21 1006 68 10000 6.2 180 17:22 13.08.2019
3732 Clouds 21 1006 64 10000 6.2 210 16:58 13.08.2019
3733 Clouds 21 1006 64 10000 6.2 190 16:39 13.08.2019
3734 Clouds 21 1006 64 10000 6.2 190 16:21 13.08.2019
3735 Clouds 21 1006 68 10000 6.7 190 15:59 13.08.2019
3736 Clouds 21 1006 68 10000 6.7 190 15:59 13.08.2019
3737 Clouds 21 1006 68 10000 6.7 180 15:38 13.08.2019
3738 Clouds 21 1006 68 10000 6.7 180 15:19 13.08.2019
3739 Clouds 21 1006 68 10000 6.7 180 15:19 13.08.2019
3740 Clouds 21 1006 72 10000 6.7 170 14:42 13.08.2019
3741 Clouds 21 1006 72 10000 6.2 170 14:20 13.08.2019
3742 Clouds 21 1006 72 10000 6.7 170 13:56 13.08.2019
3743 Clouds 21 1006 72 10000 6.7 170 13:56 13.08.2019
3744 Clouds 21 1006 72 10000 5.7 170 13:38 13.08.2019
3745 Clouds 21 1006 72 10000 5.7 170 13:18 13.08.2019
3746 Clouds 21 1006 68 10000 4.6 170 12:41 13.08.2019
3747 Clouds 21 1006 68 10000 4.6 170 12:23 13.08.2019
3748 Clouds 21 1007 72 10000 3.6 180 11:59 13.08.2019
3749 Clouds 20 1007 72 10000 3.6 180 11:40 13.08.2019
3750 Clouds 20 1007 68 10000 5.1 190 11:21 13.08.2019
3751 Clouds 20 1007 68 10000 5.1 190 11:21 13.08.2019
3752 Clouds 20 1007 72 10000 4.1 210 10:57 13.08.2019
3753 Clouds 19 1007 72 10000 4.1 210 10:37 13.08.2019
3754 Clouds 19 1008 82 10000 3.1 190 10:19 13.08.2019
3755 Clouds 18 1008 82 10000 3.6 200 09:44 13.08.2019
3756 Clouds 18 1008 82 10000 5.1 200 09:23 13.08.2019
3757 Clouds 18 1008 82 10000 5.1 190 08:55 13.08.2019
3758 Clouds 17 1008 88 10000 5.1 180 08:37 13.08.2019
3759 Clouds 17 1008 88 10000 5.1 180 08:18 13.08.2019
3760 Clouds 17 1007 88 10000 4.1 180 07:38 13.08.2019
3761 Clouds 17 1007 88 10000 4.1 180 07:38 13.08.2019
3762 Clouds 16 1007 88 10000 4.1 180 07:20 13.08.2019
3763 Clouds 16 1007 93 10000 4.6 190 06:43 13.08.2019
3764 Clouds 15 1007 93 10000 4.1 170 05:46 13.08.2019
3765 Clouds 14 1008 93 10000 3.6 180 03:45 13.08.2019
3766 Clouds 15 1009 93 10000 3.1 190 02:22 13.08.2019
3767 Clouds 14 1009 93 10000 2.1 140 01:21 13.08.2019
3768 Clouds 14 1009 93 10000 3.1 180 00:47 13.08.2019
3769 Clouds 15 1009 93 10000 3.1 200 23:58 12.08.2019
3770 Clouds 15 1009 93 10000 3.1 200 23:40 12.08.2019
3771 Clouds 15 1009 87 10000 3.6 190 23:20 12.08.2019
3772 Clouds 15 1009 87 10000 4.1 190 22:40 12.08.2019
3773 Clouds 15 1009 87 10000 3.6 210 22:20 12.08.2019
3774 Clouds 15 1009 87 10000 4.6 200 21:56 12.08.2019
3775 Clouds 16 1009 87 10000 4.1 190 21:38 12.08.2019
3776 Clouds 16 1009 87 10000 4.1 190 21:19 12.08.2019
3777 Clouds 16 1009 77 10000 5.7 200 20:57 12.08.2019
3778 Clouds 17 1009 77 10000 5.7 200 20:38 12.08.2019
3779 Clouds 17 1009 77 10000 5.1 220 20:20 12.08.2019
3780 Clouds 17 1009 77 10000 5.7 200 19:56 12.08.2019
3781 Clouds 17 1009 77 10000 5.7 200 19:37 12.08.2019
3782 Clouds 18 1009 77 10000 5.7 190 19:19 12.08.2019
3783 Clouds 18 1009 82 10000 6.2 190 18:55 12.08.2019
3784 Rain 19 1010 88 10000 8.2 190 18:37 12.08.2019
3785 Rain 19 1010 88 10000 8.2 190 18:37 12.08.2019
3786 Rain 19 1010 88 10000 8.2 190 18:19 12.08.2019
3787 Clouds 19 1010 72 10000 8.2 190 17:46 12.08.2019
3788 Clouds 19 1010 72 10000 6.7 190 17:28 12.08.2019
3789 Clouds 20 1010 64 10000 7.2 210 16:57 12.08.2019
3790 Clouds 20 1010 64 10000 7.2 220 16:39 12.08.2019
3791 Clouds 20 1010 64 10000 7.2 220 16:20 12.08.2019
3792 Clouds 20 1010 64 10000 7.2 220 16:20 12.08.2019
3793 Clouds 20 1010 64 10000 8.2 210 15:58 12.08.2019
3794 Clouds 20 1010 64 10000 6.7 200 15:39 12.08.2019
3795 Clouds 20 1010 64 10000 6.7 200 15:39 12.08.2019
3796 Clouds 20 1010 64 10000 8.2 210 15:38 12.08.2019
3797 Clouds 20 1010 64 10000 6.7 200 15:20 12.08.2019
3798 Clouds 20 1010 68 10000 7.2 200 14:55 12.08.2019
3799 Clouds 21 1010 64 10000 7.2 200 14:36 12.08.2019
3800 Clouds 21 1010 64 10000 7.2 200 14:18 12.08.2019
3801 Clouds 21 1010 68 10000 6.7 190 13:42 12.08.2019
3802 Rain 20 1010 77 10000 6.7 190 13:23 12.08.2019
3803 Rain 20 1010 72 10000 7.7 180 12:44 12.08.2019
3804 Clouds 20 1011 77 10000 8.2 190 12:22 12.08.2019
3805 Clouds 20 1010 64 10000 7.2 200 11:56 12.08.2019
3806 Clouds 20 1010 64 10000 7.2 200 11:38 12.08.2019
3807 Clouds 20 1011 72 10000 6.2 210 11:19 12.08.2019
3808 Clouds 20 1010 68 10000 6.2 200 10:40 12.08.2019
3809 Clouds 20 1011 72 10000 5.7 190 10:40 12.08.2019
3810 Clouds 20 1011 72 10000 5.7 190 10:22 12.08.2019
3811 Clouds 20 1010 68 10000 5.1 200 09:56 12.08.2019
3812 Clouds 20 1010 68 10000 5.1 200 09:37 12.08.2019
3813 Clouds 20 1010 68 10000 5.1 200 09:37 12.08.2019
3814 Clouds 19 1010 72 10000 4.6 210 09:18 12.08.2019
3815 Clouds 19 1010 77 10000 4.1 220 08:42 12.08.2019
3816 Clouds 19 1010 82 10000 3.6 220 08:24 12.08.2019
3817 Clouds 18 1010 88 10000 4.6 230 07:57 12.08.2019
3818 Clouds 18 1010 88 10000 4.6 230 07:39 12.08.2019
3819 Clouds 18 1010 88 10000 4.1 220 07:19 12.08.2019
3820 Clouds 17 1010 93 10000 3.1 210 06:42 12.08.2019
3821 Clouds 17 1009 93 10000 4.1 190 04:40 12.08.2019
3822 Clouds 17 1009 93 10000 4.1 190 02:43 12.08.2019
3823 Rain 17 1009 93 10000 5.1 190 01:49 12.08.2019
3824 Clouds 17 1009 93 10000 4.6 200 01:19 12.08.2019
3825 Clouds 17 1009 93 10000 4.6 190 00:56 12.08.2019
3826 Clouds 17 1009 93 10000 5.1 190 00:37 12.08.2019
3827 Clouds 17 1009 93 10000 5.1 190 00:18 12.08.2019
3828 Clouds 17 1009 93 10000 4.6 190 23:41 11.08.2019
3829 Clouds 17 1009 88 10000 4.1 190 23:20 11.08.2019
3830 Clouds 17 1009 88 10000 4.6 190 22:58 11.08.2019
3831 Clouds 17 1009 88 10000 4.6 190 22:39 11.08.2019
3832 Rain 17 1009 88 10000 5.1 180 22:18 11.08.2019
3833 Clouds 17 1009 88 10000 4.1 180 21:56 11.08.2019
3834 Clouds 17 1009 88 10000 4.6 190 21:38 11.08.2019
3835 Clouds 17 1009 88 10000 4.6 190 21:19 11.08.2019
3836 Rain 17 1008 88 10000 4.6 190 20:44 11.08.2019
3837 Rain 18 1008 88 10000 4.6 180 20:23 11.08.2019
3838 Rain 18 1008 82 10000 4.6 180 19:56 11.08.2019
3839 Clouds 18 1008 82 10000 4.1 160 19:37 11.08.2019
3840 Clouds 18 1008 82 10000 4.1 160 19:18 11.08.2019
3841 Clouds 19 1008 82 10000 4.6 160 18:40 11.08.2019
3842 Clouds 19 1008 82 10000 5.1 170 18:20 11.08.2019
3843 Clouds 19 1008 82 10000 4.6 180 17:56 11.08.2019
3844 Clouds 19 1008 82 10000 5.1 180 17:38 11.08.2019
3845 Clouds 19 1008 82 10000 5.1 180 17:19 11.08.2019
3846 Clouds 19 1008 82 10000 5.1 180 16:55 11.08.2019
3847 Clouds 19 1008 82 10000 5.1 180 16:37 11.08.2019
3848 Clouds 19 1008 88 10000 5.1 180 16:18 11.08.2019
3849 Rain 18 1008 93 10000 4.1 140 15:42 11.08.2019
3850 Rain 18 1008 93 10000 4.1 140 15:22 11.08.2019
3851 Rain 17 1008 93 5000 5.1 130 14:56 11.08.2019
3852 Rain 17 1008 93 7000 5.7 140 14:37 11.08.2019
3853 Rain 17 1008 93 7000 5.7 140 14:19 11.08.2019
3854 Rain 16 1008 93 10000 6.2 140 13:43 11.08.2019
3855 Rain 16 1008 93 10000 5.7 140 13:24 11.08.2019
3856 Rain 16 1008 93 10000 6.7 130 12:46 11.08.2019
3857 Rain 16 1008 93 10000 5.7 120 12:22 11.08.2019
3858 Rain 16 1009 87 10000 5.7 120 11:42 11.08.2019
3859 Rain 16 1009 82 10000 5.7 120 11:23 11.08.2019
3860 Rain 16 1009 87 10000 5.7 120 10:59 11.08.2019
3861 Rain 16 1009 87 10000 5.7 120 10:40 11.08.2019
3862 Rain 16 1009 72 10000 9.3 140 10:21 11.08.2019
3863 Clouds 17 1009 72 10000 6.7 160 09:56 11.08.2019
3864 Clouds 17 1009 72 10000 6.7 160 09:37 11.08.2019
3865 Clouds 18 1009 77 10000 4.1 170 09:19 11.08.2019
3866 Clouds 18 1009 77 10000 4.1 170 09:19 11.08.2019
3867 Clouds 18 1009 82 10000 5.7 180 08:43 11.08.2019
3868 Clouds 18 1009 88 10000 5.7 160 08:25 11.08.2019
3869 Clouds 17 1009 93 10000 5.7 140 07:54 11.08.2019
3870 Rain 17 1009 93 10000 5.7 140 07:22 11.08.2019
3871 Clouds 17 1009 82 10000 3.6 120 06:41 11.08.2019
3872 Clouds 16 1010 88 10000 3.1 130 05:34 11.08.2019
3873 Clear 16 1010 88 10000 2.1 120 03:36 11.08.2019
3874 Rain 16 1011 88 10000 2.6 120 02:46 11.08.2019
3875 Clear 16 1011 88 10000 2.1 100 01:36 11.08.2019
3876 Clear 16 1012 88 10000 2.1 100 00:59 11.08.2019
3877 Clear 16 1012 88 10000 2.1 100 00:41 11.08.2019
3878 Clear 16 1012 93 10000 2.1 80 00:23 11.08.2019
3879 Clear 16 1012 88 10000 2.6 70 23:43 10.08.2019
3880 Clear 16 1012 87 10000 1.5 60 23:23 10.08.2019
3881 Clear 16 1012 93 10000 1 0 22:43 10.08.2019
3882 Clear 16 1012 93 10000 1 0 22:43 10.08.2019
3883 Clear 17 1012 82 10000 1.5 140 22:24 10.08.2019
3884 Clear 17 1012 82 10000 2.6 170 21:57 10.08.2019
3885 Clear 17 1012 82 10000 2.6 170 21:38 10.08.2019
3886 Clear 17 1012 77 10000 2.6 160 21:19 10.08.2019
3887 Clear 17 1012 77 10000 2.6 160 20:56 10.08.2019
3888 Clear 18 1012 72 10000 4.1 160 20:37 10.08.2019
3889 Clear 18 1012 72 10000 4.1 160 20:18 10.08.2019
3890 Clear 19 1012 56 10000 3.6 160 19:39 10.08.2019
3891 Clear 19 1012 56 10000 3.6 160 19:20 10.08.2019
3892 Clear 21 1012 46 10000 4.1 180 18:40 10.08.2019
3893 Clear 21 1012 46 10000 4.1 180 18:40 10.08.2019
3894 Clear 21 1012 46 10000 4.1 180 18:22 10.08.2019
3895 Clear 21 1012 49 10000 3.6 180 17:45 10.08.2019
3896 Clear 22 1012 40 10000 4.1 180 17:25 10.08.2019
3897 Clear 22 1013 43 10000 4.1 190 16:47 10.08.2019
3898 Clear 22 1013 37 10000 4.1 140 16:28 10.08.2019
3899 Clear 22 1013 40 10000 4.1 150 15:56 10.08.2019
3900 Clear 22 1013 43 10000 4.6 150 15:26 10.08.2019
3901 Clouds 23 1013 43 10000 4.6 170 14:45 10.08.2019
3902 Clouds 23 1013 43 10000 4.6 170 14:45 10.08.2019
3903 Clouds 23 1013 46 10000 4.1 180 14:23 10.08.2019
3904 Clouds 23 1013 46 10000 4.1 180 14:23 10.08.2019
3905 Clouds 23 1013 40 10000 4.6 140 13:59 10.08.2019
3906 Clouds 23 1013 40 10000 4.6 140 13:39 10.08.2019
3907 Clouds 23 1013 38 10000 3.6 150 13:18 10.08.2019
3908 Clouds 23 1013 49 10000 3.6 150 12:42 10.08.2019
3909 Clouds 23 1013 49 10000 3.6 150 12:22 10.08.2019
3910 Clouds 23 1013 49 10000 4.1 150 11:57 10.08.2019
3911 Clouds 22 1013 49 10000 4.1 150 11:38 10.08.2019
3912 Clouds 22 1013 53 10000 2.6 180 11:20 10.08.2019
3913 Clouds 22 1013 53 10000 2.1 150 10:39 10.08.2019
3914 Clouds 21 1013 56 10000 2.6 120 10:20 10.08.2019
3915 Clouds 21 1013 56 10000 2.6 120 10:20 10.08.2019
3916 Clouds 21 1013 60 10000 2.6 170 09:44 10.08.2019
3917 Clouds 19 1013 64 10000 2.6 190 09:25 10.08.2019
3918 Clear 19 1013 68 10000 2.1 180 08:59 10.08.2019
3919 Clear 18 1013 72 10000 1.5 130 08:38 10.08.2019
3920 Clear 18 1013 72 10000 1.5 130 08:19 10.08.2019
3921 Clear 16 1013 82 10000 1.5 120 07:48 10.08.2019
3922 Clear 14 1013 93 10000 0.5 0 07:26 10.08.2019
3923 Clear 13 1013 93 10000 0.5 0 06:47 10.08.2019
3924 Clear 11 1012 87 10000 0.5 0 06:18 10.08.2019
3925 Clear 10 1012 93 10000 0.84 68.211 05:22 10.08.2019
3926 Clear 10 1012 100 10000 1 0 04:18 10.08.2019
3927 Clear 11 1012 93 10000 0.5 0 02:52 10.08.2019
3928 Clear 12 1011 93 10000 1 0 01:57 10.08.2019
3929 Clear 12 1011 93 10000 1 0 01:38 10.08.2019
3930 Clear 12 1011 93 10000 0.5 40 01:19 10.08.2019
3931 Clear 12 1011 93 10000 1.5 360 00:43 10.08.2019
3932 Clear 13 1011 93 10000 1.5 310 00:21 10.08.2019
3933 Clear 13 1011 100 10000 1.5 340 23:42 09.08.2019
3934 Clear 13 1010 93 10000 1 0 23:22 09.08.2019
3935 Clear 13 1010 93 10000 2.1 330 22:56 09.08.2019
3936 Clear 14 1010 93 10000 2.1 330 22:38 09.08.2019
3937 Clear 14 1010 87 10000 2.1 320 22:19 09.08.2019
3938 Clear 15 1009 87 10000 0.5 0 21:41 09.08.2019
3939 Clear 15 1010 82 10000 0.5 0 21:41 09.08.2019
3940 Clear 16 1009 87 10000 0.5 0 21:22 09.08.2019
3941 Clear 16 1009 77 10000 1 0 20:58 09.08.2019
3942 Clear 17 1009 77 10000 1 0 20:39 09.08.2019
3943 Clouds 17 1009 63 10000 2.6 70 20:20 09.08.2019
3944 Rain 18 1008 63 10000 2.1 100 19:45 09.08.2019
3945 Rain 18 1008 60 10000 3.1 60 19:23 09.08.2019
3946 Rain 19 1008 56 10000 2.1 90 18:59 09.08.2019
3947 Rain 19 1007 56 10000 3.1 80 18:39 09.08.2019
3948 Rain 20 1007 56 10000 3.1 80 18:21 09.08.2019
3949 Clouds 20 1007 53 10000 4.1 60 17:45 09.08.2019
3950 Clouds 20 1007 49 10000 2.6 340 17:25 09.08.2019
3951 Clouds 21 1007 46 10000 3.6 360 16:58 09.08.2019
3952 Clouds 22 1007 46 10000 2.1 350 16:38 09.08.2019
3953 Clouds 22 1007 46 10000 2.1 350 16:20 09.08.2019
3954 Clouds 22 1006 49 10000 3.6 330 15:55 09.08.2019
3955 Clouds 22 1006 52 10000 4.1 20 15:36 09.08.2019
3956 Clouds 21 1006 52 10000 4.1 20 15:18 09.08.2019
3957 Clouds 21 1006 56 10000 4.1 360 14:42 09.08.2019
3958 Clouds 21 1006 60 10000 2.6 360 14:21 09.08.2019
3959 Clouds 21 1006 60 10000 3.6 10 13:55 09.08.2019
3960 Clouds 21 1006 60 10000 3.6 10 13:37 09.08.2019
3961 Clouds 20 1006 68 10000 3.1 0 13:18 09.08.2019
3962 Clouds 20 1006 64 10000 2.1 320 12:41 09.08.2019
3963 Clouds 19 1006 68 10000 2.1 330 12:22 09.08.2019
3964 Clouds 19 1006 68 10000 2.1 40 11:42 09.08.2019
3965 Clouds 19 1006 72 10000 2.6 50 11:21 09.08.2019
3966 Clouds 19 1006 72 10000 2.6 50 11:21 09.08.2019
3967 Clouds 19 1005 77 10000 3.1 20 10:58 09.08.2019
3968 Clouds 19 1005 77 10000 3.1 20 10:39 09.08.2019
3969 Clouds 18 1005 82 10000 3.6 30 10:20 09.08.2019
3970 Clouds 17 1005 82 10000 3.1 20 09:42 09.08.2019
3971 Clouds 17 1005 82 10000 2.6 10 09:19 09.08.2019
3972 Clear 16 1005 87 10000 2.6 40 08:46 09.08.2019
3973 Clear 15 1004 93 10000 1.5 20 08:26 09.08.2019
3974 Clear 15 1004 93 10000 1.5 20 08:26 09.08.2019
3975 Clear 15 1004 93 10000 1.5 20 07:59 09.08.2019
3976 Clear 14 1004 93 10000 1.5 350 07:41 09.08.2019
3977 Clear 14 1004 93 10000 1.5 350 07:21 09.08.2019
3978 Clear 13 1004 93 10000 1.5 0 06:50 09.08.2019
3979 Clear 13 1004 93 10000 1.5 360 06:22 09.08.2019
3980 Clear 13 1004 100 10000 1.5 360 05:45 09.08.2019
3981 Clear 13 1003 100 10000 1 0 02:30 09.08.2019
3982 Clouds 14 1003 93 10000 1.5 340 01:30 09.08.2019
3983 Clouds 14 1003 93 10000 2.1 290 00:43 09.08.2019
3984 Clouds 14 1003 93 10000 2.1 20 00:24 09.08.2019
3985 Clouds 15 1003 93 10000 2.6 50 23:57 08.08.2019
3986 Clouds 15 1003 87 10000 1 310 23:37 08.08.2019
3987 Clouds 15 1003 87 10000 1 310 23:19 08.08.2019
3988 Clouds 15 1003 87 10000 3.1 350 22:56 08.08.2019
3989 Clouds 15 1003 87 10000 3.1 350 22:36 08.08.2019
3990 Clouds 15 1003 87 10000 3.1 350 22:18 08.08.2019
3991 Clouds 16 1003 93 10000 2.1 290 21:43 08.08.2019
3992 Clouds 16 1003 88 10000 1.5 200 21:24 08.08.2019
3993 Clouds 17 1003 82 10000 1.5 220 20:58 08.08.2019
3994 Clouds 17 1003 82 10000 1.5 220 20:40 08.08.2019
3995 Clouds 17 1003 82 10000 1.5 200 20:20 08.08.2019
3996 Clouds 18 1003 77 10000 1.5 190 19:49 08.08.2019
3997 Rain 18 1003 82 10000 3.1 200 19:29 08.08.2019
3998 Rain 18 1003 82 10000 3.1 190 18:59 08.08.2019
3999 Rain 19 1003 77 10000 3.6 200 18:40 08.08.2019
4000 Rain 19 1003 77 10000 3.6 200 18:19 08.08.2019
4001 Rain 19 1003 77 10000 3.6 170 17:42 08.08.2019
4002 Rain 20 1003 77 10000 3.6 190 17:24 08.08.2019
4003 -273 0 0 0 0 0 16:58 08.08.2019
4004 Rain 19 1003 77 10000 2.1 160 16:40 08.08.2019
4005 Rain 19 1004 72 10000 4.1 160 16:22 08.08.2019
4006 Rain 19 1003 82 10000 4.1 170 15:57 08.08.2019
4007 Rain 19 1003 72 6000 4.6 180 15:37 08.08.2019
4008 Rain 20 1003 72 6000 4.6 180 15:19 08.08.2019
4009 Rain 21 1003 64 10000 1.5 120 14:38 08.08.2019
4010 Rain 21 1003 64 10000 1.5 120 14:19 08.08.2019
4011 Rain 21 1003 64 10000 1 0 13:42 08.08.2019
4012 Clouds 21 1004 60 10000 1 0 13:23 08.08.2019
4013 Clouds 21 1004 60 10000 1.5 0 12:57 08.08.2019
4014 Clouds 20 1004 60 10000 1.5 0 12:38 08.08.2019
4015 Rain 20 1004 72 10000 3.1 230 12:18 08.08.2019
4016 Clouds 20 1004 72 10000 3.6 170 11:42 08.08.2019
4017 Clouds 20 1004 72 10000 3.1 180 11:24 08.08.2019
4018 Clouds 19 1004 72 10000 2.1 210 10:41 08.08.2019
4019 Clouds 19 1004 68 10000 1 0 10:22 08.08.2019
4020 Clouds 19 1004 68 10000 1.5 240 09:58 08.08.2019
4021 Clouds 19 1004 68 10000 1.5 240 09:39 08.08.2019
4022 Clouds 18 1004 77 10000 1.5 0 09:20 08.08.2019
4023 Clouds 17 1004 87 10000 1 0 08:40 08.08.2019
4024 Clouds 17 1004 87 10000 1 0 08:21 08.08.2019
4025 Clouds 16 1004 93 10000 1 0 07:42 08.08.2019
4026 Clouds 15 1005 93 10000 1 0 07:21 08.08.2019
4027 Clouds 15 1004 93 10000 1.5 60 06:58 08.08.2019
4028 Clouds 14 1004 93 10000 1.5 60 06:40 08.08.2019
4029 Fog 13 1005 100 10000 1.5 60 05:54 08.08.2019
4030 Clouds 12 1005 100 10000 2.1 70 05:27 08.08.2019
4031 Fog 12 1005 100 10000 1 30 03:54 08.08.2019
4032 Fog 12 1005 100 10000 1 350 03:35 08.08.2019
4033 Clouds 13 1005 100 10000 2.1 40 01:41 08.08.2019
4034 Rain 13 1005 93 10000 1 0 00:46 08.08.2019
4035 Clouds 14 1005 93 10000 1 0 00:20 08.08.2019
4036 Clouds 14 1005 93 10000 2.1 50 23:23 07.08.2019
4037 Clouds 14 1005 100 10000 1.5 50 22:59 07.08.2019
4038 Clouds 14 1005 100 10000 1.5 50 22:41 07.08.2019
4039 Clouds 14 1005 100 10000 1.5 70 22:20 07.08.2019
4040 Clouds 14 1005 87 10000 1.5 80 21:57 07.08.2019
4041 Clouds 15 1005 87 10000 1.5 80 21:39 07.08.2019
4042 Clouds 16 1005 87 10000 1.5 50 21:20 07.08.2019
4043 Clouds 15 1005 82 10000 2.1 100 20:57 07.08.2019
4044 Clouds 16 1005 82 10000 2.1 100 20:38 07.08.2019
4045 Clouds 16 1005 82 10000 3.6 110 20:19 07.08.2019
4046 Clouds 16 1005 82 10000 3.6 110 20:19 07.08.2019
4047 Clouds 16 1005 82 10000 3.6 110 20:19 07.08.2019
4048 Clouds 16 1005 77 10000 4.1 130 19:55 07.08.2019
4049 Clouds 17 1005 77 10000 4.1 130 19:36 07.08.2019
4050 Clouds 17 1005 82 10000 5.1 140 19:18 07.08.2019
4051 Clouds 17 1005 77 10000 3.6 120 18:40 07.08.2019
4052 Clouds 18 1005 77 10000 4.6 130 18:19 07.08.2019
4053 Clouds 18 1004 77 10000 3.6 120 17:54 07.08.2019
4054 Clouds 18 1004 77 10000 3.6 120 17:36 07.08.2019
4055 Rain 18 1004 88 10000 3.6 0 17:18 07.08.2019
4056 Rain 18 1004 88 10000 3.6 0 17:18 07.08.2019
4057 Clouds 18 1005 82 10000 4.6 90 16:55 07.08.2019
4058 Clouds 18 1005 93 10000 4.1 60 16:37 07.08.2019
4059 Clouds 18 1005 93 10000 4.1 60 16:18 07.08.2019
4060 Clouds 19 1005 88 10000 5.1 80 15:42 07.08.2019
4061 Rain 18 1005 88 10000 3.6 70 15:20 07.08.2019
4062 Rain 18 1005 88 10000 3.6 60 14:49 07.08.2019
4063 Rain 18 1005 88 10000 4.1 60 14:30 07.08.2019
4064 Clouds 18 1005 93 10000 3.1 50 13:57 07.08.2019
4065 Clouds 18 1005 93 10000 3.1 50 13:38 07.08.2019
4066 Rain 17 1005 93 10000 3.1 60 13:19 07.08.2019
4067 Rain 18 1005 93 10000 3.1 80 12:56 07.08.2019
4068 Rain 18 1005 93 10000 4.1 70 12:37 07.08.2019
4069 Rain 17 1005 93 10000 4.1 70 12:19 07.08.2019
4070 Rain 17 1005 88 10000 3.6 110 11:43 07.08.2019
4071 Rain 17 1005 82 10000 3.6 110 11:21 07.08.2019
4072 Rain 17 1004 100 9000 2.6 90 10:58 07.08.2019
4073 Rain 17 1004 100 9000 2.6 90 10:40 07.08.2019
4074 Rain 17 1004 93 9000 3.1 70 10:19 07.08.2019
4075 Rain 17 1004 93 8000 3.6 70 09:46 07.08.2019
4076 Rain 17 1004 93 8000 3.6 70 09:46 07.08.2019
4077 Rain 16 1004 100 4500 3.1 80 09:23 07.08.2019
4078 Rain 16 1004 93 7000 3.1 70 08:59 07.08.2019
4079 Clouds 16 1004 93 10000 3.1 70 08:41 07.08.2019
4080 Clouds 16 1004 93 10000 3.1 70 08:23 07.08.2019
4081 Clouds 16 1004 93 10000 2.6 90 07:43 07.08.2019
4082 Rain 15 1004 100 10000 1 0 07:21 07.08.2019
4083 Rain 15 1004 93 10000 1 0 06:40 07.08.2019
4084 Rain 14 1004 93 5000 2.1 60 05:59 07.08.2019
4085 Rain 13 1004 100 10000 2.1 60 05:40 07.08.2019
4086 Fog 12 1004 100 10000 1.5 70 03:23 07.08.2019
4087 Clouds 12 1005 100 10000 2.1 60 02:51 07.08.2019
4088 Clouds 12 1005 93 10000 1 0 02:26 07.08.2019
4089 Clear 13 1005 93 10000 1 100 01:45 07.08.2019
4090 Clear 13 1005 100 10000 0.5 0 00:52 07.08.2019
4091 Clear 14 1005 93 10000 1 0 00:22 07.08.2019
4092 Clouds 15 1005 87 10000 2.1 230 23:44 06.08.2019
4093 Clouds 15 1005 87 10000 2.1 220 23:23 06.08.2019
4094 Clouds 15 1005 87 10000 3.1 200 22:59 06.08.2019
4095 Clouds 15 1005 82 10000 2.6 190 22:38 06.08.2019
4096 Clouds 15 1005 82 10000 2.6 190 22:20 06.08.2019
4097 Clouds 15 1005 82 10000 3.1 160 21:44 06.08.2019
4098 Clouds 16 1005 72 10000 3.1 170 21:26 06.08.2019
4099 Clouds 16 1005 72 10000 3.1 170 21:26 06.08.2019
4100 Clouds 17 1005 77 10000 3.6 190 20:59 06.08.2019
4101 Clouds 17 1005 77 10000 3.6 190 20:41 06.08.2019
4102 Clouds 17 1005 77 10000 4.1 180 20:22 06.08.2019
4103 Clouds 18 1005 77 10000 4.1 170 19:47 06.08.2019
4104 Clouds 18 1005 72 10000 3.1 170 19:28 06.08.2019
4105 Clouds 19 1005 72 10000 3.1 170 18:55 06.08.2019
4106 Clouds 19 1005 72 10000 3.1 170 18:36 06.08.2019
4107 Clouds 19 1005 72 10000 2.6 170 18:18 06.08.2019
4108 Clouds 19 1005 72 10000 4.1 200 17:55 06.08.2019
4109 Clouds 20 1005 72 10000 4.1 200 17:36 06.08.2019
4110 Clouds 20 1005 60 10000 3.6 190 17:18 06.08.2019
4111 Rain 19 1005 59 10000 4.6 190 16:42 06.08.2019
4112 Rain 19 1005 68 10000 4.6 190 16:21 06.08.2019
4113 Rain 19 1005 63 10000 5.7 200 15:57 06.08.2019
4114 Rain 19 1005 64 10000 4.6 190 15:39 06.08.2019
4115 Rain 19 1005 64 10000 4.6 190 15:20 06.08.2019
4116 Rain 20 1005 64 10000 4.6 170 14:44 06.08.2019
4117 -273 0 0 0 0 0 14:26 06.08.2019
4118 Rain 20 1005 49 10000 3.1 150 13:58 06.08.2019
4119 Rain 21 1005 46 10000 2.1 0 13:39 06.08.2019
4120 Rain 21 1005 46 10000 2.1 0 13:20 06.08.2019
4121 Rain 21 1005 52 10000 4.6 140 12:58 06.08.2019
4122 Rain 20 1005 52 10000 4.6 140 12:39 06.08.2019
4123 Clear 21 1005 46 10000 2.6 0 12:39 06.08.2019
4124 Clear 21 1005 46 10000 2.6 0 12:21 06.08.2019
4125 Clear 21 1006 45 10000 1.5 0 11:42 06.08.2019
4126 Clear 20 1006 42 10000 2.1 190 11:19 06.08.2019
4127 -273 0 0 0 0 0 10:56 06.08.2019
4128 Clear 20 1006 45 10000 1 0 10:37 06.08.2019
4129 Clear 19 1006 45 10000 1 0 10:19 06.08.2019
4130 Clear 18 1006 52 10000 1 0 09:39 06.08.2019
4131 Clear 18 1006 59 10000 1.36 106.211 09:20 06.08.2019
4132 Clear 17 1006 62 10000 1 0 08:47 06.08.2019
4133 Clear 15 1006 67 10000 0.5 0 08:26 06.08.2019
4134 Clear 14 1006 71 10000 1 0 07:40 06.08.2019
4135 Clear 14 1006 71 10000 1 0 07:22 06.08.2019
4136 Clear 13 1006 71 10000 1.5 330 06:43 06.08.2019
4137 Clear 11 1006 81 10000 1.5 290 05:55 06.08.2019
4138 Clear 10 1006 87 10000 1.5 300 04:32 06.08.2019
4139 Clear 12 1006 66 10000 3.6 290 01:55 06.08.2019
4140 Clear 12 1006 66 10000 3.6 280 01:24 06.08.2019
4141 Clear 13 1006 62 10000 3.6 290 00:30 06.08.2019
4142 Clear 14 1006 58 10000 3.6 270 23:46 05.08.2019
4143 Clear 14 1006 62 10000 3.6 280 23:19 05.08.2019
4144 Clear 15 1006 58 10000 3.6 280 22:41 05.08.2019
4145 Clear 15 1006 55 10000 3.1 280 22:23 05.08.2019
4146 Clear 16 1005 59 10000 3.1 290 21:55 05.08.2019
4147 Clear 17 1005 52 10000 4.1 310 21:36 05.08.2019
4148 Clear 17 1005 52 10000 4.1 310 21:18 05.08.2019
4149 Clear 18 1005 45 10000 4.1 320 20:54 05.08.2019
4150 Clear 18 1005 45 10000 6.7 310 20:36 05.08.2019
4151 Clear 19 1005 45 10000 6.7 310 20:18 05.08.2019
4152 Clear 19 1005 42 10000 6.2 310 19:40 05.08.2019
4153 Clear 20 1005 37 10000 6.7 300 19:22 05.08.2019
4154 Clear 20 1005 40 10000 3.6 320 18:45 05.08.2019
4155 Clear 21 1005 37 10000 5.7 310 18:22 05.08.2019
4156 Clear 21 1005 35 10000 4.1 300 17:58 05.08.2019
4157 Clouds 21 1005 40 10000 4.6 310 17:40 05.08.2019
4158 Clouds 21 1005 40 10000 4.6 310 17:22 05.08.2019
4159 Rain 21 1005 40 10000 6.2 320 16:45 05.08.2019
4160 Clear 21 1005 37 10000 5.7 300 16:24 05.08.2019
4161 Clear 22 1005 37 10000 6.7 300 15:44 05.08.2019
4162 Clear 22 1005 35 10000 5.7 280 15:21 05.08.2019
4163 Clear 21 1005 40 10000 5.7 290 14:55 05.08.2019
4164 Clear 21 1005 40 10000 5.7 290 14:37 05.08.2019
4165 Clear 21 1005 42 10000 5.7 310 14:19 05.08.2019
4166 Clear 21 1006 40 10000 7.2 300 13:40 05.08.2019
4167 Clear 21 1006 42 10000 7.2 300 13:20 05.08.2019
4168 Clear 20 1006 40 10000 5.7 300 12:44 05.08.2019
4169 Clear 20 1006 40 10000 6.2 310 12:20 05.08.2019
4170 Clear 19 1006 40 10000 7.2 290 11:45 05.08.2019
4171 Clear 19 1006 40 10000 7.2 290 11:45 05.08.2019
4172 Clear 20 1006 40 10000 7.2 290 11:45 05.08.2019
4173 Clear 19 1007 37 10000 5.7 300 11:26 05.08.2019
4174 Clear 19 1007 39 10000 6.7 310 10:50 05.08.2019
4175 Clear 18 1007 39 10000 6.2 300 10:32 05.08.2019
4176 Clear 18 1007 45 10000 6.2 300 09:57 05.08.2019
4177 Clear 17 1007 45 10000 6.2 300 09:39 05.08.2019
4178 Clear 16 1007 54 10000 4.1 300 09:20 05.08.2019
4179 Clear 14 1008 62 10000 4.1 310 08:44 05.08.2019
4180 Clear 13 1008 66 10000 4.6 310 08:25 05.08.2019
4181 Clear 12 1008 76 10000 3.6 300 07:49 05.08.2019
4182 Clear 10 1008 81 10000 4.1 290 07:30 05.08.2019
4183 Clear 9 1008 81 10000 4.1 290 06:58 05.08.2019
4184 Clear 8 1008 81 10000 3.6 290 06:24 05.08.2019
4185 Clear 7 1008 87 10000 3.1 300 05:31 05.08.2019
4186 Clear 7 1008 87 10000 3.1 300 04:51 05.08.2019
4187 Clear 7 1008 81 10000 3.1 300 03:50 05.08.2019
4188 Clear 8 1008 81 10000 2.6 300 02:46 05.08.2019
4189 Clear 9 1008 81 10000 3.6 290 01:58 05.08.2019
4190 Clear 9 1008 75 10000 4.6 290 01:22 05.08.2019
4191 Clear 9 1008 75 10000 3.6 280 00:40 05.08.2019
4192 Clear 10 1008 75 10000 4.1 290 00:20 05.08.2019
4193 Clear 10 1008 81 10000 3.1 320 23:43 04.08.2019
4194 Clear 10 1008 81 10000 2.6 290 23:23 04.08.2019
4195 Clear 9 1008 75 10000 2.6 280 22:57 04.08.2019
4196 Clear 10 1008 70 10000 2.6 280 22:38 04.08.2019
4197 Clear 10 1008 70 10000 2.6 280 22:20 04.08.2019
4198 Clear 11 1008 71 10000 2.6 300 21:46 04.08.2019
4199 Clear 12 1008 58 10000 2.6 310 21:24 04.08.2019
4200 Clear 14 1008 50 10000 3.1 320 20:59 04.08.2019
4201 Clear 14 1008 50 10000 3.1 320 20:41 04.08.2019
4202 Clear 15 1008 44 10000 3.6 320 20:19 04.08.2019
4203 Clear 16 1008 41 10000 5.1 330 19:49 04.08.2019
4204 Clear 16 1008 41 10000 4.1 330 19:28 04.08.2019
4205 Clear 17 1008 39 10000 5.1 340 18:58 04.08.2019
4206 Clear 17 1008 39 10000 4.6 340 18:40 04.08.2019
4207 Clear 17 1008 39 10000 4.6 340 18:20 04.08.2019
4208 Clear 17 1009 39 10000 5.1 320 17:43 04.08.2019
4209 Clear 17 1009 39 10000 5.1 330 17:24 04.08.2019
4210 Clear 17 1009 39 10000 5.7 310 16:46 04.08.2019
4211 Clear 17 1009 41 10000 6.2 300 16:27 04.08.2019
4212 Clear 17 1009 36 10000 3.1 320 15:56 04.08.2019
4213 Clear 17 1009 39 10000 4.1 320 15:37 04.08.2019
4214 Clear 17 1009 39 10000 4.1 320 15:37 04.08.2019
4215 Clear 17 1009 39 10000 4.1 320 15:18 04.08.2019
4216 Clear 17 1010 44 10000 5.7 320 14:42 04.08.2019
4217 Clouds 17 1010 42 0 0.89 274 14:21 04.08.2019
4218 Clear 17 1010 41 10000 3.6 320 13:43 04.08.2019
4219 Clouds 16 1010 44 10000 2.6 270 13:24 04.08.2019
4220 Clouds 16 1010 41 10000 3.6 350 12:55 04.08.2019
4221 Clouds 16 1010 41 10000 3.6 350 12:37 04.08.2019
4222 Clouds 15 1011 44 10000 4.6 340 12:19 04.08.2019
4223 Clouds 15 1011 50 10000 4.6 330 11:41 04.08.2019
4224 Clouds 15 1011 58 10000 3.6 330 11:22 04.08.2019
4225 Clouds 14 1011 58 10000 3.1 320 10:43 04.08.2019
4226 Clouds 15 1011 57 0 0.89 265 10:22 04.08.2019
4227 Clouds 14 1011 66 10000 4.1 360 09:46 04.08.2019
4228 Clouds 13 1011 71 10000 3.6 10 09:25 04.08.2019
4229 Clear 13 1011 76 10000 2.1 320 08:57 04.08.2019
4230 Clear 12 1011 81 10000 2.6 350 08:33 04.08.2019
4231 Clear 11 1011 81 10000 2.6 350 07:54 04.08.2019
4232 Clear 10 1011 81 10000 2.6 350 07:23 04.08.2019
4233 Clear 8 1011 87 10000 2.6 340 06:28 04.08.2019
4234 Clear 6 1011 93 10000 3.1 330 05:57 04.08.2019
4235 Clear 6 1011 93 10000 1 320 03:34 04.08.2019
4236 Clear 6 1011 86 10000 2.1 330 01:51 04.08.2019
4237 Clear 6 1011 86 10000 3.1 350 01:28 04.08.2019
4238 Clear 7 1011 93 10000 2.6 330 00:41 04.08.2019
4239 Clear 7 1011 86 10000 2.1 330 00:22 04.08.2019
4240 Clear 7 1011 86 10000 3.1 340 23:42 03.08.2019
4241 Clear 8 1011 81 10000 2.6 340 23:19 03.08.2019
4242 Clear 8 1011 87 10000 3.1 340 22:55 03.08.2019
4243 Clear 9 1011 81 10000 2.6 340 22:37 03.08.2019
4244 Clear 9 1011 81 10000 2.6 340 22:18 03.08.2019
4245 Clear 11 1011 54 10000 2.6 360 21:38 03.08.2019
4246 Clear 12 1011 54 10000 2.6 360 21:19 03.08.2019
4247 Clear 13 1011 50 10000 2.6 340 20:43 03.08.2019
4248 Clear 14 1011 47 10000 3.1 340 20:23 03.08.2019
4249 Clear 14 1011 44 10000 3.6 340 19:43 03.08.2019
4250 Clear 14 1011 41 10000 4.1 340 19:25 03.08.2019
4251 Clear 15 1011 41 10000 4.1 350 18:56 03.08.2019
4252 Clear 15 1011 44 10000 5.1 350 18:28 03.08.2019
4253 Clear 15 1011 44 10000 5.7 10 17:50 03.08.2019
4254 Clear 16 1011 47 10000 6.2 350 17:22 03.08.2019
4255 Clear 16 1011 47 10000 5.7 10 16:58 03.08.2019
4256 Clear 16 1011 47 10000 5.7 10 16:38 03.08.2019
4257 Clear 17 1011 44 10000 4.1 350 16:19 03.08.2019
4258 Clear 16 1011 47 10000 6.2 340 15:45 03.08.2019
4259 Clouds 17 1011 40 0 0.89 282 15:23 03.08.2019
4260 Clear 17 1011 41 10000 6.2 340 14:43 03.08.2019
4261 Clear 17 1011 44 10000 6.2 350 14:22 03.08.2019
4262 Clouds 17 1011 41 10000 5.7 10 13:53 03.08.2019
4263 Clouds 17 1011 42 10000 4.1 20 13:26 03.08.2019
4264 Clouds 17 1011 44 10000 5.1 10 12:59 03.08.2019
4265 Clouds 17 1011 51 10000 5.1 340 12:40 03.08.2019
4266 Clouds 16 1011 51 10000 5.1 340 12:22 03.08.2019
4267 Clouds 16 1011 51 10000 5.7 30 11:49 03.08.2019
4268 Clouds 15 1011 58 10000 4.6 360 11:28 03.08.2019
4269 Rain 15 1011 62 10000 4.1 10 10:42 03.08.2019
4270 Rain 15 1011 67 10000 3.6 340 10:24 03.08.2019
4271 Rain 15 1011 67 10000 3.6 340 10:24 03.08.2019
4272 Clouds 15 1010 56 0 3.15 14.535 09:45 03.08.2019
4273 Clouds 14 1011 62 10000 4.1 10 09:23 03.08.2019
4274 Clouds 14 1011 62 10000 4.1 20 08:55 03.08.2019
4275 Clouds 13 1012 71 10000 4.1 360 08:18 03.08.2019
4276 Clouds 12 1012 76 10000 4.1 350 07:36 03.08.2019
4277 Clear 10 1011 87 10000 4.1 340 06:39 03.08.2019
4278 Clear 8 1011 87 10000 3.6 340 05:44 03.08.2019
4279 Clear 9 1011 93 10000 3.1 350 02:42 03.08.2019
4280 Clear 8 1011 87 10000 3.1 340 01:50 03.08.2019
4281 Clear 8 1011 81 10000 2.6 340 00:51 03.08.2019
4282 Clear 9 1011 87 10000 3.1 340 00:29 03.08.2019
4283 Clear 10 1011 81 10000 3.1 340 23:41 02.08.2019
4284 Clear 11 1011 75 10000 2.6 320 23:19 02.08.2019
4285 Clear 11 1011 66 10000 2.1 330 22:57 02.08.2019
4286 Clear 11 1011 58 10000 2.6 10 22:39 02.08.2019
4287 Clear 11 1011 58 10000 2.6 10 22:20 02.08.2019
4288 Clear 12 1011 58 10000 3.1 340 21:55 02.08.2019
4289 Clear 14 1011 47 10000 2.6 340 21:36 02.08.2019
4290 Clear 14 1011 47 10000 2.6 340 21:18 02.08.2019
4291 Clear 15 1011 44 10000 4.6 360 20:41 02.08.2019
4292 Clear 15 1011 44 10000 5.1 360 20:21 02.08.2019
4293 Clear 16 1011 47 10000 6.2 10 19:49 02.08.2019
4294 Clear 16 1011 44 10000 6.2 10 19:28 02.08.2019
4295 Clear 17 1011 45 10000 6.2 20 18:45 02.08.2019
4296 Clear 18 1011 42 10000 6.2 10 18:27 02.08.2019
4297 Clear 19 1011 45 10000 6.2 20 17:48 02.08.2019
4298 Clear 19 1011 42 10000 5.7 20 17:25 02.08.2019
4299 Clear 19 1011 45 10000 6.2 10 16:59 02.08.2019
4300 Clear 19 1010 42 10000 5.7 360 16:38 02.08.2019
4301 Clear 19 1010 42 10000 5.7 360 16:19 02.08.2019
4302 Clear 20 1010 42 10000 5.1 360 15:40 02.08.2019
4303 Clear 20 1011 42 10000 6.7 360 15:20 02.08.2019
4304 Clouds 20 1008 40 0 2.68 334 14:46 02.08.2019
4305 Clear 20 1010 42 10000 7.7 350 14:19 02.08.2019
4306 Clouds 20 1010 48 10000 7.2 350 13:50 02.08.2019
4307 Clouds 20 1010 48 10000 6.2 340 13:28 02.08.2019
4308 Clouds 20 1010 45 10000 6.2 350 12:47 02.08.2019
4309 Clouds 20 1010 45 10000 6.2 330 12:23 02.08.2019
4310 Clouds 20 1010 48 10000 5.7 350 11:56 02.08.2019
4311 Clouds 19 1010 48 10000 5.7 350 11:37 02.08.2019
4312 Clouds 19 1010 52 10000 6.2 340 11:18 02.08.2019
4313 Clouds 19 1010 48 10000 5.1 340 10:42 02.08.2019
4314 Clouds 19 1010 52 10000 5.7 340 10:23 02.08.2019
4315 Clouds 19 1010 59 10000 4.1 340 09:52 02.08.2019
4316 Clouds 18 1010 59 10000 4.1 320 09:28 02.08.2019
4317 Clear 17 1010 67 10000 3.6 310 08:52 02.08.2019
4318 Clear 16 1010 62 10000 3.6 310 08:23 02.08.2019
4319 Clear 14 1011 66 10000 3.1 290 07:52 02.08.2019
4320 Clouds 13 1009 64 0 2.34 330.027 07:32 02.08.2019
4321 Clear 12 1011 76 10000 3.6 290 06:54 02.08.2019
4322 Clear 10 1011 76 10000 3.1 290 06:24 02.08.2019
4323 Clear 9 1011 76 10000 3.1 280 05:37 02.08.2019
4324 Clouds 9 1012 76 10000 2.1 320 03:31 02.08.2019
4325 Clear 10 1012 71 10000 2.6 340 02:35 02.08.2019
4326 Clear 9 1012 71 10000 2.1 330 00:47 02.08.2019
4327 Clouds 10 1012 71 10000 2.1 320 00:18 02.08.2019
4328 Clouds 10 1013 71 10000 2.6 320 23:43 01.08.2019
4329 Clouds 10 1013 81 10000 2.6 320 23:19 01.08.2019
4330 Clouds 9 1013 81 10000 2.1 330 22:40 01.08.2019
4331 Clouds 10 1013 81 10000 2.6 330 22:21 01.08.2019
4332 Clear 11 1013 81 10000 2.1 330 21:44 01.08.2019
4333 Clear 13 1013 66 10000 2.1 340 21:24 01.08.2019
4334 Clear 13 1013 58 10000 2.6 350 20:59 01.08.2019
4335 Clear 14 1013 58 10000 2.6 350 20:40 01.08.2019
4336 Clear 14 1013 54 10000 3.6 360 20:21 01.08.2019
4337 Clear 15 1013 54 10000 4.6 360 19:42 01.08.2019
4338 Clear 15 1013 51 10000 5.1 350 19:20 01.08.2019
4339 Clear 16 1013 48 10000 5.7 350 18:45 01.08.2019
4340 Clear 17 1013 51 10000 4.6 340 18:25 01.08.2019
4341 Clear 17 1013 48 10000 5.7 340 17:56 01.08.2019
4342 Clear 17 1013 41 0 0.89 279 17:38 01.08.2019
4343 Clear 17 1013 45 10000 5.1 340 17:19 01.08.2019
4344 Clear 18 1013 45 10000 4.1 330 16:44 01.08.2019
4345 Clear 18 1013 45 10000 4.6 340 16:21 01.08.2019
4346 Clear 18 1013 45 10000 4.1 10 15:42 01.08.2019
4347 Clouds 18 1014 42 10000 3.1 350 15:20 01.08.2019
4348 Clouds 18 1014 45 10000 2.6 310 14:44 01.08.2019
4349 Clouds 18 1014 45 10000 3.1 330 14:21 01.08.2019
4350 Clouds 18 1014 45 10000 2.1 0 13:58 01.08.2019
4351 Clouds 18 1014 44 10000 2.6 340 13:40 01.08.2019
4352 Clouds 18 1014 44 10000 2.6 340 13:21 01.08.2019
4353 Clouds 18 1014 48 10000 3.1 20 12:49 01.08.2019
4354 Clouds 17 1014 44 10000 4.1 340 12:28 01.08.2019
4355 Clouds 17 1014 47 10000 4.1 320 11:44 01.08.2019
4356 Clouds 17 1014 48 10000 4.1 350 11:26 01.08.2019
4357 Clouds 17 1015 47 10000 4.1 20 10:59 01.08.2019
4358 Clouds 17 1015 54 10000 4.6 10 10:40 01.08.2019
4359 Clouds 17 1015 54 10000 4.6 10 10:22 01.08.2019
4360 Clouds 16 1015 54 10000 5.1 350 09:47 01.08.2019
4361 Clouds 16 1015 58 10000 5.7 10 09:23 01.08.2019
4362 Clouds 15 1015 54 10000 5.7 350 08:49 01.08.2019
4363 Clouds 14 1015 58 10000 3.6 20 08:21 01.08.2019
4364 Clouds 13 1015 66 10000 3.6 20 07:53 01.08.2019
4365 Clouds 12 1015 66 10000 3.1 30 07:29 01.08.2019
4366 Clouds 12 1015 71 10000 2.6 20 06:50 01.08.2019
4367 Clouds 11 1015 76 10000 2.6 20 06:31 01.08.2019
4368 Clouds 10 1015 81 10000 2.6 30 05:31 01.08.2019
4369 Clouds 11 1015 76 10000 3.1 40 02:36 01.08.2019
4370 Clouds 11 1015 87 10000 2.1 50 00:55 01.08.2019
4371 Clouds 12 1015 87 10000 2.1 60 00:27 01.08.2019
4372 Clear 12 1015 87 10000 2.6 50 23:57 31.07.2019
4373 Clear 12 1014 87 10000 2.6 60 23:39 31.07.2019
4374 Clear 12 1014 87 10000 2.6 60 23:19 31.07.2019
4375 Clear 12 1014 87 10000 2.1 60 22:44 31.07.2019
4376 Clear 12 1014 87 10000 1.5 90 22:24 31.07.2019
4377 Clear 14 1014 82 10000 1.5 120 21:41 31.07.2019
4378 Clear 16 1014 67 10000 1.5 90 21:22 31.07.2019
4379 Clear 17 1014 63 10000 1.5 100 20:49 31.07.2019
4380 Clear 17 1014 63 10000 1.5 100 20:49 31.07.2019
4381 Clear 17 1014 45 10000 3.6 50 20:23 31.07.2019
4382 Clear 18 1014 42 10000 3.1 40 19:48 31.07.2019
4383 Clear 19 1013 42 10000 2.6 30 19:29 31.07.2019
4384 Clear 19 1013 39 10000 3.1 360 18:55 31.07.2019
4385 Clear 20 1013 39 10000 3.1 360 18:37 31.07.2019
4386 Clear 20 1013 37 10000 3.6 20 18:18 31.07.2019
4387 Clear 21 1013 37 10000 4.1 10 17:44 31.07.2019
4388 Clear 21 1013 37 10000 3.6 0 17:20 31.07.2019
4389 Clear 21 1013 37 10000 3.6 360 16:48 31.07.2019
4390 Clear 21 1013 37 10000 4.6 10 16:21 31.07.2019
4391 Clear 21 1013 37 10000 4.6 30 15:54 31.07.2019
4392 Clear 21 1013 37 10000 4.6 10 15:36 31.07.2019
4393 Clear 21 1013 37 10000 4.6 10 15:18 31.07.2019
4394 Clear 20 1013 40 10000 6.2 30 14:42 31.07.2019
4395 Clear 20 1013 40 10000 6.2 30 14:42 31.07.2019
4396 Clear 20 1013 40 10000 6.2 30 14:19 31.07.2019
4397 Clear 20 1013 40 10000 6.2 10 13:45 31.07.2019
4398 Clear 19 1013 42 10000 6.2 10 13:27 31.07.2019
4399 Clear 19 1013 48 10000 5.1 360 12:58 31.07.2019
4400 Clear 19 1013 45 10000 5.1 340 12:40 31.07.2019
4401 Clear 18 1013 45 10000 5.1 340 12:21 31.07.2019
4402 Clouds 18 1013 51 10000 5.7 360 11:39 31.07.2019
4403 Clouds 17 1013 51 10000 5.7 340 11:20 31.07.2019
4404 Clouds 17 1012 55 10000 5.7 350 10:45 31.07.2019
4405 Clouds 17 1012 58 10000 5.7 360 10:21 31.07.2019
4406 Clouds 16 1012 62 10000 5.7 360 09:58 31.07.2019
4407 Clouds 15 1012 62 10000 5.7 360 09:39 31.07.2019
4408 Clouds 14 1012 62 10000 6.2 360 09:21 31.07.2019
4409 Clouds 14 1012 62 10000 6.2 360 08:42 31.07.2019
4410 Clouds 13 1012 66 10000 7.2 360 08:22 31.07.2019
4411 Clouds 13 1012 71 10000 5.1 340 07:40 31.07.2019
4412 Clouds 12 1012 71 10000 5.1 340 07:22 31.07.2019
4413 Clouds 11 1012 81 10000 4.6 320 04:56 31.07.2019
4414 Rain 11 1012 81 10000 5.1 340 03:29 31.07.2019
4415 Clouds 12 1012 62 10000 5.1 340 00:24 31.07.2019
4416 Clouds 12 1012 66 10000 4.6 330 23:40 30.07.2019
4417 Clouds 12 1012 58 10000 5.7 350 23:20 30.07.2019
4418 Clouds 13 1012 58 10000 6.2 350 22:46 30.07.2019
4419 Clouds 13 1012 62 10000 4.1 350 22:25 30.07.2019
4420 Clouds 13 1012 58 10000 4.6 340 21:57 30.07.2019
4421 Clouds 13 1012 58 10000 4.6 340 21:36 30.07.2019
4422 Clouds 13 1012 54 10000 4.1 350 21:18 30.07.2019
4423 Clouds 14 1012 54 10000 5.7 350 20:43 30.07.2019
4424 Clouds 14 1012 58 10000 4.1 340 20:24 30.07.2019
4425 Clouds 14 1012 58 10000 4.1 340 20:24 30.07.2019
4426 Clouds 14 1012 50 10000 4.6 340 19:58 30.07.2019
4427 Clouds 14 1012 50 10000 4.6 340 19:39 30.07.2019
4428 Clouds 14 1012 54 10000 5.7 350 18:58 30.07.2019
4429 Clouds 14 1012 54 10000 5.7 350 18:38 30.07.2019
4430 Clouds 15 1012 54 10000 5.7 350 18:18 30.07.2019
4431 Clouds 15 1012 50 10000 5.7 340 17:41 30.07.2019
4432 Clear 15 1012 50 10000 6.2 340 17:19 30.07.2019
4433 Clear 15 1012 50 10000 6.2 340 17:19 30.07.2019
4434 Clouds 15 1013 54 10000 5.7 350 16:51 30.07.2019
4435 Clouds 15 1013 50 10000 5.7 360 16:21 30.07.2019
4436 Clouds 15 1013 50 10000 5.1 360 15:58 30.07.2019
4437 Clouds 15 1013 50 10000 6.2 360 15:37 30.07.2019
4438 Clouds 15 1013 50 10000 6.2 360 15:18 30.07.2019
4439 Clouds 15 1013 54 10000 6.7 360 14:42 30.07.2019
4440 Clouds 16 1013 44 10000 7.7 360 14:20 30.07.2019
4441 Clouds 16 1012 26 0 1.79 12 13:47 30.07.2019
4442 Clouds 16 1013 47 10000 6.2 350 13:29 30.07.2019
4443 Clouds 16 1012 51 0 4.24 28.099 12:59 30.07.2019
4444 Clouds 16 1013 54 10000 8.2 350 12:59 30.07.2019
4445 Clouds 16 1013 54 10000 8.2 350 12:39 30.07.2019
4446 Clouds 16 1013 50 10000 5.7 350 12:21 30.07.2019
4447 Clouds 15 1013 47 10000 6.2 10 11:40 30.07.2019
4448 Clouds 15 1013 47 10000 6.2 10 11:20 30.07.2019
4449 Clouds 15 1013 50 10000 5.1 20 10:46 30.07.2019
4450 Clouds 15 1013 50 10000 5.1 20 10:27 30.07.2019
4451 Clouds 14 1013 58 10000 5.1 10 09:50 30.07.2019
4452 Clouds 14 1013 54 10000 5.1 20 09:32 30.07.2019
4453 Clouds 14 1013 58 10000 5.1 10 08:58 30.07.2019
4454 Clouds 13 1013 62 10000 4.6 40 08:31 30.07.2019
4455 Rain 12 1013 62 10000 6.2 40 07:48 30.07.2019
4456 Rain 12 1013 66 10000 5.1 30 07:29 30.07.2019
4457 Rain 11 1013 71 10000 4.1 20 06:48 30.07.2019
4458 Rain 11 1013 71 10000 4.1 20 06:22 30.07.2019
4459 Rain 12 1013 71 10000 3.1 60 05:33 30.07.2019
4460 Clouds 13 1012 62 10000 4.1 50 03:28 30.07.2019
4461 Clear 14 1011 62 10000 4.6 40 01:20 30.07.2019
4462 Clear 15 1011 67 10000 3.6 40 00:21 30.07.2019
4463 Clear 15 1011 67 10000 3.6 50 23:46 29.07.2019
4464 Clouds 15 1010 82 10000 1.5 10 23:27 29.07.2019
4465 Clouds 16 1010 77 10000 1.5 330 22:58 29.07.2019
4466 Clouds 16 1010 77 10000 1.5 330 22:39 29.07.2019
4467 Clouds 16 1010 77 10000 1 0 22:20 29.07.2019
4468 Clouds 16 1010 77 10000 0.5 0 21:57 29.07.2019
4469 Clouds 17 1010 72 10000 1 0 21:38 29.07.2019
4470 Clouds 17 1010 72 10000 1 0 21:20 29.07.2019
4471 Clouds 17 1010 72 10000 1 0 21:20 29.07.2019
4472 Clouds 17 1010 72 10000 2.1 80 20:48 29.07.2019
4473 Clouds 18 1010 63 10000 1.5 0 20:25 29.07.2019
4474 Clouds 18 1011 63 10000 1.5 140 19:57 29.07.2019
4475 Clouds 18 1011 63 10000 3.1 190 19:37 29.07.2019
4476 Clouds 18 1011 63 10000 3.1 190 19:19 29.07.2019
4477 Clouds 19 1011 63 10000 4.6 180 18:42 29.07.2019
4478 Clouds 19 1011 63 10000 4.6 180 18:22 29.07.2019
4479 Clouds 19 1011 63 10000 4.6 180 18:22 29.07.2019
4480 Clouds 19 1011 63 10000 4.1 190 17:52 29.07.2019
4481 Clouds 20 1011 59 10000 5.1 190 17:34 29.07.2019
4482 Clouds 20 1011 59 10000 3.1 0 16:59 29.07.2019
4483 Clouds 21 1011 59 10000 3.1 0 16:40 29.07.2019
4484 Clouds 21 1011 52 10000 2.6 210 16:22 29.07.2019
4485 Clouds 21 1011 56 10000 2.6 230 15:51 29.07.2019
4486 Clouds 21 1012 56 10000 3.6 220 15:32 29.07.2019
4487 Clouds 21 1012 52 10000 2.6 170 14:56 29.07.2019
4488 Clouds 21 1012 59 10000 2.1 170 14:37 29.07.2019
4489 Clouds 21 1012 59 10000 2.1 170 14:18 29.07.2019
4490 Clouds 21 1012 52 10000 2.1 120 13:41 29.07.2019
4491 Clouds 21 1012 48 10000 1.5 0 13:23 29.07.2019
4492 Clouds 20 1013 49 10000 2.1 0 12:42 29.07.2019
4493 Clouds 20 1013 48 10000 1.5 0 12:22 29.07.2019
4494 Clouds 20 1013 48 10000 1 0 11:43 29.07.2019
4495 Clouds 20 1014 55 10000 1 0 11:22 29.07.2019
4496 Clouds 19 1014 52 10000 1 0 10:45 29.07.2019
4497 Clouds 19 1014 59 10000 1.5 320 10:24 29.07.2019
4498 Clouds 18 1014 63 10000 1 0 09:46 29.07.2019
4499 Clouds 18 1014 59 10000 1 0 09:28 29.07.2019
4500 Clouds 18 1014 59 10000 2.1 90 08:57 29.07.2019
4501 Clouds 18 1014 67 10000 2.6 70 08:31 29.07.2019
4502 Clouds 17 1014 67 10000 2.1 70 07:58 29.07.2019
4503 Clouds 17 1014 67 10000 2.1 70 07:36 29.07.2019
4504 Clouds 16 1014 77 10000 3.1 60 06:45 29.07.2019
4505 Clouds 15 1015 87 10000 2.6 50 05:43 29.07.2019
4506 Clouds 14 1015 87 10000 2.6 50 04:49 29.07.2019
4507 Clouds 17 1014 82 10000 2.6 70 01:59 29.07.2019
4508 Clouds 17 1014 82 10000 3.1 60 01:41 29.07.2019
4509 Clouds 17 1014 82 10000 3.1 60 01:21 29.07.2019
4510 Clouds 18 1014 77 10000 3.1 80 00:41 29.07.2019
4511 Clouds 18 1014 77 10000 3.1 90 00:18 29.07.2019
4512 Clouds 19 1014 82 10000 3.1 80 23:40 28.07.2019
4513 Clear 19 1014 77 10000 2.6 80 23:18 28.07.2019
4514 Clear 19 1014 77 10000 3.6 100 22:37 28.07.2019
4515 Clear 20 1014 77 10000 3.6 100 22:18 28.07.2019
4516 Clear 20 1013 72 10000 4.1 110 21:43 28.07.2019
4517 Clear 21 1013 77 10000 4.6 100 21:18 28.07.2019
4518 Clear 21 1013 73 10000 5.1 110 20:44 28.07.2019
4519 Clouds 21 1013 73 10000 6.2 100 20:26 28.07.2019
4520 Clouds 23 1012 73 10000 6.2 110 19:42 28.07.2019
4521 Clouds 23 1012 73 10000 6.2 110 19:22 28.07.2019
4522 Clouds 24 1012 73 10000 7.2 120 18:50 28.07.2019
4523 Clear 27 1012 73 10000 6.7 110 18:29 28.07.2019
4524 Clouds 29 1011 69 10000 8.7 120 17:58 28.07.2019
4525 Clouds 30 1011 69 10000 8.7 120 17:40 28.07.2019
4526 Clouds 30 1011 40 10000 6.7 20 17:20 28.07.2019
4527 Clouds 31 1011 38 10000 4.1 10 16:46 28.07.2019
4528 Clear 31 1011 35 10000 4.6 40 16:27 28.07.2019
4529 Clear 31 1011 35 10000 4.1 360 15:56 28.07.2019
4530 Clear 32 1011 35 10000 5.1 360 15:38 28.07.2019
4531 Clear 32 1011 35 10000 5.1 360 15:20 28.07.2019
4532 Clear 31 1012 38 10000 5.1 330 14:37 28.07.2019
4533 Clear 32 1012 40 10000 5.7 360 14:18 28.07.2019
4534 Clear 31 1012 38 10000 5.1 10 13:41 28.07.2019
4535 Clear 32 1012 33 10000 5.7 350 13:21 28.07.2019
4536 Clear 32 1012 38 10000 5.7 340 12:58 28.07.2019
4537 Clear 31 1012 38 10000 5.1 350 12:39 28.07.2019
4538 Clear 31 1012 38 10000 5.1 350 12:19 28.07.2019
4539 Clear 31 1012 43 10000 5.7 350 11:44 28.07.2019
4540 Clear 31 1013 40 10000 4.1 320 11:26 28.07.2019
4541 Clear 31 1013 45 10000 4.1 340 10:39 28.07.2019
4542 Clear 31 1013 45 10000 4.1 340 10:39 28.07.2019
4543 Clear 31 1013 48 10000 4.1 340 10:20 28.07.2019
4544 Clear 29 1013 54 10000 3.1 320 09:41 28.07.2019
4545 Clear 29 1013 57 10000 3.6 340 09:23 28.07.2019
4546 Clear 27 1013 61 10000 2.1 330 08:46 28.07.2019
4547 Clear 26 1013 61 10000 1.5 320 08:28 28.07.2019
4548 Clear 25 1014 61 10000 2.1 330 07:51 28.07.2019
4549 Clear 24 1014 64 10000 2.1 340 07:32 28.07.2019
4550 Clear 21 1014 73 10000 1.5 300 06:38 28.07.2019
4551 Clear 19 1014 72 10000 1.5 310 05:23 28.07.2019
4552 Clear 19 1015 82 10000 1 0 03:21 28.07.2019
4553 Clear 19 1015 82 10000 1.5 330 02:19 28.07.2019
4554 Clear 18 1015 82 10000 1.5 320 01:18 28.07.2019
4555 Clear 19 1016 82 10000 1.5 320 00:44 28.07.2019
4556 Clear 20 1016 82 10000 1 320 23:56 27.07.2019
4557 Clear 20 1016 82 10000 1 320 23:38 27.07.2019
4558 Clear 20 1016 82 10000 1 0 23:18 27.07.2019
4559 Clear 21 1016 73 10000 1 250 22:40 27.07.2019
4560 Clear 21 1016 73 10000 1 300 22:18 27.07.2019
4561 Clear 21 1016 77 10000 1 0 21:39 27.07.2019
4562 Clear 24 1016 60 10000 1.5 270 21:19 27.07.2019
4563 Clear 25 1016 50 10000 2.1 230 20:50 27.07.2019
4564 Clear 26 1016 47 10000 3.1 220 20:23 27.07.2019
4565 Clear 27 1016 45 10000 3.1 200 19:43 27.07.2019
4566 Clear 28 1016 45 10000 3.1 210 19:25 27.07.2019
4567 Clear 28 1016 45 10000 3.1 210 19:25 27.07.2019
4568 Clear 29 1016 42 10000 3.6 210 18:50 27.07.2019
4569 Clear 28 1017 42 10000 3.6 210 18:32 27.07.2019
4570 Clear 29 1017 42 10000 3.1 200 17:52 27.07.2019
4571 Clear 29 1017 42 10000 3.6 190 17:33 27.07.2019
4572 Clear 30 1017 42 10000 4.1 180 16:58 27.07.2019
4573 Clear 30 1017 42 10000 4.1 180 16:39 27.07.2019
4574 Clear 30 1018 40 10000 2.1 210 16:19 27.07.2019
4575 Clear 30 1018 35 10000 2.1 70 15:44 27.07.2019
4576 Clear 30 1018 38 10000 1 0 15:19 27.07.2019
4577 Clear 30 1019 38 10000 3.6 0 14:48 27.07.2019
4578 Clear 30 1019 42 10000 2.6 0 14:29 27.07.2019
4579 Clear 30 1019 40 10000 4.1 70 13:52 27.07.2019
4580 Clear 30 1019 37 10000 2.1 0 13:25 27.07.2019
4581 Clear 30 1020 42 10000 3.6 50 12:56 27.07.2019
4582 Clear 30 1020 42 10000 4.1 50 12:37 27.07.2019
4583 Clear 29 1020 42 10000 4.1 50 12:19 27.07.2019
4584 Clouds 29 1020 45 10000 4.6 60 11:40 27.07.2019
4585 Clouds 29 1021 48 10000 4.1 40 11:21 27.07.2019
4586 Clouds 29 1021 48 10000 4.1 60 10:41 27.07.2019
4587 Clouds 29 1021 51 10000 4.1 50 10:22 27.07.2019
4588 Clear 28 1021 54 10000 4.1 40 09:41 27.07.2019
4589 Clear 26 1021 51 10000 2.1 40 09:23 27.07.2019
4590 Clear 26 1021 57 10000 2.1 40 08:50 27.07.2019
4591 Clear 25 1021 61 10000 2.6 10 08:31 27.07.2019
4592 Clear 25 1021 64 10000 1.5 30 07:56 27.07.2019
4593 Clear 22 1021 69 10000 1.5 360 07:33 27.07.2019
4594 Clear 22 1021 68 10000 1.5 10 06:57 27.07.2019
4595 Clear 19 1021 72 10000 1 0 06:32 27.07.2019
4596 Clear 19 1021 82 10000 0.5 0 05:54 27.07.2019
4597 Clear 17 1021 87 10000 1 330 05:32 27.07.2019
4598 Clear 18 1021 77 10000 1 0 04:35 27.07.2019
4599 Clear 18 1021 77 10000 1.5 30 03:29 27.07.2019
4600 Clear 18 1022 77 10000 1 0 02:41 27.07.2019
4601 Clear 17 1022 88 10000 1 0 01:49 27.07.2019
4602 Clear 17 1022 88 10000 1 0 01:21 27.07.2019
4603 Clear 18 1022 88 10000 1 350 00:33 27.07.2019
4604 Clear 19 1022 82 10000 1 40 23:58 26.07.2019
4605 Clear 19 1021 88 10000 1.5 20 23:37 26.07.2019
4606 Clear 19 1021 88 10000 1.5 20 23:18 26.07.2019
4607 Clear 19 1021 88 10000 2.1 40 22:41 26.07.2019
4608 Clear 20 1021 82 10000 1.5 20 22:23 26.07.2019
4609 Clear 21 1021 82 10000 0.5 0 21:49 26.07.2019
4610 Clear 22 1021 73 10000 1 0 21:20 26.07.2019
4611 Clear 23 1022 64 10000 1 0 20:43 26.07.2019
4612 Clear 24 1021 54 10000 2.1 90 20:25 26.07.2019
4613 Clear 25 1021 54 10000 3.1 90 19:44 26.07.2019
4614 Clear 26 1021 54 10000 3.6 110 19:25 26.07.2019
4615 Clear 26 1021 51 10000 4.1 110 18:58 26.07.2019
4616 Clear 26 1021 51 10000 4.1 110 18:38 26.07.2019
4617 Clouds 26 1021 51 10000 4.1 100 18:38 26.07.2019
4618 Clouds 26 1021 51 10000 4.1 100 18:19 26.07.2019
4619 Clouds 26 1022 51 10000 5.1 120 17:46 26.07.2019
4620 Clouds 26 1022 51 10000 4.6 110 17:19 26.07.2019
4621 Clouds 26 1022 51 10000 4.1 90 16:57 26.07.2019
4622 Clouds 26 1022 51 10000 4.1 90 16:39 26.07.2019
4623 Clouds 26 1022 51 10000 5.1 90 16:20 26.07.2019
4624 Clouds 26 1022 50 10000 5.7 110 15:56 26.07.2019
4625 Clouds 26 1022 50 10000 5.7 110 15:56 26.07.2019
4626 Clouds 26 1022 50 10000 5.7 110 15:38 26.07.2019
4627 Clouds 26 1022 50 10000 4.6 110 15:19 26.07.2019
4628 Clouds 26 1022 54 10000 4.6 100 14:43 26.07.2019
4629 Clouds 27 1022 50 10000 6.7 110 14:22 26.07.2019
4630 Clouds 26 1022 54 10000 5.7 70 13:44 26.07.2019
4631 Clouds 26 1022 54 10000 5.1 60 13:26 26.07.2019
4632 Clouds 26 1022 54 10000 5.1 60 12:49 26.07.2019
4633 Clouds 25 1022 54 10000 5.7 90 12:22 26.07.2019
4634 Clouds 25 1022 57 10000 5.1 90 11:48 26.07.2019
4635 Clouds 25 1022 61 10000 5.1 90 11:22 26.07.2019
4636 Clouds 24 1022 60 10000 4.6 110 10:58 26.07.2019
4637 Clouds 24 1022 64 10000 4.6 70 10:39 26.07.2019
4638 Clouds 24 1022 64 10000 4.6 70 10:39 26.07.2019
4639 Clouds 24 1022 64 10000 4.6 70 10:18 26.07.2019
4640 Clouds 24 1022 69 10000 3.6 50 09:42 26.07.2019
4641 Clouds 23 1022 68 10000 3.6 40 09:24 26.07.2019
4642 Clouds 22 1022 68 10000 3.6 60 08:40 26.07.2019
4643 Clear 22 1022 73 10000 3.6 60 08:20 26.07.2019
4644 Clear 21 1022 73 10000 4.1 60 07:39 26.07.2019
4645 Clear 20 1022 72 10000 3.6 50 07:18 26.07.2019
4646 Clear 16 1021 82 10000 2.1 30 05:44 26.07.2019
4647 Clear 15 1021 93 10000 2.1 30 04:30 26.07.2019
4648 Clear 15 1021 87 10000 2.6 40 03:44 26.07.2019
4649 Clear 16 1020 77 10000 2.1 350 01:45 26.07.2019
4650 Clear 16 1020 87 10000 2.1 320 00:50 26.07.2019
4651 Clear 16 1020 77 10000 1.5 330 00:25 26.07.2019
4652 Clear 17 1020 77 10000 1 0 23:26 25.07.2019
4653 Clear 17 1020 77 10000 1.5 270 22:59 25.07.2019
4654 Clear 18 1020 72 10000 1 240 22:41 25.07.2019
4655 Clear 18 1020 72 10000 1 240 22:21 25.07.2019
4656 Clear 18 1020 72 10000 1 240 22:21 25.07.2019
4657 Clear 19 1020 68 10000 1.5 240 21:47 25.07.2019
4658 Clear 20 1020 53 10000 2.1 220 21:23 25.07.2019
4659 Clear 21 1019 53 10000 2.1 210 20:49 25.07.2019
4660 Clear 22 1019 53 10000 3.1 230 20:31 25.07.2019
4661 Clear 23 1019 47 10000 3.1 200 19:55 25.07.2019
4662 Clear 23 1019 47 10000 3.1 200 19:37 25.07.2019
4663 Clear 24 1019 50 10000 3.6 190 19:19 25.07.2019
4664 Clear 24 1019 50 10000 3.1 200 18:40 25.07.2019
4665 Clear 24 1019 50 10000 3.1 200 18:22 25.07.2019
4666 Clear 24 1019 50 10000 3.1 0 17:48 25.07.2019
4667 Clear 25 1018 50 10000 3.6 170 17:30 25.07.2019
4668 Clear 25 1018 50 10000 3.6 140 16:47 25.07.2019
4669 Clear 25 1018 53 10000 3.6 170 16:29 25.07.2019
4670 Clear 25 1018 50 10000 4.1 140 15:58 25.07.2019
4671 Clear 25 1018 50 10000 4.6 130 15:38 25.07.2019
4672 Clear 25 1018 50 10000 4.6 130 15:19 25.07.2019
4673 Clouds 25 1018 53 10000 4.1 130 14:41 25.07.2019
4674 Clear 25 1019 53 10000 4.1 140 14:22 25.07.2019
4675 Clouds 25 1019 57 10000 5.1 150 13:44 25.07.2019
4676 Clear 25 1018 60 10000 4.1 140 13:26 25.07.2019
4677 Clear 25 1019 44 10000 3.1 30 12:55 25.07.2019
4678 Clouds 26 1018 44 10000 3.6 40 12:28 25.07.2019
4679 Clouds 25 1018 53 10000 3.1 0 11:45 25.07.2019
4680 Clouds 25 1018 56 10000 4.6 60 11:24 25.07.2019
4681 Clouds 26 1018 53 10000 4.1 50 10:55 25.07.2019
4682 Clouds 26 1018 53 10000 4.1 50 10:55 25.07.2019
4683 Clear 25 1018 53 10000 3.6 10 10:36 25.07.2019
4684 Clear 25 1018 53 10000 3.6 10 10:18 25.07.2019
4685 Clear 25 1018 53 10000 3.1 40 09:40 25.07.2019
4686 Clear 22 1018 64 10000 2.6 40 08:59 25.07.2019
4687 Clear 22 1018 64 10000 2.6 40 08:40 25.07.2019
4688 Clear 21 1018 68 10000 3.1 60 07:55 25.07.2019
4689 Clear 20 1018 68 10000 3.1 40 07:30 25.07.2019
4690 Clear 19 1017 72 10000 2.6 10 06:42 25.07.2019
4691 Clear 19 1017 72 10000 2.6 10 06:42 25.07.2019
4692 Clear 16 1017 82 10000 1.5 340 05:37 25.07.2019
4693 Clear 16 1017 82 10000 3.1 330 04:57 25.07.2019
4694 Clear 16 1016 77 10000 3.1 330 04:19 25.07.2019
4695 Clear 18 1016 68 10000 4.6 320 01:31 25.07.2019
4696 Clear 19 1016 68 10000 4.1 310 00:45 25.07.2019
4697 Clear 19 1016 68 10000 4.6 310 00:19 25.07.2019
4698 Clear 19 1016 68 10000 4.6 310 23:44 24.07.2019
4699 Clear 19 1016 68 10000 4.1 290 23:25 24.07.2019
4700 Clear 19 1016 68 10000 3.1 280 22:47 24.07.2019
4701 Clear 19 1016 72 10000 3.1 320 22:25 24.07.2019
4702 Clear 20 1016 68 10000 2.6 320 21:59 24.07.2019
4703 Clear 20 1016 68 10000 2.6 320 21:41 24.07.2019
4704 Clear 22 1016 68 10000 2.6 320 21:20 24.07.2019
4705 Clear 23 1016 53 10000 2.6 330 20:48 24.07.2019
4706 Clear 24 1015 41 10000 3.1 330 20:29 24.07.2019
4707 Clear 25 1015 39 10000 3.6 340 19:59 24.07.2019
4708 Clear 26 1015 39 10000 3.6 340 19:41 24.07.2019
4709 Clear 26 1015 36 10000 4.1 330 19:21 24.07.2019
4710 Clear 27 1015 34 10000 4.1 330 18:45 24.07.2019
4711 Clear 27 1015 34 10000 4.6 340 18:24 24.07.2019
4712 Clear 27 1015 32 10000 3.6 340 17:48 24.07.2019
4713 Clear 28 1015 36 10000 4.1 340 17:24 24.07.2019
4714 Clear 28 1015 32 10000 4.1 10 16:59 24.07.2019
4715 Clear 28 1015 32 10000 4.1 10 16:59 24.07.2019
4716 Clear 28 1015 30 10000 5.1 320 16:39 24.07.2019
4717 Clear 28 1015 30 10000 5.1 320 16:21 24.07.2019
4718 Clear 28 1015 32 10000 3.6 340 15:38 24.07.2019
4719 Clear 28 1016 36 10000 5.1 320 15:20 24.07.2019
4720 Clear 28 1016 34 10000 4.6 340 14:46 24.07.2019
4721 Clear 28 1016 36 10000 4.1 340 14:22 24.07.2019
4722 Clear 27 1016 36 10000 4.6 340 13:41 24.07.2019
4723 Clear 27 1016 36 10000 4.6 330 13:23 24.07.2019
4724 Clear 27 1016 39 10000 4.1 340 12:54 24.07.2019
4725 Clear 27 1016 39 10000 4.1 340 12:35 24.07.2019
4726 Clear 27 1016 47 10000 4.6 310 11:57 24.07.2019
4727 Clouds 27 1016 50 10000 4.6 310 11:37 24.07.2019
4728 Clouds 26 1016 50 10000 4.6 310 11:18 24.07.2019
4729 Clouds 26 1016 50 10000 4.6 310 11:18 24.07.2019
4730 Clouds 25 1016 53 10000 4.1 310 10:41 24.07.2019
4731 Clear 25 1016 57 10000 4.1 320 10:23 24.07.2019
4732 Clear 24 1016 57 10000 3.6 330 09:44 24.07.2019
4733 Clear 24 1016 64 10000 3.6 330 09:23 24.07.2019
4734 Clear 23 1016 68 10000 3.6 310 08:52 24.07.2019
4735 Clear 21 1016 73 10000 3.1 320 08:26 24.07.2019
4736 Clear 21 1016 73 10000 3.1 320 08:26 24.07.2019
4737 Clear 20 1016 72 10000 3.1 320 07:46 24.07.2019
4738 Clear 19 1016 82 10000 3.1 320 07:20 24.07.2019
4739 Clear 17 1016 93 10000 2.1 320 06:28 24.07.2019
4740 Clear 15 1016 93 10000 1.5 290 05:25 24.07.2019
4741 Clear 15 1016 93 10000 2.6 320 01:56 24.07.2019
4742 Clear 16 1016 93 10000 1.5 340 01:22 24.07.2019
4743 Clear 16 1016 82 10000 2.6 330 00:50 24.07.2019
4744 Clear 17 1015 82 10000 3.1 320 23:57 23.07.2019
4745 Clear 17 1015 88 10000 3.1 310 23:37 23.07.2019
4746 Clear 18 1015 88 10000 3.1 310 23:18 23.07.2019
4747 Clear 18 1015 82 10000 3.1 310 22:38 23.07.2019
4748 Clear 19 1015 72 10000 2.6 310 22:19 23.07.2019
4749 Clear 19 1015 72 10000 3.1 290 21:45 23.07.2019
4750 Clear 20 1015 68 10000 3.6 290 21:27 23.07.2019
4751 Clear 21 1015 68 10000 3.1 270 20:49 23.07.2019
4752 Clear 21 1015 68 10000 3.1 280 20:30 23.07.2019
4753 Clear 21 1015 68 10000 2.1 320 19:44 23.07.2019
4754 Clear 21 1015 68 10000 0.5 0 19:24 23.07.2019
4755 Clouds 22 1015 68 10000 3.6 60 18:59 23.07.2019
4756 Rain 21 1015 64 10000 1.5 350 18:40 23.07.2019
4757 Clouds 22 1015 68 10000 3.6 60 18:40 23.07.2019
4758 Rain 22 1015 64 10000 1.5 350 18:20 23.07.2019
4759 Rain 22 1015 68 10000 4.1 360 17:43 23.07.2019
4760 Clouds 23 1015 53 10000 5.1 280 17:22 23.07.2019
4761 Clouds 24 1014 50 10000 6.2 260 16:48 23.07.2019
4762 Clouds 24 1014 39 10000 3.1 230 16:27 23.07.2019
4763 Clouds 25 1014 41 10000 3.1 260 15:52 23.07.2019
4764 Clouds 25 1015 38 10000 3.1 220 15:34 23.07.2019
4765 Clouds 26 1015 36 10000 4.1 200 14:59 23.07.2019
4766 Clouds 26 1015 36 10000 4.1 200 14:37 23.07.2019
4767 Clear 26 1015 36 10000 4.1 190 14:18 23.07.2019
4768 Clear 26 1015 38 10000 3.1 200 13:56 23.07.2019
4769 Clear 26 1015 38 10000 3.1 200 13:37 23.07.2019
4770 Clouds 26 1015 41 10000 1.5 70 13:19 23.07.2019
4771 Clouds 26 1015 41 10000 1 0 12:42 23.07.2019
4772 Clouds 25 1015 41 10000 1.5 330 12:22 23.07.2019
4773 Clouds 26 1015 41 10000 1.5 0 11:41 23.07.2019
4774 Clouds 25 1015 41 10000 1.5 0 11:22 23.07.2019
4775 Clouds 25 1015 47 10000 1 0 10:51 23.07.2019
4776 Clouds 25 1015 50 10000 1.5 140 10:23 23.07.2019
4777 Clear 24 1015 60 10000 1 0 09:43 23.07.2019
4778 Clear 23 1015 68 10000 0.5 0 09:22 23.07.2019
4779 Clear 22 1015 77 10000 1 0 08:56 23.07.2019
4780 Clear 21 1015 77 10000 1 0 08:38 23.07.2019
4781 Clear 20 1015 77 10000 1 0 08:18 23.07.2019
4782 Clear 20 1015 77 10000 1.5 360 07:39 23.07.2019
4783 Clear 18 1015 82 10000 1.5 340 06:58 23.07.2019
4784 Clear 17 1015 88 10000 2.6 340 06:36 23.07.2019
4785 Clear 16 1015 93 10000 1.5 340 04:28 23.07.2019
4786 Clear 17 1015 88 10000 1 330 01:46 23.07.2019
4787 Clear 17 1015 82 10000 1.5 360 00:47 23.07.2019
4788 Clear 17 1015 82 10000 2.6 330 00:20 23.07.2019
4789 Clear 18 1014 88 10000 1.5 330 23:39 22.07.2019
4790 Clear 18 1014 88 10000 1.5 330 23:20 22.07.2019
4791 Clouds 17 1014 96 0 1.07 237.636 22:46 22.07.2019
4792 Clouds 17 1014 86 0 1.07 237.636 22:46 22.07.2019
4793 Clear 17 1015 82 10000 2.1 290 22:26 22.07.2019
4794 Clear 18 1015 82 10000 2.6 260 21:57 22.07.2019
4795 Rain 19 1015 82 10000 2.1 250 21:39 22.07.2019
4796 Rain 19 1015 82 10000 2.1 250 21:19 22.07.2019
4797 Rain 19 1014 77 10000 1.5 300 20:42 22.07.2019
4798 Clear 20 1014 77 10000 2.1 330 20:22 22.07.2019
4799 Clear 20 1014 77 10000 1.5 320 19:43 22.07.2019
4800 Clear 21 1014 68 10000 1.5 260 19:23 22.07.2019
4801 Clouds 21 1014 73 10000 2.1 250 18:55 22.07.2019
4802 Rain 21 1015 77 10000 2.1 230 18:37 22.07.2019
4803 Rain 21 1015 77 10000 2.1 230 18:19 22.07.2019
4804 Rain 21 1015 73 10000 3.6 200 17:39 22.07.2019
4805 Clouds 22 1015 56 10000 3.6 160 17:20 22.07.2019
4806 Clouds 21 1015 56 10000 2.6 130 16:41 22.07.2019
4807 Clouds 21 1015 56 10000 3.6 130 16:21 22.07.2019
4808 Clouds 22 1015 56 10000 4.6 150 15:55 22.07.2019
4809 Clouds 22 1014 56 10000 3.6 110 15:36 22.07.2019
4810 Clouds 22 1014 56 10000 3.6 110 15:18 22.07.2019
4811 Clouds 22 1015 56 10000 3.1 130 14:41 22.07.2019
4812 Clouds 22 1015 60 10000 2.6 170 14:19 22.07.2019
4813 Clouds 22 1015 60 10000 2.1 0 13:45 22.07.2019
4814 Rain 22 1015 68 10000 3.6 140 13:22 22.07.2019
4815 Rain 22 1015 60 10000 2.6 120 12:44 22.07.2019
4816 Clouds 22 1015 64 10000 3.6 140 12:23 22.07.2019
4817 Clouds 22 1015 68 10000 4.6 150 11:44 22.07.2019
4818 Clouds 23 1015 60 10000 4.1 160 11:20 22.07.2019
4819 Clouds 23 1014 64 10000 3.6 140 10:48 22.07.2019
4820 Clouds 23 1014 64 10000 3.1 130 10:27 22.07.2019
4821 Clear 23 1014 64 10000 4.6 140 09:44 22.07.2019
4822 Clear 22 1014 68 10000 5.1 130 09:24 22.07.2019
4823 Clear 22 1014 68 10000 5.1 130 08:44 22.07.2019
4824 Clear 21 1014 68 10000 3.6 100 08:25 22.07.2019
4825 Clear 20 1014 72 10000 3.6 110 07:55 22.07.2019
4826 Clear 20 1014 72 10000 3.1 90 07:32 22.07.2019
4827 Clear 19 1015 77 10000 2.6 100 06:51 22.07.2019
4828 Clear 15 1015 93 10000 2.6 70 03:57 22.07.2019
4829 Clear 15 1015 93 10000 2.6 70 02:24 22.07.2019
4830 Clear 15 1016 93 10000 2.1 60 00:56 22.07.2019
4831 Clear 15 1016 93 10000 1.5 70 00:25 22.07.2019
4832 Clear 16 1016 93 10000 1.5 80 23:55 21.07.2019
4833 Clear 16 1016 93 10000 1.5 80 23:55 21.07.2019
4834 Clear 16 1016 87 10000 2.1 90 23:28 21.07.2019
4835 Clear 18 1016 82 10000 2.6 100 22:42 21.07.2019
4836 Clear 18 1016 77 10000 2.6 110 22:22 21.07.2019
4837 Clear 19 1016 72 10000 3.6 120 21:57 21.07.2019
4838 Clear 20 1016 64 10000 4.1 130 21:37 21.07.2019
4839 Clear 20 1016 64 10000 4.1 130 21:19 21.07.2019
4840 Clear 21 1015 53 10000 3.6 110 20:44 21.07.2019
4841 Clear 22 1015 41 10000 3.1 120 20:26 21.07.2019
4842 Clear 23 1015 36 10000 3.1 140 19:55 21.07.2019
4843 Clear 24 1016 36 10000 3.1 150 19:36 21.07.2019
4844 Clear 24 1016 36 10000 3.1 150 19:18 21.07.2019
4845 Clear 25 1016 36 10000 3.6 150 18:44 21.07.2019
4846 Clear 25 1016 38 10000 4.6 150 18:25 21.07.2019
4847 Clear 25 1016 38 10000 4.6 150 18:25 21.07.2019
4848 Clear 25 1016 38 10000 4.6 160 17:42 21.07.2019
4849 Clear 25 1016 36 10000 4.6 150 17:20 21.07.2019
4850 Clear 25 1016 36 10000 5.1 170 16:45 21.07.2019
4851 Clear 26 1016 36 10000 5.1 150 16:25 21.07.2019
4852 Clear 26 1016 39 10000 5.7 160 15:57 21.07.2019
4853 Clear 26 1016 38 10000 5.1 170 15:36 21.07.2019
4854 Clear 26 1016 38 10000 5.1 170 15:18 21.07.2019
4855 Clear 26 1016 39 10000 4.1 160 14:41 21.07.2019
4856 Clear 26 1017 39 10000 3.1 0 14:22 21.07.2019
4857 Clear 26 1017 39 10000 4.1 170 13:45 21.07.2019
4858 Clear 26 1017 41 10000 3.1 160 13:27 21.07.2019
4859 Clear 27 1017 39 10000 3.1 170 12:43 21.07.2019
4860 Clear 26 1017 41 10000 2.6 150 12:24 21.07.2019
4861 Clear 25 1017 44 10000 2.6 0 11:47 21.07.2019
4862 Clear 25 1017 41 10000 2.6 90 11:29 21.07.2019
4863 Clear 25 1017 41 10000 1.5 0 10:56 21.07.2019
4864 Clouds 25 1017 44 10000 1.5 0 10:38 21.07.2019
4865 Clouds 25 1017 44 10000 1.5 0 10:19 21.07.2019
4866 Clouds 24 1017 44 10000 1 0 09:37 21.07.2019
4867 Clear 24 1017 50 10000 1 0 09:19 21.07.2019
4868 Clear 23 1017 49 10000 1 0 08:40 21.07.2019
4869 Clear 23 1017 60 10000 1 0 08:22 21.07.2019
4870 Clear 20 1016 60 10000 0.5 0 07:32 21.07.2019
4871 Clear 18 1017 63 10000 1 0 06:42 21.07.2019
4872 Clear 13 1016 93 10000 1 330 04:23 21.07.2019
4873 Clear 14 1016 93 10000 1.5 300 01:57 21.07.2019
4874 Clear 14 1016 93 10000 1 0 00:48 21.07.2019
4875 Clear 15 1016 93 10000 0.5 0 00:22 21.07.2019
4876 Clear 15 1016 87 10000 1 0 23:54 20.07.2019
4877 Clear 15 1016 87 10000 1 0 23:36 20.07.2019
4878 Clear 16 1016 87 10000 0.5 0 23:18 20.07.2019
4879 Clear 16 1016 87 10000 0.5 0 23:18 20.07.2019
4880 Clear 16 1015 82 10000 0.83 150.966 22:41 20.07.2019
4881 Clear 18 1015 82 10000 0.83 150.966 22:19 20.07.2019
4882 Clear 18 1015 72 10000 1 0 21:44 20.07.2019
4883 Clear 21 1015 53 10000 1.5 210 21:24 20.07.2019
4884 Clear 21 1015 56 10000 1.5 220 20:44 20.07.2019
4885 Clear 22 1015 53 10000 2.1 230 20:23 20.07.2019
4886 Clear 23 1015 47 10000 2.6 160 19:52 20.07.2019
4887 Clear 23 1015 47 10000 2.6 160 19:33 20.07.2019
4888 Clear 24 1015 43 10000 2.6 330 18:57 20.07.2019
4889 Clear 24 1014 38 10000 2.6 340 18:38 20.07.2019
4890 Clear 25 1014 38 10000 2.6 340 18:19 20.07.2019
4891 Clear 25 1014 38 10000 2.6 340 17:46 20.07.2019
4892 Clear 25 1014 38 10000 2.1 50 17:20 20.07.2019
4893 Clear 25 1014 41 10000 2.1 0 16:42 20.07.2019
4894 Clear 25 1015 41 10000 3.1 0 16:23 20.07.2019
4895 Clear 25 1014 38 10000 2.6 0 15:43 20.07.2019
4896 Clear 25 1015 41 10000 2.6 320 15:21 20.07.2019
4897 Clear 25 1014 41 10000 4.1 340 14:54 20.07.2019
4898 Clear 25 1014 41 10000 4.1 340 14:36 20.07.2019
4899 Clear 25 1014 44 10000 4.1 330 14:18 20.07.2019
4900 Clear 25 1014 41 10000 3.6 350 13:38 20.07.2019
4901 Clear 25 1014 43 10000 3.1 320 13:19 20.07.2019
4902 Clear 24 1014 43 10000 2.6 0 12:49 20.07.2019
4903 Clear 24 1014 43 10000 3.1 340 12:20 20.07.2019
4904 Clear 24 1014 49 10000 3.1 330 11:49 20.07.2019
4905 Clouds 23 1014 49 10000 4.6 320 11:22 20.07.2019
4906 Clouds 23 1014 49 10000 4.1 340 10:45 20.07.2019
4907 Clouds 22 1013 56 10000 4.1 340 10:26 20.07.2019
4908 Clouds 22 1013 56 10000 4.1 340 09:52 20.07.2019
4909 Clear 21 1013 60 10000 4.1 330 09:27 20.07.2019
4910 Clear 21 1013 63 10000 3.6 340 08:55 20.07.2019
4911 Clear 19 1013 68 10000 3.6 330 08:24 20.07.2019
4912 Clear 19 1013 68 10000 3.6 330 07:48 20.07.2019
4913 -273 0 0 0 0 0 06:47 20.07.2019
4914 Clear 13 1012 82 10000 1.5 300 05:52 20.07.2019
4915 Clear 12 1012 81 10000 1.5 290 04:31 20.07.2019
4916 Clear 13 1012 81 10000 1.5 350 02:33 20.07.2019
4917 Clear 12 1011 81 10000 2.6 350 01:19 20.07.2019
4918 Clear 12 1011 76 10000 2.6 350 00:39 20.07.2019
4919 Clear 13 1011 81 10000 2.6 330 00:18 20.07.2019
4920 Clear 14 1011 81 10000 3.6 330 23:40 19.07.2019
4921 Clear 15 1011 81 10000 3.1 330 23:21 19.07.2019
4922 Clear 15 1010 67 10000 1.5 360 22:43 19.07.2019
4923 Clear 15 1010 67 10000 1.5 360 22:23 19.07.2019
4924 Clear 17 1010 59 10000 2.6 310 21:45 19.07.2019
4925 Clear 19 1010 49 10000 3.1 320 21:26 19.07.2019
4926 Clear 20 1010 40 10000 3.1 330 20:49 19.07.2019
4927 Clear 21 1010 43 10000 3.6 340 20:31 19.07.2019
4928 Clear 22 1010 38 10000 5.1 340 19:48 19.07.2019
4929 Clear 23 1010 40 10000 4.6 330 19:27 19.07.2019
4930 Clear 23 1010 38 10000 5.1 320 18:42 19.07.2019
4931 Clear 23 1010 38 10000 6.2 310 18:22 19.07.2019
4932 Clear 23 1010 40 10000 3.6 330 17:54 19.07.2019
4933 Clear 23 1010 40 10000 4.6 360 17:28 19.07.2019
4934 Clear 24 1010 40 10000 5.1 340 16:49 19.07.2019
4935 Clear 23 1009 40 10000 6.2 340 16:27 19.07.2019
4936 Clear 24 1009 38 10000 4.6 350 15:53 19.07.2019
4937 Clear 24 1009 40 10000 6.2 340 15:31 19.07.2019
4938 Clear 24 1009 38 10000 5.1 340 14:58 19.07.2019
4939 Clear 23 1009 38 10000 5.1 340 14:39 19.07.2019
4940 Clear 24 1009 38 10000 5.7 350 14:21 19.07.2019
4941 Clear 23 1009 40 10000 6.2 340 13:44 19.07.2019
4942 Clear 23 1009 40 10000 6.2 340 13:44 19.07.2019
4943 Clear 23 1009 40 10000 6.2 340 13:44 19.07.2019
4944 Clear 24 1009 40 10000 6.2 340 13:44 19.07.2019
4945 Clear 23 1009 43 10000 7.2 330 13:26 19.07.2019
4946 Clear 23 1009 46 10000 6.7 340 12:55 19.07.2019
4947 Clear 23 1009 46 10000 6.2 350 12:31 19.07.2019
4948 Clear 23 1009 46 10000 6.2 350 12:31 19.07.2019
4949 Clouds 22 1009 49 10000 7.7 350 11:59 19.07.2019
4950 Clouds 22 1009 49 10000 6.2 330 11:41 19.07.2019
4951 Clouds 22 1009 49 10000 6.2 330 11:18 19.07.2019
4952 Clouds 22 1009 52 10000 5.7 350 10:47 19.07.2019
4953 Clouds 22 1010 56 10000 6.2 330 10:22 19.07.2019
4954 Clouds 21 1009 60 10000 6.2 340 09:57 19.07.2019
4955 Clouds 21 1009 64 10000 6.2 330 09:39 19.07.2019
4956 Clouds 20 1009 64 10000 6.2 330 09:21 19.07.2019
4957 Clear 19 1009 63 10000 6.2 330 08:47 19.07.2019
4958 Clear 18 1010 72 10000 5.7 330 07:53 19.07.2019
4959 Clear 18 1010 72 10000 5.7 330 07:53 19.07.2019
4960 Clear 17 1010 72 10000 4.6 340 07:29 19.07.2019
4961 Clear 14 1010 76 10000 4.1 330 05:55 19.07.2019
4962 Clear 13 1010 71 10000 4.1 340 02:23 19.07.2019
4963 Clear 14 1010 71 10000 3.6 340 01:18 19.07.2019
4964 Clear 14 1009 62 10000 4.1 330 00:35 19.07.2019
4965 Clear 15 1009 62 10000 4.1 320 23:44 18.07.2019
4966 Clear 15 1009 62 10000 4.1 320 23:24 18.07.2019
4967 Clear 15 1009 67 10000 4.1 320 22:59 18.07.2019
4968 Clear 15 1009 67 10000 4.1 320 22:59 18.07.2019
4969 Clear 15 1009 67 10000 4.1 320 22:39 18.07.2019
4970 Clear 16 1009 63 10000 3.6 320 22:18 18.07.2019
4971 Clear 17 1009 63 10000 3.1 320 21:43 18.07.2019
4972 Clear 18 1009 55 10000 3.1 330 21:24 18.07.2019
4973 Clear 18 1009 55 10000 3.1 330 21:24 18.07.2019
4974 Clear 20 1009 49 10000 3.6 340 20:49 18.07.2019
4975 Clear 20 1009 49 10000 3.6 350 20:29 18.07.2019
4976 Clear 21 1009 49 10000 3.6 350 20:29 18.07.2019
4977 Clear 21 1009 43 10000 4.6 360 19:53 18.07.2019
4978 Clear 22 1009 43 10000 4.6 360 19:32 18.07.2019
4979 Clear 22 1009 43 10000 4.6 360 18:58 18.07.2019
4980 Clear 23 1009 40 10000 5.7 10 18:38 18.07.2019
4981 Clear 23 1009 40 10000 5.7 10 18:19 18.07.2019
4982 Clear 23 1009 46 10000 5.1 10 17:42 18.07.2019
4983 Clear 23 1009 40 10000 5.7 360 17:42 18.07.2019
4984 Clear 23 1009 46 10000 5.1 10 17:24 18.07.2019
4985 Clear 23 1009 40 10000 6.2 350 16:55 18.07.2019
4986 Clear 24 1009 40 10000 6.2 340 16:29 18.07.2019
4987 Clear 23 1009 40 10000 4.6 340 15:58 18.07.2019
4988 Clear 24 1009 46 10000 5.1 340 15:39 18.07.2019
4989 Clear 23 1009 46 10000 5.1 340 15:21 18.07.2019
4990 Clear 23 1009 43 10000 6.7 340 14:43 18.07.2019
4991 Clear 23 1009 46 10000 6.2 340 14:25 18.07.2019
4992 Clouds 23 1009 49 10000 5.7 340 13:46 18.07.2019
4993 Clouds 23 1009 49 10000 5.7 340 13:22 18.07.2019
4994 Clouds 23 1010 49 10000 4.6 350 12:49 18.07.2019
4995 Clouds 22 1010 49 10000 4.6 350 12:21 18.07.2019
4996 Clouds 22 1010 49 10000 4.6 350 12:21 18.07.2019
4997 Clouds 22 1010 52 10000 4.6 330 11:56 18.07.2019
4998 Clouds 22 1010 56 10000 4.1 330 11:38 18.07.2019
4999 Clouds 22 1010 56 10000 4.1 330 11:19 18.07.2019
5000 Clouds 21 1010 60 10000 4.6 10 10:41 18.07.2019
5001 Clouds 20 1010 68 10000 4.1 360 09:49 18.07.2019
5002 Clear 20 1010 68 10000 4.1 360 09:26 18.07.2019
5003 Clear 19 1010 68 10000 4.1 360 08:51 18.07.2019
5004 Clear 18 1010 77 10000 3.6 360 08:22 18.07.2019
5005 Clear 16 1010 82 10000 4.1 330 07:54 18.07.2019
5006 Clear 16 1010 87 10000 4.1 340 07:34 18.07.2019
5007 Clear 14 1010 87 10000 3.1 340 06:43 18.07.2019
5008 Clear 12 1010 93 10000 2.6 350 05:57 18.07.2019
5009 Fog 11 1010 100 10000 1.5 320 03:24 18.07.2019
5010 Clear 12 1010 93 10000 1.5 290 01:52 18.07.2019
5011 Clear 12 1010 87 10000 0.5 0 01:32 18.07.2019
5012 Clear 13 1010 87 10000 2.1 350 23:57 17.07.2019
5013 Clear 14 1010 87 10000 2.1 350 23:21 17.07.2019
5014 Clear 14 1010 82 10000 2.6 340 22:58 17.07.2019
5015 Clear 14 1010 93 10000 3.1 340 22:40 17.07.2019
5016 Clear 14 1010 93 10000 3.1 340 22:20 17.07.2019
5017 Clear 15 1010 93 10000 4.1 340 21:45 17.07.2019
5018 Clear 16 1010 82 10000 2.1 330 21:27 17.07.2019
5019 Clear 16 1010 82 10000 1.5 340 20:58 17.07.2019
5020 Clear 17 1010 77 10000 1.5 320 20:40 17.07.2019
5021 Clear 17 1010 77 10000 1.5 320 20:21 17.07.2019
5022 Clear 18 1010 72 10000 1.5 330 19:56 17.07.2019
5023 Clouds 18 1010 63 10000 1.5 10 19:37 17.07.2019
5024 Clouds 19 1010 63 10000 1.5 10 19:18 17.07.2019
5025 Clouds 18 1010 82 10000 2.1 330 18:41 17.07.2019
5026 Clouds 19 1010 82 10000 2.1 330 18:20 17.07.2019
5027 Rain 19 1010 72 10000 2.6 340 17:50 17.07.2019
5028 Rain 19 1010 72 10000 2.6 340 17:27 17.07.2019
5029 Rain 19 1010 72 10000 3.1 340 16:55 17.07.2019
5030 Rain 18 1010 82 10000 2.6 330 16:37 17.07.2019
5031 Rain 18 1010 82 10000 4.6 330 16:18 17.07.2019
5032 Rain 19 1009 49 10000 2.6 120 15:47 17.07.2019
5033 Rain 20 1009 49 10000 2.6 120 15:25 17.07.2019
5034 Rain 21 1009 49 10000 4.6 150 14:54 17.07.2019
5035 Rain 21 1009 49 10000 4.6 150 14:36 17.07.2019
5036 Clouds 22 1009 43 10000 6.2 120 14:18 17.07.2019
5037 Rain 22 1009 46 10000 3.1 110 13:41 17.07.2019
5038 Rain 21 1009 46 10000 3.1 110 13:20 17.07.2019
5039 Clouds 22 1009 49 10000 3.1 60 12:40 17.07.2019
5040 Clouds 22 1009 49 10000 3.6 60 12:21 17.07.2019
5041 Clouds 22 1009 49 10000 4.1 50 11:45 17.07.2019
5042 Clouds 22 1009 52 10000 4.1 40 11:21 17.07.2019
5043 Clear 22 1009 52 10000 4.1 40 10:51 17.07.2019
5044 Clear 21 1009 52 10000 4.1 40 10:30 17.07.2019
5045 Clear 20 1009 59 10000 3.1 50 09:58 17.07.2019
5046 Clear 20 1009 59 10000 2.6 30 09:40 17.07.2019
5047 Clear 19 1009 63 10000 3.1 20 09:20 17.07.2019
5048 Clear 18 1009 67 10000 2.1 20 08:42 17.07.2019
5049 Clear 17 1009 72 10000 3.1 30 08:22 17.07.2019
5050 Clear 16 1009 72 10000 3.6 50 07:48 17.07.2019
5051 Clear 15 1009 72 10000 3.6 50 07:23 17.07.2019
5052 Clear 14 1009 82 10000 3.1 40 06:54 17.07.2019
5053 Clear 14 1009 82 10000 3.1 40 06:29 17.07.2019
5054 Clear 13 1009 87 10000 3.6 40 05:48 17.07.2019
5055 Clear 12 1009 87 10000 3.6 40 05:28 17.07.2019
5056 Clear 11 1009 87 10000 3.1 30 04:37 17.07.2019
5057 Clear 11 1009 87 10000 3.6 30 02:56 17.07.2019
5058 Clear 12 1009 87 10000 3.1 30 01:59 17.07.2019
5059 Clear 12 1009 87 10000 3.1 30 01:25 17.07.2019
5060 Clear 12 1009 87 10000 2.6 20 00:48 17.07.2019
5061 Clear 13 1009 87 10000 2.6 20 00:24 17.07.2019
5062 Clear 13 1009 93 10000 2.1 20 23:58 16.07.2019
5063 Clear 12 1009 93 10000 2.1 360 23:31 16.07.2019
5064 Clear 13 1009 93 10000 2.1 350 22:59 16.07.2019
5065 Clear 13 1009 100 10000 1.5 350 22:40 16.07.2019
5066 Clear 13 1009 93 10000 2.1 340 22:20 16.07.2019
5067 Clear 14 1009 93 10000 1 10 21:45 16.07.2019
5068 Clear 15 1009 93 10000 2.1 360 21:21 16.07.2019
5069 Clear 15 1009 82 10000 1 0 20:58 16.07.2019
5070 Clear 16 1009 82 10000 1 0 20:39 16.07.2019
5071 Clear 16 1009 82 10000 2.1 80 20:20 16.07.2019
5072 Clear 16 1008 77 10000 2.1 120 19:50 16.07.2019
5073 Clear 16 1008 82 10000 2.6 100 19:27 16.07.2019
5074 Clear 17 1008 82 10000 2.6 100 18:56 16.07.2019
5075 Clear 17 1008 82 10000 3.1 100 18:37 16.07.2019
5076 Rain 16 1008 82 10000 3.1 0 18:19 16.07.2019
5077 Rain 16 1008 87 10000 2.6 90 17:40 16.07.2019
5078 Rain 16 1008 82 10000 4.6 120 17:20 16.07.2019
5079 Rain 16 1008 82 10000 4.6 130 16:43 16.07.2019
5080 Rain 15 1008 87 10000 5.7 150 16:21 16.07.2019
5081 Rain 17 1007 87 4500 11.8 130 15:42 16.07.2019
5082 Rain 17 1007 87 4500 11.8 130 15:21 16.07.2019
5083 Rain 19 1007 60 10000 6.2 110 14:59 16.07.2019
5084 Rain 19 1007 56 10000 7.2 110 14:41 16.07.2019
5085 Rain 19 1007 56 10000 7.2 110 14:23 16.07.2019
5086 Clouds 20 1007 68 10000 5.7 100 13:45 16.07.2019
5087 Rain 19 1006 82 10000 5.1 90 13:26 16.07.2019
5088 Rain 19 1006 82 10000 5.1 90 12:55 16.07.2019
5089 Rain 18 1007 82 10000 4.6 90 12:37 16.07.2019
5090 Rain 17 1007 87 10000 4.1 90 12:19 16.07.2019
5091 Rain 16 1007 93 10000 5.1 80 11:43 16.07.2019
5092 Rain 16 1007 87 10000 3.6 100 11:23 16.07.2019
5093 Rain 16 1007 87 10000 3.6 100 10:56 16.07.2019
5094 Rain 16 1007 82 10000 3.6 100 10:37 16.07.2019
5095 Rain 16 1006 93 10000 3.6 100 10:18 16.07.2019
5096 Rain 16 1006 93 10000 3.6 100 10:18 16.07.2019
5097 Rain 16 1006 93 10000 3.6 100 10:18 16.07.2019
5098 Rain 16 1006 77 10000 4.1 100 09:42 16.07.2019
5099 Rain 16 1006 87 10000 4.6 110 09:19 16.07.2019
5100 Rain 15 1006 82 10000 5.1 120 08:46 16.07.2019
5101 Rain 15 1006 82 10000 4.6 140 08:22 16.07.2019
5102 Rain 15 1006 82 10000 4.6 140 08:22 16.07.2019
5103 Rain 15 1006 82 10000 5.7 140 07:49 16.07.2019
5104 Rain 15 1006 82 10000 5.7 140 07:31 16.07.2019
5105 Rain 14 1006 87 10000 5.1 150 06:53 16.07.2019
5106 Rain 14 1006 87 10000 5.1 150 06:31 16.07.2019
5107 Clouds 14 1006 87 10000 3.1 120 05:42 16.07.2019
5108 Clouds 14 1006 87 10000 2.6 110 05:24 16.07.2019
5109 Clear 14 1006 87 10000 3.1 130 04:23 16.07.2019
5110 Clear 14 1006 87 10000 4.1 130 03:28 16.07.2019
5111 Clouds 14 1006 87 10000 3.1 110 02:31 16.07.2019
5112 Clouds 14 1006 82 10000 3.6 120 01:49 16.07.2019
5113 Clouds 14 1007 82 10000 3.1 120 00:49 16.07.2019
5114 Clouds 14 1007 82 10000 3.1 120 00:22 16.07.2019
5115 Rain 15 1007 77 10000 2.6 120 23:53 15.07.2019
5116 Rain 15 1007 77 10000 2.6 120 23:34 15.07.2019
5117 Clouds 15 1007 82 10000 3.1 110 22:55 15.07.2019
5118 Clouds 15 1007 82 10000 3.1 110 22:36 15.07.2019
5119 Rain 15 1007 67 10000 3.1 110 22:18 15.07.2019
5120 Rain 15 1007 67 10000 3.1 110 22:18 15.07.2019
5121 Rain 15 1007 59 10000 3.6 130 21:42 15.07.2019
5122 Clear 16 1007 59 10000 3.6 130 21:20 15.07.2019
5123 Clear 16 1008 55 10000 4.6 160 20:57 15.07.2019
5124 Clear 16 1008 55 10000 4.6 160 20:39 15.07.2019
5125 Clear 16 1008 55 10000 4.6 160 20:21 15.07.2019
5126 Clear 17 1008 52 10000 5.7 160 19:43 15.07.2019
5127 Rain 18 1003 59 0 2.22 118.751 19:22 15.07.2019
5128 Clear 18 1008 39 10000 4.6 170 18:57 15.07.2019
5129 Clear 19 1008 42 10000 4.6 190 18:37 15.07.2019
5130 Clear 20 1008 42 10000 4.6 180 18:18 15.07.2019
5131 Clear 20 1008 42 10000 4.6 180 18:18 15.07.2019
5132 Clear 20 1008 42 10000 4.6 180 18:18 15.07.2019
5133 Clear 19 1008 52 10000 4.6 150 17:44 15.07.2019
5134 Clear 20 1008 52 10000 4.6 150 17:26 15.07.2019
5135 Clouds 19 1009 55 10000 4.6 140 16:59 15.07.2019
5136 Clouds 19 1009 55 10000 3.1 160 16:38 15.07.2019
5137 Rain 19 1009 63 10000 3.1 190 16:20 15.07.2019
5138 -273 0 0 0 0 0 16:20 15.07.2019
5139 Rain 19 1009 59 10000 4.6 170 15:55 15.07.2019
5140 Rain 19 1009 59 10000 4.6 170 15:36 15.07.2019
5141 Rain 19 1009 48 10000 5.1 180 15:18 15.07.2019
5142 Rain 19 1009 55 10000 4.6 200 14:41 15.07.2019
5143 Rain 19 1009 55 10000 4.6 200 14:23 15.07.2019
5144 Clouds 20 1009 55 10000 4.6 160 13:50 15.07.2019
5145 Clouds 20 1009 55 10000 4.6 160 13:50 15.07.2019
5146 Clouds 20 1009 48 10000 4.6 190 13:22 15.07.2019
5147 Clouds 19 1009 48 10000 4.6 190 12:58 15.07.2019
5148 Clouds 19 1009 59 10000 5.1 180 12:39 15.07.2019
5149 Clouds 20 1009 55 10000 4.1 180 12:20 15.07.2019
5150 Clouds 20 1009 59 10000 4.6 150 11:41 15.07.2019
5151 Clouds 20 1009 59 10000 4.6 150 11:41 15.07.2019
5152 Clouds 20 1009 59 10000 4.6 150 11:22 15.07.2019
5153 Clouds 20 1009 55 10000 2.1 140 10:45 15.07.2019
5154 Clouds 20 1009 55 10000 2.1 140 10:25 15.07.2019
5155 Clouds 20 1010 63 10000 2.1 190 09:44 15.07.2019
5156 Clouds 18 1010 63 10000 2.1 190 09:25 15.07.2019
5157 Clear 17 1010 77 10000 1.5 150 08:49 15.07.2019
5158 Clear 17 1010 77 10000 1.5 150 08:27 15.07.2019
5159 Clear 16 1010 87 10000 1 0 07:57 15.07.2019
5160 Clouds 16 1010 87 10000 1.5 150 07:36 15.07.2019
5161 Clear 14 1010 87 10000 2.1 120 06:50 15.07.2019
5162 Clear 13 1010 93 10000 1.5 90 06:30 15.07.2019
5163 Clear 11 1010 100 10000 0.5 0 05:43 15.07.2019
5164 Clear 10 1010 93 10000 2.1 70 04:52 15.07.2019
5165 Clear 10 1011 93 10000 1.5 50 04:34 15.07.2019
5166 Clear 10 1011 100 10000 1 0 03:29 15.07.2019
5167 Clear 11 1011 93 10000 0.5 0 02:25 15.07.2019
5168 Clear 11 1011 87 10000 1.5 230 01:37 15.07.2019
5169 Clouds 10 1006 78 0 0.59 320.382 00:54 15.07.2019
5170 Clear 12 1011 82 10000 2.1 240 00:28 15.07.2019
5171 Clear 12 1011 76 10000 2.1 230 23:59 14.07.2019
5172 Clear 12 1011 76 10000 2.6 230 23:40 14.07.2019
5173 Clear 13 1011 71 10000 2.1 220 23:20 14.07.2019
5174 Clear 13 1011 71 10000 2.1 220 23:20 14.07.2019
5175 Clear 12 1011 71 10000 2.1 220 22:57 14.07.2019
5176 Clear 12 1011 71 10000 2.1 220 22:57 14.07.2019
5177 Clear 13 1011 67 10000 2.6 220 22:38 14.07.2019
5178 Clear 13 1011 67 10000 2.1 220 22:20 14.07.2019
5179 Clear 14 1011 59 10000 3.6 220 21:43 14.07.2019
5180 Clear 15 1011 59 10000 3.6 210 21:19 14.07.2019
5181 Clear 15 1011 59 10000 3.6 210 21:19 14.07.2019
5182 Clear 16 1011 59 10000 3.6 170 20:58 14.07.2019
5183 Clear 16 1011 59 10000 3.6 170 20:38 14.07.2019
5184 Clear 16 1011 51 10000 4.1 190 20:20 14.07.2019
5185 Clear 17 1011 51 10000 3.1 160 19:47 14.07.2019
5186 Clear 17 1011 51 10000 3.1 160 19:28 14.07.2019
5187 Clear 18 1011 45 10000 1.5 30 18:58 14.07.2019
5188 Clear 18 1011 45 10000 1.5 30 18:40 14.07.2019
5189 Clear 18 1011 45 10000 1.5 30 18:21 14.07.2019
5190 Clear 18 1011 39 10000 2.1 20 17:57 14.07.2019
5191 Clear 18 1011 39 10000 2.6 0 17:23 14.07.2019
5192 Clear 18 1011 45 10000 3.1 170 16:53 14.07.2019
5193 Clear 18 1011 45 10000 2.1 0 16:25 14.07.2019
5194 Clear 18 1011 45 10000 3.6 310 15:57 14.07.2019
5195 Clear 18 1011 45 10000 3.1 340 15:37 14.07.2019
5196 Clear 18 1011 39 10000 1 0 14:58 14.07.2019
5197 Clear 18 1011 39 10000 1 0 14:37 14.07.2019
5198 Clear 18 1011 39 10000 1 0 14:19 14.07.2019
5199 Clear 18 1011 45 10000 2.6 280 13:45 14.07.2019
5200 Clear 18 1011 42 10000 1.5 0 13:22 14.07.2019
5201 Clear 18 1011 42 10000 1.5 0 12:55 14.07.2019
5202 Clouds 18 1012 23 0 0.89 83 12:36 14.07.2019
5203 Clouds 17 1012 48 10000 1 0 12:18 14.07.2019
5204 Clouds 17 1012 48 10000 2.6 0 11:43 14.07.2019
5205 Clouds 17 1012 48 10000 2.1 0 11:20 14.07.2019
5206 Clouds 17 1012 48 10000 3.1 60 10:42 14.07.2019
5207 Clouds 16 1012 47 10000 3.1 20 10:20 14.07.2019
5208 Clouds 16 1012 54 10000 2.1 50 09:44 14.07.2019
5209 Clouds 16 1012 54 10000 3.1 50 09:25 14.07.2019
5210 Clear 15 1012 54 10000 2.6 50 08:45 14.07.2019
5211 Clear 14 1011 62 10000 2.1 30 08:22 14.07.2019
5212 Clear 13 1011 66 10000 2.1 20 07:41 14.07.2019
5213 Clear 12 1011 66 10000 2.6 20 06:59 14.07.2019
5214 Clear 10 1011 81 10000 2.6 30 05:45 14.07.2019
5215 Clear 9 1011 81 10000 1 20 03:50 14.07.2019
5216 Clear 9 1011 81 10000 1 20 03:32 14.07.2019
5217 Clear 10 1011 81 10000 1.5 30 02:50 14.07.2019
5218 Clouds 10 1011 87 10000 2.1 20 02:22 14.07.2019
5219 Clouds 11 1011 76 10000 1.5 30 01:34 14.07.2019
5220 Clouds 11 1011 76 10000 2.1 40 00:58 14.07.2019
5221 Clouds 11 1010 81 10000 2.6 30 00:39 14.07.2019
5222 Clouds 12 1010 87 10000 1.5 10 00:20 14.07.2019
5223 Clouds 12 1010 87 10000 1 0 23:45 13.07.2019
5224 Clouds 12 1010 87 10000 1 0 23:25 13.07.2019
5225 Clear 12 1010 87 10000 1 30 22:56 13.07.2019
5226 Clear 13 1010 81 10000 1.5 60 22:37 13.07.2019
5227 Clear 13 1010 81 10000 1.5 60 22:37 13.07.2019
5228 Clear 13 1010 76 10000 2.1 70 22:19 13.07.2019
5229 Clear 14 1010 62 10000 2.1 100 21:42 13.07.2019
5230 Clear 15 1010 62 10000 3.1 90 21:19 13.07.2019
5231 Clear 15 1010 62 10000 3.1 90 21:19 13.07.2019
5232 Clear 16 1009 59 10000 3.6 80 20:45 13.07.2019
5233 Clear 16 1009 63 10000 3.6 50 20:26 13.07.2019
5234 Clear 16 1009 63 10000 3.6 70 19:46 13.07.2019
5235 Clear 17 1009 63 10000 3.6 70 19:27 13.07.2019
5236 Clear 17 1009 48 10000 3.6 40 18:44 13.07.2019
5237 Clear 18 1009 48 10000 3.6 40 18:21 13.07.2019
5238 Clear 18 1009 48 10000 4.6 20 17:40 13.07.2019
5239 Clear 18 1009 48 10000 4.6 20 17:20 13.07.2019
5240 Clear 18 1008 48 10000 4.6 20 16:57 13.07.2019
5241 Clear 18 1008 45 10000 5.1 10 16:37 13.07.2019
5242 Clear 18 1008 45 10000 5.1 10 16:37 13.07.2019
5243 Clear 19 1008 39 10000 3.1 340 16:19 13.07.2019
5244 Clear 20 1008 37 10000 4.6 10 15:43 13.07.2019
5245 Clear 20 1008 28 10000 3.6 340 15:21 13.07.2019
5246 Clear 20 1008 34 10000 3.1 320 14:44 13.07.2019
5247 Clear 20 1008 37 10000 5.1 340 14:22 13.07.2019
5248 Clear 20 1008 45 10000 3.6 20 13:46 13.07.2019
5249 Clear 20 1008 45 10000 3.6 20 13:24 13.07.2019
5250 Clear 20 1008 34 10000 3.1 350 12:59 13.07.2019
5251 Clear 19 1008 37 10000 4.1 360 12:37 13.07.2019
5252 Clear 19 1008 37 10000 3.6 340 12:18 13.07.2019
5253 Clear 19 1008 39 10000 3.6 340 11:40 13.07.2019
5254 Clear 20 1008 36 10000 3.6 340 11:19 13.07.2019
5255 Clear 19 1008 36 10000 3.6 340 11:19 13.07.2019
5256 Clear 19 1007 34 10000 4.1 290 10:44 13.07.2019
5257 Clear 18 1008 48 10000 4.1 320 10:23 13.07.2019
5258 Clear 18 1008 48 10000 4.1 320 09:53 13.07.2019
5259 Clear 17 1007 45 10000 4.6 340 09:31 13.07.2019
5260 Clear 17 1007 51 10000 4.6 330 08:58 13.07.2019
5261 Clear 16 1007 54 10000 4.1 330 08:32 13.07.2019
5262 Clear 15 1007 62 10000 4.1 340 07:58 13.07.2019
5263 Clear 14 1007 66 10000 2.6 330 07:30 13.07.2019
5264 Clear 13 1007 71 10000 3.1 350 06:39 13.07.2019
5265 Clear 13 1007 81 10000 2.6 310 05:57 13.07.2019
5266 Clear 12 1007 71 10000 1.99 325.197 04:42 13.07.2019
5267 Clear 12 1007 76 10000 2.1 320 04:22 13.07.2019
5268 Clear 12 1007 76 10000 2.1 320 03:55 13.07.2019
5269 Clear 12 1007 87 10000 1 0 03:37 13.07.2019
5270 Clear 12 1008 76 10000 1.5 270 01:54 13.07.2019
5271 Clear 12 1008 76 10000 1.5 270 01:36 13.07.2019
5272 Clear 12 1008 81 10000 1 0 01:18 13.07.2019
5273 Clear 12 1008 71 10000 1.5 260 00:46 13.07.2019
5274 Clear 13 1008 76 10000 1.5 310 00:18 13.07.2019
5275 Clear 13 1008 76 10000 1 0 23:42 12.07.2019
5276 Clear 13 1008 76 10000 1 0 23:23 12.07.2019
5277 Clear 13 1008 71 10000 1 0 22:42 12.07.2019
5278 Clear 13 1008 71 10000 1 0 22:23 12.07.2019
5279 Clear 14 1008 71 10000 1.5 330 21:42 12.07.2019
5280 Clear 15 1008 71 10000 1.5 330 21:21 12.07.2019
5281 Clear 16 1008 67 10000 1.5 330 20:54 12.07.2019
5282 Clear 17 1007 48 10000 2.6 330 20:24 12.07.2019
5283 Clear 17 1007 45 10000 2.1 330 19:45 12.07.2019
5284 Clear 18 1007 45 10000 2.1 330 19:27 12.07.2019
5285 Clear 18 1007 39 10000 3.1 350 18:59 12.07.2019
5286 Clear 19 1007 39 10000 2.1 340 18:38 12.07.2019
5287 Clear 19 1008 42 10000 2.6 330 18:19 12.07.2019
5288 Clear 19 1008 36 10000 4.6 320 17:47 12.07.2019
5289 Clear 19 1008 36 10000 4.6 320 17:27 12.07.2019
5290 Clear 19 1008 25 10000 5.1 350 16:43 12.07.2019
5291 Clear 19 1008 34 10000 6.2 300 16:20 12.07.2019
5292 Clear 19 1008 42 10000 4.6 320 15:41 12.07.2019
5293 Clear 18 1008 39 10000 4.6 340 15:21 12.07.2019
5294 Clear 19 1008 39 10000 4.6 340 14:56 12.07.2019
5295 Clear 18 1008 42 10000 4.6 340 14:38 12.07.2019
5296 Clear 18 1008 42 10000 4.6 340 14:19 12.07.2019
5297 Clear 18 1008 48 10000 3.1 350 13:39 12.07.2019
5298 Clear 18 1008 48 10000 4.1 310 12:58 12.07.2019
5299 Clouds 18 1008 51 10000 4.6 330 12:38 12.07.2019
5300 Clouds 18 1008 48 10000 5.1 290 12:20 12.07.2019
5301 Clouds 17 1008 55 10000 3.6 330 11:44 12.07.2019
5302 Clouds 17 1008 55 10000 3.6 340 11:20 12.07.2019
5303 Clouds 17 1008 55 10000 3.6 340 10:44 12.07.2019
5304 Clouds 17 1008 59 10000 4.6 340 10:24 12.07.2019
5305 Clouds 17 1008 59 10000 4.6 340 09:54 12.07.2019
5306 Clouds 16 1009 62 10000 3.6 320 09:30 12.07.2019
5307 Clouds 16 1009 62 10000 3.6 320 09:30 12.07.2019
5308 Clouds 16 1009 62 10000 3.6 320 09:30 12.07.2019
5309 Clouds 16 1009 76 10000 3.1 320 08:59 12.07.2019
5310 Clouds 15 1009 76 10000 3.1 320 08:39 12.07.2019
5311 Clouds 14 1009 71 10000 3.1 280 08:18 12.07.2019
5312 Clear 13 1009 81 10000 3.1 300 07:44 12.07.2019
5313 Clear 12 1009 87 10000 3.1 280 07:26 12.07.2019
5314 Clear 10 1009 93 10000 2.1 280 06:29 12.07.2019
5315 Clear 9 1009 93 10000 1.5 280 05:47 12.07.2019
5316 Fog 6 1009 100 10000 1 250 03:22 12.07.2019
5317 Fog 6 1009 100 10000 0.5 0 01:43 12.07.2019
5318 Fog 6 1009 100 10000 1 270 00:58 12.07.2019
5319 Fog 8 1009 100 10000 1 270 00:27 12.07.2019
5320 Clear 8 1009 93 10000 2.1 310 23:49 11.07.2019
5321 Clear 9 1009 93 10000 2.1 310 23:26 11.07.2019
5322 Clear 9 1009 93 10000 1 300 22:58 11.07.2019
5323 Clear 10 1009 76 10000 1.5 0 22:39 11.07.2019
5324 Clear 10 1009 87 10000 2.1 230 22:21 11.07.2019
5325 Clear 11 1009 81 10000 2.6 220 21:41 11.07.2019
5326 Clouds 12 1009 81 10000 2.6 220 21:19 11.07.2019
5327 Clouds 12 1009 81 10000 2.6 220 20:55 11.07.2019
5328 Clouds 12 1009 81 10000 2.6 200 20:36 11.07.2019
5329 Clouds 13 1009 82 10000 2.6 200 20:18 11.07.2019
5330 Rain 13 1009 82 10000 2.6 200 19:43 11.07.2019
5331 Clouds 13 1009 76 10000 2.1 0 19:23 11.07.2019
5332 Rain 13 1009 82 10000 1.5 340 18:44 11.07.2019
5333 Rain 13 1009 76 10000 1.5 280 18:26 11.07.2019
5334 Rain 13 1009 71 10000 1 0 17:54 11.07.2019
5335 Rain 14 1009 71 10000 1 0 17:36 11.07.2019
5336 Clouds 14 1009 71 10000 1 0 17:18 11.07.2019
5337 Clouds 13 1009 71 10000 2.6 170 16:42 11.07.2019
5338 Clouds 13 1009 71 10000 2.6 170 16:42 11.07.2019
5339 Clouds 13 1009 71 10000 2.6 170 16:21 11.07.2019
5340 Rain 13 1009 81 10000 3.1 80 15:44 11.07.2019
5341 Rain 14 1009 81 10000 3.1 80 15:44 11.07.2019
5342 Rain 13 1009 76 10000 2.6 110 15:24 11.07.2019
5343 Rain 13 1009 76 10000 2.6 110 14:59 11.07.2019
5344 Rain 14 1009 76 10000 3.1 160 14:39 11.07.2019
5345 Clouds 14 1009 66 10000 2.6 160 14:19 11.07.2019
5346 Clouds 14 1009 66 10000 2.6 150 13:45 11.07.2019
5347 Clouds 14 1009 66 10000 3.6 140 13:25 11.07.2019
5348 Clouds 14 1009 76 10000 4.1 130 12:39 11.07.2019
5349 Clouds 14 1009 76 10000 4.1 130 12:20 11.07.2019
5350 Clouds 14 1008 71 10000 2.6 100 11:52 11.07.2019
5351 Clouds 13 1008 71 10000 2.6 100 11:30 11.07.2019
5352 Clouds 14 1008 67 10000 2.6 80 10:54 11.07.2019
5353 Clouds 14 1008 71 10000 3.6 50 10:20 11.07.2019
5354 Clouds 14 1008 71 10000 3.6 50 10:20 11.07.2019
5355 Clouds 14 1008 76 10000 2.6 60 09:57 11.07.2019
5356 Clouds 14 1008 76 10000 2.6 60 09:39 11.07.2019
5357 Clouds 14 1008 71 10000 2.6 50 09:20 11.07.2019
5358 Clouds 14 1008 76 10000 3.1 100 08:42 11.07.2019
5359 Clear 14 1008 76 10000 4.1 80 08:20 11.07.2019
5360 Clear 13 1008 76 10000 3.6 70 07:45 11.07.2019
5361 Clear 13 1008 76 10000 3.6 70 07:25 11.07.2019
5362 Clear 13 1008 76 10000 3.6 50 06:21 11.07.2019
5363 Clear 12 1008 76 10000 3.1 40 05:43 11.07.2019
5364 Clear 12 1008 71 10000 3.1 40 05:24 11.07.2019
5365 Clear 12 1008 66 10000 3.1 30 03:58 11.07.2019
5366 Clear 12 1008 71 10000 2.6 30 02:34 11.07.2019
5367 Clear 12 1007 71 10000 2.1 30 00:48 11.07.2019
5368 Clear 12 1007 71 10000 2.1 10 23:52 10.07.2019
5369 Clear 13 1007 67 10000 2.6 10 23:31 10.07.2019
5370 Clear 13 1007 76 10000 2.6 360 22:58 10.07.2019
5371 Clear 14 1007 51 10000 3.6 10 22:27 10.07.2019
5372 Clouds 14 1002 58 0 1.61 86.909 21:59 10.07.2019
5373 Clear 16 1007 51 10000 3.1 360 21:39 10.07.2019
5374 Clear 17 1007 48 10000 3.1 360 21:21 10.07.2019
5375 Clear 18 1007 39 10000 4.1 360 20:48 10.07.2019
5376 Clear 19 1007 39 10000 4.1 360 20:27 10.07.2019
5377 Clear 19 1007 42 10000 4.6 10 19:59 10.07.2019
5378 Clear 19 1007 37 10000 4.6 10 19:40 10.07.2019
5379 Clear 20 1007 40 10000 5.1 340 19:21 10.07.2019
5380 Clear 20 1006 40 10000 4.1 360 18:46 10.07.2019
5381 Clear 21 1006 40 10000 4.1 360 18:24 10.07.2019
5382 Clear 21 1006 40 10000 4.6 10 17:49 10.07.2019
5383 Clear 21 1006 40 10000 4.6 10 17:30 10.07.2019
5384 Clear 21 1006 35 10000 4.1 20 16:48 10.07.2019
5385 Clear 21 1006 35 10000 4.1 20 16:21 10.07.2019
5386 Clear 21 1006 37 10000 4.6 360 16:21 10.07.2019
5387 Clear 21 1006 37 10000 4.6 340 15:47 10.07.2019
5388 Clear 21 1006 37 10000 4.6 340 15:47 10.07.2019
5389 Clear 21 1006 37 10000 4.6 340 15:26 10.07.2019
5390 Clear 21 1006 37 10000 4.6 340 15:26 10.07.2019
5391 Clear 21 1006 40 10000 3.6 360 14:55 10.07.2019
5392 Clear 21 1006 42 10000 4.6 10 14:37 10.07.2019
5393 Clear 21 1006 42 10000 4.6 10 14:18 10.07.2019
5394 Clouds 20 1006 45 10000 4.6 360 13:37 10.07.2019
5395 Clouds 20 1006 45 10000 4.1 340 13:18 10.07.2019
5396 Clouds 20 1006 48 10000 5.1 350 12:41 10.07.2019
5397 Clouds 19 1006 48 10000 5.7 350 12:21 10.07.2019
5398 Clouds 19 1006 52 10000 5.7 350 11:49 10.07.2019
5399 Clouds 18 1006 52 10000 5.7 350 11:22 10.07.2019
5400 Clouds 18 1006 55 10000 6.2 360 10:58 10.07.2019
5401 Clouds 18 1006 55 10000 6.2 360 10:58 10.07.2019
5402 Clouds 17 1006 59 10000 6.2 360 10:24 10.07.2019
5403 Clouds 17 1006 59 10000 6.2 360 09:57 10.07.2019
5404 Clouds 17 1006 67 10000 4.6 10 09:38 10.07.2019
5405 Clouds 16 1006 62 10000 4.6 350 09:19 10.07.2019
5406 Clouds 15 1006 71 10000 5.1 360 08:48 10.07.2019
5407 Clouds 15 1006 71 10000 5.1 360 08:24 10.07.2019
5408 Clouds 14 1006 76 10000 5.1 360 07:51 10.07.2019
5409 Clouds 13 1006 76 10000 5.1 360 07:23 10.07.2019
5410 Clouds 12 1006 81 10000 4.1 340 06:39 10.07.2019
5411 Clouds 12 1006 81 10000 3.6 340 05:40 10.07.2019
5412 Clouds 11 1006 87 10000 3.6 350 04:31 10.07.2019
5413 Clouds 11 1006 81 10000 4.1 330 02:18 10.07.2019
5414 Clouds 11 1007 87 10000 3.6 330 00:44 10.07.2019
5415 Clear 12 1007 87 10000 3.1 330 23:42 09.07.2019
5416 Clear 12 1007 87 10000 3.1 330 23:23 09.07.2019
5417 Clear 12 1007 87 10000 3.1 330 22:57 09.07.2019
5418 Clouds 12 1007 87 10000 3.1 330 22:37 09.07.2019
5419 Clouds 12 1007 82 10000 2.6 340 22:19 09.07.2019
5420 Clouds 13 1007 82 10000 3.1 350 21:46 09.07.2019
5421 Clouds 13 1007 76 10000 3.1 10 21:26 09.07.2019
5422 Clouds 13 1007 76 10000 4.6 10 20:45 09.07.2019
5423 Clouds 13 1007 76 10000 4.6 10 20:26 09.07.2019
5424 Clouds 13 1007 76 10000 4.6 20 19:56 09.07.2019
5425 Clouds 13 1007 76 10000 4.6 10 19:36 09.07.2019
5426 Clouds 14 1007 71 10000 5.1 10 19:18 09.07.2019
5427 Clouds 14 1007 71 10000 5.1 10 18:38 09.07.2019
5428 Clouds 14 1007 76 10000 5.7 350 18:18 09.07.2019
5429 Clouds 14 1007 76 10000 6.2 360 17:42 09.07.2019
5430 Clouds 14 1007 82 10000 6.2 360 17:21 09.07.2019
5431 Clouds 14 1007 82 10000 6.2 360 16:51 09.07.2019
5432 Clouds 14 1007 82 10000 5.7 360 16:26 09.07.2019
5433 Clouds 14 1007 82 10000 5.7 360 15:57 09.07.2019
5434 Clouds 14 1007 76 10000 5.7 350 15:36 09.07.2019
5435 Clouds 14 1006 82 10000 4.6 20 14:59 09.07.2019
5436 Clouds 14 1006 82 10000 4.6 20 14:40 09.07.2019
5437 Clouds 13 1006 76 10000 6.7 20 14:21 09.07.2019
5438 Clouds 13 1006 76 10000 6.7 10 13:46 09.07.2019
5439 Clouds 13 1006 76 10000 6.7 10 13:28 09.07.2019
5440 Clouds 14 1006 76 10000 5.7 10 12:57 09.07.2019
5441 Clouds 14 1006 76 10000 4.6 350 12:37 09.07.2019
5442 Clouds 13 1006 82 10000 5.1 10 12:18 09.07.2019
5443 Clouds 13 1006 82 10000 5.7 30 11:41 09.07.2019
5444 Clouds 13 1006 81 10000 4.6 10 11:22 09.07.2019
5445 Clouds 12 1006 81 10000 4.6 10 10:58 09.07.2019
5446 Clouds 13 1006 81 10000 4.6 10 10:34 09.07.2019
5447 Clouds 13 1006 81 10000 4.6 10 09:56 09.07.2019
5448 Clouds 13 1006 87 10000 4.1 10 09:37 09.07.2019
5449 Drizzle 12 1006 87 10000 4.6 10 09:19 09.07.2019
5450 Clouds 12 1005 87 10000 3.6 10 08:41 09.07.2019
5451 Rain 11 995 93 4000 7.2 110 04:19 05.07.2019
5452 Rain 11 997 87 7000 5.1 110 03:39 05.07.2019
5453 Rain 11 998 76 10000 6.2 120 03:20 05.07.2019
5454 Rain 11 998 76 10000 6.2 130 02:51 05.07.2019
5455 Clouds 12 999 71 10000 5.1 140 01:55 05.07.2019
5456 Clouds 12 999 71 10000 5.1 140 01:28 05.07.2019
5457 Clouds 11 1000 76 10000 3.1 90 00:51 05.07.2019
5458 Clouds 11 1000 76 10000 3.1 90 00:29 05.07.2019
5459 Clouds 11 1002 76 10000 3.1 130 23:39 04.07.2019
5460 Clear 11 1002 66 10000 3.1 160 23:18 04.07.2019
5461 Clear 11 1002 66 10000 3.6 170 22:41 04.07.2019
5462 Clear 11 1002 66 10000 3.6 170 22:41 04.07.2019
5463 Clear 12 1003 58 10000 3.6 200 22:20 04.07.2019
5464 Clouds 12 1003 62 10000 5.1 210 21:44 04.07.2019
5465 Clouds 12 1003 62 10000 5.1 210 21:25 04.07.2019
5466 Clouds 13 1004 62 10000 6.7 210 20:58 04.07.2019
5467 Clouds 13 1004 62 10000 6.7 210 20:37 04.07.2019
5468 Clouds 13 1004 58 10000 7.2 210 20:19 04.07.2019
5469 Clouds 14 1004 54 10000 5.7 210 19:41 04.07.2019
5470 Clouds 15 1004 54 10000 5.7 210 19:21 04.07.2019
5471 Clouds 15 1003 60 0 2.52 202.583 18:47 04.07.2019
5472 Clouds 15 1004 60 0 3.71 231.405 18:28 04.07.2019
5473 Clouds 15 1005 51 10000 3.1 210 17:58 04.07.2019
5474 Clouds 16 1005 51 10000 5.1 260 17:40 04.07.2019
5475 Rain 16 1005 54 10000 5.1 210 17:18 04.07.2019
5476 Rain 15 1006 62 10000 7.7 200 15:45 04.07.2019
5477 Rain 16 1005 41 10000 5.1 270 15:25 04.07.2019
5478 Rain 16 1005 41 10000 5.1 270 14:59 04.07.2019
5479 Rain 16 1005 41 10000 5.1 270 14:59 04.07.2019
5480 Clear 16 1005 39 10000 5.7 230 14:39 04.07.2019
5481 Clear 17 1005 44 10000 7.2 220 14:19 04.07.2019
5482 Clear 17 1005 44 10000 5.7 250 13:57 04.07.2019
5483 Clear 16 1005 44 10000 5.7 250 13:38 04.07.2019
5484 Clear 17 1005 33 10000 4.1 270 13:19 04.07.2019
5485 Clear 17 1005 36 10000 5.1 270 12:39 04.07.2019
5486 Clear 17 1006 34 10000 5.7 260 12:19 04.07.2019
5487 Clear 18 1006 36 10000 5.7 260 11:45 04.07.2019
5488 Clear 17 1006 36 10000 6.7 270 11:20 04.07.2019
5489 Clear 18 1006 36 10000 6.7 270 10:56 04.07.2019
5490 Clear 17 1006 36 10000 6.7 270 10:56 04.07.2019
5491 Clear 17 1006 38 10000 5.7 280 10:38 04.07.2019
5492 Clouds 17 1006 41 10000 5.7 280 10:18 04.07.2019
5493 Clouds 17 1006 51 10000 4.6 290 09:38 04.07.2019
5494 Clouds 16 1006 54 10000 4.6 260 09:19 04.07.2019
5495 Clouds 15 1006 54 10000 4.6 260 08:52 04.07.2019
5496 Clear 14 1006 62 10000 4.6 280 08:18 04.07.2019
5497 Clear 14 1006 66 10000 5.1 290 07:40 04.07.2019
5498 Clear 14 1006 71 10000 4.6 290 07:19 04.07.2019
5499 Clear 11 1006 76 10000 4.1 290 06:32 04.07.2019
5500 Clear 10 1006 76 10000 3.1 280 05:43 04.07.2019
5501 Clear 9 1007 70 10000 3.6 270 04:28 04.07.2019
5502 Clear 10 1006 61 10000 4.6 290 02:23 04.07.2019
5503 Clear 10 1006 57 10000 5.7 290 01:26 04.07.2019
5504 Clear 10 1006 50 10000 5.1 300 00:41 04.07.2019
5505 Clear 11 1006 50 10000 5.7 290 23:52 03.07.2019
5506 Clear 12 1006 50 10000 5.7 290 23:21 03.07.2019
5507 Clear 12 1006 50 10000 5.7 290 22:56 03.07.2019
5508 Clear 12 1006 43 10000 4.6 280 22:38 03.07.2019
5509 Clear 13 1006 56 10000 6.7 290 22:20 03.07.2019
5510 Clear 13 1006 43 10000 4.6 280 22:20 03.07.2019
5511 Clear 13 1006 41 10000 7.2 290 21:54 03.07.2019
5512 Clear 14 1006 41 10000 7.2 290 21:36 03.07.2019
5513 Clear 14 1005 41 10000 9.3 290 20:49 03.07.2019
5514 Clear 15 1005 41 10000 9.3 290 20:31 03.07.2019
5515 Clear 15 1005 41 10000 8.2 290 19:59 03.07.2019
5516 Clear 15 1005 38 10000 8.7 290 19:40 03.07.2019
5517 Clear 16 1005 38 10000 9.8 280 19:20 03.07.2019
5518 Clear 16 1004 39 10000 9.8 280 18:44 03.07.2019
5519 Clouds 17 1003 40 0 5.03 304.877 18:22 03.07.2019
5520 Clear 18 1004 29 10000 7.7 290 17:49 03.07.2019
5521 Clear 18 1003 30 10000 8.2 300 17:19 03.07.2019
5522 Clear 19 1003 30 10000 8.2 300 16:57 03.07.2019
5523 Clear 19 1003 30 10000 8.2 300 16:57 03.07.2019
5524 Clear 18 1003 34 10000 7.7 310 16:39 03.07.2019
5525 Clear 18 1003 31 10000 7.7 330 16:18 03.07.2019
5526 Clear 18 1003 34 10000 7.7 290 15:42 03.07.2019
5527 Clear 18 1003 34 10000 7.7 290 15:24 03.07.2019
5528 Clear 18 1003 39 10000 7.2 320 14:43 03.07.2019
5529 Clear 18 1002 36 10000 8.2 300 14:20 03.07.2019
5530 Clear 18 1002 36 10000 8.2 330 13:45 03.07.2019
5531 Clear 18 1002 36 10000 8.2 330 13:27 03.07.2019
5532 Clear 18 1002 44 10000 9.8 320 12:51 03.07.2019
5533 Clear 18 1002 42 10000 9.3 320 12:19 03.07.2019
5534 Clouds 17 1002 55 10000 8.2 320 11:43 03.07.2019
5535 Clouds 17 1002 55 10000 8.2 320 11:24 03.07.2019
5536 Clouds 16 1002 54 10000 6.7 310 10:58 03.07.2019
5537 Clouds 16 1001 54 10000 6.7 330 10:37 03.07.2019
5538 Clear 16 1001 58 10000 7.2 330 10:19 03.07.2019
5539 Clouds 15 1000 56 0 4.96 334.54 09:40 03.07.2019
5540 Clouds 15 1000 56 0 4.96 334.54 09:40 03.07.2019
5541 Clouds 14 1002 35 0 0.89 299 09:20 03.07.2019
5542 Clear 13 1001 71 10000 6.2 310 08:50 03.07.2019
5543 Clear 13 1001 71 10000 6.2 310 08:28 03.07.2019
5544 Clear 12 1001 76 10000 6.2 310 07:42 03.07.2019
5545 Clear 12 1001 76 10000 6.2 310 07:21 03.07.2019
5546 Clouds 11 1001 81 10000 5.1 310 06:27 03.07.2019
5547 Clouds 11 1000 81 10000 5.1 310 05:34 03.07.2019
5548 Rain 11 1000 81 10000 4.6 310 04:41 03.07.2019
5549 Rain 11 1000 81 10000 5.1 310 03:24 03.07.2019
5550 Rain 12 1000 87 10000 6.2 320 01:59 03.07.2019
5551 Rain 12 1000 87 10000 6.7 320 01:21 03.07.2019
5552 Rain 12 1000 93 10000 6.7 320 00:45 03.07.2019
5553 Rain 12 1000 93 10000 5.7 310 00:18 03.07.2019
5554 Rain 13 1000 87 10000 6.2 320 23:38 02.07.2019
5555 Rain 13 999 87 10000 7.2 320 23:20 02.07.2019
5556 Rain 13 999 87 10000 7.2 320 22:56 02.07.2019
5557 Rain 13 999 93 10000 6.2 320 22:38 02.07.2019
5558 Rain 13 999 93 10000 6.2 310 22:19 02.07.2019
5559 Rain 13 999 100 10000 5.1 300 21:43 02.07.2019
5560 Rain 14 999 93 10000 4.6 320 21:23 02.07.2019
5561 Rain 14 999 93 10000 4.6 320 20:58 02.07.2019
5562 Rain 14 999 93 10000 4.6 310 20:39 02.07.2019
5563 Rain 14 999 93 10000 4.1 310 20:20 02.07.2019
5564 Rain 15 999 93 10000 3.6 310 19:42 02.07.2019
5565 Rain 15 998 93 10000 4.6 320 19:23 02.07.2019
5566 Clouds 16 998 77 10000 4.6 310 18:50 02.07.2019
5567 Clouds 17 998 82 10000 5.7 300 18:19 02.07.2019
5568 Clouds 18 998 68 10000 5.7 290 17:45 02.07.2019
5569 Clouds 17 998 68 10000 6.2 290 17:24 02.07.2019
5570 Clouds 18 998 68 10000 5.1 280 16:54 02.07.2019
5571 Clouds 18 998 68 10000 5.1 280 16:35 02.07.2019
5572 Clouds 18 998 68 10000 6.2 270 15:59 02.07.2019
5573 Clouds 18 998 77 10000 3.1 290 15:38 02.07.2019
5574 Clouds 18 998 87 10000 5.1 290 15:18 02.07.2019
5575 Rain 17 998 87 10000 4.1 270 14:40 02.07.2019
5576 Rain 16 998 87 10000 5.1 230 14:21 02.07.2019
5577 Rain 16 998 87 10000 6.2 240 13:42 02.07.2019
5578 Rain 16 998 82 10000 4.6 210 13:19 02.07.2019
5579 Rain 16 998 82 10000 4.6 210 13:19 02.07.2019
5580 Rain 16 998 82 10000 2.6 220 12:44 02.07.2019
5581 Thunderstorm 17 998 72 10000 1.5 280 12:23 02.07.2019
5582 Rain 18 997 72 10000 7.2 220 11:44 02.07.2019
5583 Thunderstorm 18 997 63 10000 4.1 250 11:23 02.07.2019
5584 Thunderstorm 18 997 63 10000 4.1 250 10:58 02.07.2019
5585 Rain 18 997 63 10000 5.7 230 10:32 02.07.2019
5586 Clouds 18 997 72 10000 3.1 240 09:57 02.07.2019
5587 Rain 17 997 87 10000 3.6 220 09:22 02.07.2019
5588 Rain 16 997 87 10000 3.6 220 08:58 02.07.2019
5589 Rain 16 997 87 10000 3.6 220 08:38 02.07.2019
5590 Clouds 16 997 82 10000 3.6 220 07:59 02.07.2019
5591 Clouds 16 997 82 10000 3.6 220 07:38 02.07.2019
5592 Clouds 15 997 82 10000 3.6 230 07:18 02.07.2019
5593 Clouds 15 997 82 10000 2.6 230 06:37 02.07.2019
5594 Clear 15 996 87 10000 2.6 230 05:35 02.07.2019
5595 Clear 14 997 87 10000 3.6 230 02:41 02.07.2019
5596 Clear 15 996 82 10000 4.6 210 00:28 02.07.2019
5597 Clear 15 996 82 10000 4.6 210 23:38 01.07.2019
5598 Clear 15 996 82 10000 3.1 220 23:18 01.07.2019
5599 Clear 15 996 82 10000 3.1 220 22:42 01.07.2019
5600 Clear 15 997 77 10000 3.6 220 22:23 01.07.2019
5601 Rain 16 996 68 10000 5.1 220 21:44 01.07.2019
5602 Rain 17 996 68 10000 5.1 220 21:25 01.07.2019
5603 Rain 18 996 63 10000 6.7 220 20:47 01.07.2019
5604 Rain 19 996 63 10000 7.2 220 20:21 01.07.2019
5605 Rain 19 996 63 10000 6.7 220 19:55 01.07.2019
5606 Rain 19 996 63 10000 6.7 220 19:36 01.07.2019
5607 Clouds 19 996 60 10000 8.2 230 19:18 01.07.2019
5608 Clouds 21 995 56 10000 8.2 230 18:43 01.07.2019
5609 Clouds 21 995 56 10000 8.2 230 18:25 01.07.2019
5610 Clouds 22 995 53 10000 9.8 210 17:46 01.07.2019
5611 Clouds 22 995 49 10000 8.7 220 17:26 01.07.2019
5612 Clouds 23 995 38 10000 8.7 240 16:57 01.07.2019
5613 Clouds 23 995 38 10000 8.7 240 16:39 01.07.2019
5614 Clouds 23 994 36 10000 8.7 240 16:20 01.07.2019
5615 Clouds 23 994 38 10000 7.2 260 15:43 01.07.2019
5616 Clouds 23 994 38 10000 7.2 260 15:22 01.07.2019
5617 Clouds 24 994 36 10000 8.2 250 14:44 01.07.2019
5618 Clouds 24 994 36 10000 8.2 240 14:20 01.07.2019
5619 Clouds 23 993 38 10000 10.8 240 13:47 01.07.2019
5620 Clear 24 993 44 10000 9.3 250 13:24 01.07.2019
5621 Clear 25 993 41 10000 8.7 260 12:56 01.07.2019
5622 Clear 25 993 38 10000 8.7 240 12:37 01.07.2019
5623 Clear 25 993 38 10000 8.7 240 12:19 01.07.2019
5624 Clear 25 993 39 10000 9.8 240 11:43 01.07.2019
5625 Clouds 25 993 41 10000 9.8 240 11:22 01.07.2019
5626 Clouds 25 992 47 10000 7.7 240 10:48 01.07.2019
5627 Clouds 26 992 47 10000 6.7 250 10:24 01.07.2019
5628 Clouds 25 992 53 10000 6.2 250 09:58 01.07.2019
5629 Clouds 24 992 53 10000 6.2 250 09:40 01.07.2019
5630 Clear 23 992 56 10000 5.1 260 09:21 01.07.2019
5631 Clear 22 992 68 10000 5.7 250 08:38 01.07.2019
5632 Clear 21 992 72 10000 4.6 240 07:57 01.07.2019
5633 Clear 20 992 77 10000 3.6 220 07:27 01.07.2019
5634 Clear 19 992 77 10000 3.6 220 07:27 01.07.2019
5635 Clear 17 992 82 10000 4.1 190 06:27 01.07.2019
5636 Clouds 15 996 72 10000 4.6 180 01:43 01.07.2019
5637 Clouds 16 998 72 10000 3.6 160 00:48 01.07.2019
5638 Clouds 16 998 67 10000 4.6 140 00:29 01.07.2019
5639 Clouds 16 999 63 10000 4.1 110 23:56 30.06.2019
5640 Clouds 17 999 63 10000 4.1 120 23:21 30.06.2019
5641 Clouds 17 1000 63 10000 4.6 120 22:49 30.06.2019
5642 Clouds 18 1001 59 10000 4.1 130 22:21 30.06.2019
5643 Clouds 18 1001 55 10000 5.1 140 21:42 30.06.2019
5644 Clouds 19 1001 49 10000 5.7 150 21:20 30.06.2019
5645 Clouds 19 1002 52 10000 5.1 150 20:56 30.06.2019
5646 Clear 20 1002 52 10000 5.1 160 20:38 30.06.2019
5647 Clear 20 1002 52 10000 5.1 160 20:19 30.06.2019
5648 Clear 21 1003 49 10000 3.6 140 19:44 30.06.2019
5649 Clear 21 1003 49 10000 5.7 180 19:25 30.06.2019
5650 Clear 22 1004 46 10000 6.2 190 18:27 30.06.2019
5651 Clear 22 1004 46 10000 6.2 190 17:59 30.06.2019
5652 Clear 22 1005 49 10000 5.7 190 17:39 30.06.2019
5653 Clear 23 1005 49 10000 5.7 190 17:18 30.06.2019
5654 Clear 23 1005 41 10000 3.6 280 16:49 30.06.2019
5655 Clear 23 1005 40 10000 3.6 300 16:27 30.06.2019
5656 Clear 23 1005 40 10000 5.1 270 15:38 30.06.2019
5657 Clear 23 1005 40 10000 5.1 270 15:19 30.06.2019
5658 Clear 22 1006 40 10000 4.1 300 14:54 30.06.2019
5659 Clear 22 1006 40 10000 4.6 300 14:35 30.06.2019
5660 Clear 22 1006 40 10000 5.1 270 13:49 30.06.2019
5661 Clouds 22 1006 40 10000 4.1 290 13:30 30.06.2019
5662 Clouds 22 1007 40 10000 6.2 270 12:57 30.06.2019
5663 Clouds 22 1007 40 10000 6.2 270 12:39 30.06.2019
5664 Clouds 21 1007 43 10000 4.6 250 12:19 30.06.2019
5665 Clouds 21 1007 45 10000 4.6 280 11:45 30.06.2019
5666 Clouds 20 1007 45 10000 5.7 290 11:21 30.06.2019
5667 Clouds 20 1006 52 10000 4.6 280 10:54 30.06.2019
5668 Clouds 20 1007 52 10000 5.7 270 10:36 30.06.2019
5669 Clouds 19 1007 52 10000 5.7 270 10:18 30.06.2019
5670 Clouds 19 1006 52 10000 4.6 270 09:42 30.06.2019
5671 Clear 17 1007 63 10000 4.1 260 09:20 30.06.2019
5672 Clear 17 1006 67 10000 4.1 270 08:40 30.06.2019
5673 Clear 16 1006 72 10000 4.6 270 08:21 30.06.2019
5674 Clear 16 1007 72 10000 4.1 280 07:47 30.06.2019
5675 Clear 15 1006 72 10000 4.6 280 07:24 30.06.2019
5676 Clear 15 1006 76 10000 4.6 280 06:37 30.06.2019
5677 Clear 13 1006 76 10000 4.1 270 03:33 30.06.2019
5678 Clear 14 1005 71 10000 4.1 270 01:53 30.06.2019
5679 Clouds 14 1005 67 10000 3.1 260 00:47 30.06.2019
5680 Clear 14 1005 67 10000 2.6 260 00:24 30.06.2019
5681 Clear 15 1005 62 10000 3.1 270 23:48 29.06.2019
5682 Clear 15 1006 62 10000 3.1 270 23:23 29.06.2019
5683 Clear 16 1006 59 10000 3.6 280 22:48 29.06.2019
5684 Clear 16 1005 59 10000 4.6 280 22:24 29.06.2019
5685 Clear 16 1005 59 10000 6.2 290 21:55 29.06.2019
5686 Clear 17 1005 48 10000 7.7 300 21:25 29.06.2019
5687 Clear 18 1005 48 10000 10.3 290 20:56 29.06.2019
5688 Clear 18 1005 48 10000 10.3 290 20:36 29.06.2019
5689 Clear 18 1005 48 10000 8.7 290 20:18 29.06.2019
5690 Clear 19 1005 45 10000 9.3 280 19:41 29.06.2019
5691 Clear 19 1005 48 10000 9.3 280 19:21 29.06.2019
5692 Clear 20 1005 45 10000 8.7 280 18:47 29.06.2019
5693 Clear 20 1005 43 10000 8.7 270 18:24 29.06.2019
5694 Clear 20 1005 43 10000 7.7 270 17:38 29.06.2019
5695 Clear 21 1005 49 10000 4.1 240 17:19 29.06.2019
5696 Clear 21 1005 52 10000 5.1 220 16:43 29.06.2019
5697 Clear 21 1006 46 10000 4.6 240 16:19 29.06.2019
5698 Clouds 21 1006 43 10000 5.7 280 15:33 29.06.2019
5699 Clouds 21 1007 43 10000 4.1 0 14:55 29.06.2019
5700 Clouds 21 1007 43 10000 4.1 0 14:37 29.06.2019
5701 Clouds 21 1007 49 10000 5.1 260 14:18 29.06.2019
5702 Clouds 21 1007 43 10000 4.6 290 13:41 29.06.2019
5703 Clouds 21 1007 43 10000 4.6 290 13:41 29.06.2019
5704 Clouds 20 1008 48 10000 5.1 290 13:23 29.06.2019
5705 Clouds 20 1008 48 10000 6.2 280 12:41 29.06.2019
5706 Clouds 20 1008 48 10000 6.2 280 12:22 29.06.2019
5707 Clouds 19 1009 52 10000 5.1 240 11:46 29.06.2019
5708 Clouds 19 1009 48 10000 6.2 250 11:28 29.06.2019
5709 Clouds 18 1009 48 10000 5.1 240 10:52 29.06.2019
5710 Clouds 18 1010 59 10000 3.6 240 10:24 29.06.2019
5711 Clouds 17 1010 33 0 3.39 278.83 09:58 29.06.2019
5712 Clear 15 1010 62 10000 3.1 280 09:19 29.06.2019
5713 Clear 15 1011 62 10000 3.6 280 08:36 29.06.2019
5714 Clear 13 1011 66 10000 3.1 270 07:46 29.06.2019
5715 Clear 12 1012 76 10000 4.1 270 06:57 29.06.2019
5716 Clear 12 1012 76 10000 3.6 270 06:39 29.06.2019
5717 Clear 11 1012 76 10000 3.6 270 06:19 29.06.2019
5718 Clear 10 1013 76 10000 4.6 300 01:54 29.06.2019
5719 Clear 11 1013 71 10000 4.1 300 00:54 29.06.2019
5720 Clear 12 1013 66 10000 4.1 300 23:54 28.06.2019
5721 Clear 12 1013 62 10000 4.6 290 23:22 28.06.2019
5722 Clear 13 1013 54 10000 5.1 300 22:47 28.06.2019
5723 Clear 13 1013 50 10000 5.7 290 22:22 28.06.2019
5724 Clear 14 1013 47 10000 6.2 290 21:45 28.06.2019
5725 Clear 15 1012 44 10000 6.2 300 21:19 28.06.2019
5726 Clear 16 1012 36 10000 7.2 290 20:42 28.06.2019
5727 Clear 17 1012 36 10000 7.2 290 20:20 28.06.2019
5728 Clear 17 1012 36 10000 6.7 310 19:42 28.06.2019
5729 Clear 18 1012 34 10000 8.2 290 19:23 28.06.2019
5730 Clear 19 1012 34 10000 6.2 300 18:42 28.06.2019
5731 Clear 19 1012 37 10000 6.7 330 18:22 28.06.2019
5732 Clear 20 1012 34 10000 6.2 310 17:46 28.06.2019
5733 Clear 20 1012 32 10000 7.2 310 17:25 28.06.2019
5734 Clear 20 1012 30 10000 6.7 310 16:46 28.06.2019
5735 Clear 21 1012 26 10000 6.7 300 16:20 28.06.2019
5736 Clear 21 1012 26 10000 8.2 310 15:45 28.06.2019
5737 Clear 20 1012 28 10000 5.7 320 15:18 28.06.2019
5738 Clear 20 1013 29 10000 6.7 320 14:42 28.06.2019
5739 Clear 20 1013 29 10000 7.2 340 14:21 28.06.2019
5740 Clear 20 1013 32 10000 7.7 340 13:49 28.06.2019
5741 Clear 20 1013 29 10000 8.7 320 13:29 28.06.2019
5742 Clear 19 1013 34 10000 7.2 340 12:53 28.06.2019
5743 Clear 19 1013 34 10000 6.7 350 12:33 28.06.2019
5744 Clear 19 1013 34 10000 6.7 320 11:44 28.06.2019
5745 Clear 18 1013 36 10000 6.7 320 11:19 28.06.2019
5746 Clear 18 1013 36 10000 6.7 320 11:19 28.06.2019
5747 Clear 19 1013 36 10000 7.2 330 10:42 28.06.2019
5748 Clear 18 1013 36 10000 6.7 350 10:19 28.06.2019
5749 Clear 18 1013 39 10000 6.2 340 09:46 28.06.2019
5750 Clear 18 1013 42 10000 6.2 330 09:28 28.06.2019
5751 Clear 17 1013 41 10000 5.1 340 08:43 28.06.2019
5752 Clear 16 1013 48 10000 5.7 320 08:24 28.06.2019
5753 Clear 15 1013 54 10000 5.7 320 07:43 28.06.2019
5754 Clear 14 1013 62 10000 4.1 340 06:54 28.06.2019
5755 Clear 11 1012 71 10000 4.6 310 04:42 28.06.2019
5756 Clear 12 1012 71 10000 4.1 310 00:48 28.06.2019
5757 Clear 13 1011 71 10000 5.1 310 00:22 28.06.2019
5758 Clear 13 1011 66 10000 4.6 300 23:46 27.06.2019
5759 Clear 13 1011 66 10000 4.6 300 23:46 27.06.2019
5760 Clear 13 1011 62 10000 5.1 320 23:24 27.06.2019
5761 Clear 14 1011 66 10000 4.6 320 22:44 27.06.2019
5762 Clear 14 1011 62 10000 5.1 330 22:25 27.06.2019
5763 Clouds 15 1010 58 10000 5.7 330 21:58 27.06.2019
5764 Clouds 15 1010 55 10000 6.7 330 21:40 27.06.2019
5765 Clouds 16 1010 55 10000 6.7 330 21:20 27.06.2019
5766 Clouds 16 1010 59 10000 7.2 330 20:49 27.06.2019
5767 Clear 16 1009 55 10000 6.7 330 20:31 27.06.2019
5768 Clouds 17 1009 55 10000 8.7 320 19:50 27.06.2019
5769 Clear 17 1009 51 10000 7.2 340 19:29 27.06.2019
5770 Clear 18 1009 45 10000 7.2 320 18:53 27.06.2019
5771 Clear 18 1008 48 10000 7.7 320 18:32 27.06.2019
5772 Clear 19 1008 52 10000 7.2 340 17:58 27.06.2019
5773 Clouds 19 1008 52 10000 8.7 340 17:37 27.06.2019
5774 Clouds 19 1008 52 10000 8.7 340 17:19 27.06.2019
5775 Clouds 19 1008 59 10000 8.7 320 16:39 27.06.2019
5776 Clouds 19 1008 59 10000 8.7 320 16:19 27.06.2019
5777 Clouds 19 1008 63 10000 7.2 320 15:45 27.06.2019
5778 Rain 19 1008 72 10000 5.7 340 15:24 27.06.2019
5779 Clouds 19 1008 68 10000 6.2 350 14:48 27.06.2019
5780 Clouds 18 1008 77 10000 6.7 350 14:29 27.06.2019
5781 Clouds 18 1008 77 10000 6.7 340 13:50 27.06.2019
5782 Clouds 17 1008 82 10000 6.7 330 13:31 27.06.2019
5783 Clouds 17 1008 87 10000 3.6 340 12:57 27.06.2019
5784 Rain 17 1008 93 7000 3.6 330 12:38 27.06.2019
5785 Rain 16 1008 93 7000 3.6 330 12:18 27.06.2019
5786 Rain 15 1008 93 1700 4.1 330 11:42 27.06.2019
5787 Rain 15 1007 87 10000 4.6 330 11:21 27.06.2019
5788 Rain 15 1007 87 10000 3.6 350 10:46 27.06.2019
5789 Rain 15 1007 93 10000 3.1 350 10:22 27.06.2019
5790 Rain 15 1007 93 10000 2.6 350 09:56 27.06.2019
5791 Drizzle 14 1007 93 10000 2.6 350 09:22 27.06.2019
5792 Drizzle 14 1007 93 7000 3.1 340 08:55 27.06.2019
5793 Drizzle 14 1007 100 3300 2.1 350 08:37 27.06.2019
5794 Drizzle 14 1007 100 3300 2.1 350 08:19 27.06.2019
5795 Rain 14 1007 100 4000 2.1 350 07:38 27.06.2019
5796 Drizzle 13 1008 100 4000 2.1 350 06:54 27.06.2019
5797 Drizzle 13 1008 100 4000 2.1 330 06:24 27.06.2019
5798 Rain 13 1009 100 10000 0.5 0 03:21 27.06.2019
5799 Clouds 13 1010 100 10000 2.1 70 02:30 27.06.2019
5800 Clouds 14 1011 93 10000 1 0 00:59 27.06.2019
5801 Clouds 14 1011 93 10000 1 0 00:41 27.06.2019
5802 Clouds 14 1011 93 10000 2.1 100 00:19 27.06.2019
5803 Rain 14 1012 93 10000 2.6 110 23:40 26.06.2019
5804 Rain 14 1012 93 10000 2.1 110 23:21 26.06.2019
5805 Rain 14 1013 93 10000 2.1 90 22:45 26.06.2019
5806 Rain 14 1013 93 10000 1.5 80 22:26 26.06.2019
5807 Rain 14 1013 93 10000 1 0 21:59 26.06.2019
5808 Rain 14 1013 93 10000 2.1 110 21:38 26.06.2019
5809 Rain 14 1013 93 10000 2.1 110 21:19 26.06.2019
5810 Rain 15 1014 93 10000 2.6 120 20:44 26.06.2019
5811 Rain 15 1014 87 10000 2.6 140 20:26 26.06.2019
5812 Rain 15 1014 82 10000 3.1 140 19:50 26.06.2019
5813 Rain 15 1015 77 10000 3.6 170 19:31 26.06.2019
5814 Rain 15 1015 72 10000 3.6 170 18:57 26.06.2019
5815 Rain 15 1015 72 10000 3.6 170 18:57 26.06.2019
5816 Rain 16 1015 63 10000 4.1 170 18:39 26.06.2019
5817 Rain 16 1015 63 10000 4.1 170 18:19 26.06.2019
5818 Clouds 17 1016 59 10000 4.6 150 17:46 26.06.2019
5819 Clouds 18 1016 48 10000 4.6 140 17:26 26.06.2019
5820 Clouds 18 1017 48 10000 5.1 160 16:51 26.06.2019
5821 Clouds 18 1017 45 10000 4.6 160 16:29 26.06.2019
5822 Clouds 19 1018 55 10000 4.6 170 15:52 26.06.2019
5823 Clouds 19 1018 59 10000 3.6 160 15:28 26.06.2019
5824 Clouds 19 1018 55 10000 4.1 180 14:42 26.06.2019
5825 Clouds 19 1018 52 10000 4.1 170 14:21 26.06.2019
5826 Clouds 19 1019 55 10000 4.1 170 13:46 26.06.2019
5827 Clouds 19 1019 55 10000 4.1 160 13:21 26.06.2019
5828 Clouds 19 1019 55 10000 4.1 160 13:21 26.06.2019
5829 Clouds 18 1019 55 10000 4.6 150 12:54 26.06.2019
5830 Clouds 18 1019 55 10000 4.6 150 12:36 26.06.2019
5831 Clouds 18 1020 59 10000 3.6 140 12:18 26.06.2019
5832 Clouds 17 1020 63 10000 3.1 140 11:25 26.06.2019
5833 Clouds 17 1021 63 10000 2.1 160 10:51 26.06.2019
5834 Clouds 17 1021 63 10000 2.1 160 10:51 26.06.2019
5835 Clear 17 1021 67 10000 2.6 140 10:31 26.06.2019
5836 Clear 16 1021 72 10000 1.5 0 09:51 26.06.2019
5837 Clear 15 1021 72 10000 1.5 110 09:29 26.06.2019
5838 Clear 15 1022 77 10000 1 0 08:52 26.06.2019
5839 Clear 14 1022 82 10000 1 0 08:22 26.06.2019
5840 Clear 14 1022 82 10000 1 0 07:57 26.06.2019
5841 Rain 14 1022 82 10000 1 0 07:37 26.06.2019
5842 Rain 13 1023 82 10000 1 0 06:33 26.06.2019
5843 Rain 12 1025 93 10000 2.6 320 01:36 26.06.2019
5844 Rain 13 1025 87 10000 3.1 300 00:32 26.06.2019
5845 Rain 13 1026 82 10000 4.6 300 23:49 25.06.2019
5846 Rain 14 1026 76 10000 4.1 290 23:31 25.06.2019
5847 Rain 15 1025 72 10000 3.6 300 22:59 25.06.2019
5848 Rain 15 1025 72 10000 3.6 300 22:41 25.06.2019
5849 Rain 15 1025 67 10000 5.7 310 22:22 25.06.2019
5850 Rain 16 1025 59 10000 4.6 300 21:46 25.06.2019
5851 Rain 17 1025 55 10000 6.2 310 21:24 25.06.2019
5852 Rain 19 1025 52 10000 6.7 290 20:48 25.06.2019
5853 Rain 19 1025 52 10000 6.7 290 20:48 25.06.2019
5854 Rain 19 1025 52 10000 6.7 290 20:48 25.06.2019
5855 Rain 19 1025 45 10000 3.6 240 20:24 25.06.2019
5856 Clear 20 1025 45 10000 4.1 230 19:56 25.06.2019
5857 Clear 19 1025 45 10000 4.1 230 19:56 25.06.2019
5858 Clear 20 1025 45 10000 5.1 240 19:37 25.06.2019
5859 Clear 20 1025 45 10000 5.1 240 19:19 25.06.2019
5860 Clear 21 1026 35 10000 4.1 260 18:41 25.06.2019
5861 Clear 21 1026 35 10000 4.1 260 18:22 25.06.2019
5862 Clear 21 1026 35 10000 4.6 260 17:43 25.06.2019
5863 Clear 21 1026 35 10000 4.6 260 17:43 25.06.2019
5864 Clear 22 1026 35 10000 5.1 270 17:22 25.06.2019
5865 Clear 22 1026 35 10000 5.1 270 17:22 25.06.2019
5866 Clear 22 1027 30 10000 2.1 0 16:43 25.06.2019
5867 Clear 22 1027 30 10000 2.1 0 16:25 25.06.2019
5868 Clear 22 1027 26 10000 3.1 290 15:43 25.06.2019
5869 Clear 22 1027 28 10000 4.1 290 15:25 25.06.2019
5870 Clear 22 1028 26 10000 3.6 310 14:57 25.06.2019
5871 Clear 22 1028 26 10000 3.6 310 14:38 25.06.2019
5872 Clear 22 1028 28 10000 3.1 260 14:20 25.06.2019
5873 Clear 22 1028 32 10000 3.1 270 13:41 25.06.2019
5874 Clear 22 1028 32 10000 3.1 270 13:19 25.06.2019
5875 Clear 21 1028 40 10000 2.6 0 12:41 25.06.2019
5876 Clear 21 1029 42 10000 3.6 300 12:23 25.06.2019
5877 Clear 20 1029 45 10000 2.6 280 11:44 25.06.2019
5878 Clear 20 1029 45 10000 3.1 280 11:22 25.06.2019
5879 Clear 19 1029 48 10000 2.1 290 10:48 25.06.2019
5880 Clear 19 1029 48 10000 2.1 290 10:24 25.06.2019
5881 Clear 19 1029 55 10000 2.1 270 09:59 25.06.2019
5882 Clear 19 1029 59 10000 1.5 0 09:38 25.06.2019
5883 Clear 18 1029 59 10000 1.5 0 09:20 25.06.2019
5884 Clear 17 1030 63 10000 1.5 290 08:50 25.06.2019
5885 Clear 16 1030 67 10000 1.5 340 08:29 25.06.2019
5886 Clear 16 1030 71 10000 2.1 340 07:43 25.06.2019
5887 Clear 15 1030 71 10000 1.5 350 07:23 25.06.2019
5888 Clear 13 1030 71 10000 2.6 320 06:42 25.06.2019
5889 Clear 14 1030 71 10000 2.6 320 06:42 25.06.2019
5890 Clear 9 1029 81 10000 1 0 04:30 25.06.2019
5891 Clear 9 1029 81 10000 2.6 310 02:35 25.06.2019
5892 Clear 11 1029 66 10000 3.1 300 00:38 25.06.2019
5893 Clear 12 1029 66 10000 3.1 300 00:18 25.06.2019
5894 Clear 12 1029 66 10000 3.1 290 23:48 24.06.2019
5895 Clear 13 1029 62 10000 3.1 290 23:30 24.06.2019
5896 Clear 13 1028 54 10000 3.1 290 22:45 24.06.2019
5897 Clear 14 1028 51 10000 4.1 300 22:19 24.06.2019
5898 Clear 15 1028 48 10000 3.6 290 21:42 24.06.2019
5899 Clear 17 1027 42 10000 4.1 290 21:20 24.06.2019
5900 Clear 18 1027 37 10000 4.1 280 20:59 24.06.2019
5901 Clear 19 1027 32 10000 4.6 290 20:40 24.06.2019
5902 Clear 19 1027 32 10000 4.6 290 20:22 24.06.2019
5903 Clear 20 1027 32 10000 5.1 290 19:47 24.06.2019
5904 Clear 20 1027 30 10000 5.1 310 19:25 24.06.2019
5905 Clear 21 1027 28 10000 6.2 300 18:54 24.06.2019
5906 Clear 21 1027 30 10000 5.7 300 18:30 24.06.2019
5907 Clear 22 1027 26 10000 7.2 310 17:58 24.06.2019
5908 Clear 22 1027 28 10000 6.7 300 17:36 24.06.2019
5909 Clear 22 1026 30 10000 7.2 290 16:56 24.06.2019
5910 Clear 23 1026 27 10000 7.7 290 16:37 24.06.2019
5911 Clear 22 1026 27 10000 7.7 290 16:18 24.06.2019
5912 Clear 23 1026 33 10000 7.2 300 15:39 24.06.2019
5913 Clear 22 1026 33 10000 7.2 300 15:20 24.06.2019
5914 Clear 22 1026 30 10000 7.7 270 14:34 24.06.2019
5915 Clear 22 1026 37 10000 6.2 310 13:56 24.06.2019
5916 Clear 23 1026 33 10000 6.2 300 13:31 24.06.2019
5917 Clear 22 1026 35 10000 5.7 300 12:45 24.06.2019
5918 Clear 22 1026 34 10000 7.2 310 12:26 24.06.2019
5919 Clear 22 1026 35 10000 5.1 300 11:58 24.06.2019
5920 Clear 22 1026 35 10000 5.1 300 11:58 24.06.2019
5921 Clear 22 1026 35 10000 5.1 300 11:40 24.06.2019
5922 Clear 21 1026 35 10000 5.1 310 11:20 24.06.2019
5923 Clouds 21 1026 34 10000 5.7 310 10:47 24.06.2019
5924 Clouds 21 1026 37 10000 5.1 310 10:27 24.06.2019
5925 Clouds 20 1026 39 10000 5.7 300 09:49 24.06.2019
5926 Clouds 20 1026 39 10000 5.7 300 09:49 24.06.2019
5927 Clear 20 1026 45 10000 4.1 320 09:22 24.06.2019
5928 Clear 19 1026 48 10000 3.6 340 08:52 24.06.2019
5929 Clear 18 1025 51 10000 4.6 330 08:26 24.06.2019
5930 Clear 17 1025 55 10000 4.1 330 07:45 24.06.2019
5931 Clear 17 1025 55 10000 3.6 340 07:26 24.06.2019
5932 Clear 16 1025 71 10000 3.1 340 06:39 24.06.2019
5933 Clear 15 1025 71 10000 3.1 340 06:19 24.06.2019
5934 Clear 13 1024 82 10000 2.6 300 05:24 24.06.2019
5935 Clear 12 1024 87 10000 2.6 280 04:25 24.06.2019
5936 Clear 13 1023 82 10000 3.1 290 03:23 24.06.2019
5937 Clear 14 1023 72 10000 3.6 270 02:32 24.06.2019
5938 Clear 15 1023 72 10000 3.6 270 01:53 24.06.2019
5939 Clear 15 1023 72 10000 3.6 260 01:22 24.06.2019
5940 Clear 15 1022 67 10000 3.1 250 00:40 24.06.2019
5941 Clear 15 1022 67 10000 3.1 250 00:19 24.06.2019
5942 Clear 15 1022 67 10000 3.1 250 00:19 24.06.2019
5943 Clear 15 1022 63 10000 2.6 240 23:44 23.06.2019
5944 Clear 15 1021 76 10000 0.5 0 23:23 23.06.2019
5945 Clear 15 1021 72 10000 2.1 360 22:43 23.06.2019
5946 Clear 16 1021 72 10000 2.1 360 22:20 23.06.2019
5947 Clear 17 1021 59 10000 1 0 21:56 23.06.2019
5948 Clear 17 1021 55 10000 2.6 230 21:36 23.06.2019
5949 Clear 17 1021 55 10000 2.6 230 21:18 23.06.2019
5950 Clear 18 1021 52 10000 2.1 240 20:40 23.06.2019
5951 Clear 18 1021 52 10000 2.1 240 20:22 23.06.2019
5952 Clouds 19 1021 52 10000 2.6 300 19:44 23.06.2019
5953 Clouds 19 1021 48 10000 5.7 310 19:21 23.06.2019
5954 Clouds 19 1021 42 10000 4.1 240 18:54 23.06.2019
5955 Clouds 20 1021 45 10000 5.7 230 18:24 23.06.2019
5956 Clouds 20 1021 40 10000 5.1 220 17:50 23.06.2019
5957 Clouds 20 1021 43 10000 5.1 200 17:26 23.06.2019
5958 Clouds 20 1021 42 10000 6.2 190 16:55 23.06.2019
5959 Clouds 20 1021 42 10000 4.1 170 16:36 23.06.2019
5960 Clouds 21 1021 42 10000 4.1 170 16:18 23.06.2019
5961 Clear 21 1021 40 10000 3.6 180 15:40 23.06.2019
5962 Clear 21 1022 40 10000 5.1 180 15:20 23.06.2019
5963 Clear 21 1022 42 10000 5.1 170 14:40 23.06.2019
5964 Clear 21 1022 42 10000 5.1 170 14:22 23.06.2019
5965 Clear 21 1022 42 10000 6.2 180 13:57 23.06.2019
5966 Clear 21 1022 42 10000 6.2 180 13:38 23.06.2019
5967 Clouds 21 1022 43 10000 6.7 180 13:18 23.06.2019
5968 Clear 22 1022 34 10000 3.6 270 12:42 23.06.2019
5969 Clear 21 1022 34 10000 3.6 270 12:21 23.06.2019
5970 Clear 21 1022 34 10000 3.6 270 11:52 23.06.2019
5971 Clear 21 1022 34 10000 3.1 270 11:29 23.06.2019
5972 Clear 21 1022 34 10000 3.6 290 10:54 23.06.2019
5973 Clear 21 1022 37 10000 4.1 280 10:22 23.06.2019
5974 Clear 19 1022 37 10000 4.1 270 09:59 23.06.2019
5975 Clear 19 1022 42 10000 3.6 290 09:28 23.06.2019
5976 Clear 19 1022 42 10000 3.6 290 08:56 23.06.2019
5977 Clear 18 1022 45 10000 2.6 270 08:37 23.06.2019
5978 Clear 17 1022 51 10000 3.1 280 08:19 23.06.2019
5979 Clear 18 1022 55 10000 3.6 280 07:51 23.06.2019
5980 Clear 16 1022 62 10000 4.1 290 07:20 23.06.2019
5981 Clear 15 1021 67 10000 3.6 280 06:53 23.06.2019
5982 Clear 13 1022 71 10000 3.6 280 05:54 23.06.2019
5983 Clear 10 1020 87 10000 2.6 260 03:30 23.06.2019
5984 Clear 11 1019 76 10000 2.6 240 01:43 23.06.2019
5985 Clear 11 1019 76 10000 2.6 240 01:24 23.06.2019
5986 Clear 12 1019 66 10000 3.6 230 00:34 23.06.2019
5987 Clear 13 1019 66 10000 3.1 240 23:52 22.06.2019
5988 Clear 13 1019 58 10000 3.6 230 23:26 22.06.2019
5989 Clear 13 1018 58 10000 4.1 230 22:49 22.06.2019
5990 Clear 13 1018 58 10000 3.1 230 22:29 22.06.2019
5991 Clear 14 1018 54 10000 3.1 270 21:59 22.06.2019
5992 Clear 14 1018 54 10000 3.1 270 21:36 22.06.2019
5993 Clear 16 1018 51 10000 4.6 270 21:18 22.06.2019
5994 Clear 16 1017 48 10000 5.1 270 20:46 22.06.2019
5995 Clear 17 1017 48 10000 6.7 290 20:25 22.06.2019
5996 Clear 18 1017 45 10000 7.7 270 19:44 22.06.2019
5997 Clear 18 1017 48 10000 7.7 270 19:22 22.06.2019
5998 Clear 18 1016 45 10000 8.7 270 18:47 22.06.2019
5999 Clouds 18 1016 48 10000 8.7 270 18:29 22.06.2019
6000 Clouds 19 1016 45 10000 8.7 270 17:52 22.06.2019
6001 Clouds 19 1015 59 10000 7.2 270 17:31 22.06.2019
6002 Rain 18 1015 77 10000 6.2 280 16:47 22.06.2019
6003 Rain 19 1015 52 10000 9.3 240 16:24 22.06.2019
6004 Clouds 18 1015 52 10000 9.3 250 15:53 22.06.2019
6005 Rain 18 1015 63 10000 7.7 260 15:33 22.06.2019
6006 Rain 18 1014 55 10000 10.3 260 14:53 22.06.2019
6007 Rain 18 1014 42 10000 8.7 230 14:34 22.06.2019
6008 Clear 20 1013 40 10000 8.7 250 13:58 22.06.2019
6009 Clear 20 1013 42 10000 8.2 240 13:40 22.06.2019
6010 Clear 20 1013 42 10000 8.2 240 13:19 22.06.2019
6011 Clear 20 1013 42 10000 8.7 240 12:47 22.06.2019
6012 Clouds 19 1013 45 10000 8.2 230 12:29 22.06.2019
6013 Clouds 19 1012 52 10000 8.7 230 11:46 22.06.2019
6014 Clouds 19 1012 55 10000 8.2 250 11:27 22.06.2019
6015 Clouds 18 1012 67 10000 7.7 250 10:47 22.06.2019
6016 Clouds 18 1012 67 10000 6.2 230 10:19 22.06.2019
6017 Clear 17 1012 82 10000 2.6 230 09:42 22.06.2019
6018 Rain 14 1012 87 7000 7.7 270 08:58 22.06.2019
6019 Rain 14 1012 87 7000 7.7 270 08:40 22.06.2019
6020 Clouds 17 1011 67 10000 5.7 280 07:56 22.06.2019
6021 Clouds 17 1011 72 10000 4.6 240 07:30 22.06.2019
6022 Clouds 16 1011 82 10000 4.1 230 06:46 22.06.2019
6023 Clear 14 1011 82 10000 2.6 220 04:38 22.06.2019
6024 Clear 14 1011 82 10000 2.1 240 02:31 22.06.2019
6025 Clear 14 1010 77 10000 3.1 240 00:57 22.06.2019
6026 Clear 15 1010 72 10000 3.6 230 00:35 22.06.2019
6027 Clear 16 1010 67 10000 3.6 220 23:51 21.06.2019
6028 Clear 17 1010 63 10000 4.6 240 23:25 21.06.2019
6029 Clear 17 1010 59 10000 4.1 230 22:58 21.06.2019
6030 Clear 17 1010 59 10000 4.1 230 22:40 21.06.2019
6031 Clear 17 1009 52 10000 4.6 230 22:20 21.06.2019
6032 Clear 17 1009 49 10000 5.1 230 21:40 21.06.2019
6033 Clear 19 1009 43 10000 5.7 240 21:21 21.06.2019
6034 Clear 20 1009 46 10000 6.2 230 20:48 21.06.2019
6035 Clear 20 1009 49 10000 6.2 230 20:26 21.06.2019
6036 Clear 21 1008 38 10000 6.2 240 19:54 21.06.2019
6037 Clear 23 1008 47 10000 6.7 220 19:23 21.06.2019
6038 Clear 23 1008 50 10000 6.7 240 18:43 21.06.2019
6039 Clear 24 1008 50 10000 6.7 240 18:24 21.06.2019
6040 Clouds 25 1008 53 10000 7.7 230 17:36 21.06.2019
6041 Clouds 25 1008 54 10000 7.7 220 16:59 21.06.2019
6042 Clouds 26 1008 57 10000 6.2 220 16:37 21.06.2019
6043 Clouds 26 1008 57 10000 6.2 220 16:19 21.06.2019
6044 Clouds 26 1008 51 10000 6.7 210 15:38 21.06.2019
6045 Clouds 26 1008 51 10000 6.2 200 15:18 21.06.2019
6046 Clouds 26 1008 54 10000 6.7 200 14:40 21.06.2019
6047 Clouds 26 1008 54 10000 6.7 200 14:21 21.06.2019
6048 Clouds 25 1008 61 10000 6.2 200 13:40 21.06.2019
6049 Clouds 25 1008 61 10000 6.2 200 13:22 21.06.2019
6050 Clouds 25 1008 57 10000 6.2 190 12:51 21.06.2019
6051 Clouds 25 1008 57 10000 5.7 170 12:23 21.06.2019
6052 Clouds 25 1008 57 10000 6.7 200 11:56 21.06.2019
6053 Clouds 25 1008 64 10000 5.7 180 11:37 21.06.2019
6054 Clouds 25 1008 64 10000 5.7 180 11:19 21.06.2019
6055 Clouds 25 1008 64 10000 5.7 180 11:19 21.06.2019
6056 Clouds 25 1008 64 10000 5.7 180 11:19 21.06.2019
6057 Clouds 25 1008 64 10000 5.1 180 10:44 21.06.2019
6058 Clouds 24 1008 69 10000 5.1 180 10:21 21.06.2019
6059 Clouds 23 1008 69 10000 4.6 170 09:43 21.06.2019
6060 Clouds 23 1008 73 10000 5.1 170 09:23 21.06.2019
6061 Clear 22 1008 77 10000 5.1 190 08:58 21.06.2019
6062 Clear 22 1008 77 10000 5.1 170 08:40 21.06.2019
6063 Clear 22 1008 77 10000 5.1 170 08:19 21.06.2019
6064 Clear 21 1008 77 10000 4.6 170 07:45 21.06.2019
6065 Clear 21 1008 77 10000 4.6 170 07:45 21.06.2019
6066 Clear 21 1008 82 10000 3.6 170 07:22 21.06.2019
6067 Clear 19 1008 82 10000 4.1 180 06:29 21.06.2019
6068 Clear 19 1008 82 10000 3.6 180 05:55 21.06.2019
6069 Clear 17 1009 88 10000 3.1 190 04:49 21.06.2019
6070 Clear 16 1009 88 10000 3.1 170 03:48 21.06.2019
6071 Clear 16 1009 82 10000 3.1 140 03:28 21.06.2019
6072 Clear 16 1009 82 10000 2.1 120 02:34 21.06.2019
6073 Clear 16 1009 87 10000 1.5 80 01:32 21.06.2019
6074 Clear 17 1009 68 10000 3.6 150 00:36 21.06.2019
6075 Clear 18 1009 72 10000 4.1 160 23:57 20.06.2019
6076 Clear 19 1009 72 10000 4.1 160 23:39 20.06.2019
6077 Clouds 19 1009 68 10000 4.6 140 23:19 20.06.2019
6078 Clouds 19 1009 68 10000 4.1 140 22:41 20.06.2019
6079 Clear 19 1009 68 10000 3.6 120 22:23 20.06.2019
6080 Clear 19 1009 68 10000 3.6 120 22:23 20.06.2019
6081 Clear 20 1009 60 10000 3.6 120 21:56 20.06.2019
6082 Clear 20 1009 60 10000 3.1 100 21:38 20.06.2019
6083 Clear 21 1009 60 10000 3.1 100 21:19 20.06.2019
6084 Clear 21 1009 60 10000 3.1 100 21:19 20.06.2019
6085 Clear 22 1009 56 10000 3.6 120 20:41 20.06.2019
6086 Clear 22 1009 49 10000 5.1 120 20:23 20.06.2019
6087 Clear 23 1009 47 10000 6.7 110 19:46 20.06.2019
6088 Clear 24 1009 47 10000 6.7 110 19:19 20.06.2019
6089 Clouds 24 1009 47 10000 4.6 110 18:58 20.06.2019
6090 Clouds 24 1010 44 10000 6.2 120 18:40 20.06.2019
6091 Clouds 24 1010 44 10000 6.2 120 18:21 20.06.2019
6092 Clear 24 1010 41 10000 5.7 0 17:47 20.06.2019
6093 Clear 25 1010 41 10000 6.2 120 17:29 20.06.2019
6094 Rain 25 1011 44 10000 4.1 120 16:44 20.06.2019
6095 Rain 25 1011 41 10000 4.6 110 16:19 20.06.2019
6096 Rain 25 1011 41 10000 3.6 120 15:56 20.06.2019
6097 Clear 24 1011 38 10000 3.6 120 15:38 20.06.2019
6098 Clear 24 1011 38 10000 3.6 120 15:18 20.06.2019
6099 Clear 25 1012 38 10000 5.1 130 14:43 20.06.2019
6100 Clear 25 1012 38 10000 4.1 150 14:21 20.06.2019
6101 Clear 26 1012 36 10000 4.6 150 13:40 20.06.2019
6102 Clear 26 1012 36 10000 5.1 120 13:19 20.06.2019
6103 Clear 25 1012 36 10000 5.7 140 12:44 20.06.2019
6104 Clear 25 1012 36 10000 5.1 130 12:23 20.06.2019
6105 Clear 25 1012 41 10000 3.6 150 11:45 20.06.2019
6106 Clear 25 1012 44 10000 4.1 170 11:24 20.06.2019
6107 Clear 24 1012 44 10000 5.1 170 10:48 20.06.2019
6108 Clear 24 1012 49 10000 4.6 160 10:25 20.06.2019
6109 Clear 23 1013 53 10000 3.1 160 09:59 20.06.2019
6110 Clear 23 1013 53 10000 3.1 160 09:40 20.06.2019
6111 Clear 22 1013 60 10000 2.1 0 09:21 20.06.2019
6112 Clear 21 1013 60 10000 3.1 180 08:45 20.06.2019
6113 Clear 21 1013 68 10000 1.5 200 08:27 20.06.2019
6114 Clear 19 1013 72 10000 2.1 180 07:53 20.06.2019
6115 Clear 19 1013 72 10000 2.6 140 07:28 20.06.2019
6116 Clear 17 1013 77 10000 2.1 170 06:27 20.06.2019
6117 Clear 15 1013 82 10000 3.1 170 04:53 20.06.2019
6118 Clear 14 1013 77 10000 2.1 180 02:29 20.06.2019
6119 Clear 15 1013 67 10000 2.1 220 00:34 20.06.2019
6120 Clear 16 1013 63 10000 2.6 220 23:49 19.06.2019
6121 Clear 16 1013 59 10000 3.6 210 23:30 19.06.2019
6122 -273 0 0 0 0 0 22:57 19.06.2019
6123 Clear 18 1013 59 10000 3.1 220 22:39 19.06.2019
6124 Clear 18 1013 56 10000 3.1 210 22:18 19.06.2019
6125 Clear 18 1013 56 10000 3.1 210 22:18 19.06.2019
6126 Clear 19 1013 56 10000 3.6 210 21:42 19.06.2019
6127 Clear 20 1013 52 10000 4.1 230 21:23 19.06.2019
6128 Clear 21 1013 52 10000 4.6 220 20:42 19.06.2019
6129 Clear 21 1013 49 10000 4.6 220 20:22 19.06.2019
6130 Clear 21 1013 49 10000 6.2 210 19:51 19.06.2019
6131 Clear 22 1013 46 10000 5.7 210 19:29 19.06.2019
6132 Clear 22 1013 46 10000 6.2 220 18:57 19.06.2019
6133 Clear 23 1013 46 10000 7.2 210 18:28 19.06.2019
6134 Clear 23 1013 46 10000 6.7 220 17:53 19.06.2019
6135 Clear 23 1013 46 10000 6.7 220 17:53 19.06.2019
6136 Clear 23 1013 44 10000 7.2 210 17:33 19.06.2019
6137 Clear 23 1013 44 10000 7.2 210 16:57 19.06.2019
6138 Clear 23 1014 43 10000 7.7 210 16:38 19.06.2019
6139 Clear 24 1014 43 10000 7.7 210 16:20 19.06.2019
6140 Clear 24 1014 44 10000 8.7 210 15:47 19.06.2019
6141 Clear 24 1014 43 10000 8.7 220 15:25 19.06.2019
6142 Clear 23 1014 46 10000 9.3 210 14:50 19.06.2019
6143 Clear 23 1014 46 10000 8.7 220 14:29 19.06.2019
6144 Clear 23 1014 46 10000 8.2 220 13:59 19.06.2019
6145 Clear 23 1014 46 10000 8.7 220 13:38 19.06.2019
6146 Clear 23 1014 46 10000 8.7 220 13:20 19.06.2019
6147 Clear 23 1014 46 10000 8.7 220 12:42 19.06.2019
6148 Clear 23 1014 46 10000 8.7 220 12:20 19.06.2019
6149 Clear 23 1014 40 10000 8.7 210 11:44 19.06.2019
6150 Clear 23 1014 40 10000 8.7 220 11:24 19.06.2019
6151 Clear 23 1014 46 10000 8.2 210 10:51 19.06.2019
6152 Clear 23 1014 56 10000 7.2 220 10:32 19.06.2019
6153 Clear 23 1014 60 10000 6.2 230 09:59 19.06.2019
6154 Clear 23 1014 60 10000 6.2 230 09:39 19.06.2019
6155 Clear 20 1014 64 10000 5.1 210 09:19 19.06.2019
6156 Clear 21 1014 64 10000 5.1 220 08:48 19.06.2019
6157 Clear 19 1014 63 10000 5.1 220 08:27 19.06.2019
6158 Clear 19 1015 68 10000 3.6 220 07:46 19.06.2019
6159 Clear 18 1015 77 10000 3.6 210 07:23 19.06.2019
6160 Clear 17 1015 82 10000 4.1 210 06:49 19.06.2019
6161 Clear 15 1015 82 10000 3.6 190 06:24 19.06.2019
6162 Clear 15 1015 82 10000 3.1 200 05:47 19.06.2019
6163 Clear 13 1015 87 10000 2.6 210 04:19 19.06.2019
6164 Clear 12 1015 93 10000 3.1 220 03:27 19.06.2019
6165 Clear 14 1015 87 10000 3.1 230 01:49 19.06.2019
6166 Clear 14 1015 82 10000 3.6 230 01:18 19.06.2019
6167 Clear 14 1015 82 10000 3.1 230 00:43 19.06.2019
6168 Clear 14 1015 82 10000 2.6 240 00:20 19.06.2019
6169 Clear 15 1015 77 10000 3.1 230 23:46 18.06.2019
6170 Clear 15 1015 77 10000 2.6 240 23:26 18.06.2019
6171 Clear 16 1015 72 10000 3.6 230 22:44 18.06.2019
6172 Clear 17 1014 68 10000 3.6 230 22:24 18.06.2019
6173 Clear 16 1014 59 10000 4.6 230 21:56 18.06.2019
6174 Clear 18 1014 60 10000 4.6 230 21:38 18.06.2019
6175 Clear 19 1014 60 10000 4.6 230 21:19 18.06.2019
6176 Clear 20 1014 56 10000 4.1 240 20:42 18.06.2019
6177 Clear 20 1014 53 10000 5.1 240 20:24 18.06.2019
6178 Clear 22 1014 44 10000 4.6 240 19:41 18.06.2019
6179 Clear 22 1014 44 10000 4.6 240 19:23 18.06.2019
6180 Clear 23 1014 44 10000 5.7 230 18:56 18.06.2019
6181 Clear 23 1014 44 10000 5.7 230 18:28 18.06.2019
6182 Clear 24 1014 41 10000 5.1 250 17:59 18.06.2019
6183 Clear 24 1014 41 10000 5.1 250 17:38 18.06.2019
6184 Clear 24 1014 44 10000 6.7 250 17:19 18.06.2019
6185 Clear 24 1014 44 10000 6.7 230 16:42 18.06.2019
6186 Clear 25 1014 44 10000 6.7 230 16:22 18.06.2019
6187 Clear 25 1014 47 10000 6.7 220 15:43 18.06.2019
6188 Clear 25 1014 41 10000 6.7 250 15:24 18.06.2019
6189 Clear 25 1014 41 10000 6.7 250 14:58 18.06.2019
6190 Clear 25 1014 41 10000 6.7 250 14:40 18.06.2019
6191 Clear 25 1014 41 10000 5.7 260 14:20 18.06.2019
6192 Clear 25 1014 36 10000 6.2 250 13:52 18.06.2019
6193 Clear 25 1014 36 10000 6.7 280 13:31 18.06.2019
6194 Clear 25 1014 41 10000 5.1 240 12:47 18.06.2019
6195 Clear 25 1014 44 10000 4.6 240 12:29 18.06.2019
6196 Clear 25 1014 38 10000 6.7 270 11:56 18.06.2019
6197 Clear 25 1014 41 10000 5.7 250 11:38 18.06.2019
6198 Clear 25 1014 41 10000 5.7 250 11:20 18.06.2019
6199 Clear 25 1014 47 10000 4.6 260 10:43 18.06.2019
6200 Clear 25 1014 47 10000 4.6 260 10:22 18.06.2019
6201 Clear 23 1014 56 10000 4.1 260 09:52 18.06.2019
6202 Clear 22 1013 56 10000 4.1 270 09:25 18.06.2019
6203 Clear 21 1013 60 10000 4.6 260 08:58 18.06.2019
6204 Clear 21 1013 60 10000 4.6 260 08:39 18.06.2019
6205 Clear 20 1013 59 10000 5.1 280 08:21 18.06.2019
6206 Clear 18 1013 63 10000 5.7 270 07:27 18.06.2019
6207 Clear 18 1013 67 10000 5.7 270 06:59 18.06.2019
6208 Clear 14 1012 82 10000 3.6 230 05:28 18.06.2019
6209 Clear 12 1012 82 10000 3.1 230 04:22 18.06.2019
6210 Clear 11 1013 81 10000 3.1 240 02:50 18.06.2019
6211 Clear 12 1012 76 10000 4.1 240 01:28 18.06.2019
6212 Clear 13 1013 62 10000 3.6 240 00:58 18.06.2019
6213 Clear 14 1013 62 10000 3.6 240 00:39 18.06.2019
6214 Clear 14 1013 62 10000 3.6 240 00:39 18.06.2019
6215 Clear 14 1013 62 10000 3.6 240 00:21 18.06.2019
6216 Clear 15 1012 59 10000 3.1 230 23:38 17.06.2019
6217 Clear 15 1012 59 10000 3.1 230 23:19 17.06.2019
6218 Clear 15 1012 51 10000 3.6 240 22:41 17.06.2019
6219 Clear 16 1012 51 10000 3.6 240 22:21 17.06.2019
6220 Clear 16 1012 45 10000 5.1 230 21:55 17.06.2019
6221 Clear 17 1012 42 10000 5.1 230 21:36 17.06.2019
6222 Clear 19 1012 42 10000 5.1 230 21:18 17.06.2019
6223 Clouds 20 1011 46 10000 5.7 220 20:36 17.06.2019
6224 Clouds 20 1011 46 10000 5.7 220 20:18 17.06.2019
6225 Clouds 21 1011 53 10000 1.5 0 19:40 17.06.2019
6226 Clouds 21 1011 53 10000 1.5 0 19:21 17.06.2019
6227 Clouds 21 1012 73 10000 1.5 0 18:55 17.06.2019
6228 Rain 22 1012 68 10000 2.6 70 18:36 17.06.2019
6229 Rain 23 1012 68 10000 2.6 70 18:18 17.06.2019
6230 Clouds 23 1012 64 10000 2.1 330 17:41 17.06.2019
6231 Clouds 23 1012 56 10000 2.6 190 17:23 17.06.2019
6232 Rain 22 1012 64 10000 2.6 210 16:43 17.06.2019
6233 Rain 22 1012 68 10000 4.6 280 16:25 17.06.2019
6234 Thunderstorm 23 1012 50 10000 8.7 220 15:55 17.06.2019
6235 Thunderstorm 23 1012 50 10000 8.7 220 15:37 17.06.2019
6236 Thunderstorm 23 1011 53 10000 4.1 270 15:18 17.06.2019
6237 Thunderstorm 23 1011 53 10000 4.1 270 15:18 17.06.2019
6238 Thunderstorm 24 1011 44 10000 4.6 220 14:42 17.06.2019
6239 Clouds 25 1012 47 10000 5.1 270 14:22 17.06.2019
6240 Clouds 25 1012 47 10000 5.1 270 13:47 17.06.2019
6241 Clouds 26 1012 47 10000 5.1 270 13:22 17.06.2019
6242 Clouds 26 1012 44 10000 5.7 260 12:48 17.06.2019
6243 Clouds 26 1012 44 10000 5.7 260 12:30 17.06.2019
6244 Clouds 26 1012 47 10000 4.6 220 11:45 17.06.2019
6245 Clouds 26 1012 47 10000 4.6 220 11:26 17.06.2019
6246 Clouds 25 1012 50 10000 3.6 210 10:57 17.06.2019
6247 Clear 25 1012 53 10000 3.6 210 10:39 17.06.2019
6248 Clear 25 1012 56 10000 2.1 210 10:21 17.06.2019
6249 Clear 23 1012 53 10000 2.6 200 09:39 17.06.2019
6250 Clear 21 1012 60 10000 3.6 190 09:21 17.06.2019
6251 Clear 22 1012 56 10000 2.1 170 08:41 17.06.2019
6252 Clear 21 1013 63 10000 2.6 200 08:23 17.06.2019
6253 Clear 20 1013 63 10000 1 0 07:40 17.06.2019
6254 Clear 19 1013 63 10000 1 0 07:21 17.06.2019
6255 Clear 18 1013 63 10000 1 0 06:34 17.06.2019
6256 Clear 15 1013 71 10000 1.5 0 05:44 17.06.2019
6257 Clear 12 1013 87 10000 2.1 290 04:39 17.06.2019
6258 Clear 12 1013 81 10000 2.1 270 03:45 17.06.2019
6259 Clear 12 1013 87 10000 2.1 290 02:58 17.06.2019
6260 Clear 13 1013 76 10000 2.1 260 02:40 17.06.2019
6261 Clear 12 1013 71 10000 1.5 260 01:43 17.06.2019
6262 Clear 13 1013 71 10000 2.6 270 01:18 17.06.2019
6263 Clear 14 1013 67 10000 2.1 270 00:41 17.06.2019
6264 Clear 15 1013 59 10000 2.6 270 00:21 17.06.2019
6265 Clear 16 1013 55 10000 3.1 270 23:41 16.06.2019
6266 Clear 16 1013 59 10000 2.6 260 23:21 16.06.2019
6267 Clear 16 1013 59 10000 2.6 260 22:55 16.06.2019
6268 Clear 17 1013 55 10000 2.6 240 22:36 16.06.2019
6269 Clear 17 1013 52 10000 4.1 250 22:18 16.06.2019
6270 Clear 19 1012 49 10000 4.1 250 21:40 16.06.2019
6271 Clear 21 1012 46 10000 3.6 260 21:22 16.06.2019
6272 Clear 22 1012 46 10000 3.6 260 20:58 16.06.2019
6273 Clear 22 1012 46 10000 3.6 260 20:37 16.06.2019
6274 Clear 22 1012 46 10000 3.6 260 20:37 16.06.2019
6275 Clear 23 1012 46 10000 4.6 260 20:18 16.06.2019
6276 Clear 23 1012 44 10000 6.2 260 19:41 16.06.2019
6277 Clear 23 1012 44 10000 6.2 260 19:22 16.06.2019
6278 Clouds 24 1012 44 10000 5.7 250 18:58 16.06.2019
6279 Clouds 24 1012 44 10000 4.6 250 18:39 16.06.2019
6280 Clouds 24 1012 47 10000 5.7 250 18:20 16.06.2019
6281 Clouds 24 1013 47 10000 5.1 210 17:46 16.06.2019
6282 Clouds 24 1013 47 10000 5.1 210 17:22 16.06.2019
6283 Clouds 24 1013 47 10000 5.1 210 17:22 16.06.2019
6284 Clouds 24 1013 47 10000 5.7 220 16:57 16.06.2019
6285 Clouds 24 1013 47 10000 5.7 210 16:57 16.06.2019
6286 Clouds 24 1013 47 10000 5.7 220 16:38 16.06.2019
6287 Clouds 24 1013 47 10000 6.2 200 16:20 16.06.2019
6288 Clouds 24 1013 47 10000 6.2 200 15:42 16.06.2019
6289 Clouds 24 1013 47 10000 6.2 200 15:24 16.06.2019
6290 Clouds 24 1014 49 10000 5.7 160 14:44 16.06.2019
6291 Clouds 23 1014 49 10000 5.7 160 14:23 16.06.2019
6292 Clouds 23 1014 49 10000 5.1 160 13:52 16.06.2019
6293 Clouds 23 1014 49 10000 5.1 160 13:28 16.06.2019
6294 Clouds 23 1014 56 10000 3.1 200 12:58 16.06.2019
6295 Clouds 23 1014 56 10000 3.1 200 12:39 16.06.2019
6296 Clouds 23 1015 60 10000 2.6 160 12:19 16.06.2019
6297 Clouds 23 1015 56 10000 4.6 200 11:46 16.06.2019
6298 Clouds 21 1015 60 10000 3.1 170 11:20 16.06.2019
6299 Clouds 21 1015 63 10000 2.6 180 10:46 16.06.2019
6300 Clouds 20 1015 63 10000 2.6 180 10:22 16.06.2019
6301 Clear 20 1015 63 10000 2.6 170 09:56 16.06.2019
6302 Clouds 20 1016 63 10000 2.6 230 09:36 16.06.2019
6303 Clear 20 1016 68 10000 2.6 170 09:18 16.06.2019
6304 Clear 18 1016 68 10000 2.6 170 08:38 16.06.2019
6305 Clear 18 1016 72 10000 2.1 180 08:18 16.06.2019
6306 Clear 17 1016 72 10000 2.1 180 07:44 16.06.2019
6307 Clear 17 1016 67 10000 1.5 0 06:59 16.06.2019
6308 Clear 15 1016 77 10000 1.5 0 06:37 16.06.2019
6309 Clear 13 1016 93 10000 0.5 0 05:47 16.06.2019
6310 Clouds 11 1016 100 10000 0.5 0 04:54 16.06.2019
6311 Clouds 11 1016 100 10000 1 0 03:57 16.06.2019
6312 Clouds 10 1016 100 10000 1 0 03:32 16.06.2019
6313 Clouds 11 1016 100 10000 0.5 60 02:31 16.06.2019
6314 Clouds 11 1016 100 10000 1 80 01:44 16.06.2019
6315 Clouds 12 1016 87 10000 1.5 0 01:26 16.06.2019
6316 Clouds 13 1016 82 10000 1 40 00:40 16.06.2019
6317 Clouds 14 1016 93 10000 1.5 30 00:21 16.06.2019
6318 Clouds 14 1016 82 10000 1.5 40 23:44 15.06.2019
6319 Clouds 15 1016 82 10000 1 40 23:25 15.06.2019
6320 Clouds 15 1016 72 10000 3.6 20 22:50 15.06.2019
6321 Clouds 16 1016 72 10000 3.6 20 22:27 15.06.2019
6322 Clear 16 1015 77 0 0.74 31.11 21:52 15.06.2019
6323 Clouds 18 1015 64 10000 3.1 360 21:30 15.06.2019
6324 Clouds 19 1015 60 10000 2.6 320 20:59 15.06.2019
6325 Clouds 20 1015 60 10000 2.6 320 20:41 15.06.2019
6326 Clouds 20 1015 60 10000 2.6 320 20:22 15.06.2019
6327 Clouds 21 1015 56 10000 3.1 310 19:42 15.06.2019
6328 Clouds 21 1016 49 10000 4.1 310 19:23 15.06.2019
6329 Clouds 21 1015 49 10000 4.6 320 18:41 15.06.2019
6330 Clouds 21 1016 49 10000 5.7 290 18:21 15.06.2019
6331 Clouds 22 1016 49 10000 6.2 290 17:43 15.06.2019
6332 Clouds 21 1016 53 10000 6.7 270 17:23 15.06.2019
6333 Clouds 22 1016 53 10000 7.7 270 16:48 15.06.2019
6334 Clouds 22 1016 56 10000 5.1 280 16:20 15.06.2019
6335 Clouds 21 1016 60 10000 4.1 290 15:44 15.06.2019
6336 Clouds 22 1016 60 10000 4.6 300 15:24 15.06.2019
6337 Clouds 22 1016 60 10000 4.1 300 14:44 15.06.2019
6338 Clouds 21 1016 64 10000 3.6 260 14:19 15.06.2019
6339 Clouds 21 1016 64 10000 3.6 260 13:58 15.06.2019
6340 Clouds 21 1016 64 10000 3.6 260 13:40 15.06.2019
6341 Clouds 21 1016 64 10000 3.6 290 13:19 15.06.2019
6342 Clouds 20 1017 63 10000 4.1 280 12:50 15.06.2019
6343 Clouds 20 1017 63 10000 4.1 280 12:26 15.06.2019
6344 Clouds 19 1017 72 10000 3.6 280 11:52 15.06.2019
6345 Clouds 19 1017 72 10000 3.6 280 11:32 15.06.2019
6346 Clouds 18 1017 77 10000 3.6 270 10:49 15.06.2019
6347 Clouds 17 1017 77 10000 3.6 270 10:27 15.06.2019
6348 Clouds 17 1016 77 10000 4.6 280 09:59 15.06.2019
6349 Clouds 16 1016 77 10000 4.1 270 09:39 15.06.2019
6350 Clouds 15 1016 82 10000 4.6 280 09:20 15.06.2019
6351 Clouds 15 1016 82 10000 4.6 270 08:44 15.06.2019
6352 Clouds 14 1016 87 10000 6.7 290 08:25 15.06.2019
6353 Clouds 14 1016 87 10000 6.7 290 07:41 15.06.2019
6354 Clouds 13 1016 87 10000 5.1 290 07:21 15.06.2019
6355 Clouds 13 1016 87 10000 5.1 280 06:38 15.06.2019
6356 Clouds 13 1016 87 10000 5.7 270 05:48 15.06.2019
6357 Clouds 13 1016 87 10000 4.6 270 05:20 15.06.2019
6358 Clouds 13 1016 87 10000 5.7 280 04:34 15.06.2019
6359 Clouds 13 1016 87 10000 6.7 270 03:38 15.06.2019
6360 Clouds 13 1016 82 10000 5.7 260 02:48 15.06.2019
6361 Clouds 13 1016 87 10000 5.1 250 01:59 15.06.2019
6362 Clouds 14 1016 87 10000 5.1 250 01:40 15.06.2019
6363 Clouds 14 1016 93 10000 3.6 250 00:44 15.06.2019
6364 Clouds 14 1016 93 10000 3.6 250 00:44 15.06.2019
6365 Clouds 14 1016 87 10000 4.1 260 00:26 15.06.2019
6366 Clouds 15 1016 87 10000 6.7 270 23:52 14.06.2019
6367 Clouds 15 1016 93 10000 5.1 250 23:25 14.06.2019
6368 Clouds 15 1016 93 10000 3.1 230 22:43 14.06.2019
6369 Clouds 15 1016 93 10000 3.1 230 22:43 14.06.2019
6370 Clouds 15 1016 93 10000 3.1 230 22:23 14.06.2019
6371 Clouds 15 1016 93 10000 3.1 230 22:23 14.06.2019
6372 Clouds 15 1016 93 10000 3.1 230 22:23 14.06.2019
6373 Clouds 15 1016 93 10000 3.1 230 21:57 14.06.2019
6374 Clouds 15 1016 93 10000 3.1 230 21:38 14.06.2019
6375 Clouds 15 1016 93 10000 3.1 230 21:20 14.06.2019
6376 Drizzle 15 1015 93 8000 2.6 200 20:41 14.06.2019
6377 Drizzle 15 1015 93 2700 2.1 230 20:18 14.06.2019
6378 Drizzle 15 1015 93 2700 2.1 230 19:44 14.06.2019
6379 Drizzle 15 1015 93 2700 2.1 230 19:23 14.06.2019
6380 Drizzle 15 1016 100 2700 2.1 200 18:58 14.06.2019
6381 Drizzle 15 1016 100 2700 2.1 200 18:40 14.06.2019
6382 Drizzle 16 1016 87 4500 2.1 200 18:21 14.06.2019
6383 Clouds 15 1016 93 6000 2.6 120 17:46 14.06.2019
6384 Clouds 15 1016 93 6000 2.6 120 17:27 14.06.2019
6385 Drizzle 15 1016 93 4000 4.1 130 16:55 14.06.2019
6386 Drizzle 15 1016 93 4000 4.1 130 16:37 14.06.2019
6387 Clouds 15 1016 87 7000 4.1 120 16:18 14.06.2019
6388 Clouds 15 1016 87 5000 4.6 120 15:39 14.06.2019
6389 Drizzle 15 1016 93 4000 5.1 140 15:21 14.06.2019
6390 Mist 16 1017 87 4500 4.1 120 14:52 14.06.2019
6391 Mist 16 1017 87 4500 4.1 120 14:32 14.06.2019
6392 Mist 16 1017 87 4500 4.1 120 14:32 14.06.2019
6393 Mist 16 1016 93 4500 5.1 130 13:55 14.06.2019
6394 Mist 16 1016 93 4500 5.1 130 13:36 14.06.2019
6395 Clouds 16 1017 93 9000 5.1 150 13:18 14.06.2019
6396 Clouds 16 1017 93 9000 5.1 150 13:18 14.06.2019
6397 Clouds 16 1016 93 10000 4.6 140 12:41 14.06.2019
6398 Clouds 16 1016 100 9000 5.1 140 12:22 14.06.2019
6399 Clouds 17 1016 88 7000 3.6 130 11:46 14.06.2019
6400 Clouds 16 1016 88 7000 3.6 130 11:24 14.06.2019
6401 Drizzle 17 1015 88 10000 2.6 70 10:50 14.06.2019
6402 Drizzle 17 1015 88 10000 2.6 70 10:24 14.06.2019
6403 Clouds 17 1015 88 9000 2.6 70 09:58 14.06.2019
6404 Clouds 17 1015 82 10000 2.1 60 09:39 14.06.2019
6405 Clouds 17 1015 82 10000 2.1 60 09:39 14.06.2019
6406 Clouds 17 1015 82 10000 2.1 60 09:20 14.06.2019
6407 Clouds 16 1014 87 10000 3.1 30 08:41 14.06.2019
6408 Clouds 16 1014 87 10000 2.1 40 08:18 14.06.2019
6409 Clouds 16 1015 93 10000 1 0 07:46 14.06.2019
6410 Clouds 15 1015 93 10000 1 0 07:19 14.06.2019
6411 Clouds 15 1015 87 10000 1 0 06:27 14.06.2019
6412 Clouds 15 1015 93 10000 1 0 05:54 14.06.2019
6413 Clouds 14 1015 93 10000 1 0 04:57 14.06.2019
6414 Clouds 14 1015 93 10000 1 0 04:36 14.06.2019
6415 Clouds 14 1015 93 10000 2.1 80 03:49 14.06.2019
6416 Clouds 14 1015 93 10000 2.1 80 03:24 14.06.2019
6417 Clear 14 1015 93 10000 2.1 50 02:45 14.06.2019
6418 Clear 14 1015 87 10000 2.1 60 01:56 14.06.2019
6419 Clouds 15 1015 93 10000 4.1 70 00:46 14.06.2019
6420 Clouds 15 1015 87 10000 3.1 90 00:22 14.06.2019
6421 Clouds 15 1016 82 10000 3.1 70 23:52 13.06.2019
6422 Clouds 15 1016 82 10000 3.1 70 23:27 13.06.2019
6423 Clouds 15 1016 82 10000 3.6 90 22:58 13.06.2019
6424 Clouds 15 1015 82 10000 4.6 80 22:38 13.06.2019
6425 Clouds 15 1015 82 10000 5.7 70 22:19 13.06.2019
6426 Clouds 15 1016 77 10000 6.2 80 21:38 13.06.2019
6427 Clouds 15 1016 77 10000 6.2 80 21:38 13.06.2019
6428 Clouds 15 1016 77 10000 6.7 90 21:19 13.06.2019
6429 Clouds 15 1016 82 10000 4.6 70 20:45 13.06.2019
6430 Clouds 15 1016 82 10000 4.6 70 20:45 13.06.2019
6431 Clouds 15 1016 82 10000 4.6 70 20:21 13.06.2019
6432 Clouds 15 1016 82 10000 4.6 70 19:56 13.06.2019
6433 Rain 15 1016 82 10000 6.7 70 19:37 13.06.2019
6434 Rain 15 1017 72 10000 6.7 80 19:18 13.06.2019
6435 Rain 16 1018 67 10000 6.2 100 18:45 13.06.2019
6436 Rain 16 1018 67 10000 6.2 100 18:45 13.06.2019
6437 Clouds 17 1017 67 10000 7.7 90 18:27 13.06.2019
6438 Clouds 17 1017 67 10000 7.7 90 17:58 13.06.2019
6439 Clouds 17 1018 72 10000 8.2 100 17:39 13.06.2019
6440 Clouds 17 1018 72 10000 9.3 90 17:19 13.06.2019
6441 Clouds 17 1018 77 10000 9.3 90 16:45 13.06.2019
6442 Clouds 16 1018 87 10000 7.2 90 16:21 13.06.2019
6443 Clouds 16 1019 82 10000 7.7 90 15:43 13.06.2019
6444 Clouds 16 1018 74 0 1.34 149 15:25 13.06.2019
6445 Rain 15 1019 82 10000 9.3 80 14:57 13.06.2019
6446 Clouds 15 1020 72 10000 6.7 110 14:38 13.06.2019
6447 Rain 15 1020 67 10000 9.3 90 14:20 13.06.2019
6448 Rain 16 1020 67 10000 9.3 90 13:40 13.06.2019
6449 Clouds 16 1020 67 10000 7.2 90 13:21 13.06.2019
6450 Clouds 16 1020 67 10000 7.2 90 13:21 13.06.2019
6451 Clouds 16 1020 63 10000 6.7 90 12:42 13.06.2019
6452 Clouds 16 1020 63 10000 6.7 90 12:22 13.06.2019
6453 Clouds 16 1020 63 10000 6.7 90 11:57 13.06.2019
6454 Clouds 16 1020 63 10000 7.2 70 11:38 13.06.2019
6455 Clouds 15 1020 62 10000 8.2 70 11:19 13.06.2019
6456 Clouds 15 1021 67 10000 7.7 90 10:43 13.06.2019
6457 Clouds 15 1021 67 10000 7.7 90 10:24 13.06.2019
6458 Clouds 14 1021 62 10000 6.7 90 09:44 13.06.2019
6459 Clouds 14 1020 58 10000 8.2 80 09:23 13.06.2019
6460 Clouds 14 1020 58 10000 8.2 80 09:23 13.06.2019
6461 Clouds 14 1021 62 10000 6.7 90 08:48 13.06.2019
6462 Clouds 14 1021 62 10000 6.7 90 08:28 13.06.2019
6463 Clouds 14 1021 62 10000 7.2 80 07:53 13.06.2019
6464 Clouds 13 1021 62 10000 7.2 80 07:25 13.06.2019
6465 Clear 13 1022 62 10000 6.7 90 06:51 13.06.2019
6466 Clear 13 1022 62 10000 6.7 90 06:24 13.06.2019
6467 Clear 13 1022 62 10000 6.7 90 05:55 13.06.2019
6468 Clear 13 1022 62 10000 5.7 70 05:37 13.06.2019
6469 Clear 12 1023 66 10000 5.7 80 04:58 13.06.2019
6470 Clear 11 1024 58 10000 5.7 70 02:42 13.06.2019
6471 Clear 12 1024 58 10000 5.7 90 01:25 13.06.2019
6472 Clear 12 1024 50 10000 5.7 80 00:27 13.06.2019
6473 Clouds 13 1024 31 0 1.79 79 23:24 12.06.2019
6474 Clear 13 1025 54 10000 6.7 90 22:45 12.06.2019
6475 Clear 13 1025 54 10000 6.7 90 22:27 12.06.2019
6476 Clear 14 1024 50 10000 5.1 90 21:57 12.06.2019
6477 Clear 14 1024 50 10000 5.1 90 21:38 12.06.2019
6478 Clear 14 1024 47 10000 6.2 90 21:19 12.06.2019
6479 Clear 14 1024 44 10000 5.1 90 20:40 12.06.2019
6480 Clear 15 1024 44 10000 5.1 90 20:21 12.06.2019
6481 Clear 15 1024 41 10000 6.7 90 19:42 12.06.2019
6482 Clear 15 1024 44 10000 6.7 100 19:23 12.06.2019
6483 Clear 15 1024 44 10000 6.7 100 18:58 12.06.2019
6484 Clear 16 1024 42 10000 7.2 100 18:39 12.06.2019
6485 Clear 17 1024 45 10000 6.7 100 18:20 12.06.2019
6486 Clear 17 1024 45 10000 6.2 90 17:44 12.06.2019
6487 Clear 17 1024 45 10000 5.1 100 17:21 12.06.2019
6488 Clear 17 1025 42 10000 6.2 110 16:42 12.06.2019
6489 Clear 17 1025 42 10000 7.7 130 16:24 12.06.2019
6490 Clear 18 1025 45 10000 7.7 120 15:56 12.06.2019
6491 Clear 18 1025 45 10000 7.7 120 15:32 12.06.2019
6492 Clear 19 1025 37 10000 4.6 80 14:50 12.06.2019
6493 Clear 19 1025 37 10000 4.6 80 14:30 12.06.2019
6494 Clear 19 1025 42 10000 5.1 50 13:55 12.06.2019
6495 Clear 19 1025 42 10000 5.1 50 13:37 12.06.2019
6496 Clear 19 1025 42 10000 5.1 60 13:18 12.06.2019
6497 Clear 19 1025 45 10000 5.1 60 12:40 12.06.2019
6498 Clear 18 1025 48 10000 4.1 70 12:20 12.06.2019
6499 Clear 18 1025 48 10000 4.1 50 11:48 12.06.2019
6500 Clear 18 1025 48 10000 4.1 50 11:29 12.06.2019
6501 Clear 17 1025 48 10000 6.2 50 10:55 12.06.2019
6502 Clear 17 1025 51 10000 4.6 50 10:36 12.06.2019
6503 Clouds 16 1025 51 10000 6.7 40 09:59 12.06.2019
6504 Clouds 16 1024 54 10000 5.7 50 09:41 12.06.2019
6505 Clouds 15 1024 58 10000 5.7 50 09:19 12.06.2019
6506 Clouds 14 1024 58 10000 6.2 50 08:28 12.06.2019
6507 Clouds 14 1024 58 10000 6.2 50 07:56 12.06.2019
6508 Clear 13 1024 58 10000 5.1 30 07:18 12.06.2019
6509 Clear 12 1024 62 10000 4.6 30 06:38 12.06.2019
6510 Clear 12 1024 54 10000 5.7 20 05:25 12.06.2019
6511 Clear 14 1023 51 10000 6.7 30 02:22 12.06.2019
6512 Clear 15 1022 55 10000 6.2 20 00:46 12.06.2019
6513 Clear 15 1022 51 10000 6.7 20 23:57 11.06.2019
6514 Clear 16 1022 59 10000 6.2 20 23:39 11.06.2019
6515 Clear 16 1022 63 10000 4.6 20 23:20 11.06.2019
6516 Clear 16 1021 67 10000 2.1 360 22:41 11.06.2019
6517 Clear 16 1021 63 10000 2.6 360 22:18 11.06.2019
6518 Clear 17 1021 63 10000 0.5 0 21:41 11.06.2019
6519 Clear 17 1021 59 10000 0.5 0 21:23 11.06.2019
6520 Clear 18 1021 59 10000 0.5 0 20:58 11.06.2019
6521 Clear 18 1021 59 10000 0.5 0 20:58 11.06.2019
6522 Clear 19 1021 42 10000 1.5 130 20:39 11.06.2019
6523 Clear 19 1021 42 10000 1.5 130 20:21 11.06.2019
6524 Clear 20 1021 42 10000 2.1 170 19:51 11.06.2019
6525 Clear 20 1021 42 10000 2.1 170 19:29 11.06.2019
6526 Clear 20 1021 37 10000 3.6 160 18:49 11.06.2019
6527 Clear 21 1021 37 10000 5.1 170 18:20 11.06.2019
6528 Clear 21 1021 37 10000 5.1 170 18:20 11.06.2019
6529 Clear 22 1021 40 10000 4.6 140 17:41 11.06.2019
6530 Clear 22 1021 40 10000 4.6 150 17:20 11.06.2019
6531 Clear 22 1022 40 10000 5.1 140 16:43 11.06.2019
6532 Clear 22 1022 40 10000 6.2 160 16:24 11.06.2019
6533 Clear 22 1022 40 10000 6.2 160 15:44 11.06.2019
6534 Clear 22 1022 40 10000 6.2 160 15:25 11.06.2019
6535 Clear 22 1022 38 10000 4.6 160 14:58 11.06.2019
6536 Clear 23 1022 35 10000 2.1 0 14:39 11.06.2019
6537 Clear 23 1022 43 10000 1.5 0 14:19 11.06.2019
6538 Clear 23 1022 43 10000 1.5 0 13:43 11.06.2019
6539 Clear 22 1022 43 10000 3.1 140 13:21 11.06.2019
6540 Clear 22 1022 43 10000 3.6 160 12:42 11.06.2019
6541 Clear 22 1022 43 10000 4.6 180 12:22 11.06.2019
6542 Clear 21 1022 40 10000 2.1 270 11:56 11.06.2019
6543 Clear 21 1022 40 10000 2.1 270 11:33 11.06.2019
6544 Clouds 21 1022 42 10000 2.6 230 10:51 11.06.2019
6545 Clouds 20 1022 48 10000 2.1 0 10:27 11.06.2019
6546 Clouds 20 1022 48 10000 2.1 0 10:27 11.06.2019
6547 Clear 20 1022 52 10000 2.6 220 09:51 11.06.2019
6548 Clear 19 1022 52 10000 2.6 220 09:26 11.06.2019
6549 Clear 19 1022 59 10000 3.1 180 08:59 11.06.2019
6550 Clear 18 1022 63 10000 2.1 200 08:40 11.06.2019
6551 Clear 17 1022 67 10000 1 0 08:20 11.06.2019
6552 Clear 16 1022 67 10000 1 0 07:34 11.06.2019
6553 Clear 16 1022 67 10000 1.5 0 06:53 11.06.2019
6554 Clear 11 1022 93 10000 3.1 200 05:21 11.06.2019
6555 Clear 9 1022 93 10000 2.6 200 04:38 11.06.2019
6556 Clear 10 1021 81 10000 3.1 230 02:26 11.06.2019
6557 Clear 11 1021 76 10000 2.6 230 00:52 11.06.2019
6558 Clear 12 1021 71 10000 3.1 230 00:26 11.06.2019
6559 Clear 13 1020 62 10000 3.6 230 23:45 10.06.2019
6560 Clear 14 1020 58 10000 3.1 230 23:21 10.06.2019
6561 Clear 14 1020 58 10000 4.6 240 22:45 10.06.2019
6562 Clear 15 1020 51 10000 5.1 230 22:26 10.06.2019
6563 Clouds 15 1020 56 0 2.56 234.499 21:56 10.06.2019
6564 Clear 16 1020 48 10000 5.7 230 21:38 10.06.2019
6565 Clear 16 1020 48 10000 5.1 250 21:19 10.06.2019
6566 Clear 17 1020 45 10000 6.2 240 20:41 10.06.2019
6567 Clear 17 1020 45 10000 6.2 230 20:21 10.06.2019
6568 Clear 18 1020 45 10000 6.2 230 19:44 10.06.2019
6569 Clear 18 1020 42 10000 7.2 230 19:22 10.06.2019
6570 Clear 18 1020 42 10000 7.2 230 18:56 10.06.2019
6571 Clear 18 1020 42 10000 8.7 240 18:38 10.06.2019
6572 Clear 19 1020 42 10000 8.2 240 18:19 10.06.2019
6573 Clear 19 1020 45 10000 8.2 220 17:43 10.06.2019
6574 Clear 19 1020 48 10000 10.3 210 17:24 10.06.2019
6575 Clear 20 1020 45 10000 9.3 220 16:49 10.06.2019
6576 Clear 20 1020 45 10000 9.3 220 16:30 10.06.2019
6577 Clouds 20 1019 45 10000 9.8 220 15:57 10.06.2019
6578 Clouds 20 1020 48 10000 9.3 200 15:38 10.06.2019
6579 Clouds 20 1020 48 10000 10.8 200 15:20 10.06.2019
6580 Clouds 20 1020 49 10000 10.3 210 14:41 10.06.2019
6581 Clouds 20 1020 49 10000 10.3 210 14:23 10.06.2019
6582 Clouds 20 1020 48 10000 9.8 210 13:46 10.06.2019
6583 Clouds 20 1020 48 10000 9.8 210 13:26 10.06.2019
6584 Clear 20 1020 42 10000 10.8 220 12:53 10.06.2019
6585 Clear 20 1020 42 10000 10.8 220 12:30 10.06.2019
6586 Clouds 19 1020 45 10000 9.3 220 11:54 10.06.2019
6587 Clear 19 1019 45 10000 10.8 220 11:30 10.06.2019
6588 Clouds 19 1019 48 10000 10.8 210 10:59 10.06.2019
6589 Clouds 19 1019 48 10000 8.7 220 10:40 10.06.2019
6590 Clouds 18 1019 51 10000 8.2 220 10:18 10.06.2019
6591 Clouds 18 1019 55 10000 8.7 230 09:51 10.06.2019
6592 Clouds 18 1019 55 10000 8.7 230 09:29 10.06.2019
6593 Clouds 18 1019 55 10000 8.7 230 09:29 10.06.2019
6594 Clouds 16 1019 62 10000 6.7 240 08:48 10.06.2019
6595 Clouds 16 1019 62 10000 6.7 240 08:26 10.06.2019
6596 Clouds 15 1019 67 10000 6.7 240 07:41 10.06.2019
6597 Clouds 13 1019 87 10000 6.2 200 04:43 10.06.2019
6598 Clear 13 1019 87 10000 6.2 200 02:35 10.06.2019
6599 Clear 13 1020 87 10000 6.2 200 01:50 10.06.2019
6600 Clear 13 1020 82 10000 6.7 200 01:19 10.06.2019
6601 Clear 13 1020 82 10000 5.7 210 00:37 10.06.2019
6602 Clear 13 1020 76 10000 5.7 200 23:46 09.06.2019
6603 Clear 14 1020 76 10000 5.7 200 23:22 09.06.2019
6604 Clear 14 1020 72 10000 6.2 200 22:47 09.06.2019
6605 Clear 15 1020 67 10000 6.7 210 22:26 09.06.2019
6606 Clear 15 1019 59 10000 7.2 210 21:48 09.06.2019
6607 Clear 16 1019 59 10000 7.2 210 21:29 09.06.2019
6608 Clear 16 1019 48 10000 7.7 210 20:59 09.06.2019
6609 Clear 17 1020 48 10000 8.2 210 20:41 09.06.2019
6610 Rain 17 1020 48 10000 7.7 210 20:21 09.06.2019
6611 Rain 17 1020 48 10000 8.2 210 20:21 09.06.2019
6612 Rain 18 1020 48 10000 7.7 210 19:43 09.06.2019
6613 Rain 18 1020 48 10000 7.7 210 19:43 09.06.2019
6614 Clear 18 1020 45 10000 9.3 210 19:18 09.06.2019
6615 Clear 19 1020 45 10000 9.3 210 18:43 09.06.2019
6616 Clear 20 1020 42 10000 9.3 210 18:25 09.06.2019
6617 Clear 20 1020 42 10000 9.3 210 17:53 09.06.2019
6618 Clear 20 1020 40 10000 8.2 240 17:30 09.06.2019
6619 Clear 20 1020 40 10000 8.2 240 16:58 09.06.2019
6620 Clear 21 1019 40 10000 8.2 230 16:39 09.06.2019
6621 Clear 21 1019 40 10000 9.3 230 16:20 09.06.2019
6622 Clear 21 1019 43 10000 9.3 240 15:50 09.06.2019
6623 Clear 21 1019 43 10000 9.3 240 15:29 09.06.2019
6624 Clouds 22 1019 40 10000 8.7 230 14:54 09.06.2019
6625 Clouds 22 1019 40 10000 8.7 230 14:34 09.06.2019
6626 Clouds 22 1019 49 10000 9.8 220 13:57 09.06.2019
6627 Clouds 22 1019 49 10000 9.8 220 13:39 09.06.2019
6628 Clouds 22 1019 46 10000 7.7 240 12:55 09.06.2019
6629 Clouds 22 1019 46 10000 7.7 240 12:34 09.06.2019
6630 Clouds 22 1018 53 10000 7.7 230 11:51 09.06.2019
6631 Clouds 22 1018 53 10000 7.7 230 11:30 09.06.2019
6632 Clouds 21 1018 64 10000 4.6 240 10:58 09.06.2019
6633 Clouds 21 1018 56 10000 7.2 230 10:58 09.06.2019
6634 Clouds 22 1018 64 10000 4.6 240 10:38 09.06.2019
6635 Clouds 21 1017 64 10000 5.7 240 10:19 09.06.2019
6636 Clouds 21 1017 64 10000 5.7 240 10:19 09.06.2019
6637 Clouds 20 1017 68 10000 5.7 230 09:38 09.06.2019
6638 Clouds 19 1017 72 10000 3.6 230 09:19 09.06.2019
6639 Clouds 19 1017 72 10000 3.6 230 09:19 09.06.2019
6640 Clouds 19 1017 77 10000 4.6 240 08:44 09.06.2019
6641 Clouds 19 1016 88 10000 3.1 240 07:52 09.06.2019
6642 Rain 18 1016 93 10000 4.1 210 06:44 09.06.2019
6643 Clouds 18 1016 93 10000 5.1 210 05:55 09.06.2019
6644 Thunderstorm 18 1015 82 10000 2.6 140 02:59 09.06.2019
6645 Clouds 19 1016 82 10000 4.6 140 01:37 09.06.2019
6646 Clear 19 1015 82 10000 2.6 90 01:19 09.06.2019
6647 Clear 19 1015 77 10000 4.6 140 00:29 09.06.2019
6648 Clear 19 1016 77 10000 4.6 120 23:41 08.06.2019
6649 Clear 19 1016 77 10000 4.6 120 23:22 08.06.2019
6650 Clear 20 1016 68 10000 3.1 170 22:55 08.06.2019
6651 Clear 20 1016 68 10000 2.6 160 22:36 08.06.2019
6652 Clear 20 1014 77 0 2.12 157.363 22:18 08.06.2019
6653 Clear 22 1016 69 10000 3.6 160 21:40 08.06.2019
6654 Clear 22 1016 64 10000 3.6 120 21:21 08.06.2019
6655 Clear 23 1016 61 10000 5.7 130 20:45 08.06.2019
6656 Clear 23 1016 61 10000 5.7 130 20:25 08.06.2019
6657 Clear 23 1016 61 10000 5.7 130 20:25 08.06.2019
6658 Clear 25 1016 54 10000 5.7 150 19:55 08.06.2019
6659 Clear 25 1016 54 10000 5.7 150 19:36 08.06.2019
6660 Clouds 25 1015 54 10000 4.6 170 19:18 08.06.2019
6661 Clouds 25 1016 57 10000 7.2 150 18:40 08.06.2019
6662 Thunderstorm 26 1016 51 10000 4.1 180 18:20 08.06.2019
6663 Clouds 27 1016 51 10000 5.7 160 17:43 08.06.2019
6664 Clouds 27 1016 51 10000 6.7 200 17:22 08.06.2019
6665 Clouds 27 1016 48 10000 5.7 160 16:48 08.06.2019
6666 Clouds 27 1016 48 10000 5.7 160 16:29 08.06.2019
6667 Clouds 27 1017 51 10000 6.7 130 15:51 08.06.2019
6668 Clouds 27 1017 51 10000 6.7 130 15:33 08.06.2019
6669 Clouds 27 1017 51 10000 6.7 130 15:33 08.06.2019
6670 Clouds 27 1017 51 10000 6.7 130 15:33 08.06.2019
6671 Clouds 27 1017 47 10000 6.2 130 14:48 08.06.2019
6672 Clouds 27 1017 47 10000 6.2 130 14:29 08.06.2019
6673 Clouds 28 1017 48 10000 5.7 140 13:45 08.06.2019
6674 Clouds 28 1018 48 10000 4.6 150 12:53 08.06.2019
6675 Clouds 28 1018 48 10000 4.6 150 12:33 08.06.2019
6676 Clouds 27 1018 47 10000 4.6 150 11:44 08.06.2019
6677 Clouds 27 1018 47 10000 4.6 150 11:26 08.06.2019
6678 Clear 27 1018 50 10000 5.1 140 10:47 08.06.2019
6679 Clear 26 1018 50 10000 5.1 140 10:24 08.06.2019
6680 Clear 26 1018 47 10000 3.1 140 09:54 08.06.2019
6681 Clear 25 1018 50 10000 2.6 160 09:29 08.06.2019
6682 Clear 23 1018 64 10000 2.6 180 08:40 08.06.2019
6683 Clear 23 1018 64 10000 2.6 180 08:19 08.06.2019
6684 Clear 21 1018 73 10000 2.6 120 06:51 08.06.2019
6685 Clear 20 1017 72 10000 3.1 110 06:32 08.06.2019
6686 Clear 17 1018 77 10000 1.5 70 03:35 08.06.2019
6687 Clear 18 1018 72 10000 1.5 100 01:59 08.06.2019
6688 Clear 19 1018 72 10000 2.1 70 00:29 08.06.2019
6689 Clear 20 1018 72 10000 2.1 100 23:52 07.06.2019
6690 Clear 20 1018 72 10000 5.1 130 23:21 07.06.2019
6691 Clear 20 1018 68 10000 6.7 140 22:50 07.06.2019
6692 Clear 20 1018 68 10000